ECMWFFLT2_sfc_thetae_000.txt.gz
Theta_e
306 308 308 308 308 297 300 302 297 300 305 303 298 302 301 301 295 292 299 302 300 305 307 314 320 320 321 323 324 323 323 324 324 325 327 330 336 338 339 340 343 345 348 350 351 350 350 351 350 351 352 352 351 349 347 344 342 341 341 342 339 339 336
306 310 309 309 309 305 301 298 299 304 308 305 299 292 295 293 290 291 297 297 297 302 298 312 318 318 320 321 322 323 323 324 323 325 327 329 333 337 339 341 344 347 348 350 351 350 350 350 351 350 351 352 351 349 347 344 342 340 340 341 339 339 336
308 309 308 306 309 309 304 303 306 302 296 297 299 296 291 291 290 290 293 298 298 299 300 310 314 316 317 320 321 322 322 323 324 325 327 329 333 335 336 339 342 346 348 349 350 350 350 351 351 351 351 352 351 349 347 344 342 342 341 342 340 340 338
307 310 304 298 302 307 315 307 304 306 301 298 295 298 294 294 289 291 289 296 292 303 304 312 315 317 318 320 320 321 323 324 325 325 327 329 331 333 335 338 341 345 348 350 350 349 349 349 350 350 351 351 349 347 346 344 343 342 341 341 341 339 338
306 300 302 300 301 300 301 302 300 302 306 302 302 303 297 294 289 286 288 290 293 300 309 315 317 318 319 320 320 322 323 325 326 326 327 329 331 333 334 337 341 344 347 349 350 350 350 350 349 350 350 349 348 347 345 343 341 340 340 341 341 340 339
299 299 304 306 305 305 300 301 299 299 296 298 294 291 299 299 292 287 289 288 292 303 317 318 317 319 320 321 322 321 323 325 326 326 327 329 330 332 334 336 340 343 346 348 349 349 348 348 347 348 349 349 347 345 344 343 342 340 340 340 340 341 339
299 303 307 310 308 307 305 305 301 303 298 297 295 289 292 299 298 299 294 291 294 305 313 316 317 316 318 319 321 322 323 324 325 326 327 329 331 332 334 335 339 342 344 346 347 346 345 346 346 347 348 347 346 345 343 342 341 340 340 341 341 342 340
304 306 307 309 308 308 303 304 303 302 300 300 295 293 294 295 298 294 295 293 292 304 313 315 314 315 316 318 321 321 321 323 324 325 326 328 329 331 334 335 337 340 343 344 345 345 344 345 345 346 347 346 345 344 343 342 340 340 340 341 341 341 340
296 299 303 303 306 306 301 298 303 303 302 303 300 300 302 299 296 295 291 288 294 305 317 312 314 316 316 316 318 320 318 320 323 325 327 329 330 331 332 334 335 338 341 342 343 345 344 345 346 345 345 344 343 343 342 341 341 341 341 342 341 342 341
288 289 290 292 294 298 302 305 303 304 303 303 301 297 298 292 295 298 293 291 294 304 313 312 312 314 314 314 314 318 320 321 323 327 328 329 331 331 331 333 334 336 339 342 343 344 344 345 345 344 344 343 342 342 342 342 341 340 341 342 342 342 341
292 295 295 300 303 301 300 300 303 302 303 304 302 298 294 294 291 298 292 299 301 307 310 308 309 312 313 311 313 318 320 323 327 329 329 330 332 332 332 333 334 336 338 341 343 344 344 344 345 343 343 342 341 341 341 342 341 340 341 342 343 341 341
301 301 302 305 306 302 303 301 302 302 302 302 301 297 296 297 296 291 293 300 305 306 309 308 308 310 311 311 314 319 320 322 327 329 330 338 333 333 333 333 334 335 338 341 343 343 343 343 344 343 342 342 341 341 340 341 341 340 341 342 342 341 340
303 304 305 307 305 304 303 304 303 302 302 301 300 301 301 301 298 296 298 301 306 308 310 310 310 312 312 312 318 322 322 322 322 324 328 332 332 332 332 332 334 335 337 339 342 343 343 343 343 342 341 340 340 340 341 340 340 340 341 342 342 341 340
303 303 305 306 304 303 304 304 304 304 303 301 302 302 303 303 302 304 303 303 307 310 310 311 312 313 314 315 318 319 319 322 323 324 323 330 333 333 332 331 333 335 336 338 340 342 342 342 342 342 340 339 339 338 339 339 339 340 340 341 341 341 339
302 303 305 305 303 303 303 305 305 305 305 304 304 304 304 306 304 305 304 305 306 311 313 313 312 311 313 315 315 318 319 322 325 324 324 326 333 333 333 331 331 333 335 336 339 340 341 341 341 342 341 339 339 338 338 338 338 339 339 339 341 340 338
299 304 303 303 303 303 303 303 304 304 303 302 304 303 303 306 304 306 304 303 304 309 313 313 313 312 314 314 314 315 316 320 323 323 323 323 324 328 333 335 334 332 332 332 334 338 340 341 341 341 341 339 338 337 337 337 338 339 339 339 339 339 339
297 303 303 303 303 301 299 302 303 305 306 307 309 312 312 312 307 305 302 303 309 311 314 312 311 311 313 314 315 315 315 317 319 319 319 321 325 327 327 333 335 334 334 334 334 337 340 341 340 341 341 339 337 337 337 338 338 339 338 339 338 338 338
295 301 302 302 297 293 295 305 311 309 307 307 306 306 309 313 312 305 306 308 311 312 313 312 311 311 313 315 316 320 320 320 321 322 323 325 325 329 332 333 336 336 336 336 336 337 339 341 342 342 341 339 339 338 338 338 338 338 338 338 337 338 337
296 301 301 297 291 293 306 314 310 311 311 311 308 309 310 311 312 312 310 310 311 313 314 314 314 314 317 319 318 319 320 320 320 320 321 320 320 324 330 333 335 336 337 337 338 338 339 340 341 342 341 340 339 338 338 338 338 338 337 337 336 334 334
297 295 294 289 292 302 312 312 313 317 311 309 309 307 309 311 310 311 310 310 311 312 313 314 315 316 317 318 318 318 319 320 320 321 321 321 322 322 323 330 334 336 337 338 338 339 342 342 341 341 341 341 339 337 338 336 336 336 335 333 331 330 331
293 294 292 293 302 304 304 307 310 307 307 306 304 298 306 311 313 310 308 310 314 314 314 315 316 316 317 315 317 319 320 323 324 324 324 325 325 324 325 324 324 335 338 339 340 341 341 342 342 341 341 340 338 335 331 333 333 332 332 331 331 332 333
300 294 291 293 293 292 299 306 313 311 311 310 308 303 303 310 313 316 313 311 312 313 314 314 314 316 312 309 314 316 320 325 325 323 324 323 324 326 332 332 331 330 336 338 339 339 339 338 337 338 337 334 333 331 331 331 329 329 331 331 332 331 330
299 294 288 291 289 293 301 307 310 311 310 311 308 302 297 307 312 316 314 312 312 313 313 312 313 310 306 306 311 314 321 323 323 322 324 330 332 331 331 337 341 342 341 339 339 338 336 335 334 336 336 334 332 330 331 331 331 329 330 330 331 331 334
298 294 291 292 296 299 307 310 311 313 311 311 305 293 294 307 314 316 317 314 314 314 315 312 311 310 306 309 311 316 319 323 325 324 324 327 330 330 329 338 342 341 341 339 334 333 333 333 335 336 336 335 334 333 333 332 331 330 330 330 330 334 335
298 300 295 296 301 310 314 312 313 315 315 305 294 289 300 311 314 315 315 316 316 315 315 313 310 313 313 313 319 321 322 325 325 324 325 325 330 330 335 339 341 333 333 336 335 334 334 334 335 336 336 334 333 332 332 332 332 333 333 333 335 333 333
297 297 295 295 300 309 313 313 316 317 307 296 298 305 311 315 315 317 317 316 317 317 317 316 315 317 319 322 320 321 322 322 321 322 322 323 330 339 339 338 334 331 329 330 332 333 334 335 335 335 334 333 331 332 331 331 332 334 333 332 334 333 333
302 300 296 294 290 302 314 314 313 315 303 305 312 317 317 320 317 317 318 317 317 316 314 316 317 316 317 318 319 319 319 321 322 324 324 324 324 334 335 334 334 331 329 329 330 331 332 334 335 335 334 332 331 332 330 332 333 333 333 335 336 335 334
299 299 294 293 302 309 315 315 307 312 314 316 320 317 313 317 318 318 317 317 317 318 316 316 316 317 318 317 317 318 320 324 324 324 325 328 333 334 337 338 335 332 329 329 330 330 331 332 333 334 334 333 332 330 330 332 332 332 333 333 334 333 332
304 301 304 310 314 312 314 315 314 315 317 318 317 316 314 314 315 318 317 317 319 320 321 320 320 319 319 317 318 318 320 325 323 323 324 325 325 326 331 336 337 331 329 328 328 329 330 330 331 333 334 333 333 331 331 333 331 331 332 332 332 331 330
313 314 315 317 313 313 313 314 314 314 315 316 315 314 313 314 315 316 317 319 321 321 322 321 320 320 321 322 324 326 324 322 323 325 323 323 326 329 332 335 335 331 328 328 328 328 327 328 328 330 330 330 329 329 331 331 330 331 331 330 330 331 331
298 298 310 313 315 314 314 313 314 315 316 314 315 314 314 314 315 315 316 317 317 319 321 322 323 323 324 323 323 325 325 325 325 325 322 322 323 327 330 332 334 328 327 327 327 328 328 331 332 332 331 329 329 331 331 332 333 331 331 331 331 328 326
302 306 313 317 318 314 315 314 313 312 313 315 315 315 315 314 316 316 316 318 316 317 318 320 322 326 326 324 322 326 327 326 325 324 324 323 323 324 328 332 330 327 326 326 328 325 324 328 330 330 331 330 331 332 333 333 331 331 330 329 327 327 327
312 316 315 317 314 311 311 314 314 315 314 313 313 314 314 314 313 314 315 317 317 317 316 318 317 318 323 327 325 326 326 326 325 324 323 323 323 323 325 327 329 328 328 326 323 322 324 327 329 330 331 334 334 332 331 330 328 328 328 326 324 324 328
307 307 310 315 305 304 308 311 315 315 315 313 312 312 312 313 313 314 314 316 318 318 318 319 320 319 323 328 328 325 325 327 328 326 326 326 327 326 326 326 327 327 327 322 321 323 324 327 329 330 329 327 326 325 323 322 322 322 327 331 328 328 329
305 314 315 314 310 308 311 313 315 316 315 313 311 311 311 312 314 316 318 318 319 319 320 317 319 315 317 319 327 327 326 326 329 330 329 328 327 327 327 325 324 322 321 323 322 322 323 325 327 327 325 325 324 324 325 325 323 321 321 326 328 328 328
317 318 317 319 313 307 310 312 312 312 315 312 311 313 315 314 313 314 315 316 316 317 315 314 316 316 315 317 324 327 326 328 329 329 329 328 327 327 326 325 323 322 322 321 321 321 322 324 325 325 324 324 325 327 327 326 325 323 322 322 325 325 327
315 320 318 316 310 311 313 310 309 310 313 314 312 312 315 315 317 318 311 311 311 311 311 311 312 313 315 317 322 324 326 328 329 327 327 328 328 326 325 325 324 324 322 322 322 322 323 324 325 324 323 324 325 326 327 327 325 323 321 321 322 322 323

ECMWFFLT2_sfc_thetae_003.txt.gz
Theta_e
304 304 306 306 307 296 298 300 296 299 302 301 296 299 299 295 292 290 295 298 298 302 305 308 316 316 314 319 321 322 321 323 324 326 328 330 333 336 338 340 341 344 346 347 347 347 348 349 349 350 350 351 351 351 350 350 350 347 343 341 338 337 336
304 306 307 307 308 304 298 295 298 301 305 301 297 290 292 290 287 289 294 295 294 297 294 307 315 314 316 317 319 321 321 322 323 325 327 329 331 335 338 340 342 344 346 347 347 348 349 349 350 350 351 352 352 352 351 350 350 346 343 341 338 336 335
304 305 304 303 306 308 306 303 303 301 294 295 294 293 289 287 288 287 291 294 295 296 297 304 308 313 314 316 318 319 319 321 322 324 326 328 330 334 336 338 340 343 345 346 347 348 349 350 351 351 352 352 352 352 351 351 349 348 344 342 340 338 336
304 306 302 297 301 304 305 303 301 304 300 294 294 295 293 293 287 288 288 291 295 300 298 305 306 313 315 316 317 318 320 321 323 324 326 326 328 332 335 337 339 342 345 347 347 348 348 349 350 351 351 352 351 351 351 350 350 348 344 342 340 337 336
305 298 299 300 300 297 298 300 297 300 304 299 298 299 294 293 286 285 285 289 291 296 303 307 308 313 317 318 318 319 320 321 323 324 325 326 327 331 335 337 338 340 344 346 348 349 349 350 351 351 351 351 351 351 350 349 347 346 343 342 340 338 337
295 295 300 303 302 303 300 300 297 298 295 296 293 292 296 296 292 285 286 289 290 299 311 311 310 316 319 320 320 320 320 322 322 324 325 326 327 330 334 337 338 340 342 345 348 349 349 349 349 350 350 350 350 350 350 349 348 345 343 341 340 339 337
297 300 303 305 305 305 303 303 300 301 297 296 292 288 291 294 296 296 292 290 293 301 310 312 313 317 320 320 321 320 321 322 323 324 326 327 328 329 332 335 338 339 342 344 346 348 348 348 348 349 349 349 349 349 349 348 347 345 344 342 341 339 337
300 303 303 303 305 304 300 301 301 300 298 299 296 294 294 295 294 293 292 291 288 298 310 313 314 316 319 320 321 321 322 322 323 324 325 326 326 328 331 334 337 339 341 344 345 346 347 347 347 347 348 349 349 349 349 348 346 345 344 342 340 339 337
293 298 299 300 301 302 298 296 299 301 300 301 299 298 296 296 294 294 291 288 291 301 312 312 313 315 318 319 321 322 321 322 324 324 325 326 327 328 330 331 333 336 339 341 344 346 346 347 347 347 348 348 348 348 348 347 346 345 344 341 340 338 337
286 287 288 289 292 296 297 300 300 301 301 299 299 296 296 291 293 295 291 289 292 300 305 310 311 313 315 318 320 321 322 322 323 324 324 325 327 328 329 331 332 333 337 340 343 344 346 347 347 347 347 348 348 348 347 347 346 344 343 341 340 338 337
291 293 291 297 300 296 298 298 300 300 302 302 301 296 292 293 288 294 288 296 297 302 307 306 309 311 313 314 313 317 319 319 321 323 324 325 326 328 329 331 332 333 334 338 341 344 346 346 346 347 347 347 347 347 346 346 345 343 342 340 339 338 337
299 298 298 299 302 299 298 298 299 300 300 301 299 298 297 295 294 291 292 293 301 302 305 307 308 310 312 314 314 316 318 319 319 321 323 332 326 327 329 330 331 331 333 336 339 341 343 345 346 346 346 347 346 346 345 345 344 343 342 340 339 339 338
300 301 301 301 302 300 299 300 300 299 300 299 299 300 299 299 299 295 295 296 302 304 307 310 310 312 313 313 314 316 319 319 319 320 322 324 325 326 327 328 329 330 331 333 337 340 342 344 344 344 345 345 346 346 345 344 343 342 341 340 339 338 338
299 299 301 302 301 301 301 299 300 301 300 299 301 301 300 301 299 301 301 299 303 306 309 311 313 314 315 315 316 317 317 319 320 322 322 324 325 326 327 328 328 330 331 333 335 338 340 342 343 343 344 344 344 344 344 344 343 342 341 339 339 338 338
297 299 300 300 300 300 300 300 300 300 300 300 301 301 301 303 302 302 300 301 303 307 309 313 314 311 313 314 316 317 318 319 322 323 323 324 325 326 327 328 328 329 331 333 334 336 339 341 342 343 344 344 344 344 344 343 343 342 341 339 339 338 338
294 298 299 299 300 300 299 300 301 300 297 297 297 298 299 301 301 300 299 298 299 306 308 310 307 310 312 313 315 316 317 320 323 323 324 325 326 327 328 329 329 329 330 332 333 336 338 340 342 343 343 343 343 343 343 343 343 342 340 339 339 339 338
292 297 299 299 299 299 297 298 300 301 299 300 303 308 310 307 303 299 296 298 305 305 311 308 307 309 311 313 315 316 317 319 323 323 324 326 327 328 329 330 330 330 331 332 334 336 338 340 342 343 344 343 342 342 341 342 342 341 340 339 339 339 338
291 296 298 298 296 291 290 299 301 304 304 305 304 304 306 309 307 301 303 305 306 308 309 308 306 308 311 315 318 320 320 319 320 321 322 325 328 329 331 331 331 331 331 331 333 335 338 341 343 344 343 343 343 342 341 341 340 340 339 338 338 338 337
291 295 298 295 290 291 303 309 309 309 308 309 307 308 309 308 310 312 310 308 307 309 311 311 310 311 313 315 316 317 319 321 321 321 320 322 327 329 331 331 333 332 332 332 332 332 334 338 341 341 341 343 343 338 337 336 336 337 337 336 336 336 336
292 293 293 290 291 301 310 310 309 314 311 309 309 306 307 308 309 309 308 308 308 309 310 311 312 313 314 315 316 317 319 320 320 320 321 323 326 326 328 330 331 333 333 333 333 333 336 337 339 341 342 342 341 336 335 335 334 334 335 335 335 335 335
293 290 290 293 302 305 305 306 308 307 305 306 306 300 304 310 310 309 307 309 310 311 312 313 314 315 316 314 314 316 318 319 321 324 324 325 325 326 328 330 331 334 335 335 335 335 335 336 338 340 341 340 337 334 333 334 334 334 334 333 333 334 335
294 290 289 295 293 292 298 307 311 313 310 309 311 307 305 310 313 313 312 311 311 312 312 314 315 317 314 310 311 315 316 319 321 321 324 322 323 323 325 326 325 330 332 335 337 337 336 336 337 337 338 338 334 332 332 333 333 333 333 332 332 334 335
296 292 289 288 289 294 302 305 310 313 313 310 310 307 300 310 313 313 312 311 312 313 313 313 314 312 307 306 310 315 315 318 322 321 323 325 326 327 327 327 324 331 335 336 337 338 337 336 337 337 336 334 333 331 332 332 333 331 330 330 331 333 332
296 293 290 292 296 300 306 309 312 313 315 312 306 296 294 309 314 314 314 313 311 310 312 313 311 307 304 305 313 317 318 321 320 322 324 325 326 330 335 337 332 334 337 337 334 335 336 337 336 335 334 333 333 332 331 331 331 330 330 331 331 331 331
298 298 295 296 301 308 310 310 311 312 314 305 296 290 299 311 313 313 314 313 313 313 312 313 310 311 312 315 317 317 320 320 320 320 323 326 328 332 336 336 340 335 335 336 336 336 337 336 335 334 333 332 332 332 331 329 330 331 330 330 330 331 332
296 296 294 295 299 306 310 312 311 313 305 295 297 306 310 313 313 314 314 313 313 314 313 312 312 313 316 318 318 320 321 320 319 320 321 329 335 337 338 336 332 330 330 330 330 332 331 334 335 334 333 332 331 330 328 327 329 330 330 330 330 331 332
299 296 294 290 291 301 312 310 310 312 301 301 308 313 314 318 315 316 315 315 315 316 314 315 315 316 317 318 318 320 321 321 322 323 323 321 327 331 331 331 331 330 327 328 329 331 332 332 332 332 331 331 330 330 328 328 330 331 331 330 331 332 333
294 294 291 291 299 305 312 310 306 308 310 313 314 314 312 315 316 316 316 317 317 318 318 317 317 318 318 320 320 320 320 321 320 321 322 324 328 331 335 334 331 330 326 327 328 328 330 330 330 330 331 331 331 327 324 328 331 332 332 332 332 331 331
300 298 300 305 306 310 311 313 311 311 313 314 314 313 312 311 312 314 314 314 316 317 317 318 319 318 319 319 321 320 320 320 320 319 320 321 323 328 331 332 331 328 327 326 328 327 328 329 329 329 330 329 328 326 327 330 331 331 331 332 332 331 330
311 310 310 314 310 309 310 312 313 313 313 314 314 313 311 311 312 313 312 313 313 313 314 313 314 318 318 318 320 322 322 322 323 324 321 320 321 326 329 329 329 326 326 327 327 326 326 327 327 328 329 329 327 326 329 331 330 331 331 331 330 330 330
300 297 308 311 310 310 310 311 312 314 314 313 314 313 312 312 313 313 313 313 313 314 314 312 312 313 315 316 318 321 322 322 323 324 323 321 321 322 324 328 330 326 327 326 327 327 326 326 326 327 328 329 329 329 329 330 330 330 329 329 329 327 327
300 303 310 314 314 310 312 310 310 310 311 312 314 315 318 317 317 315 315 316 315 317 314 313 312 312 313 313 315 319 320 321 321 321 323 322 322 322 324 327 327 325 325 326 327 326 325 325 326 326 326 326 325 323 323 325 326 327 327 324 322 322 323
309 312 313 314 311 310 311 313 312 311 311 311 311 312 313 313 313 314 315 316 314 315 314 313 312 311 312 313 315 318 319 320 321 321 323 323 323 322 325 325 325 324 324 325 325 325 325 325 325 323 322 322 324 324 324 325 324 323 323 326 325 324 325
302 303 305 311 303 301 305 310 312 311 312 312 313 314 313 314 314 313 313 313 314 313 314 313 312 311 312 313 315 318 320 320 322 323 324 325 326 325 324 326 326 325 325 325 325 325 325 324 321 319 319 319 321 323 325 325 325 325 325 324 324 324 323
302 310 311 309 308 307 308 310 311 311 312 311 311 310 311 312 314 313 312 310 310 310 311 312 311 311 312 313 316 318 321 322 324 325 325 326 326 324 324 323 321 322 324 327 326 326 324 321 319 319 318 318 318 319 321 322 322 321 321 322 323 323 324
314 316 313 311 306 304 306 308 309 310 311 311 310 310 310 310 309 310 309 309 308 308 308 310 311 311 313 313 314 315 318 321 323 324 326 327 325 325 325 323 321 323 325 326 326 325 322 320 319 319 319 319 320 321 322 322 321 320 320 321 320 320 322
306 312 308 308 308 307 308 309 309 310 313 313 311 311 309 309 310 310 310 309 309 309 309 310 311 312 313 312 313 314 316 320 324 327 329 327 328 324 323 322 321 323 324 325 325 324 322 320 319 320 319 320 322 323 323 322 322 321 320 320 319 318 318

ECMWFFLT2_sfc_thetae_006.txt.gz
Theta_e
300 300 304 303 304 296 296 298 295 297 300 300 295 298 296 293 290 290 296 298 297 301 308 310 313 314 315 315 316 318 319 320 322 323 325 327 329 331 333 335 337 339 341 343 345 346 346 347 347 348 349 350 350 350 349 349 350 350 349 350 348 347 345
301 301 304 303 305 301 296 294 297 301 302 300 297 290 290 289 286 288 293 296 294 298 295 305 311 311 313 313 313 316 319 319 320 322 324 327 329 331 334 336 338 340 341 343 345 346 347 347 348 348 349 351 351 351 351 350 350 349 349 349 347 346 343
300 302 302 301 303 304 304 298 302 300 293 294 292 292 287 286 286 286 289 294 294 296 298 301 305 309 311 313 314 315 316 318 320 322 324 327 330 332 333 335 336 339 341 342 344 345 347 348 349 349 350 351 351 352 352 351 350 350 350 349 347 346 343
300 302 299 294 298 301 300 302 299 302 299 293 293 294 291 293 285 286 287 291 293 298 299 303 306 309 311 312 313 314 317 318 320 321 323 325 328 331 333 335 336 338 341 343 344 345 346 347 348 349 350 350 350 351 351 350 350 350 349 347 347 344 342
301 296 296 297 298 295 295 297 294 300 301 298 296 297 293 292 287 286 284 287 289 296 302 305 307 308 311 313 314 316 317 319 320 322 324 325 327 330 333 335 336 338 340 343 345 346 347 348 349 350 350 350 350 351 350 350 349 349 348 348 346 344 341
293 294 297 300 301 300 297 298 295 297 293 295 292 292 294 293 293 284 285 289 290 300 306 308 308 310 311 315 316 316 318 319 320 322 324 326 327 329 332 335 337 338 340 342 345 347 347 347 348 348 350 350 350 350 350 350 350 349 348 347 346 344 341
295 297 299 303 301 302 300 301 297 300 296 295 292 289 290 293 294 295 291 290 294 301 306 309 310 310 313 316 317 317 318 319 321 322 324 325 327 328 331 334 337 339 340 342 344 346 346 347 347 348 349 349 349 350 350 350 350 349 349 348 346 344 341
297 300 300 302 303 301 298 299 301 299 298 299 298 295 293 295 293 293 292 291 288 296 308 310 309 312 315 317 318 318 319 320 321 322 323 324 325 327 330 333 336 338 340 342 343 344 346 346 347 347 348 349 350 350 350 350 350 350 349 348 346 343 341
291 296 297 297 299 299 296 295 297 299 301 301 297 296 294 296 293 295 291 289 290 299 308 309 312 314 316 317 319 319 319 320 321 322 323 324 325 326 328 331 334 336 338 340 342 344 345 346 347 348 348 349 349 349 350 350 350 350 350 348 345 343 341
285 285 287 289 292 294 294 298 297 298 299 297 297 294 294 290 292 294 291 288 292 298 303 309 312 313 315 317 318 320 320 321 321 322 322 323 324 325 327 329 331 334 336 339 341 343 345 346 347 347 348 349 349 349 350 351 350 350 349 348 345 343 341
290 292 291 294 298 293 295 295 298 296 298 300 300 295 292 293 288 293 288 295 297 300 304 306 308 311 314 315 316 319 319 320 321 321 322 323 324 325 326 328 330 333 335 337 339 341 344 345 347 347 348 348 349 349 349 350 351 350 349 347 344 342 341
297 297 297 296 300 296 295 296 296 298 298 298 298 295 296 294 293 288 291 292 300 300 303 306 307 308 311 314 316 318 319 320 321 322 323 329 323 324 326 327 328 330 333 336 338 340 342 344 346 347 348 348 348 349 349 349 350 349 348 347 344 342 340
298 299 299 299 299 297 296 297 297 297 298 297 298 298 297 297 297 295 295 294 299 301 304 307 309 311 312 314 316 319 321 322 321 321 322 323 323 324 325 326 327 328 330 333 336 338 341 343 344 346 347 347 348 348 349 349 349 349 348 346 344 342 340
298 298 298 299 299 298 297 297 297 296 296 297 299 300 299 299 299 301 300 297 301 303 305 307 309 312 314 315 316 317 319 319 321 321 321 322 323 323 324 326 327 328 330 331 334 337 339 341 343 344 346 346 347 347 347 348 348 348 347 346 344 342 339
295 297 298 297 298 298 298 298 298 297 296 296 297 298 299 301 300 299 299 298 300 304 306 308 311 312 312 312 315 316 319 319 320 320 321 322 323 324 325 326 327 328 329 331 332 334 337 339 342 344 345 346 347 347 347 347 347 348 346 345 344 342 340
292 295 296 296 296 296 297 298 298 297 295 295 295 297 298 299 299 299 298 297 299 305 305 311 310 310 312 313 313 314 315 318 320 320 321 322 323 323 324 325 326 327 328 329 331 333 335 338 340 342 344 345 345 346 346 347 347 347 345 344 343 342 341
289 293 296 296 294 295 292 294 296 297 297 298 298 303 304 303 301 298 297 297 304 306 309 308 307 309 311 312 313 313 315 317 320 321 322 322 323 324 325 325 327 327 328 329 331 332 334 336 339 341 344 343 344 345 346 347 346 345 343 343 342 341 341
291 294 294 294 292 287 288 295 298 300 298 298 299 299 301 305 303 299 301 302 304 306 307 307 307 307 309 313 315 317 317 317 318 320 321 322 323 323 324 326 327 328 329 330 332 333 335 337 339 341 343 344 345 346 346 345 344 344 343 342 342 341 340
292 293 294 291 287 287 295 304 305 301 302 302 300 305 306 307 307 307 307 306 305 306 307 309 310 311 312 313 315 318 320 319 319 320 321 322 324 325 326 327 328 329 331 332 333 333 334 336 339 340 341 343 344 343 344 343 343 342 342 341 339 339 338
291 291 290 286 285 294 306 306 307 311 308 307 306 303 306 308 309 308 305 307 307 307 307 308 310 311 314 315 315 315 317 321 322 322 322 324 327 327 329 330 330 331 331 332 332 333 336 337 339 340 341 342 343 342 342 342 340 341 340 339 338 338 338
291 288 290 289 298 302 304 303 306 306 303 303 303 299 303 309 311 310 307 307 308 309 309 311 312 313 314 313 313 316 316 317 322 323 323 326 329 331 332 333 333 334 334 333 334 335 334 335 337 339 340 341 342 339 337 338 337 337 338 337 337 338 338
291 289 288 293 293 291 296 303 309 311 311 310 307 302 302 308 311 311 309 308 308 310 310 312 313 315 312 309 310 316 318 317 322 322 324 327 327 327 330 329 330 332 334 335 336 334 333 334 336 338 340 341 340 338 335 334 335 335 336 336 337 338 337
292 292 289 286 288 292 298 302 307 312 314 312 310 302 299 306 311 311 310 310 310 309 311 312 314 312 307 308 311 317 317 319 321 322 324 325 327 328 326 326 327 332 332 334 336 336 334 334 334 338 339 339 338 336 334 333 334 333 334 335 336 337 337
293 289 287 289 292 297 304 306 309 311 312 312 304 295 294 304 312 311 311 310 310 310 312 314 313 312 308 309 315 317 319 323 326 327 329 332 334 335 335 333 328 333 338 339 335 335 335 336 336 337 338 338 337 336 333 333 333 332 332 333 335 337 337
294 296 291 294 297 305 308 308 310 311 313 303 295 289 299 310 311 312 312 312 313 314 314 315 311 312 314 316 317 319 322 324 325 329 332 333 335 335 335 336 339 335 335 334 334 334 334 334 334 335 335 334 333 332 332 332 331 330 331 333 334 335 335
293 291 291 293 294 302 308 310 310 312 306 295 293 305 312 313 313 314 315 315 315 315 315 315 314 315 318 321 320 321 322 323 324 326 329 333 334 334 336 335 333 332 331 330 330 330 331 333 333 333 334 332 330 330 330 329 329 330 331 332 333 334 334
296 293 291 289 290 302 310 309 310 311 301 301 308 312 314 318 314 314 314 315 315 316 315 316 317 318 318 318 319 319 320 320 320 322 324 327 329 331 331 330 332 331 329 328 329 330 331 332 333 333 332 331 330 329 328 328 330 331 331 332 333 333 333
294 292 290 291 299 306 311 309 305 309 310 312 313 312 309 313 311 310 311 311 313 314 314 313 314 316 317 317 318 318 320 321 321 322 323 325 328 331 332 331 330 329 327 327 328 328 329 330 332 333 332 329 329 328 327 330 330 331 332 332 333 333 333
300 297 299 305 309 309 310 310 310 311 313 314 314 311 310 309 310 311 310 310 311 312 313 312 313 313 315 316 317 317 318 320 321 321 321 323 326 329 331 330 330 327 326 326 327 327 328 329 331 332 331 330 329 327 328 331 330 330 331 332 332 331 331
309 310 309 311 310 312 311 312 312 311 311 312 312 311 309 309 310 311 310 310 310 311 312 311 310 311 313 316 317 318 318 320 321 323 322 323 325 327 329 329 328 326 327 327 326 326 326 328 330 331 331 331 329 328 330 332 331 330 331 331 331 330 331
299 296 308 308 308 310 312 311 313 314 314 312 312 311 311 311 312 312 313 312 312 311 312 311 311 312 313 314 316 317 318 319 319 321 321 321 322 325 327 329 330 326 327 327 327 326 325 326 328 329 329 330 330 330 331 331 331 331 331 331 331 331 330
301 303 309 310 309 309 310 310 309 309 310 314 316 315 315 314 314 313 313 313 313 313 312 313 313 313 314 315 316 318 318 318 320 321 322 322 321 323 324 326 326 326 326 326 326 325 325 326 328 330 329 329 330 331 331 331 332 331 331 331 329 329 330
307 310 310 309 310 309 309 310 309 311 312 311 311 313 314 314 312 312 311 312 312 312 313 314 313 312 313 315 317 319 319 320 321 322 322 322 322 322 323 324 326 326 327 327 326 325 325 325 326 326 326 327 329 329 330 331 331 331 330 331 330 328 329
300 300 303 307 303 301 308 311 312 311 312 312 311 312 311 311 311 312 312 312 312 312 313 313 313 311 312 314 316 318 319 320 321 322 323 323 324 325 325 326 326 327 328 327 326 325 324 324 322 321 322 324 327 328 328 328 328 328 329 327 326 326 327
301 308 308 307 308 307 309 310 311 313 311 310 308 308 309 310 313 312 311 309 309 310 312 313 312 311 311 312 314 314 316 318 322 323 324 324 325 325 325 325 324 325 326 328 327 324 322 322 321 322 322 323 324 325 326 326 326 326 325 324 324 324 324
308 309 307 307 306 304 306 309 309 310 310 309 309 310 310 311 310 310 309 309 308 309 310 312 313 311 311 312 312 311 312 314 318 322 324 325 325 326 326 324 323 324 326 326 325 323 320 320 321 321 321 322 323 323 324 324 324 323 324 324 322 321 321
304 308 306 307 306 307 308 309 310 310 314 311 309 309 309 309 310 310 309 309 310 310 309 309 310 312 310 311 311 311 312 313 317 320 323 326 328 323 323 322 323 324 325 325 322 320 319 319 319 320 320 321 323 323 324 324 324 324 323 323 321 320 320

ECMWFFLT2_sfc_thetae_009.txt.gz
Theta_e
307 308 309 309 310 299 305 305 302 305 313 308 306 304 302 303 302 300 311 308 311 316 317 319 322 322 323 327 325 324 326 328 331 331 332 333 334 335 337 339 341 344 346 347 348 349 349 350 351 352 355 357 357 357 357 358 360 361 362 362 362 362 362
306 309 310 310 310 310 305 302 306 309 311 312 308 299 302 300 296 301 306 304 306 306 303 324 318 319 320 323 325 324 326 329 328 329 332 334 334 335 338 341 344 345 346 347 347 349 349 350 351 354 356 358 358 358 358 358 359 359 361 362 361 362 361
306 306 308 307 310 311 308 306 312 305 300 300 311 306 296 296 295 297 302 306 306 308 306 314 316 318 320 324 327 324 324 326 327 329 332 335 335 336 337 339 342 343 344 346 348 348 349 351 354 356 357 357 358 359 359 357 358 359 360 360 362 362 361
306 306 305 298 303 307 306 310 308 310 308 307 302 303 308 303 297 296 298 301 300 310 311 314 313 319 326 324 326 323 324 326 328 329 331 333 335 336 336 337 339 341 343 345 346 348 348 351 354 354 355 355 355 356 358 358 358 360 360 360 361 359 359
304 300 302 300 303 302 303 304 304 305 307 309 309 308 304 301 299 298 297 296 303 312 318 316 319 321 324 324 325 329 328 327 328 330 331 334 335 336 337 338 339 341 343 344 346 349 350 352 354 353 353 353 354 355 356 357 357 358 358 359 359 359 360
299 302 306 305 305 306 304 304 303 305 303 302 298 298 304 305 301 296 297 296 307 313 319 321 321 323 322 326 326 327 328 328 330 330 332 335 335 338 339 338 339 340 343 344 346 349 351 351 352 352 353 353 354 354 355 356 356 356 356 357 360 360 360
301 304 307 309 308 307 307 306 304 307 306 307 302 295 301 303 304 305 306 300 304 318 320 320 322 322 321 324 325 324 326 329 329 330 330 334 338 338 338 339 339 341 343 345 347 350 351 352 353 353 353 353 353 354 355 356 356 356 356 357 359 360 359
306 307 307 306 307 306 304 305 307 307 304 305 304 304 309 302 305 301 301 299 303 319 323 323 321 328 325 328 324 326 327 329 329 330 330 334 337 339 340 340 340 343 345 347 349 351 352 353 354 353 354 354 354 354 355 355 355 356 357 357 358 359 358
299 301 304 304 305 305 303 302 305 307 307 308 308 311 312 303 305 303 301 295 302 316 323 325 321 319 319 320 323 327 327 332 330 331 333 334 338 340 339 341 343 345 344 347 349 351 353 354 353 355 355 355 354 355 355 355 355 356 357 358 357 357 356
290 290 291 294 299 300 303 305 304 306 305 305 306 301 305 297 308 307 301 300 309 319 323 321 323 324 323 323 324 326 328 331 330 331 332 336 337 339 340 342 344 343 345 348 350 352 353 353 352 355 355 355 355 355 356 356 356 356 356 357 357 356 355
296 299 304 309 307 303 300 302 303 303 305 307 307 310 305 299 304 304 301 308 309 314 315 318 319 324 322 322 327 326 328 330 332 335 335 335 337 338 337 341 343 347 348 347 349 352 352 351 353 354 354 354 354 356 357 356 357 357 358 358 358 356 355
305 305 306 307 305 302 303 302 302 304 304 305 305 303 300 314 303 298 303 312 309 311 316 319 321 324 329 331 331 330 331 332 332 332 335 335 335 337 340 341 342 343 346 349 350 351 351 352 354 354 354 354 355 356 356 357 357 357 357 358 358 357 355
305 305 305 306 305 304 304 304 304 303 304 305 303 306 307 312 303 299 309 314 313 313 314 319 321 326 328 327 331 331 332 333 333 333 331 331 332 335 336 339 342 344 345 348 349 350 351 352 353 354 354 355 357 358 357 358 356 357 359 359 358 357 355
303 304 304 305 304 304 304 304 304 305 304 304 305 305 307 309 308 309 313 316 312 313 315 318 322 327 326 331 333 330 329 328 332 331 332 331 332 333 335 338 340 343 345 347 349 351 352 352 353 353 354 356 356 356 355 356 358 358 359 359 359 357 355
301 303 304 304 304 303 302 304 305 305 305 305 305 306 307 309 308 308 310 316 315 317 320 321 328 335 328 326 324 325 330 332 331 331 331 332 332 333 336 339 339 342 344 346 348 349 350 352 353 353 354 356 356 354 355 355 357 358 358 359 358 357 355
300 303 303 303 303 303 302 302 304 304 303 302 304 305 308 307 308 312 310 309 310 317 322 321 322 323 324 324 328 329 331 330 333 332 332 333 335 335 336 338 338 340 341 344 345 347 348 350 352 353 355 355 355 354 355 355 356 357 357 357 356 358 357
300 304 303 302 302 301 298 300 303 305 305 306 306 307 309 308 309 307 306 306 314 319 323 319 320 320 323 325 327 330 332 334 333 334 335 335 336 336 340 339 339 338 338 341 344 345 347 348 350 352 355 353 354 355 356 357 358 356 356 357 358 358 358
300 304 302 302 299 292 294 307 308 307 305 305 304 304 306 310 311 311 313 314 321 322 317 317 319 321 324 328 331 331 332 332 332 333 336 337 338 338 338 338 338 340 341 341 343 344 348 349 349 352 354 352 354 356 357 359 357 357 357 357 358 358 358
300 302 301 297 292 294 309 315 314 310 308 308 307 311 316 314 316 315 313 315 318 321 320 322 326 327 326 325 327 326 327 330 330 332 333 335 336 337 338 338 337 342 343 345 344 344 344 344 348 350 351 353 356 356 358 357 358 358 358 357 357 357 356
303 300 299 291 294 307 311 312 314 313 310 310 312 310 314 316 316 318 316 317 321 322 320 320 321 325 326 326 329 329 329 330 331 329 330 333 333 334 336 340 342 344 341 342 341 344 344 347 349 349 351 352 352 352 355 356 356 356 357 356 355 355 354
298 301 299 299 308 305 307 308 311 311 309 307 306 302 310 317 317 318 318 320 321 321 320 321 320 326 326 326 326 328 326 329 329 330 331 332 333 335 340 339 340 344 344 344 343 349 348 347 347 347 349 350 350 351 352 353 355 354 354 354 354 354 353
304 300 298 298 298 296 305 311 315 316 314 315 314 317 311 315 318 317 317 318 321 321 321 320 321 326 321 318 322 327 327 327 329 330 333 335 338 339 339 343 344 347 347 347 349 345 347 347 348 349 350 349 352 352 352 353 353 353 353 353 354 354 353
303 301 296 297 296 300 311 312 313 315 316 316 317 311 306 315 317 318 317 317 319 321 320 322 323 321 315 318 324 326 328 329 329 332 334 335 338 341 341 341 341 342 346 346 344 347 347 344 347 350 350 350 351 352 352 350 351 351 351 353 353 353 353
304 301 298 296 304 304 310 312 314 315 317 315 313 300 302 317 317 318 319 317 318 320 323 322 324 322 318 320 324 327 332 336 339 341 341 340 339 339 341 343 346 347 347 347 345 344 344 345 347 351 351 352 352 351 349 348 348 349 351 352 353 353 353
303 301 301 303 306 313 313 313 315 316 316 314 303 297 310 318 319 320 321 319 321 324 325 326 320 321 325 326 328 332 336 337 338 340 341 341 342 342 342 342 344 345 345 345 344 344 346 347 346 348 349 349 348 348 347 346 346 346 349 350 350 351 350
302 303 299 301 307 311 312 315 315 318 310 303 303 313 317 321 320 322 322 322 324 324 324 323 322 323 325 327 329 332 334 336 338 339 338 338 339 340 342 343 343 343 344 344 344 343 346 347 347 348 349 347 346 346 345 345 346 345 347 348 349 349 348
305 304 302 298 294 311 314 312 315 318 311 313 317 318 319 320 321 321 321 322 322 322 321 322 323 323 323 325 326 328 330 332 335 337 337 337 337 338 339 340 341 342 341 339 339 340 342 344 346 347 347 346 344 344 344 344 343 345 346 347 347 347 347
304 300 298 298 308 310 315 313 311 317 318 320 321 317 314 318 318 318 318 319 321 322 322 321 322 323 324 326 327 328 328 329 333 337 339 339 337 335 336 338 338 339 339 339 339 341 342 344 346 346 347 344 343 343 343 343 343 345 346 346 347 345 344
308 305 308 313 316 314 315 315 316 318 319 320 319 318 316 316 316 320 318 319 321 323 324 325 325 323 325 325 326 326 327 328 329 331 335 338 336 335 336 336 338 338 337 337 338 338 340 341 342 344 346 344 342 342 341 342 343 344 345 345 344 343 341
313 314 316 318 315 314 314 316 317 315 315 317 318 317 316 318 319 320 318 319 321 323 325 323 324 325 327 326 326 327 328 328 331 335 336 337 340 338 338 340 340 340 340 340 340 338 338 339 340 344 346 346 345 344 341 342 343 344 344 343 342 341 341
307 301 312 313 313 312 313 315 316 317 318 317 319 319 319 319 319 318 320 321 321 323 325 325 324 324 326 326 328 331 332 331 332 332 333 334 336 337 337 339 341 341 340 337 336 337 337 337 339 340 343 344 347 342 341 341 342 344 343 341 339 339 338
309 308 314 312 313 313 313 314 315 315 315 316 317 318 318 319 319 319 320 321 321 323 323 325 325 325 327 328 329 328 330 332 334 335 335 336 336 337 337 338 340 341 340 338 339 340 342 340 341 341 340 341 341 340 339 339 341 342 341 339 338 337 336
311 313 312 312 312 313 313 313 315 316 316 315 317 317 317 317 317 318 318 319 319 320 321 324 326 325 326 328 329 328 331 333 334 335 337 338 339 340 338 336 338 339 341 342 342 342 341 339 339 339 338 337 338 338 337 338 340 339 338 337 338 337 336
305 305 307 310 306 307 313 313 315 315 316 316 315 316 317 317 317 318 316 316 318 319 320 321 322 321 322 324 327 326 328 330 333 335 337 338 339 339 338 338 340 339 338 339 339 338 338 337 337 337 337 337 338 338 338 339 339 338 338 337 338 337 337
304 310 312 316 316 312 315 317 317 317 317 319 316 315 314 315 316 318 317 314 315 315 317 320 320 320 320 321 322 320 321 324 329 333 335 336 337 337 337 337 337 338 339 338 337 337 337 335 335 334 336 337 338 338 339 339 338 339 340 338 337 337 336
309 313 312 314 313 308 311 313 314 316 319 317 314 316 316 316 316 315 315 315 312 314 316 315 317 317 317 317 317 317 318 320 323 325 329 333 335 335 335 335 336 337 337 337 337 337 336 335 333 334 334 336 338 337 340 340 340 341 340 338 336 336 335
307 311 311 312 312 312 313 313 315 317 316 315 315 314 314 315 315 317 316 317 315 315 315 315 316 317 316 315 317 317 317 317 319 321 324 327 328 332 332 332 334 336 336 336 337 337 334 333 332 333 334 335 337 337 339 339 340 340 339 338 336 336 337

ECMWFFLT2_sfc_thetae_012.txt.gz
Theta_e
310 309 311 311 313 302 308 309 305 309 316 312 308 309 310 309 307 303 312 312 313 317 319 322 323 322 322 323 324 326 328 332 336 337 338 340 341 343 345 345 347 350 351 352 351 353 352 354 355 356 359 362 362 362 364 366 368 368 370 372 370 371 371
310 313 312 312 313 314 311 304 308 315 318 315 310 302 306 304 300 303 308 307 309 308 305 319 319 317 318 320 321 321 327 332 333 335 338 340 341 343 346 348 350 350 351 352 352 352 353 354 355 357 360 363 363 363 364 365 367 367 369 370 370 370 370
310 312 311 309 312 314 311 310 316 308 304 303 309 308 299 299 298 301 305 308 309 310 310 315 317 317 318 320 322 322 322 330 333 335 337 340 341 342 344 346 348 350 351 352 353 352 352 355 358 359 360 362 363 364 365 363 366 367 367 368 370 370 371
309 309 308 301 305 311 313 315 312 315 311 307 305 307 308 306 300 300 301 306 304 314 314 316 317 319 320 320 320 320 321 324 334 336 337 338 340 341 342 344 346 349 350 351 352 351 351 354 356 357 358 359 359 362 364 364 365 368 369 369 370 369 370
308 302 305 303 305 304 305 306 307 309 310 313 311 311 307 304 302 301 301 300 306 314 318 317 318 320 321 320 320 322 322 323 325 337 337 339 341 341 343 344 346 348 350 350 351 353 353 354 357 357 356 357 357 359 361 362 364 364 365 367 368 370 370
302 304 308 307 307 308 307 306 304 307 307 305 302 301 311 309 304 299 300 300 309 317 320 321 319 321 320 322 321 321 323 323 326 332 338 340 341 344 344 344 345 346 349 350 351 353 354 353 354 355 354 356 356 357 357 360 360 361 360 364 368 370 371
304 306 309 311 310 310 309 309 306 309 309 309 305 298 303 308 308 309 307 303 307 319 321 321 321 321 320 322 321 321 322 324 325 332 337 341 345 345 343 344 343 345 349 351 351 354 355 354 355 355 355 354 355 356 356 358 358 359 358 361 366 370 370
309 310 311 311 311 309 306 308 310 308 305 307 306 307 309 306 308 305 304 302 306 318 324 323 321 324 321 323 322 322 323 323 325 335 338 342 346 347 345 344 343 345 347 351 353 353 354 355 356 357 356 356 356 356 355 356 357 358 358 359 362 368 369
303 306 308 307 310 309 305 304 307 309 309 309 309 310 311 305 306 307 303 298 305 317 323 326 324 321 319 320 320 322 321 324 326 338 342 341 347 348 345 344 345 346 347 350 352 354 356 356 356 358 358 357 356 357 356 355 356 358 359 361 361 365 367
294 294 296 298 301 303 306 307 306 308 307 308 307 303 306 300 307 309 304 304 311 316 322 320 320 322 325 321 321 321 324 327 334 341 343 344 346 348 348 347 346 347 350 352 354 356 357 357 357 359 360 358 357 357 358 357 356 358 359 360 361 362 365
301 304 307 310 309 307 303 304 305 305 307 308 308 308 304 300 304 306 307 310 311 313 316 317 318 319 318 318 321 320 321 330 338 345 345 344 346 348 346 348 349 352 353 353 355 357 357 357 359 360 359 358 358 360 360 358 358 359 362 361 362 361 364
308 309 309 310 309 306 307 305 304 306 306 306 305 303 301 310 306 300 307 313 309 311 315 317 319 320 320 320 322 322 323 327 338 338 348 347 345 347 348 349 350 351 354 356 357 358 358 358 359 360 361 359 359 360 360 360 359 360 361 363 363 363 364
309 309 309 310 309 308 308 307 306 305 306 306 304 305 306 309 303 302 310 313 311 313 314 316 319 320 321 320 321 322 322 322 332 347 345 342 342 346 345 349 351 354 354 356 357 358 358 359 359 359 359 359 361 362 362 363 360 360 363 364 364 363 364
309 309 309 310 308 308 308 307 308 307 307 306 306 306 307 306 307 308 310 314 312 313 314 316 318 321 321 321 323 323 322 320 333 344 345 341 342 343 344 348 350 353 355 357 358 359 359 358 358 358 358 360 359 360 361 361 362 361 363 364 365 364 364
306 309 310 310 309 308 306 308 308 308 308 307 307 307 307 308 306 306 307 311 310 316 318 318 319 321 321 321 320 319 322 324 329 341 340 342 342 343 346 349 351 354 355 357 358 358 358 357 358 358 360 362 361 359 360 360 363 362 363 365 365 365 365
304 308 308 308 309 308 307 306 307 307 307 305 306 305 308 307 306 307 307 306 306 315 319 318 320 320 320 319 321 323 326 331 335 341 341 342 345 345 346 348 351 352 353 356 356 357 357 358 360 361 362 362 361 358 360 360 361 362 362 364 364 366 366
303 307 308 307 307 306 303 304 307 308 308 309 309 309 310 310 309 306 304 305 312 316 318 316 318 317 318 320 322 323 326 339 340 342 343 343 347 347 348 349 350 350 350 354 357 356 357 358 358 361 364 362 362 361 362 363 363 362 362 363 366 367 367
304 306 306 307 303 296 298 310 312 311 308 308 307 307 308 310 311 309 311 312 316 316 314 313 316 317 318 318 329 333 335 342 347 343 344 345 347 348 348 350 350 351 354 354 357 357 359 360 359 361 364 362 364 364 363 364 363 364 364 364 366 367 367
304 307 307 301 295 297 310 313 313 313 312 311 310 310 311 311 312 313 313 314 316 317 318 319 321 323 321 325 333 339 337 339 339 343 343 345 347 348 350 350 349 353 354 354 357 357 356 357 359 360 360 362 364 363 364 363 365 365 364 365 365 366 367
308 305 303 295 296 309 312 314 314 315 314 312 311 309 311 312 312 314 313 314 316 319 319 321 325 327 334 337 339 340 337 337 336 332 334 338 342 345 348 352 353 353 351 352 353 356 355 357 357 358 360 361 359 357 359 361 362 363 364 365 365 366 366
301 303 302 301 309 308 310 309 314 313 310 311 309 304 308 313 314 315 314 315 316 317 318 328 331 331 329 329 329 333 333 336 336 334 335 335 338 341 347 348 350 354 353 353 353 356 355 356 357 357 356 354 354 355 356 360 364 361 363 364 364 365 365
307 302 300 301 301 299 305 318 319 321 320 320 322 317 308 315 317 319 318 319 319 318 325 328 328 328 323 318 321 332 333 335 336 335 336 337 339 341 344 350 351 354 353 353 354 351 352 352 351 351 353 353 356 357 358 360 362 360 361 363 364 365 364
305 303 300 300 298 303 315 317 318 320 321 320 323 313 305 321 325 324 321 319 319 321 324 329 327 322 314 315 320 337 337 335 334 335 336 337 339 341 343 344 348 349 352 352 350 349 350 347 352 355 355 355 356 358 359 356 358 359 360 363 364 365 365
304 304 300 298 305 306 316 317 318 319 321 320 315 301 301 320 325 326 325 321 322 327 329 329 326 319 312 315 326 336 339 338 339 342 341 343 346 346 347 348 350 351 352 353 349 350 350 356 357 359 357 358 361 360 357 355 356 359 362 365 367 366 365
303 301 301 304 307 317 316 317 319 320 322 318 306 298 306 327 328 328 328 325 326 329 329 328 322 324 330 339 339 341 341 343 344 345 345 345 346 347 347 350 352 353 353 352 352 353 358 359 357 358 359 360 359 359 358 359 358 359 363 366 365 364 365
301 302 300 301 305 316 316 321 319 322 316 306 305 322 324 329 327 328 328 325 327 329 330 329 326 336 337 340 341 341 342 343 345 345 346 347 348 349 349 349 349 350 351 354 354 354 357 358 358 360 362 360 359 358 358 358 359 361 364 364 364 363 362
305 305 303 299 294 315 318 318 320 321 311 316 321 325 326 327 329 329 329 329 330 330 331 334 336 336 337 340 342 342 342 342 343 344 346 347 346 348 349 350 350 349 349 349 349 350 350 352 356 357 358 357 356 356 357 358 358 360 360 360 360 360 358
301 302 300 299 312 318 319 318 315 322 324 326 326 325 323 327 328 328 329 331 334 334 334 333 333 334 335 337 339 340 341 343 344 345 345 346 345 343 344 346 349 350 350 349 349 352 352 355 356 356 357 356 355 355 353 354 355 356 357 358 358 356 354
308 306 311 319 320 319 320 321 322 323 324 325 325 325 324 324 325 330 328 328 330 332 331 330 330 329 331 332 334 336 337 338 340 341 340 340 342 344 345 344 348 348 348 349 349 351 352 353 354 357 357 354 352 349 349 352 353 355 356 356 354 352 350
319 320 323 320 318 318 319 320 322 320 321 324 325 323 323 325 327 329 328 330 329 330 330 327 328 328 329 329 329 331 335 340 343 344 344 342 343 343 344 347 346 344 345 347 348 348 351 352 351 354 354 355 353 353 354 354 356 356 354 352 350 349 348
309 303 317 317 316 317 319 319 320 321 322 322 324 325 326 326 327 327 329 330 331 332 333 329 328 328 329 330 333 336 338 338 339 339 343 346 347 347 348 348 346 344 343 343 343 345 346 349 350 350 354 356 358 356 354 353 353 354 352 351 348 347 345
309 312 317 319 319 319 319 320 320 319 321 322 323 325 326 327 327 327 328 330 330 330 330 332 331 328 329 329 331 332 335 337 339 341 342 343 344 346 350 352 351 344 341 341 342 345 347 348 349 349 350 351 351 350 348 349 351 352 349 348 346 345 343
314 317 318 319 320 319 318 318 320 321 322 322 323 323 323 323 323 325 326 327 328 330 330 332 332 333 334 332 333 333 337 339 340 341 341 341 343 345 345 348 351 348 346 347 348 348 349 350 350 350 348 347 348 349 348 350 353 351 348 345 347 344 342
308 309 313 316 308 309 313 316 316 319 322 321 322 323 322 322 321 321 321 323 325 325 326 328 329 329 331 333 334 333 336 339 343 344 342 341 341 342 345 345 345 345 348 348 347 346 348 350 348 347 346 346 346 344 347 350 350 349 347 346 345 342 341
309 315 318 324 326 321 320 318 319 321 321 320 319 320 321 321 321 320 320 320 321 322 323 324 324 325 326 327 330 330 332 336 339 341 343 343 342 341 341 341 344 345 345 344 344 344 344 345 343 343 344 344 345 344 348 349 349 349 348 344 342 341 340
315 318 320 321 322 316 316 317 318 318 321 319 317 320 321 321 321 320 320 319 318 320 322 323 324 323 323 324 324 325 327 330 335 336 338 340 342 341 341 342 344 344 344 345 344 344 344 342 342 343 342 344 346 346 349 349 350 350 348 344 342 340 340
315 319 321 323 321 317 317 316 317 318 319 320 319 317 319 320 320 322 322 321 321 320 319 319 322 325 323 321 322 322 322 323 328 332 334 335 336 338 338 339 341 342 344 344 346 347 345 344 343 343 344 346 348 348 350 350 350 349 348 345 341 340 341

ECMWFFLT2_sfc_thetae_015.txt.gz
Theta_e
312 311 313 311 312 302 309 310 306 309 317 313 309 309 310 309 305 304 313 310 313 319 320 322 323 323 324 325 324 324 326 326 329 328 333 337 337 337 340 343 346 347 348 351 352 353 352 352 351 351 354 355 358 359 360 362 366 368 368 369 369 370 369
313 315 313 312 312 313 312 306 309 316 319 316 310 303 306 304 300 303 308 307 309 310 306 320 321 321 321 323 323 324 325 326 325 326 329 336 338 340 341 346 350 349 348 350 351 352 352 352 353 354 356 357 358 358 359 361 365 367 367 369 370 370 370
313 315 313 310 312 314 310 310 317 309 304 303 309 308 299 299 299 302 306 308 309 310 311 317 318 318 320 322 324 323 323 324 325 326 329 334 339 339 341 344 347 349 348 349 352 351 351 353 357 357 355 356 357 357 358 362 365 365 366 367 370 371 371
313 313 310 302 305 311 313 314 312 315 311 308 305 307 308 306 300 301 302 306 305 313 314 318 318 320 321 321 322 322 323 323 324 327 328 330 336 338 341 344 346 348 349 350 351 350 350 353 356 355 354 355 356 355 358 361 364 366 366 365 369 370 370
311 304 308 305 306 304 305 305 306 310 310 313 312 311 308 305 303 301 301 300 306 314 318 318 320 321 322 322 322 323 323 323 324 326 327 329 336 340 341 345 347 349 350 351 352 351 350 351 355 355 353 354 355 355 356 358 360 362 361 362 364 370 370
305 306 311 310 309 309 307 305 304 307 308 305 302 302 310 308 304 299 300 300 311 316 320 320 320 322 323 324 323 322 324 324 329 327 327 330 333 343 344 344 346 348 352 352 352 352 349 348 351 352 352 353 354 352 352 354 353 357 357 358 362 369 372
306 309 312 313 313 312 310 309 306 309 310 310 306 298 303 308 308 310 308 304 307 320 322 322 322 323 323 324 323 323 324 326 326 327 326 332 341 344 344 344 343 347 352 353 353 354 351 348 352 353 350 348 348 349 349 352 349 352 354 355 359 368 370
311 312 313 313 313 311 308 309 310 308 306 308 309 308 310 306 308 305 305 303 307 318 325 324 323 326 324 324 324 324 324 325 326 326 326 343 341 347 346 345 340 345 351 354 357 356 356 354 356 354 347 346 346 346 347 350 349 349 351 351 356 365 370
304 306 309 308 311 310 307 306 308 310 309 310 311 312 313 306 306 307 304 299 307 317 322 324 323 323 322 323 324 325 324 326 325 326 330 334 338 347 347 346 346 348 349 354 358 359 361 359 351 355 350 345 344 345 346 346 349 348 349 350 353 363 368
295 295 296 298 302 304 307 308 308 309 308 308 307 303 307 301 309 311 305 305 311 318 323 321 321 321 323 324 324 324 326 327 325 325 328 342 343 351 352 350 346 347 354 359 363 363 364 357 353 360 357 346 343 345 346 346 347 348 348 349 350 358 366
303 304 308 311 310 307 303 305 306 307 309 310 309 308 304 301 307 307 308 311 310 314 316 318 319 320 321 321 324 323 324 324 326 335 349 344 348 352 350 350 348 355 358 359 359 362 358 356 357 357 354 350 344 350 349 347 347 349 351 350 353 353 363
310 310 310 311 310 307 307 306 305 307 307 308 307 305 302 311 306 301 309 315 310 311 316 318 319 320 322 323 324 323 324 325 326 328 354 354 349 352 352 351 350 351 355 358 359 359 359 358 359 359 357 355 351 351 349 349 347 347 350 354 353 353 359
310 311 311 311 310 310 310 308 307 306 307 306 305 307 308 310 304 302 310 314 312 313 315 317 320 321 322 321 323 324 326 325 328 334 332 342 348 351 350 352 353 353 352 357 358 358 359 360 360 360 359 359 360 357 356 356 349 347 354 357 358 355 359
310 310 310 311 309 309 309 309 309 309 308 307 306 306 308 308 310 310 310 314 312 314 315 317 318 322 323 323 325 325 325 323 329 327 328 325 329 343 352 354 353 355 356 358 360 360 362 360 361 359 361 362 360 359 358 357 355 350 354 359 364 360 360
307 310 310 310 310 309 307 309 309 310 310 309 308 307 307 309 308 308 309 311 312 316 320 319 321 322 322 324 323 322 326 325 324 325 324 325 328 332 341 356 355 356 358 360 361 361 361 360 361 361 363 363 362 360 359 358 358 354 353 365 362 363 365
305 310 310 310 310 308 308 307 308 309 308 307 308 307 308 307 307 308 307 307 308 314 317 320 322 322 322 321 323 324 325 324 327 326 325 327 330 330 331 343 357 358 358 360 361 360 360 360 362 363 365 363 361 358 359 359 359 356 356 362 364 368 368
305 309 310 309 309 307 303 304 307 309 310 310 310 311 312 310 309 306 304 306 312 315 317 316 319 320 321 321 321 322 326 332 328 327 327 326 326 328 337 341 356 357 357 360 363 361 361 361 362 364 366 362 363 361 363 363 363 359 360 364 368 369 370
305 308 309 309 305 298 298 310 313 312 309 310 309 308 310 312 312 310 311 312 315 315 315 315 316 318 320 323 327 328 328 327 331 326 328 326 327 327 330 339 346 358 359 361 364 364 365 364 363 364 366 363 363 362 363 364 363 363 365 366 369 368 370
305 309 309 303 297 298 312 315 315 315 314 313 311 312 312 313 314 314 313 313 314 316 317 317 318 321 321 323 323 323 324 327 325 328 326 329 330 331 341 343 341 351 362 362 365 365 363 361 363 363 362 362 364 361 363 363 366 369 366 368 369 370 369
310 308 305 296 297 311 313 314 315 316 314 313 312 310 313 314 314 315 314 315 315 317 317 318 320 321 320 319 324 327 324 325 325 323 325 327 328 337 341 345 349 358 359 361 361 364 362 361 362 361 362 363 361 358 361 363 363 365 366 367 367 368 367
303 305 305 303 311 309 310 310 313 313 311 312 309 306 309 315 316 316 315 316 317 316 317 318 320 321 319 319 320 322 322 325 325 324 325 325 335 335 341 348 354 362 361 361 363 367 362 360 361 360 362 361 361 359 361 363 365 365 366 367 367 368 365
308 305 303 303 302 299 305 321 320 321 321 320 319 317 311 316 317 318 316 315 317 317 317 318 320 321 318 315 316 321 320 323 325 327 329 331 332 329 338 352 354 364 363 362 364 362 361 360 361 362 362 362 363 361 363 364 365 364 365 366 367 368 365
307 305 301 301 299 303 317 318 319 321 323 320 321 311 305 316 318 318 317 315 317 317 318 319 319 317 313 314 320 327 328 327 328 330 331 334 332 335 341 348 354 359 360 359 361 361 361 358 361 364 363 363 361 361 362 361 362 362 365 367 367 366 364
306 305 302 300 305 305 317 319 320 321 321 320 315 302 302 316 317 317 318 316 317 317 320 320 318 317 313 315 321 325 325 325 328 334 337 336 333 335 341 346 356 360 362 362 360 356 356 360 363 367 363 360 360 359 361 361 360 362 365 367 368 368 366
303 303 304 306 308 318 319 320 322 321 321 317 307 299 312 328 330 332 333 332 320 320 320 320 315 320 322 326 328 339 336 327 334 339 341 341 339 338 340 346 354 357 357 357 355 355 359 365 361 360 356 357 359 362 363 362 362 363 365 367 367 367 364
302 304 301 302 307 318 320 323 320 322 315 306 303 322 329 332 328 331 332 332 333 330 322 320 319 321 324 326 328 337 343 344 345 346 345 346 346 347 346 353 357 357 354 357 355 355 359 357 354 356 361 362 361 361 360 360 362 366 367 368 366 364 362
305 305 302 299 295 317 322 321 318 322 311 311 325 327 328 328 329 329 332 333 333 331 327 325 326 325 322 326 332 334 345 347 347 346 346 346 346 350 355 355 354 352 352 351 350 352 353 354 357 363 363 361 359 358 358 363 366 369 368 366 364 362 361
301 300 299 299 309 320 323 320 312 322 324 329 330 328 322 328 328 330 331 333 336 336 333 331 328 327 331 334 339 344 346 346 347 349 350 352 354 353 352 351 352 353 353 355 357 358 357 362 364 363 364 362 363 362 363 367 367 367 367 366 364 361 358
307 305 308 322 323 321 321 322 323 324 326 328 328 327 326 327 329 331 331 333 335 335 339 340 339 340 342 344 344 345 345 347 348 350 351 351 350 348 349 350 356 358 358 357 356 358 359 361 362 363 364 363 362 362 363 365 365 365 364 362 360 357 356
320 320 322 321 322 321 320 321 323 323 325 328 329 328 327 330 332 331 330 332 330 335 339 337 338 338 340 341 341 343 344 345 346 348 349 350 351 351 351 353 353 353 353 355 356 356 360 363 364 365 366 366 362 361 362 361 361 360 357 356 356 355 353
312 305 319 321 322 321 321 322 323 326 326 327 330 330 330 331 331 332 332 335 334 334 336 336 336 337 339 339 340 343 345 344 345 344 345 347 347 347 348 349 351 349 348 345 345 347 349 352 353 354 357 358 358 358 360 361 360 360 358 357 353 351 349
312 312 319 320 324 325 324 324 322 322 323 326 328 329 331 332 330 331 331 333 332 333 332 333 334 333 334 335 337 338 341 343 346 347 349 348 343 345 346 346 346 345 344 343 343 344 346 348 350 352 353 354 355 356 357 359 360 359 355 353 350 349 347
314 318 320 320 322 323 323 324 326 326 325 324 324 326 327 329 327 326 328 331 334 334 334 337 336 335 335 336 338 338 339 338 339 341 345 347 350 352 353 354 352 351 351 350 351 350 349 349 349 350 351 350 351 354 355 357 358 354 350 347 349 346 345
309 309 314 318 312 312 318 321 323 324 326 325 324 324 323 323 323 323 323 324 326 326 327 328 329 329 331 335 338 338 340 343 342 340 339 339 341 343 346 347 349 349 351 352 351 350 350 351 349 347 348 350 351 352 356 356 354 352 350 348 346 344 343
308 316 322 323 321 320 320 322 323 323 324 324 322 321 321 322 323 322 322 321 322 322 323 327 326 326 325 326 330 332 333 337 340 342 342 340 341 342 344 343 344 345 345 346 348 347 346 346 345 345 345 344 349 351 354 355 353 352 350 346 343 343 342
317 319 321 323 319 316 320 322 322 322 324 321 319 320 320 319 319 320 320 320 320 321 322 322 324 325 325 325 325 326 328 330 333 335 338 340 342 343 345 346 348 349 348 346 344 344 345 345 344 345 343 346 350 351 354 354 353 352 350 347 343 341 341
315 321 323 324 321 320 321 321 321 322 323 322 320 320 320 319 319 319 317 318 319 319 320 319 320 321 323 324 324 324 324 325 327 329 332 334 333 336 338 342 345 346 347 347 347 347 347 346 346 346 346 348 351 350 353 352 352 351 349 347 342 341 341

ECMWFFLT2_sfc_thetae_018.txt.gz
Theta_e
313 311 313 312 312 300 307 308 303 306 313 310 306 307 308 308 305 302 311 309 312 317 319 320 322 322 323 324 324 324 326 327 330 329 333 334 334 335 336 337 340 344 345 347 349 350 350 351 351 351 353 356 358 359 361 362 364 366 366 366 366 367 368
313 315 314 313 312 312 308 303 306 312 314 313 308 300 304 302 299 302 307 305 307 308 305 319 319 319 321 323 323 323 325 327 326 329 334 334 333 335 337 341 346 346 345 347 348 348 348 350 350 353 355 357 359 359 360 362 363 365 366 366 366 366 367
313 315 313 310 312 313 307 307 314 305 301 300 307 305 297 297 297 300 305 307 307 309 309 314 316 317 319 322 324 323 323 325 325 331 331 334 335 335 337 338 346 346 346 347 350 349 349 350 354 355 356 356 356 359 360 360 361 364 365 364 365 366 367
312 312 310 302 305 311 312 312 308 313 308 305 302 304 305 304 299 299 301 304 303 312 312 315 316 319 321 321 322 322 323 324 325 326 335 335 335 336 335 336 341 345 345 345 346 348 349 351 353 353 353 352 351 354 358 359 360 364 366 365 366 365 366
312 304 307 304 306 304 305 305 304 306 307 311 309 308 305 302 301 300 300 299 305 312 317 317 319 322 322 322 323 325 324 324 324 326 328 335 337 338 338 338 338 341 342 341 344 349 351 352 353 352 352 351 350 351 354 355 359 360 363 365 365 365 365
306 307 311 310 309 309 306 304 303 305 303 303 300 299 308 307 303 298 299 299 309 315 318 321 322 324 321 322 324 324 324 324 326 327 329 337 336 340 340 338 337 338 342 345 347 350 352 352 351 351 351 351 350 350 352 355 358 360 360 363 365 365 366
307 310 313 314 313 312 310 308 305 307 306 308 304 296 301 306 306 308 306 302 306 319 322 325 321 322 321 323 324 324 324 325 325 327 326 334 338 338 336 336 336 339 342 345 346 346 349 351 353 352 352 350 349 349 352 356 357 359 362 362 364 367 366
311 313 314 315 314 312 309 309 309 307 303 306 305 305 307 304 306 303 303 301 305 316 330 328 322 331 323 324 324 326 323 325 325 326 327 335 338 338 337 338 336 340 346 348 347 346 348 352 354 353 352 351 349 350 352 353 353 357 360 361 362 365 366
304 307 310 309 312 311 307 306 308 308 308 308 308 309 312 303 304 305 302 298 304 315 329 330 325 322 320 321 322 324 325 326 325 327 338 338 345 344 342 342 342 344 343 347 348 348 351 354 354 355 354 352 350 351 350 350 350 355 359 359 358 362 363
294 295 296 298 302 305 307 309 308 309 307 306 304 301 305 299 309 308 303 303 310 317 323 323 323 321 328 325 323 323 326 335 327 331 342 338 345 345 345 346 345 343 346 349 352 356 358 355 353 356 356 353 350 350 350 350 349 352 355 355 354 358 361
301 304 308 310 310 307 304 306 306 307 308 308 307 305 302 299 305 306 307 310 313 313 316 319 317 320 321 321 324 323 326 326 344 345 346 346 350 349 348 350 348 349 350 350 356 361 360 356 354 355 356 353 351 352 351 349 350 350 352 352 354 354 359
308 309 309 310 310 306 307 306 305 307 307 307 306 302 300 309 306 299 309 321 311 311 315 318 320 319 323 325 326 324 327 339 329 330 344 350 346 352 353 353 354 355 361 360 360 361 361 357 355 354 355 353 352 351 350 348 348 348 348 351 353 355 359
307 308 310 311 310 309 308 307 307 306 307 307 305 306 306 310 303 300 311 319 315 314 313 316 321 324 324 320 323 324 328 328 336 353 339 341 344 351 351 354 355 355 359 368 365 362 362 360 356 354 353 353 353 351 349 348 345 347 349 350 351 354 359
307 308 308 310 310 309 308 308 308 308 307 306 306 306 307 307 310 311 310 318 314 313 314 315 318 326 323 324 328 328 327 323 336 335 339 330 329 345 350 354 355 359 361 367 368 365 364 361 358 354 353 354 353 349 347 346 345 346 351 350 351 352 359
307 309 309 309 309 309 307 308 309 308 307 307 307 306 307 308 307 307 307 311 312 314 321 319 321 322 324 326 324 322 326 326 324 326 325 328 330 337 351 356 354 357 359 362 367 364 364 362 360 357 356 357 356 349 344 343 346 346 352 352 352 351 359
304 308 309 308 309 308 308 307 308 307 307 306 306 305 307 306 307 308 307 307 308 314 317 317 320 321 322 321 324 326 329 325 327 327 326 327 329 342 346 354 353 355 356 360 362 363 362 362 363 360 360 360 357 350 346 343 342 344 349 354 352 352 361
303 307 308 308 308 307 303 304 307 309 309 309 310 311 310 309 308 305 304 305 313 317 319 316 317 317 320 320 321 322 324 335 327 327 329 330 330 335 351 355 357 354 352 355 361 359 358 359 360 361 363 360 359 357 354 348 346 344 345 356 357 356 362
303 306 307 308 304 297 299 310 313 311 309 309 307 308 309 311 310 308 310 311 316 318 316 315 317 317 320 324 328 328 330 337 345 338 334 329 329 330 332 347 355 357 358 357 360 360 362 362 359 360 362 361 362 361 359 359 352 348 348 359 360 358 363
301 306 306 301 296 298 311 314 315 314 313 312 311 311 312 313 313 313 311 312 314 317 317 318 322 328 328 331 328 323 323 327 328 334 333 337 337 334 335 339 354 360 362 363 364 366 360 359 362 362 362 361 363 361 362 361 362 361 356 362 363 363 366
305 303 302 294 296 309 312 313 315 317 315 313 312 309 311 313 313 315 314 318 317 318 317 316 321 325 321 318 322 328 327 325 326 324 325 327 328 331 336 347 351 363 362 362 360 364 362 363 360 359 359 360 360 360 360 361 361 363 364 368 367 367 369
300 301 301 301 310 308 309 310 312 312 310 311 309 304 309 314 315 315 316 318 319 320 317 316 316 319 317 319 320 319 319 324 325 323 324 324 327 328 332 337 355 366 365 364 361 369 366 362 359 358 359 360 361 360 358 358 361 362 368 368 368 369 371
305 301 300 301 302 299 305 314 318 321 319 319 319 315 312 321 320 320 318 318 320 323 325 322 318 319 316 313 316 320 319 320 321 323 324 324 325 327 329 334 353 359 360 364 366 366 365 363 361 362 361 362 363 361 358 361 360 359 369 368 369 371 371
305 303 300 299 298 303 312 314 319 321 321 319 319 313 307 318 319 320 323 320 323 322 321 328 326 321 312 311 315 322 321 321 320 320 321 322 323 326 327 339 350 353 359 360 360 367 366 362 363 365 363 362 361 360 361 359 359 360 368 369 369 370 371
304 303 300 299 306 308 314 319 320 320 322 319 315 301 302 325 328 327 328 324 321 327 331 331 325 320 313 313 317 320 321 322 323 336 341 328 324 325 327 328 342 354 367 365 362 362 363 365 364 365 363 362 360 360 360 359 359 362 367 368 371 370 371
303 302 302 304 306 315 318 317 320 320 321 317 304 297 307 327 327 326 328 326 329 332 332 331 321 323 321 322 326 322 322 322 337 342 344 343 339 328 325 327 348 366 367 364 360 359 364 367 364 362 361 361 360 361 361 361 360 362 369 371 370 369 370
300 302 300 301 305 314 316 321 321 320 315 303 302 322 327 328 324 327 326 328 330 333 334 334 333 330 325 324 322 325 324 326 342 341 338 341 346 333 343 358 347 361 358 364 362 358 367 367 364 363 364 364 363 364 363 364 366 367 370 370 369 368 368
303 303 300 298 294 311 319 321 317 319 309 310 322 327 327 324 325 326 328 328 330 332 331 333 334 333 334 328 326 329 329 336 343 344 343 348 344 349 347 364 352 356 358 359 355 357 360 361 361 363 367 365 364 364 365 367 368 370 370 368 367 365 363
298 298 297 297 307 316 321 318 313 318 318 328 329 324 321 324 325 327 326 331 332 331 331 335 336 337 337 337 339 341 337 337 340 344 349 354 348 353 351 353 356 355 358 357 355 357 355 361 365 366 368 363 363 364 366 369 369 368 368 367 365 361 360
303 302 305 318 323 321 320 321 326 325 326 327 326 326 324 322 325 331 329 330 330 330 334 335 337 334 335 336 340 342 342 343 345 344 347 346 354 353 347 351 358 355 355 357 354 359 364 368 369 369 368 365 364 366 368 367 366 366 365 363 360 358 358
319 321 321 322 321 321 323 321 323 323 323 324 326 325 325 326 328 328 326 330 330 331 334 334 334 333 333 333 330 333 342 343 345 348 348 352 351 350 348 354 356 355 354 354 356 357 365 368 368 368 370 367 365 366 368 366 366 364 362 359 358 358 357
310 302 319 320 319 320 320 320 322 324 324 324 327 328 327 328 329 328 331 332 332 333 334 333 332 332 333 330 329 329 329 336 342 341 341 340 344 350 347 353 359 355 350 351 358 360 361 363 364 364 365 365 366 368 365 364 363 363 360 357 354 353 352
310 309 318 320 321 322 322 321 320 320 323 326 327 327 328 326 325 325 327 329 329 331 332 334 335 334 332 329 328 329 328 328 333 344 344 341 339 342 350 351 353 352 357 354 357 359 359 362 364 361 361 361 362 362 362 362 361 359 355 353 351 351 349
313 318 320 320 322 321 320 322 322 323 323 324 326 327 325 324 323 323 323 323 321 321 323 329 332 332 331 329 331 332 331 327 331 335 342 344 346 349 350 352 355 352 352 352 355 354 355 358 359 359 359 359 360 360 359 359 358 354 351 348 349 347 346
306 310 316 320 314 311 318 319 320 321 322 322 320 320 320 320 320 320 320 319 320 320 320 321 323 325 331 334 332 332 332 332 332 334 339 342 343 344 346 348 349 349 350 352 352 352 351 351 350 351 353 354 355 356 356 357 355 351 350 347 346 344 344
307 314 318 321 321 320 318 319 320 320 320 319 317 317 317 318 319 319 318 317 318 319 319 320 319 320 321 322 326 331 332 331 334 336 339 339 342 343 345 343 344 345 346 348 349 351 352 352 350 351 353 354 356 355 355 354 352 351 349 345 343 342 342
316 320 320 323 320 314 317 320 321 321 323 320 318 319 319 320 320 320 319 319 318 318 320 318 317 318 320 321 320 321 322 324 327 333 335 337 340 343 344 344 344 344 344 345 346 347 349 349 350 353 351 352 354 352 353 352 351 350 348 345 343 341 341
315 323 322 320 318 318 319 319 319 321 323 322 320 319 319 318 318 319 318 318 318 319 317 314 313 316 319 319 319 319 320 321 324 328 330 331 335 339 340 341 342 345 345 344 346 348 348 350 350 350 350 351 354 353 354 353 352 351 350 346 342 341 341

ECMWFFLT2_sfc_thetae_021.txt.gz
Theta_e
308 309 311 310 310 296 299 302 298 301 305 304 300 303 304 304 298 295 307 305 307 312 313 316 317 317 318 319 320 321 322 324 326 326 328 329 329 329 330 332 333 335 339 339 340 342 343 345 347 347 347 348 349 351 353 354 355 357 357 357 357 358 358
309 311 311 311 310 308 302 298 301 308 308 307 301 294 297 295 291 296 301 299 300 301 297 312 314 315 316 317 318 320 320 323 325 326 328 329 329 332 333 333 334 335 339 341 341 342 344 345 346 347 347 348 350 352 354 354 355 355 357 357 358 358 357
309 311 310 307 310 310 304 301 308 300 294 295 300 301 291 291 291 292 297 300 301 302 304 309 310 312 314 316 318 319 319 322 325 326 328 329 331 333 334 334 334 335 336 340 341 342 344 346 347 348 349 349 351 353 355 355 355 357 357 358 358 359 359
308 309 306 298 302 307 309 308 304 307 302 298 296 298 299 298 291 294 294 298 297 307 304 310 311 313 314 315 316 318 319 321 324 326 328 329 331 332 333 334 335 336 337 339 341 342 343 345 347 348 349 350 351 353 355 355 356 357 358 358 359 358 359
308 301 304 301 301 299 301 301 300 301 301 304 302 303 299 294 293 291 292 291 298 306 310 311 313 314 316 316 316 318 319 321 323 325 328 330 331 332 332 333 333 335 337 338 340 342 344 347 348 349 349 349 350 353 354 355 355 356 357 358 359 359 360
301 303 308 307 306 305 303 301 300 301 298 295 294 293 302 300 296 290 291 292 302 308 316 315 313 316 317 318 318 319 320 321 322 325 328 330 330 331 332 332 333 334 338 339 340 341 343 346 348 347 349 349 349 351 354 355 356 356 357 358 358 359 360
300 306 309 311 310 309 306 305 302 303 300 299 295 287 293 299 300 302 300 296 296 310 314 313 315 320 318 319 320 319 320 320 322 324 328 330 331 331 332 332 333 335 337 339 340 341 342 344 347 347 348 348 349 350 352 355 356 356 358 358 359 359 359
306 308 310 310 310 308 305 305 305 303 300 300 297 296 300 297 299 295 295 295 297 310 312 315 320 321 319 320 321 320 321 321 322 321 328 329 329 330 331 332 333 336 339 339 339 341 342 343 345 346 347 348 348 350 351 353 354 356 358 359 359 359 359
296 301 304 305 308 307 304 302 304 305 304 303 302 301 306 297 298 298 294 291 295 310 315 320 317 321 315 318 320 321 320 320 320 321 325 330 329 330 330 330 331 334 337 337 338 341 343 344 346 346 347 347 347 348 350 351 353 356 357 359 359 359 359
288 289 291 293 297 301 303 305 304 304 304 302 299 295 296 291 299 301 296 295 299 308 312 312 318 315 318 319 318 321 321 320 321 321 327 329 329 329 330 330 332 333 335 337 338 340 343 345 346 346 347 347 348 347 348 351 351 353 355 357 359 359 359
294 297 300 311 309 302 300 302 304 303 304 304 302 299 294 291 296 299 298 301 303 307 308 309 313 314 314 313 319 318 319 323 325 328 330 328 330 331 331 330 332 333 335 336 340 342 344 346 347 347 347 347 347 347 347 349 351 352 354 356 358 359 359
302 306 306 307 308 303 303 303 303 305 304 303 302 297 295 299 297 287 297 304 302 303 306 310 311 312 313 318 318 317 320 327 327 328 328 337 331 331 331 330 330 333 336 337 339 341 342 345 346 348 348 348 347 347 346 347 350 352 355 356 357 358 358
303 305 306 308 307 306 305 304 304 303 304 303 300 300 301 302 296 294 298 306 307 305 307 308 311 315 313 319 317 316 317 330 332 330 329 330 331 329 329 329 332 335 336 338 339 340 341 342 344 347 348 348 348 347 347 347 350 352 354 356 356 357 357
303 304 304 305 305 305 305 304 304 304 304 303 303 302 303 302 301 302 302 304 307 312 311 310 313 319 318 321 323 318 319 330 332 333 332 330 331 331 331 333 335 336 338 339 341 342 342 342 343 346 348 348 347 347 346 347 348 350 352 354 355 355 356
301 304 305 305 304 303 303 304 304 305 305 304 304 304 303 305 302 303 303 302 302 307 311 311 314 318 321 322 321 323 321 328 331 333 333 334 335 338 338 339 338 337 337 339 341 343 345 346 345 346 348 349 349 348 347 347 347 348 349 352 353 352 354
300 304 304 304 304 304 303 302 304 303 303 301 303 302 304 302 301 304 303 300 301 305 310 312 312 316 319 317 321 319 324 326 329 327 329 336 337 339 342 342 343 342 342 343 343 345 348 349 348 347 348 349 349 348 348 347 347 347 347 349 350 350 352
298 303 305 304 303 302 299 300 303 305 304 305 304 304 306 305 304 300 298 298 303 306 314 310 309 310 310 315 317 318 322 322 319 320 321 327 334 339 340 341 341 342 345 350 351 349 350 351 351 349 349 349 349 349 348 348 347 346 345 346 348 348 350
297 302 304 305 300 293 295 305 308 307 305 305 303 303 304 305 305 303 304 304 310 317 315 308 306 308 309 310 315 317 316 321 323 321 318 319 323 330 339 341 343 344 344 348 356 355 353 353 354 352 351 350 350 350 349 347 345 344 343 344 345 347 348
296 301 304 298 293 295 306 308 310 310 309 308 306 307 307 307 307 306 305 305 306 307 308 312 313 315 316 317 316 323 322 319 324 323 324 327 329 327 339 342 344 344 344 345 351 354 355 356 355 354 351 350 350 349 348 344 343 343 341 343 344 345 347
300 300 297 291 293 308 310 310 312 317 312 310 311 306 308 311 310 312 310 313 314 318 316 315 316 317 323 321 323 325 324 324 329 327 324 326 328 328 332 343 345 345 346 346 350 353 356 356 355 355 353 352 351 350 349 345 342 340 340 343 343 344 345
295 296 295 296 306 303 307 307 312 309 308 311 308 300 305 316 315 315 315 314 316 319 320 321 320 319 316 311 310 317 319 320 320 320 321 321 322 322 327 335 345 349 349 348 350 352 354 355 355 355 355 354 353 352 349 347 343 340 339 342 344 344 345
299 295 293 294 294 293 299 311 312 314 315 315 314 312 307 319 320 321 318 317 319 320 323 323 321 318 312 309 308 312 314 314 317 316 317 315 316 320 321 328 346 350 350 350 351 352 353 353 354 355 356 355 354 353 351 350 348 343 339 342 347 346 346
300 296 292 291 291 296 305 313 316 317 317 317 318 308 301 319 321 322 322 323 325 326 326 323 320 313 307 308 311 315 316 315 315 313 313 314 315 321 324 323 347 351 351 351 352 355 354 353 354 355 356 355 354 353 352 352 352 350 344 344 350 348 349
301 300 294 293 299 300 312 314 313 316 315 316 311 297 299 319 321 322 323 324 326 327 328 326 321 318 312 315 320 327 322 324 326 317 315 330 333 334 336 338 335 353 355 355 355 355 354 353 355 356 355 355 353 352 352 353 352 351 351 353 355 353 357
301 301 299 300 303 317 320 318 316 319 318 315 300 291 308 324 322 323 324 325 326 326 326 327 324 325 328 331 335 341 339 334 336 338 334 335 334 332 334 339 345 350 357 356 356 357 356 355 355 356 355 354 352 353 353 352 351 352 357 360 360 363 364
299 299 299 298 303 313 319 321 319 320 314 299 297 315 325 325 323 325 326 324 325 326 327 327 328 330 335 335 336 338 339 339 341 342 342 341 338 338 344 351 346 341 353 355 356 358 358 357 356 356 354 353 353 353 353 352 352 355 362 363 364 365 364
300 304 298 292 286 307 319 322 317 318 308 310 321 324 324 326 325 325 325 326 326 328 327 330 331 332 333 332 333 334 334 335 337 339 342 342 342 340 340 345 348 350 346 351 355 357 359 359 358 357 355 353 353 353 353 353 355 360 364 365 365 364 362
298 296 293 292 303 316 319 315 307 315 320 326 327 322 320 324 325 325 325 327 329 330 329 329 330 331 330 329 330 331 332 333 334 337 338 338 339 341 344 348 349 350 352 350 352 355 360 360 359 357 356 353 353 352 353 356 360 363 364 365 364 361 358
305 302 306 312 314 317 321 323 319 322 324 326 325 324 323 322 324 327 326 328 331 332 331 330 329 327 328 328 329 328 329 331 332 333 335 338 339 341 340 339 339 342 346 344 341 344 354 359 358 357 357 354 352 351 355 360 362 362 362 362 360 358 357
316 315 315 318 316 317 321 323 323 323 324 326 325 324 320 320 319 320 322 327 331 331 331 328 326 327 329 329 328 328 328 329 331 332 333 334 336 340 343 341 337 336 338 340 340 338 339 344 353 356 357 356 352 354 361 361 362 362 360 358 356 355 354
303 297 315 315 315 317 319 321 324 324 324 322 322 319 318 317 318 318 318 319 324 329 328 327 327 328 329 329 328 328 328 328 329 330 331 331 332 334 338 339 338 337 339 339 338 339 339 340 339 353 359 358 359 362 361 362 361 359 357 355 352 351 350
306 306 314 317 319 319 317 317 319 320 320 321 321 319 318 317 317 317 317 318 317 320 321 326 325 325 326 326 327 327 328 328 329 329 331 331 332 333 337 338 339 337 335 334 335 336 335 336 338 339 347 356 362 362 361 360 357 355 352 351 350 349 347
308 313 317 316 318 318 316 319 319 318 318 318 317 317 316 316 316 316 315 315 315 316 316 318 318 319 321 324 325 326 328 328 329 330 331 332 332 332 334 337 338 338 336 332 333 335 334 335 337 338 341 342 343 345 348 348 345 343 342 342 342 343 344
302 306 309 314 308 307 315 315 318 320 318 317 316 316 316 317 316 316 314 312 313 314 315 316 316 314 315 316 317 317 319 325 329 330 331 332 332 332 335 337 338 339 338 336 337 337 336 336 335 336 338 342 343 345 345 343 343 342 343 343 343 342 341
302 310 314 317 317 317 316 317 319 319 320 319 316 315 315 316 317 317 314 310 310 311 313 316 315 314 314 314 316 315 316 317 322 330 332 332 332 333 335 335 336 337 339 340 336 333 334 336 337 338 339 343 343 343 344 345 344 342 341 341 341 340 338
312 315 317 318 316 314 317 319 319 318 319 316 315 315 316 316 315 314 313 312 310 310 311 312 315 314 313 314 315 314 314 316 317 319 321 326 332 334 335 336 337 337 338 339 335 333 335 337 336 336 339 340 341 341 342 342 343 344 342 340 338 337 336
310 318 319 319 321 320 321 321 320 321 319 319 316 315 315 314 314 315 313 313 313 312 311 311 312 314 312 312 313 314 314 315 318 320 322 322 323 324 331 337 336 337 337 340 340 339 336 335 336 338 342 343 342 344 345 344 345 342 341 339 337 336 335

ECMWFFLT2_sfc_thetae_024.txt.gz
Theta_e
306 305 308 306 304 294 296 299 295 296 301 300 294 299 300 299 295 292 296 301 301 304 306 313 315 316 317 319 321 322 322 324 325 325 325 325 326 327 328 329 329 330 331 334 336 337 339 342 343 344 344 345 346 348 350 350 351 352 353 354 354 353 353
306 309 308 308 307 302 297 296 296 301 303 302 297 288 293 291 288 291 297 295 295 299 295 307 310 313 315 317 319 322 322 323 323 324 325 326 326 327 329 330 330 331 331 333 336 337 339 342 343 344 345 346 347 349 350 350 351 351 352 353 354 354 353
306 309 307 305 307 307 302 296 302 299 291 292 294 293 288 287 288 288 293 296 296 298 298 304 308 311 313 315 317 319 320 321 322 323 325 327 328 328 328 329 330 331 331 332 335 336 339 342 344 345 346 346 347 349 351 352 351 352 353 354 354 355 355
305 306 304 297 300 305 306 303 299 302 296 296 292 294 292 292 287 290 289 294 291 301 300 305 309 311 314 315 316 317 319 321 322 323 324 326 327 328 328 329 330 331 332 333 334 336 338 340 343 345 346 346 347 348 350 352 353 353 353 353 354 354 355
303 298 300 300 301 299 300 300 299 299 299 299 299 299 295 291 287 285 287 289 293 298 305 308 308 312 314 315 316 317 319 320 322 324 324 325 327 328 328 329 330 331 333 334 334 336 338 341 344 345 346 346 347 348 349 352 352 352 353 354 354 354 355
296 299 303 304 304 304 302 301 299 300 296 293 291 290 298 296 293 286 288 290 291 302 311 311 310 311 314 316 316 317 319 319 321 323 324 325 327 328 329 329 330 332 333 335 335 336 339 340 343 344 346 346 346 347 349 351 352 353 353 353 354 354 355
298 300 304 307 307 306 305 303 301 301 297 294 292 285 288 296 294 298 294 290 295 304 309 311 312 313 314 315 317 317 318 319 321 323 325 325 327 328 329 330 330 331 333 335 336 336 338 339 342 344 345 345 346 347 349 351 351 352 354 354 355 355 355
302 303 304 304 306 306 304 304 304 301 297 298 295 290 292 293 293 293 292 293 294 302 309 309 310 311 314 316 317 317 319 319 320 323 324 325 326 328 330 331 331 331 332 334 337 336 338 340 341 343 344 345 346 347 348 350 351 352 353 354 355 355 355
292 298 300 300 303 304 301 301 303 303 302 300 298 298 299 295 292 294 291 289 293 300 309 309 309 314 315 314 315 316 316 317 319 323 325 326 327 327 328 330 331 331 331 332 335 337 338 340 342 343 344 345 345 346 348 350 351 352 354 355 355 355 355
286 286 288 290 294 298 301 302 302 303 301 299 296 293 293 288 293 295 290 292 292 300 306 308 309 308 312 314 315 318 319 318 318 321 325 326 327 327 328 329 329 329 331 333 334 336 338 340 342 343 344 345 345 346 348 350 351 352 353 355 355 355 355
293 294 293 297 302 299 298 299 300 301 302 302 300 296 292 292 290 294 292 296 298 301 304 305 307 308 306 310 312 314 316 317 319 320 324 326 327 327 328 329 329 329 331 333 334 335 337 339 342 343 344 344 345 346 347 350 352 352 353 354 355 355 355
299 300 299 301 302 299 301 300 299 301 301 301 299 295 294 295 292 292 294 297 300 299 302 303 305 307 307 308 311 315 314 316 317 319 322 333 326 327 328 328 327 329 331 333 334 335 336 338 341 343 344 345 345 345 346 349 351 353 354 354 354 354 354
301 302 301 303 302 301 300 302 301 299 300 301 299 298 297 297 295 294 295 298 298 299 302 304 305 305 306 309 311 315 317 318 319 322 321 323 325 325 326 327 327 329 332 333 334 336 337 338 340 342 344 344 345 346 347 348 351 352 354 354 354 354 354
300 301 301 302 301 301 301 300 301 301 300 300 301 300 300 298 297 298 298 300 301 303 305 305 306 307 309 310 313 314 317 319 321 323 322 324 324 324 325 326 327 329 332 334 334 335 337 338 339 342 343 344 345 345 346 348 349 352 353 353 353 353 353
298 300 302 302 302 301 300 300 301 301 301 300 301 301 301 301 299 298 297 298 299 302 305 307 308 309 315 315 316 314 316 320 322 322 322 323 325 326 326 327 327 329 332 334 334 335 337 339 340 342 343 344 345 345 346 347 348 350 352 352 353 353 353
295 299 300 301 302 301 300 299 299 300 300 299 300 299 300 299 297 298 297 296 297 299 302 305 305 310 310 311 313 316 320 325 327 322 322 323 324 326 327 327 328 328 330 332 334 336 338 340 341 342 343 344 345 345 346 346 347 350 350 351 351 352 353
291 299 300 300 300 299 296 297 300 300 299 301 303 303 304 303 302 298 295 296 298 302 305 304 304 306 309 310 313 313 319 324 326 325 325 325 325 326 327 327 328 329 331 333 335 337 338 340 342 344 345 344 344 345 345 346 347 348 349 350 350 351 353
292 298 299 299 296 290 293 302 303 302 301 300 299 299 301 303 303 301 301 302 302 302 304 305 304 304 307 310 313 314 321 323 324 326 327 328 328 328 328 329 330 331 333 334 336 338 339 340 343 345 347 346 346 347 347 347 346 347 348 349 350 350 352
292 297 298 295 289 291 301 304 304 305 305 303 301 305 305 303 304 304 302 302 303 305 306 307 306 306 307 310 310 310 314 321 326 327 328 328 329 329 330 330 332 332 333 334 336 337 339 341 342 344 346 347 347 347 347 346 346 346 347 348 349 350 351
296 294 294 289 290 301 308 306 307 308 304 304 305 307 310 312 306 305 310 312 312 312 312 311 308 312 313 315 317 319 319 316 317 321 325 328 330 330 331 332 333 333 333 334 335 336 341 343 343 343 344 347 347 347 347 346 345 345 346 346 348 350 350
291 292 292 292 301 303 304 304 307 305 303 302 302 298 306 315 317 311 311 313 316 317 318 317 316 313 311 309 318 326 331 327 317 320 320 322 327 331 333 333 333 335 336 336 337 339 341 343 344 344 345 346 347 347 346 346 345 345 345 344 346 348 350
300 294 291 293 293 291 296 305 310 312 309 308 309 311 307 315 319 318 319 317 318 318 317 315 314 313 307 306 313 325 333 337 326 329 318 319 322 324 329 333 337 339 339 339 340 342 344 345 347 347 346 346 346 346 346 346 345 344 344 343 344 346 348
298 296 291 290 290 292 299 306 312 314 313 313 311 309 302 312 319 319 323 322 320 318 318 319 315 310 306 309 315 327 335 336 337 337 337 326 312 316 324 331 335 337 340 342 342 345 348 348 348 349 349 347 345 345 345 345 345 344 343 343 343 344 346
297 296 292 289 295 300 306 310 313 315 313 311 306 295 298 310 318 321 323 322 322 322 322 325 322 314 310 314 322 332 334 335 337 336 336 336 334 334 340 336 331 338 342 343 342 343 345 349 351 351 350 348 346 345 345 346 344 343 343 344 344 344 345
297 297 294 294 302 309 311 312 314 317 315 308 296 288 303 318 320 322 323 323 324 324 324 323 321 322 324 325 329 332 333 333 334 336 337 337 338 338 339 342 343 339 341 343 343 343 345 348 351 352 352 350 347 346 345 345 344 344 345 345 345 344 344
295 297 295 296 300 308 312 314 315 318 311 297 295 310 317 320 321 323 324 325 326 327 326 326 326 326 329 330 330 330 330 331 332 334 335 337 339 341 341 342 339 341 344 343 343 344 345 346 348 349 350 349 348 347 346 345 345 347 346 345 344 343 343
302 299 294 289 285 302 314 314 312 316 305 304 314 319 321 324 323 325 325 325 326 327 325 326 325 325 326 326 326 327 329 329 330 331 332 332 335 337 338 336 337 340 340 343 346 346 348 350 349 349 349 348 348 348 347 347 349 348 347 345 343 342 342
296 296 292 292 305 310 315 313 305 311 314 319 320 321 319 322 324 325 326 326 326 326 324 324 325 325 325 325 326 326 327 329 330 331 331 331 333 336 337 337 337 339 338 338 339 341 344 346 348 349 348 345 344 344 346 350 350 350 348 347 344 343 344
303 299 304 311 312 313 315 315 315 317 317 319 320 319 319 320 322 326 326 325 326 326 326 326 325 324 325 324 326 325 326 328 328 329 330 330 332 334 334 335 337 337 338 337 339 341 342 344 344 344 344 343 342 344 345 350 351 352 352 352 349 348 349
313 314 313 316 315 315 315 317 318 317 316 316 316 317 316 315 319 324 324 325 325 326 326 324 324 324 324 325 325 326 327 327 329 330 330 330 331 333 335 335 335 334 337 338 338 339 338 340 341 342 343 343 339 338 343 349 354 356 356 354 353 352 353
301 294 313 313 314 315 315 315 317 318 317 315 315 313 314 315 317 317 319 322 322 322 321 320 319 318 321 322 323 325 326 327 327 328 328 329 330 331 332 334 334 332 333 333 333 334 334 337 340 340 340 341 341 340 342 348 352 353 351 352 351 353 353
303 303 312 313 316 317 316 315 314 315 316 315 315 314 313 313 314 315 315 316 314 315 314 315 314 313 314 314 315 317 320 323 325 326 328 328 329 332 333 335 334 332 332 331 331 332 333 336 338 340 340 340 340 341 345 352 354 350 346 345 346 346 347
308 312 314 312 315 314 314 315 316 316 316 315 315 315 312 312 312 312 313 314 313 313 313 313 313 312 312 313 314 315 316 318 319 321 324 325 327 330 333 334 335 333 332 331 331 333 333 335 338 339 339 340 341 340 342 344 344 340 337 335 337 338 338
300 303 307 310 305 304 310 314 315 316 318 318 315 313 311 310 310 310 310 310 312 312 312 311 312 311 311 312 313 314 316 316 318 319 322 324 326 329 333 336 335 333 332 331 331 332 333 336 337 337 337 338 340 341 341 341 341 338 338 338 337 336 336
300 309 311 314 314 314 313 315 317 318 319 317 315 313 311 310 310 309 308 308 308 309 310 311 311 310 311 311 313 313 313 314 317 319 321 324 326 329 333 334 334 334 332 333 333 332 334 336 337 337 337 338 339 340 339 340 340 338 338 337 336 336 336
311 313 314 317 316 313 313 315 316 317 318 319 315 315 313 312 311 310 309 308 308 308 310 311 312 312 313 313 313 312 312 314 315 317 321 325 327 329 331 333 333 334 334 332 331 332 334 335 335 336 337 338 338 339 339 339 339 337 335 334 332 333 333
308 315 314 316 317 317 316 316 317 318 320 320 316 317 315 314 314 315 313 312 312 310 309 310 311 313 314 314 314 313 313 313 314 316 320 323 325 325 326 328 331 333 334 335 333 333 334 335 336 336 335 337 338 337 337 337 336 334 334 334 334 333 332

ECMWFFLT2_sfc_thetae_027.txt.gz
Theta_e
302 303 305 304 303 294 295 297 293 297 299 297 292 294 295 294 290 289 293 296 296 299 303 306 311 313 315 317 318 318 318 318 317 317 319 321 322 323 324 327 329 330 332 334 335 335 336 338 339 340 341 342 343 344 345 344 345 346 347 349 350 350 350
303 305 304 305 305 300 294 293 296 299 300 300 295 286 289 288 284 287 292 293 292 297 293 304 308 309 313 315 316 318 318 319 317 317 319 320 322 323 324 326 328 330 331 333 335 336 336 337 339 340 341 342 344 345 346 345 345 345 347 348 349 350 350
302 305 303 301 303 305 302 297 300 298 289 290 290 288 286 284 285 285 286 292 293 295 296 302 304 308 309 312 315 316 317 317 318 319 319 320 322 323 323 324 326 328 329 332 334 335 336 337 340 341 342 343 344 345 346 346 346 346 348 349 349 350 351
302 302 300 295 299 302 303 300 298 299 294 294 289 292 288 288 284 286 285 290 292 298 298 302 306 308 310 312 313 314 317 318 319 320 321 321 321 322 323 324 325 327 328 331 333 335 335 336 338 340 342 343 343 344 346 347 348 348 348 349 350 349 350
300 295 297 297 299 297 298 296 295 295 297 296 298 295 293 290 283 282 284 286 291 295 301 304 306 309 311 312 313 315 317 318 320 321 323 323 322 322 323 325 325 326 327 329 332 334 336 337 338 340 341 342 343 344 345 346 346 347 348 349 350 350 350
294 295 300 302 302 302 300 298 295 297 295 291 289 289 295 292 289 284 284 287 293 295 305 308 307 310 312 313 314 315 317 319 320 321 323 324 324 323 324 325 326 327 327 328 330 333 335 336 337 339 341 342 343 343 345 346 347 348 348 349 350 350 351
296 298 301 304 305 304 303 301 299 297 294 291 290 284 288 292 292 295 292 288 293 299 305 309 309 309 311 313 314 314 316 318 320 322 323 324 325 325 325 326 327 327 328 328 329 330 332 334 336 338 340 342 342 343 344 346 347 347 349 349 351 351 351
298 300 300 300 302 303 301 301 302 299 296 296 296 293 290 291 290 291 288 290 292 302 306 308 308 309 310 312 313 315 317 318 320 321 322 323 324 325 326 327 327 328 328 329 329 329 331 333 335 337 340 341 342 343 344 345 346 348 349 350 351 351 351
290 294 297 298 300 300 298 299 301 301 302 299 296 294 294 292 291 291 289 288 291 299 307 307 307 309 309 310 311 314 315 317 318 319 321 323 323 325 326 326 327 328 328 328 329 330 331 333 335 337 339 341 342 343 344 345 346 348 349 351 351 351 351
284 285 286 289 292 295 297 299 300 301 301 299 295 294 292 290 291 292 288 289 290 296 301 306 305 306 307 309 310 312 315 316 317 318 319 321 322 323 324 326 327 326 327 329 330 330 331 333 334 337 339 341 342 343 344 345 346 348 349 351 351 350 351
289 291 293 295 299 296 296 298 298 299 301 302 300 296 292 291 288 292 290 293 294 298 302 303 304 304 304 305 305 310 312 313 314 315 318 319 321 323 324 325 327 327 327 328 329 331 332 332 334 336 339 340 342 342 343 345 347 348 350 350 351 350 351
296 298 297 299 300 298 298 297 298 299 298 300 299 296 294 294 290 291 292 295 296 296 297 299 301 302 303 304 305 306 310 312 313 315 316 327 321 322 323 324 325 326 327 328 329 331 332 333 334 336 339 341 342 342 343 345 346 348 350 350 350 350 350
298 298 299 300 299 299 299 299 299 298 298 298 297 298 296 297 296 294 295 295 296 296 299 301 303 304 304 304 304 307 309 311 313 313 314 317 320 322 322 323 324 326 326 327 329 331 333 334 334 336 338 340 342 343 344 345 346 348 350 350 350 350 350
296 298 299 300 298 298 298 299 299 300 299 298 299 299 298 297 298 297 298 296 298 299 301 302 304 304 306 305 305 307 310 312 314 313 314 316 319 321 322 323 324 326 327 328 329 331 333 334 335 336 338 340 341 342 343 344 346 348 349 349 350 350 350
293 296 299 299 297 298 296 297 299 300 300 300 300 299 299 299 298 297 295 296 298 300 301 303 305 304 303 309 313 311 310 310 314 314 314 315 317 320 322 323 324 326 327 329 329 330 332 334 335 337 338 340 341 342 343 344 346 348 349 349 349 349 350
290 296 297 298 299 299 296 297 297 297 298 297 299 298 299 297 296 297 295 294 295 299 301 303 304 303 306 306 307 310 310 310 313 315 316 316 317 319 321 323 325 326 327 328 329 330 332 334 336 337 339 340 341 342 343 344 346 348 349 349 349 349 350
287 294 296 296 297 295 293 295 298 299 298 299 300 300 301 301 300 297 295 296 299 301 304 301 302 302 303 304 305 307 310 312 315 316 317 317 318 319 321 323 325 326 327 328 330 332 333 334 336 338 340 340 341 342 343 344 346 347 348 348 349 349 350
288 293 294 296 292 287 291 301 302 301 299 298 297 297 299 299 300 300 302 302 303 302 300 301 301 302 301 304 306 311 313 315 316 320 319 319 320 321 322 324 326 326 327 329 331 333 334 335 336 339 341 341 342 343 344 345 345 346 347 348 349 349 350
287 291 294 291 285 289 299 302 303 303 303 300 298 298 299 300 300 300 300 300 301 301 302 302 303 304 310 317 322 326 326 317 316 319 321 322 321 321 322 323 324 325 326 328 330 332 334 336 337 338 339 342 343 343 344 343 344 345 347 347 348 349 349
292 290 289 284 283 295 301 303 303 305 302 300 301 301 307 309 306 299 299 301 301 301 302 303 303 311 318 320 323 326 330 330 327 319 314 320 323 323 323 324 325 326 327 328 330 332 336 338 338 338 339 341 342 342 344 343 344 345 346 346 347 348 349
284 287 288 290 297 297 300 300 305 307 303 300 300 296 301 308 313 305 302 303 305 307 307 306 307 311 313 314 317 325 331 331 332 332 331 327 317 321 324 325 326 327 329 330 331 334 336 337 338 339 340 341 341 342 342 343 343 344 344 345 346 347 348
292 287 288 288 287 288 292 303 310 312 313 312 310 303 301 310 313 314 308 308 310 311 311 309 310 308 309 309 313 322 330 332 333 334 334 335 332 328 324 324 329 330 331 331 332 334 335 336 338 340 341 341 341 341 342 342 342 343 343 344 345 346 347
294 291 287 286 286 288 299 304 308 312 314 313 312 305 298 308 314 316 317 313 312 311 311 310 306 305 302 305 312 323 329 330 333 332 333 335 336 336 336 335 334 332 332 333 333 334 332 334 336 338 339 341 341 341 341 342 342 342 342 343 344 345 347
294 293 289 286 292 296 302 308 310 313 314 315 304 293 293 307 315 319 319 317 315 316 312 310 307 304 305 312 314 327 330 331 332 330 330 332 334 335 336 337 337 337 338 336 335 335 334 334 336 338 338 339 341 341 342 342 342 341 342 343 345 346 347
297 295 290 292 295 305 309 310 313 315 316 307 296 290 299 312 317 319 320 320 320 319 319 318 317 317 317 318 324 329 329 329 329 330 331 332 333 334 335 336 338 336 337 336 335 335 336 339 340 339 340 339 339 341 342 342 341 343 344 345 345 346 346
291 293 291 291 296 304 311 313 314 316 307 293 291 304 316 318 320 322 324 323 323 324 323 323 322 321 325 328 327 327 328 328 328 329 331 332 333 334 336 339 336 337 337 337 338 338 339 341 344 344 342 340 340 339 340 341 343 345 345 345 345 345 345
297 295 292 289 285 298 313 313 312 314 303 303 311 312 317 323 322 323 323 323 323 323 321 322 323 324 325 326 327 327 328 328 328 329 330 330 331 331 332 333 335 337 336 337 338 339 343 344 343 345 344 341 340 339 339 341 343 344 345 345 345 344 344
290 292 288 289 302 310 315 313 304 309 312 313 312 311 317 322 322 321 322 322 323 324 323 322 323 324 324 325 327 327 328 328 329 329 330 331 332 332 333 333 334 335 335 336 337 337 338 340 341 343 345 343 343 342 342 341 345 345 343 343 343 343 342
299 295 299 310 313 315 316 316 314 315 315 314 312 312 315 318 320 322 322 322 323 324 323 323 324 323 325 325 326 326 326 327 327 328 329 331 332 332 332 332 333 333 332 333 334 335 337 337 338 336 340 343 342 343 344 344 345 347 345 343 341 341 341
312 312 313 316 316 316 315 317 318 317 314 315 313 310 310 313 317 320 321 322 322 322 322 320 319 321 321 321 322 323 323 323 324 327 329 331 334 334 334 333 332 331 333 334 334 334 335 337 338 338 336 338 342 342 341 347 349 349 347 344 341 340 340
299 293 311 311 312 314 314 315 317 317 317 315 314 312 312 311 312 313 314 315 315 315 315 314 313 314 316 316 317 318 319 320 322 324 326 329 332 333 333 334 332 331 332 333 334 334 335 336 338 339 338 338 337 337 338 344 349 351 349 347 343 340 339
299 301 309 311 315 315 316 315 313 314 316 315 314 313 312 312 313 312 312 313 312 314 312 313 313 314 315 316 316 317 318 319 321 324 326 328 331 334 335 333 332 331 332 332 333 334 334 336 337 338 338 338 338 339 342 346 349 349 348 347 346 344 343
307 311 311 312 315 314 314 315 315 316 316 316 314 313 312 312 311 310 310 311 310 311 311 313 314 313 313 314 316 317 317 319 321 323 325 328 330 332 333 333 331 330 331 332 333 334 335 336 337 337 337 337 338 337 340 343 343 343 343 341 342 343 344
299 301 304 310 304 303 310 313 315 316 317 317 314 314 312 310 308 309 309 309 311 311 311 312 312 312 312 313 315 315 316 317 319 321 324 326 328 330 333 333 331 331 332 333 332 333 334 336 337 337 337 337 338 339 338 338 338 337 335 337 339 341 343
297 308 310 312 313 311 312 315 316 317 318 317 312 312 312 311 309 309 309 309 309 310 311 312 312 311 311 311 313 314 314 315 318 320 322 324 327 329 331 332 333 333 333 334 333 333 334 335 336 337 337 337 337 338 338 337 337 337 338 337 337 338 340
308 312 314 316 314 310 312 315 317 317 318 317 314 314 315 313 313 312 309 309 309 309 311 312 313 312 312 312 312 312 313 315 317 319 321 324 326 328 330 331 332 333 333 333 333 333 334 335 335 336 336 337 336 336 336 335 335 334 334 335 335 336 336
306 313 313 314 315 314 315 316 316 316 317 319 316 316 315 314 313 313 311 310 310 309 310 310 312 313 312 311 311 311 312 313 317 319 321 323 325 325 327 329 330 331 332 333 333 333 333 333 334 336 336 336 338 337 337 336 335 333 332 332 332 331 330

ECMWFFLT2_sfc_thetae_030.txt.gz
Theta_e
302 304 304 303 302 293 294 296 293 297 298 296 292 293 292 291 287 285 290 293 293 297 300 304 306 307 310 313 314 314 315 316 317 317 319 322 325 327 328 329 330 332 333 333 334 335 336 337 337 338 339 341 342 343 343 344 345 345 346 347 347 348 349
300 302 306 304 305 299 294 293 296 297 300 299 294 287 287 288 283 284 290 290 288 293 292 302 304 305 307 310 312 314 314 315 314 315 317 320 322 325 327 329 331 332 333 333 334 335 335 336 337 338 340 341 342 343 344 343 344 344 345 346 347 348 348
300 301 302 299 302 301 300 297 299 298 288 290 288 288 286 283 283 282 283 288 291 293 294 299 303 304 306 308 312 313 313 313 314 315 315 317 320 323 325 326 328 330 332 333 334 334 335 336 339 339 340 341 342 343 344 344 344 345 345 346 347 349 349
298 299 299 293 296 299 301 297 298 298 294 292 288 291 286 288 282 285 282 288 289 295 296 300 303 306 307 308 309 311 314 315 315 316 316 316 317 320 322 324 326 329 331 332 333 334 334 335 337 338 339 340 340 342 343 344 345 345 346 346 348 348 349
297 293 295 296 297 295 296 294 293 294 297 295 296 292 292 288 283 282 283 284 289 294 298 303 304 306 309 309 310 312 314 316 316 317 317 318 318 318 321 323 325 327 329 331 333 334 335 336 337 338 339 339 340 341 342 344 344 344 344 345 346 348 349
291 292 298 300 300 300 298 297 295 295 292 290 288 286 293 290 289 283 282 286 290 293 302 305 305 307 309 310 311 312 314 316 317 318 319 319 319 319 320 322 324 325 327 330 332 334 335 335 335 336 338 339 340 340 342 343 344 344 344 345 346 347 349
292 296 300 303 303 302 301 299 297 298 293 290 289 284 287 290 290 292 289 286 292 297 303 305 306 306 308 310 311 312 313 315 317 318 320 320 321 321 320 321 323 324 326 328 330 332 333 334 335 336 338 339 339 340 341 343 343 344 345 345 346 348 348
296 297 297 298 299 300 298 299 300 297 295 295 295 294 289 290 288 290 288 288 290 297 304 306 307 307 307 308 309 312 313 314 316 318 319 320 321 322 322 322 322 324 325 327 328 329 331 333 334 335 337 338 340 340 341 342 343 344 345 346 346 347 348
290 292 295 295 296 298 296 296 298 298 298 297 297 294 290 291 290 292 288 287 290 296 306 307 306 305 306 307 308 311 312 313 313 316 318 319 321 322 322 322 322 324 324 325 326 328 330 332 333 335 336 337 339 340 341 342 343 344 345 347 346 347 347
283 283 284 285 288 292 293 295 298 299 298 296 294 293 291 289 291 292 288 288 286 295 299 304 305 305 305 306 307 310 310 312 313 314 316 318 320 321 322 323 323 323 324 325 326 327 329 331 332 334 336 337 338 340 341 342 343 344 345 347 347 347 347
287 289 290 293 298 294 292 294 296 297 298 299 297 296 291 290 287 290 291 293 292 296 301 301 303 304 305 306 306 308 310 311 313 314 316 317 320 321 321 323 324 324 325 325 326 327 328 329 331 334 335 336 338 339 341 342 343 344 345 346 347 347 347
294 296 295 297 298 294 295 295 295 296 297 298 296 294 293 294 290 290 293 293 295 296 297 299 301 302 303 303 304 304 307 310 311 314 317 325 319 320 322 324 324 324 324 325 326 327 327 328 330 333 335 336 337 339 340 342 343 344 345 346 347 347 347
294 295 296 297 296 296 297 297 297 296 296 297 296 296 295 296 295 293 296 295 295 296 297 300 301 303 304 304 305 304 306 307 308 310 312 313 316 318 319 322 324 325 324 325 326 327 328 328 329 331 333 335 337 339 341 342 343 344 345 346 346 347 347
293 294 295 296 295 295 296 296 296 297 297 296 297 298 297 297 297 297 298 296 297 298 299 299 301 302 304 303 304 308 308 307 310 310 310 311 313 315 318 321 322 325 326 326 327 328 328 329 329 330 332 334 336 338 339 341 342 344 345 346 346 347 347
291 293 295 296 294 294 294 296 297 297 296 297 298 298 298 298 297 297 296 296 297 300 301 302 303 305 304 306 305 306 306 306 307 310 310 311 312 314 317 320 321 324 326 327 327 328 329 329 330 330 332 334 336 338 339 341 342 344 345 345 346 346 347
287 292 292 293 294 294 294 295 296 296 295 294 296 296 297 296 295 296 296 295 295 299 301 301 302 302 303 303 304 304 306 307 311 310 311 312 313 313 315 318 321 322 324 326 327 327 328 330 331 331 332 334 336 337 339 340 342 344 345 345 346 347 347
284 291 292 292 292 293 292 295 297 298 297 297 296 297 299 301 300 296 295 296 300 301 303 302 303 302 303 302 302 304 305 308 310 311 312 313 314 315 316 317 321 322 323 325 327 328 329 330 331 332 333 334 335 337 339 341 343 343 344 345 346 347 348
285 290 291 292 289 285 289 298 302 301 298 299 296 297 297 298 300 300 302 302 302 301 301 301 303 302 303 305 310 308 308 311 312 313 315 315 315 316 316 317 318 322 324 325 327 328 330 331 332 334 335 335 336 339 340 342 342 343 344 345 346 346 348
284 289 290 288 283 287 298 300 307 308 306 301 298 300 299 299 299 300 299 299 300 301 302 304 305 306 316 322 324 326 326 320 321 321 319 317 319 321 322 321 319 321 324 326 327 328 329 331 333 335 335 336 338 339 341 341 343 343 344 345 345 346 347
289 286 285 281 283 292 298 300 308 311 308 308 305 299 300 300 298 299 299 300 300 301 301 302 304 317 321 322 324 325 328 328 328 327 328 329 330 325 321 322 322 323 324 326 327 328 332 333 333 334 335 337 338 338 341 341 342 343 344 345 345 346 347
282 284 283 286 293 293 295 301 304 305 302 303 303 298 300 301 308 299 299 299 300 300 300 301 303 316 317 316 319 326 329 327 329 330 330 332 332 331 329 324 322 325 326 327 328 332 334 333 333 334 336 338 339 339 340 341 342 343 344 344 345 346 347
289 285 282 284 284 285 290 302 308 310 311 310 309 303 300 304 309 311 304 300 300 301 304 302 304 315 313 309 313 320 328 330 330 330 331 333 334 334 334 334 335 335 332 329 331 330 332 333 334 336 336 339 340 340 340 341 341 342 343 343 345 346 347
288 285 281 282 283 287 293 302 308 311 312 312 311 302 296 303 312 314 312 307 303 301 305 303 311 309 304 304 310 317 327 328 330 329 330 331 332 333 334 335 335 336 336 335 330 333 332 332 335 337 337 338 339 339 340 340 341 341 342 343 345 345 347
288 287 284 284 289 291 299 307 309 311 313 313 303 292 291 305 311 311 314 316 312 307 305 308 310 307 302 303 311 324 328 329 330 329 330 330 331 333 335 337 337 337 338 335 332 331 331 333 336 338 337 338 339 339 340 341 340 341 342 343 345 347 348
289 290 285 288 291 298 307 308 311 312 314 304 294 290 294 308 309 312 316 320 319 313 308 310 308 311 314 316 325 329 329 328 329 331 332 331 332 332 334 335 338 337 339 338 336 336 338 337 336 337 338 337 337 339 340 340 340 341 343 345 346 347 348
286 288 286 286 291 297 308 311 312 313 307 294 292 301 310 310 311 318 323 320 321 320 313 315 320 322 327 328 328 328 328 328 329 330 331 332 333 334 335 337 336 337 338 338 338 339 340 341 340 338 338 338 338 340 339 339 341 343 345 347 346 346 347
294 294 288 287 283 295 311 311 309 312 302 303 309 309 310 312 314 317 320 322 322 323 321 324 324 325 326 326 326 327 327 328 328 329 330 331 331 331 332 333 334 335 335 335 336 336 338 339 339 341 341 338 338 339 340 341 343 345 345 346 346 346 346
289 290 287 287 295 303 312 310 303 309 310 312 311 309 308 311 311 311 317 322 323 324 324 323 324 325 324 325 326 326 326 327 329 331 331 332 332 333 333 333 333 334 333 334 335 336 337 338 338 337 340 341 340 338 339 345 346 345 345 345 346 345 344
297 293 295 303 309 312 314 314 313 314 314 313 312 311 311 310 311 312 312 314 318 322 324 325 324 323 323 323 324 324 325 327 328 329 330 331 332 331 331 331 332 334 333 333 334 335 336 338 338 338 338 339 340 340 340 343 345 345 345 344 344 344 344
305 307 309 313 312 313 313 317 317 314 313 313 312 311 311 312 312 312 310 312 314 315 317 320 321 320 321 321 322 324 325 326 328 330 331 331 332 332 331 331 332 333 334 334 334 334 335 336 337 338 338 337 337 336 339 342 347 348 346 344 343 344 344
298 293 309 310 309 312 313 314 315 316 314 312 312 310 310 310 312 313 314 313 314 315 316 316 316 318 320 321 322 323 324 326 327 328 330 331 331 331 330 332 333 333 333 333 333 333 333 335 337 338 338 339 338 338 339 343 346 349 348 346 344 343 343
296 297 306 310 314 314 315 314 313 312 314 314 313 313 312 312 312 313 313 314 314 316 315 315 315 317 320 320 321 322 323 325 326 328 329 330 332 333 333 333 334 333 333 333 333 333 334 336 337 338 338 338 338 338 340 342 344 346 347 347 346 344 343
299 305 310 311 312 312 313 315 315 316 315 314 313 313 313 313 311 311 313 314 314 315 315 316 315 316 317 319 321 321 322 323 325 326 328 330 331 332 333 333 333 333 333 333 334 334 334 336 337 337 337 337 338 338 338 339 340 341 341 340 343 345 345
292 297 304 310 302 301 309 313 314 314 314 313 312 313 313 313 313 313 312 313 315 315 315 315 315 314 315 317 318 321 321 322 323 325 328 329 330 331 333 334 334 334 334 334 334 334 334 336 336 336 336 336 337 337 337 338 338 338 338 339 340 341 341
295 304 308 310 310 308 310 313 315 315 314 313 312 312 312 313 313 313 312 311 312 313 314 315 314 313 314 315 317 320 320 320 322 324 326 327 328 329 330 331 332 332 333 335 334 334 335 336 336 337 336 336 336 336 337 337 337 336 337 338 338 337 337
300 303 308 312 311 308 311 315 315 315 316 313 312 314 314 313 312 312 311 311 310 311 313 314 315 313 313 313 315 316 317 318 320 322 324 325 326 327 329 329 330 330 331 331 332 332 334 335 336 336 336 337 336 337 337 337 336 335 334 334 333 333 334
300 310 312 312 313 313 314 315 316 317 317 316 313 313 313 313 313 312 310 310 311 312 311 312 313 314 312 312 313 314 316 317 319 321 322 323 325 324 326 328 328 329 329 331 331 332 332 333 334 336 336 337 339 338 337 335 335 334 334 335 334 334 333

ECMWFFLT2_sfc_thetae_036.txt.gz
Theta_e
310 309 311 310 312 300 306 307 301 304 310 307 302 303 303 303 301 299 307 304 306 311 311 314 315 315 316 318 318 319 321 322 326 327 333 336 337 341 344 345 347 350 351 354 354 355 355 355 356 356 359 360 361 361 362 363 365 366 366 366 364 363 363
310 313 312 311 312 312 308 302 305 310 312 310 304 297 301 298 294 297 302 300 303 303 301 312 312 312 314 315 317 318 321 323 324 329 334 337 338 340 344 347 350 351 351 353 353 354 355 356 356 357 359 361 361 361 362 363 364 364 365 365 363 364 364
310 313 311 309 312 313 309 307 313 304 299 298 304 302 294 295 294 296 300 302 302 305 306 311 311 310 312 315 318 318 318 320 323 328 333 337 339 339 342 345 348 349 350 351 353 353 354 356 358 359 359 359 360 361 361 361 363 363 364 364 365 366 365
310 310 308 301 305 311 312 313 309 311 308 303 300 301 303 302 297 298 298 301 299 309 309 311 312 314 314 314 315 316 317 319 322 326 329 334 338 339 341 344 346 348 349 351 352 352 352 354 356 357 357 358 357 359 360 361 362 364 364 364 365 364 364
309 302 306 303 306 303 305 306 305 307 307 310 308 306 302 300 299 298 299 297 304 311 313 312 312 315 317 316 316 318 318 320 321 323 326 332 338 340 341 343 345 347 349 349 351 353 352 353 356 356 356 356 356 357 358 360 361 361 361 362 363 364 364
303 305 309 309 309 309 306 305 304 306 303 302 299 299 307 303 300 296 298 298 307 308 313 314 314 315 315 317 317 318 320 319 323 323 325 330 336 342 343 342 344 345 349 349 350 352 353 351 352 353 354 354 355 356 357 357 357 359 358 360 363 364 365
304 307 311 313 313 312 310 309 306 309 307 306 303 296 301 304 303 305 303 300 305 314 315 316 315 315 315 317 317 317 319 322 322 324 325 334 340 341 341 342 342 344 348 350 349 351 352 351 352 352 353 352 353 355 355 356 355 356 357 359 361 364 364
308 310 312 312 313 311 309 309 310 308 305 306 305 304 307 304 304 300 301 299 304 314 318 317 315 318 316 319 317 318 318 319 322 325 327 330 338 342 339 340 339 343 344 348 350 349 351 352 352 352 352 352 352 353 353 354 354 355 356 357 359 362 363
302 303 307 307 310 310 307 306 308 309 309 309 308 308 309 303 304 304 300 296 303 313 318 321 318 317 316 316 317 319 319 321 321 324 333 337 343 344 339 338 338 340 341 345 349 350 354 353 351 352 352 352 351 352 352 352 353 354 356 358 358 360 361
293 292 293 296 300 303 307 309 308 309 308 307 305 301 304 298 306 307 302 302 311 314 320 315 316 315 317 317 318 318 321 323 322 324 333 342 340 344 344 343 339 338 342 346 351 352 353 352 350 353 353 351 350 351 352 352 352 354 355 356 357 359 360
300 303 306 307 309 306 302 305 307 307 308 309 308 307 303 300 305 304 306 308 309 309 311 312 314 316 315 316 318 318 319 321 331 339 337 334 341 341 339 343 343 344 344 346 350 353 351 349 350 351 350 350 350 352 353 352 353 353 355 356 358 357 359
304 303 304 305 306 305 305 304 304 307 307 308 306 303 302 310 305 299 307 311 307 309 311 313 314 315 317 317 318 318 320 329 325 326 336 344 336 341 343 346 346 346 347 347 350 353 351 349 350 349 350 349 350 351 351 352 352 352 354 356 356 357 358
301 302 303 304 305 305 306 306 305 305 306 307 305 306 307 309 304 302 309 311 309 310 312 315 316 317 318 316 318 321 323 322 325 335 329 323 330 338 340 347 351 351 349 351 350 349 350 347 347 349 348 349 351 352 352 353 351 352 355 355 356 356 358
300 302 302 303 303 304 304 305 305 306 306 306 306 306 307 307 308 309 310 312 310 312 313 315 315 318 317 318 320 321 321 319 323 325 327 322 323 325 332 343 346 354 354 354 354 351 351 347 347 346 348 351 349 350 350 351 352 352 354 355 356 356 356
300 301 303 302 302 302 302 304 305 306 306 307 307 307 307 308 307 308 308 310 309 314 318 317 318 319 318 319 317 318 321 320 319 320 320 324 323 325 332 344 344 349 354 352 354 353 352 350 348 347 349 351 350 349 349 350 352 352 352 355 355 356 357
298 300 300 301 301 302 301 302 303 304 304 303 305 305 307 306 306 308 307 306 307 313 316 318 319 318 318 317 317 317 318 318 320 320 321 325 326 327 327 330 341 349 350 352 351 352 351 350 349 348 350 350 349 347 348 349 350 352 352 353 354 358 358
297 300 300 299 300 300 298 300 303 305 306 307 307 308 309 309 309 306 304 306 312 315 316 314 316 316 316 316 317 318 319 322 321 322 322 322 323 325 328 328 344 340 338 343 353 349 348 348 347 348 350 348 349 350 350 351 353 351 350 352 357 360 360
297 298 298 299 297 292 295 308 309 308 305 306 305 305 307 310 310 308 311 312 315 315 315 314 315 315 317 318 321 322 322 322 324 323 324 324 325 326 325 327 335 341 343 343 342 346 350 349 345 347 350 347 348 350 350 351 351 353 353 353 357 360 362
294 298 298 294 290 293 307 310 313 312 310 310 309 309 309 310 312 311 311 312 313 315 316 317 318 320 320 321 321 320 322 328 332 329 325 326 328 330 332 335 335 342 350 351 351 347 343 344 347 347 346 347 348 349 350 349 352 357 354 355 355 360 362
297 295 295 288 292 302 304 309 312 315 315 314 311 308 311 312 312 312 314 315 314 316 315 316 318 319 319 322 328 329 326 325 329 326 324 325 325 326 332 346 356 360 354 352 348 349 349 346 344 346 346 347 345 345 348 348 349 351 353 355 354 358 361
291 294 294 294 303 300 303 305 309 311 311 311 308 302 306 312 321 319 318 321 318 317 319 322 321 325 323 320 320 322 322 326 329 328 326 326 333 344 350 350 349 355 359 357 354 355 351 347 344 344 345 345 345 344 345 346 349 350 352 355 356 358 360
296 293 292 294 293 291 298 307 313 317 317 317 317 313 311 320 323 322 323 321 324 324 325 328 332 330 320 315 316 321 321 323 329 335 336 340 344 345 346 352 353 356 357 358 358 357 354 351 348 347 346 346 346 346 346 346 348 349 350 354 358 361 362
294 293 290 291 291 296 307 311 314 315 318 314 321 307 303 322 325 324 325 323 327 328 328 330 333 324 314 312 318 345 344 337 339 340 344 344 345 349 350 351 351 353 358 361 360 360 360 351 348 348 347 347 344 346 347 345 347 350 351 355 359 361 363
293 293 291 290 295 296 306 312 313 316 318 315 315 298 300 319 324 322 326 324 327 328 330 330 330 326 317 314 330 338 342 340 345 344 347 348 349 350 351 353 356 357 359 360 359 354 351 352 350 351 346 346 348 347 346 345 345 348 351 356 361 363 364
292 291 292 295 297 303 307 310 315 316 315 313 302 295 313 318 323 324 326 325 327 328 328 329 326 332 333 334 336 338 340 340 344 346 346 347 348 350 351 351 352 356 357 357 355 354 360 358 354 350 346 346 347 349 350 349 347 348 353 358 362 364 364
290 292 290 291 297 304 307 308 308 313 306 299 299 314 319 323 322 327 326 326 328 329 329 328 329 332 333 335 336 336 338 340 343 344 345 347 349 350 351 352 352 354 354 356 355 353 355 355 351 350 351 349 350 352 352 351 351 351 356 361 365 365 365
293 293 290 288 284 301 309 311 307 312 301 304 318 320 325 323 327 325 327 328 329 328 328 330 331 331 332 333 334 336 337 338 341 344 344 346 346 347 348 350 351 351 354 353 353 354 354 356 356 354 350 352 354 354 354 356 353 355 357 363 366 365 365
289 289 288 288 298 307 312 312 306 316 315 320 323 323 316 325 325 327 328 329 329 328 328 328 329 331 332 333 334 335 336 338 340 342 343 344 345 345 346 346 346 350 353 353 353 354 354 357 360 361 357 355 357 357 357 366 361 360 363 365 366 364 364
294 293 295 303 306 309 311 312 315 319 320 323 324 324 324 324 325 327 326 327 329 329 328 329 330 330 331 331 331 332 334 336 337 339 340 341 342 344 344 343 345 347 348 349 349 351 352 355 357 361 364 361 362 362 363 366 363 362 364 364 363 361 362
303 304 304 306 306 307 309 313 316 315 317 322 323 323 323 325 327 327 326 327 327 326 328 328 330 330 330 330 331 333 334 335 337 339 340 341 343 343 343 345 344 345 346 347 347 347 349 352 354 357 357 358 357 358 361 363 366 363 362 361 362 361 362
295 291 304 304 305 308 310 311 313 315 317 321 323 322 324 326 327 328 328 328 327 325 327 326 326 327 329 330 331 332 334 336 337 337 339 339 340 341 341 343 344 345 345 344 343 344 345 349 352 353 354 356 357 359 360 361 364 367 365 362 361 360 360
293 294 301 303 306 307 309 309 309 310 316 319 320 321 323 325 327 328 328 328 326 326 323 324 325 326 326 326 329 332 333 334 336 337 338 339 340 341 344 345 345 344 343 343 342 343 343 348 351 351 351 353 355 357 357 361 364 366 365 363 361 361 361
297 301 302 303 304 305 305 307 309 311 315 317 317 319 322 324 325 327 329 329 327 326 325 326 325 325 324 325 327 329 331 332 334 336 337 337 338 340 341 343 344 343 344 342 342 343 344 347 347 348 349 350 353 355 357 361 363 364 363 361 364 364 364
293 294 299 305 298 299 305 309 315 314 315 315 314 317 320 322 324 326 328 328 328 327 326 326 325 324 324 325 327 328 328 330 332 333 335 337 338 339 340 340 342 342 343 343 343 342 343 345 345 346 346 347 349 351 354 357 358 356 356 357 358 358 358
293 300 304 307 306 304 305 307 310 312 313 314 314 315 317 321 323 325 327 328 327 326 326 327 324 324 324 325 327 327 327 329 331 332 333 334 336 337 339 339 339 340 341 342 343 343 343 344 344 345 345 347 348 349 350 352 354 356 354 352 352 352 353
300 302 303 305 302 300 304 308 310 311 313 313 313 314 316 321 323 324 326 328 326 325 327 326 327 326 326 328 329 329 329 330 331 332 334 336 337 338 338 337 338 339 339 340 341 340 343 344 344 345 345 346 348 348 349 349 351 352 352 354 352 352 352
299 305 306 305 305 306 308 309 310 311 313 313 312 314 317 321 323 325 325 325 328 327 327 326 330 330 330 330 331 330 330 330 331 333 334 334 335 335 337 338 339 339 339 339 340 342 342 343 343 344 344 345 347 347 348 348 348 348 348 348 348 349 349

ECMWFFLT2_sfc_thetae_039.txt.gz
Theta_e
313 313 314 313 314 302 308 308 303 306 313 309 306 308 308 307 304 301 309 307 308 314 314 316 317 318 319 319 320 321 323 325 328 327 333 331 330 332 336 341 348 351 352 355 356 357 357 358 358 358 360 361 363 364 366 368 370 370 370 369 366 366 366
313 316 315 314 314 315 311 303 307 312 314 312 307 301 305 302 299 302 306 304 306 305 303 315 315 314 315 317 318 319 322 324 324 325 328 332 330 332 337 344 351 352 352 355 356 356 357 358 359 360 362 362 363 365 367 368 369 369 369 368 365 365 365
312 315 314 311 314 315 311 308 315 306 301 300 306 304 297 298 297 300 304 306 306 308 308 313 313 313 314 317 319 319 319 320 321 322 325 331 333 332 335 339 348 350 352 354 356 355 357 359 362 362 361 362 363 365 366 367 368 368 368 366 366 366 367
311 312 311 303 306 312 314 316 311 313 309 304 302 304 305 305 299 299 300 303 302 310 311 314 315 315 316 316 317 317 319 320 321 324 324 327 331 332 332 336 342 350 351 353 354 355 356 357 360 361 361 361 361 363 365 366 368 369 369 367 367 366 365
311 304 308 305 306 304 306 307 307 308 307 311 309 308 304 302 301 301 301 299 304 310 314 313 316 317 317 317 317 319 319 322 323 325 326 329 332 331 333 336 341 349 352 352 354 356 357 358 360 360 360 361 361 362 363 364 366 365 366 365 366 367 366
304 306 311 310 310 309 307 306 306 308 305 303 300 299 308 305 302 298 300 301 309 313 318 317 317 319 318 319 319 319 321 321 325 326 328 331 333 336 336 337 340 348 352 353 354 356 357 356 357 358 359 360 359 361 361 361 363 364 364 365 367 368 368
306 309 312 314 314 313 311 309 307 310 309 308 304 296 302 305 305 306 306 303 307 316 318 318 318 318 318 320 319 320 320 322 323 325 326 330 335 336 337 340 340 343 351 352 353 356 356 356 358 358 359 359 359 360 361 361 360 362 363 364 366 369 367
311 313 314 314 314 312 309 310 311 310 307 308 307 306 309 305 305 302 303 302 307 315 320 319 317 319 318 321 320 320 320 321 323 325 327 331 334 338 337 339 337 341 346 353 356 356 357 357 358 358 358 359 358 359 359 360 358 360 360 362 364 367 367
305 306 310 309 312 311 308 307 309 310 311 311 311 311 312 306 306 305 302 298 305 314 319 318 318 317 316 317 319 320 321 322 323 324 329 331 341 343 340 342 343 346 348 353 357 356 362 361 355 358 358 358 358 358 358 358 358 358 360 360 361 365 366
296 296 297 299 302 305 308 310 310 310 310 310 308 304 307 301 310 310 304 304 311 316 319 318 318 317 319 319 318 320 322 324 323 325 331 338 338 343 342 340 340 343 353 357 360 361 362 357 355 359 361 357 357 357 358 358 358 358 359 358 360 363 365
303 305 309 311 310 308 304 307 309 309 310 311 311 309 306 302 307 308 310 310 311 314 315 316 316 317 317 317 320 319 320 323 328 331 330 332 341 345 342 344 343 349 353 355 358 360 356 354 355 355 356 356 356 358 358 357 358 358 359 359 360 361 364
311 309 310 310 311 307 307 307 307 309 309 310 309 306 304 313 307 301 311 315 311 312 314 315 316 317 319 319 321 321 324 325 326 325 332 342 339 342 344 346 346 346 350 352 356 358 354 351 354 354 355 355 356 357 356 357 357 357 358 360 360 362 364
309 312 308 309 309 310 309 308 309 308 309 309 307 308 310 312 306 304 312 315 313 314 314 316 318 319 319 317 319 321 325 325 326 329 327 325 330 337 338 346 350 349 347 353 354 354 354 351 352 353 352 354 358 358 357 358 356 356 359 359 360 360 363
309 309 309 310 308 309 309 309 309 310 309 309 308 309 310 310 312 312 314 315 312 315 315 317 318 320 320 321 322 323 323 321 325 325 324 322 325 327 334 342 347 352 352 354 355 356 358 353 354 351 353 355 353 354 355 355 357 356 358 359 361 361 361
306 309 309 308 308 307 307 309 309 309 310 310 310 309 310 311 311 311 312 314 312 316 321 320 323 324 321 321 319 319 322 322 321 322 321 323 324 329 333 340 342 351 353 356 358 358 359 357 354 353 354 354 352 351 352 353 355 356 355 361 359 360 362
302 306 305 306 307 307 306 307 308 308 308 307 309 308 311 310 309 311 310 310 312 318 320 320 321 321 321 320 321 321 321 320 322 322 322 323 326 326 326 329 334 340 348 354 360 358 355 356 356 354 356 353 352 350 351 352 353 354 354 356 357 363 363
300 305 306 305 306 306 302 304 307 309 309 310 311 312 313 312 312 309 307 309 316 319 321 318 319 318 320 320 320 321 322 324 322 323 323 324 325 327 331 331 331 328 331 343 357 350 349 354 353 353 353 350 353 353 354 353 354 353 352 353 362 366 363
300 304 304 306 301 295 298 310 312 311 309 309 308 308 310 312 313 312 315 315 319 318 318 317 318 318 320 322 324 324 325 324 325 323 324 324 326 327 328 329 329 332 334 335 341 337 346 349 348 353 354 349 351 353 353 353 353 356 356 355 357 359 364
299 303 304 299 294 296 309 312 313 313 312 311 310 311 311 312 313 313 313 315 316 318 318 319 320 322 322 322 323 322 323 326 325 326 326 329 329 329 329 330 329 342 349 352 350 348 339 338 346 350 352 351 351 351 353 352 355 362 357 357 358 360 363
303 301 298 291 294 306 309 311 313 315 314 312 311 309 311 313 313 314 313 314 315 318 318 319 322 322 321 321 323 325 325 325 325 324 324 325 327 327 328 334 351 355 352 351 347 350 354 347 341 342 345 349 349 349 351 351 351 353 357 359 356 360 363
296 299 299 298 306 304 306 308 311 312 310 310 308 304 308 313 315 315 315 316 316 317 318 319 320 322 322 323 324 324 323 323 323 323 323 324 327 328 335 340 343 357 359 356 354 357 354 350 341 340 341 343 347 348 349 349 351 350 354 358 357 360 362
300 298 296 298 298 296 301 310 314 317 316 315 315 312 310 316 317 318 318 318 320 321 320 321 323 327 324 318 318 321 322 323 336 345 328 325 331 340 346 353 352 354 355 359 361 360 357 353 352 349 343 343 347 351 349 349 350 350 351 355 359 363 363
298 297 295 295 294 299 309 310 314 316 319 318 318 311 305 317 319 322 320 319 320 320 320 324 330 323 314 312 318 343 341 341 344 345 347 347 348 349 348 348 350 356 362 363 361 358 357 355 358 357 352 347 345 350 352 348 349 350 353 357 360 362 364
297 296 294 294 300 300 308 312 313 316 317 315 312 299 301 320 322 324 324 321 324 327 332 332 327 318 311 312 329 338 340 339 346 348 346 346 346 347 345 350 359 357 359 361 362 359 357 358 358 360 355 351 354 352 349 348 348 349 353 360 365 361 362
295 295 296 299 301 307 311 312 315 314 316 313 303 296 314 322 324 326 324 323 326 330 330 331 324 327 327 333 337 338 339 342 343 346 346 347 348 351 352 353 356 355 356 360 359 357 361 363 363 359 353 351 352 355 355 354 351 350 355 362 364 367 367
293 295 294 295 301 308 309 315 315 314 309 301 301 316 322 325 322 325 325 325 328 330 331 330 330 332 334 335 335 337 340 340 341 341 345 347 348 347 353 355 356 354 355 360 359 358 361 359 357 354 357 356 355 357 355 352 354 353 359 368 364 365 368
296 297 294 292 289 306 312 309 310 312 305 309 316 320 323 324 323 323 325 327 330 331 330 331 332 333 333 335 336 338 339 339 339 340 344 348 346 348 349 352 353 350 355 357 358 358 358 361 363 363 355 356 356 355 355 358 356 359 360 362 366 367 369
290 292 291 292 301 309 312 312 305 312 317 319 322 321 318 323 322 326 324 328 332 332 332 332 332 334 335 336 338 338 338 338 341 343 346 347 348 347 349 350 351 349 356 357 356 358 357 360 364 367 365 357 357 357 357 363 362 361 362 365 367 366 368
297 294 297 308 308 310 312 314 313 316 317 320 323 321 321 321 324 326 326 329 331 332 331 331 332 332 335 335 336 335 335 337 339 341 342 344 345 346 348 347 350 351 352 352 353 354 356 359 362 367 368 361 359 359 368 370 365 362 361 363 365 366 366
305 305 305 307 309 310 312 312 315 314 315 317 323 323 320 324 325 327 327 328 329 330 332 330 331 332 333 333 333 335 336 337 339 341 342 343 346 346 347 348 348 349 350 351 351 351 354 357 359 363 365 367 365 366 366 368 369 368 366 367 368 368 368
297 293 305 306 307 309 309 310 312 314 314 316 319 322 322 323 324 325 327 329 329 330 331 330 330 330 333 331 333 335 337 338 339 340 342 344 344 345 344 347 347 349 349 348 348 350 351 355 357 359 360 361 362 362 363 364 365 369 367 366 365 366 366
297 298 304 306 308 308 309 309 309 310 313 315 320 321 323 323 325 327 327 328 329 330 329 330 329 330 331 330 332 334 337 337 339 340 341 342 344 345 347 348 348 348 348 348 348 350 350 352 355 356 355 356 359 361 363 365 368 368 366 365 364 365 365
299 303 304 305 306 306 307 309 310 311 314 318 318 318 319 321 322 325 327 328 328 330 329 330 330 329 330 330 332 332 333 333 335 337 339 341 342 343 344 345 347 347 347 347 348 348 348 350 351 353 354 355 358 361 363 366 369 367 366 364 366 366 364
294 296 300 304 298 298 304 307 312 314 316 315 316 316 317 319 319 321 323 326 330 331 331 330 329 329 330 331 331 331 331 332 333 335 337 340 341 342 343 344 346 345 346 347 347 347 348 349 350 350 352 353 354 357 361 363 364 364 365 364 364 363 364
294 301 304 305 305 305 306 308 310 313 314 314 313 315 315 316 318 320 322 324 327 330 331 332 330 329 330 331 332 332 331 333 334 336 337 339 340 340 342 342 343 344 345 346 347 347 347 347 348 349 349 350 352 353 355 361 362 362 362 359 359 360 361
303 304 304 306 305 303 306 309 311 311 313 313 312 314 315 316 317 319 322 325 325 326 330 331 332 331 331 332 333 332 332 333 336 336 338 340 340 340 341 341 341 342 342 344 344 345 347 347 348 349 348 348 350 350 353 354 357 361 359 358 356 356 357
302 307 307 307 307 307 309 310 311 312 313 313 312 312 314 315 316 318 319 324 327 327 328 329 333 334 332 332 333 333 332 333 336 336 338 338 338 339 341 341 341 341 342 343 345 346 346 347 347 348 347 347 349 349 350 352 354 354 354 356 355 356 356

ECMWFFLT2_sfc_thetae_042.txt.gz
Theta_e
314 313 314 314 315 302 307 307 302 304 311 307 304 305 306 305 301 298 306 304 306 311 311 314 316 316 317 318 319 320 323 330 332 330 330 328 327 337 340 340 339 342 346 346 347 348 349 353 354 355 357 359 360 361 362 362 363 363 363 363 364 364 364
314 317 316 315 315 314 309 302 305 311 313 311 305 298 303 300 296 299 303 301 303 303 300 312 313 313 315 317 317 318 321 324 326 329 330 332 331 331 337 339 342 346 346 346 347 348 352 351 354 356 359 360 361 362 362 363 364 363 363 363 363 364 364
313 316 315 312 315 315 310 307 313 304 300 299 305 303 296 296 296 299 302 304 304 305 305 309 310 311 313 315 319 318 318 320 323 326 332 332 332 332 336 341 341 341 343 346 348 348 351 351 358 358 360 359 361 362 363 364 364 363 363 362 364 365 364
312 313 311 303 307 312 314 315 310 312 308 304 301 302 304 304 299 299 300 304 301 309 310 312 312 314 315 314 315 316 317 319 323 325 331 331 333 333 332 335 340 339 339 344 349 349 343 352 358 357 357 356 358 361 364 365 365 366 365 364 366 364 364
311 305 309 306 307 305 306 307 307 307 307 311 308 307 303 302 301 301 300 298 304 310 315 314 315 316 317 316 316 320 319 320 322 325 333 334 333 332 331 334 337 335 338 340 346 348 346 351 357 357 356 356 357 360 363 365 365 365 365 364 364 364 365
306 307 312 311 311 310 307 306 306 307 304 302 299 298 307 304 302 297 300 299 309 312 316 316 317 319 318 318 318 319 319 319 323 325 332 333 331 332 333 335 337 340 341 342 343 346 347 347 353 357 356 356 356 358 362 365 364 364 364 363 364 364 366
307 310 313 314 314 313 311 309 307 310 308 306 302 295 300 304 304 306 305 302 307 316 318 319 318 318 318 319 318 319 319 320 321 323 324 334 333 331 330 334 334 337 340 339 338 341 343 347 354 356 357 356 356 358 361 363 364 365 365 364 364 366 365
311 312 314 314 314 313 309 309 310 309 306 306 305 304 307 303 303 301 301 301 306 314 332 327 319 324 319 320 319 320 318 320 323 323 324 336 333 334 333 336 335 340 339 344 346 345 346 349 357 358 357 357 357 358 359 362 363 365 365 365 364 364 364
305 306 308 309 312 311 308 307 308 310 310 310 309 309 310 304 304 303 300 296 304 313 322 321 318 317 318 318 318 320 319 322 322 324 329 335 337 336 335 342 344 346 349 349 350 351 355 359 357 359 359 358 357 357 358 360 362 365 365 365 364 362 362
295 294 295 298 302 304 308 310 309 309 309 309 307 302 306 299 309 309 302 302 310 314 320 316 316 316 321 319 319 320 321 324 322 326 338 335 336 336 337 344 341 343 347 348 349 353 359 359 357 360 361 358 358 358 359 360 361 363 364 364 363 363 363
302 304 307 309 310 307 304 306 308 307 309 310 310 308 305 301 307 305 309 309 309 311 312 314 313 315 314 316 318 318 326 328 332 340 338 341 345 342 339 345 340 345 349 351 349 356 359 356 356 358 358 358 358 360 360 360 361 362 363 363 363 362 363
309 311 309 311 311 307 307 306 306 308 307 308 308 305 303 315 307 301 312 323 309 310 313 315 317 317 323 317 320 324 325 326 326 334 344 341 335 341 346 349 352 347 350 361 360 361 358 356 356 357 358 358 359 361 359 359 359 360 361 362 362 363 364
309 310 310 312 310 310 309 308 307 306 307 307 306 307 309 312 306 305 316 322 314 314 314 314 316 320 321 317 319 323 324 324 332 336 331 329 334 338 339 356 351 344 356 363 363 362 359 356 356 356 356 358 360 362 361 361 359 360 361 361 361 361 364
308 309 310 311 310 310 310 308 308 308 308 307 307 308 310 310 314 315 314 320 313 314 313 314 316 320 319 321 325 325 325 323 336 328 331 327 330 332 336 344 348 349 356 366 365 364 363 357 358 354 356 359 359 359 358 358 360 360 361 360 360 359 362
305 308 310 310 310 309 307 309 309 309 308 308 308 308 310 311 310 311 311 316 315 317 320 318 320 323 320 321 321 322 327 323 323 323 325 327 327 328 332 347 342 354 357 361 365 365 364 362 360 357 357 359 358 357 356 357 360 359 359 361 360 359 360
303 307 307 309 309 308 308 308 309 308 307 306 307 306 310 309 310 311 310 312 311 316 320 319 321 322 323 320 322 323 323 320 324 323 322 325 333 332 336 340 340 350 350 355 359 360 359 358 360 358 360 358 355 355 356 355 356 357 357 360 359 360 361
301 305 307 307 307 307 304 304 308 310 310 311 311 311 312 312 312 309 307 310 317 321 321 317 318 318 319 320 320 322 325 330 323 324 324 324 325 334 342 346 352 348 346 347 356 352 350 351 352 352 358 353 355 355 357 358 357 356 355 357 362 363 363
299 304 306 307 303 297 298 310 313 313 310 310 308 308 310 312 313 311 314 316 320 320 319 319 318 319 321 324 329 327 329 332 332 323 325 323 324 325 327 329 330 339 348 357 356 354 359 355 350 350 354 354 356 355 354 358 356 357 357 357 361 364 364
298 303 304 300 295 297 310 312 314 314 313 312 311 312 312 312 313 314 314 316 319 322 320 321 324 327 323 323 323 322 322 328 326 330 324 330 333 335 336 337 336 355 358 358 357 350 338 344 357 354 353 352 357 355 355 354 356 362 360 358 360 365 363
302 300 299 292 295 307 311 312 314 315 314 313 311 309 312 313 313 314 315 317 318 321 320 320 323 327 321 322 324 325 323 324 325 323 324 326 326 327 332 353 360 362 353 352 344 354 357 344 339 352 352 351 349 351 352 352 353 356 362 360 359 367 365
296 298 298 298 307 305 307 308 310 311 310 310 309 305 310 316 316 315 315 317 318 318 319 320 321 322 320 320 322 323 323 325 323 322 339 342 329 332 340 347 347 358 360 354 352 356 355 348 342 340 342 350 348 347 349 350 354 352 354 361 358 362 366
301 298 296 297 297 296 302 310 313 315 315 316 315 311 309 315 316 317 317 316 317 317 317 318 320 320 317 315 319 324 325 338 341 342 345 346 344 343 346 353 356 363 363 363 361 360 361 357 352 351 345 345 352 352 350 349 351 350 351 356 361 361 366
298 297 293 294 294 298 309 309 312 314 316 316 316 309 304 315 316 316 316 315 319 321 318 320 324 319 314 315 324 335 337 342 344 343 344 345 346 348 353 354 353 353 355 356 355 357 353 348 351 357 355 351 344 360 355 347 348 349 352 356 361 361 364
296 295 293 293 300 300 308 311 312 314 316 316 313 300 302 319 325 324 322 317 320 321 330 328 325 321 316 316 330 334 337 341 342 342 343 346 346 346 351 353 350 352 359 359 362 359 357 366 368 367 354 357 362 371 357 348 347 353 353 358 365 364 366
295 295 296 300 300 306 308 313 314 315 316 314 302 297 312 321 324 325 325 323 327 329 329 328 324 326 328 332 335 337 339 340 340 341 342 345 348 345 346 348 358 352 350 357 357 354 364 366 359 359 360 360 365 364 368 364 351 350 357 363 369 368 368
293 296 293 296 300 306 309 313 314 316 310 301 301 314 321 324 323 325 326 327 329 329 329 329 330 330 332 335 335 337 338 337 339 341 343 347 347 348 346 353 354 350 349 358 360 359 361 360 363 365 366 365 367 372 369 364 368 362 375 367 369 369 367
295 296 294 292 289 305 311 312 313 316 308 309 316 320 321 324 324 324 325 327 328 329 328 329 329 331 332 335 336 337 338 337 338 339 342 344 345 344 347 351 351 347 349 355 356 358 357 359 359 363 365 370 366 368 367 370 371 376 368 373 371 370 368
291 291 291 291 301 306 312 313 306 312 315 319 321 319 319 323 323 323 325 326 328 329 329 327 330 331 333 333 334 335 336 337 339 341 342 343 344 344 346 349 349 347 350 354 354 355 356 359 360 362 368 368 367 364 365 371 371 374 374 385 378 372 369
296 295 298 302 306 308 310 312 311 314 315 318 321 321 320 321 321 325 325 325 328 330 328 328 328 329 330 331 332 333 334 335 336 337 340 342 343 344 344 345 348 347 347 351 350 352 354 359 360 363 367 367 359 360 371 376 371 369 373 377 376 373 370
304 304 305 307 308 309 309 311 312 312 313 316 318 320 319 321 323 324 324 325 326 328 330 327 328 329 330 330 331 332 334 335 338 340 340 342 343 343 344 346 346 347 348 350 350 349 353 357 359 362 363 365 364 363 368 372 372 373 371 371 374 374 374
296 291 304 304 306 309 309 308 312 314 313 315 319 319 318 318 321 322 325 325 327 327 329 328 328 329 331 331 331 333 334 336 337 339 340 342 343 344 345 346 347 347 348 348 347 349 353 354 354 356 358 359 363 365 364 361 366 372 374 368 373 372 374
296 296 303 304 306 307 308 308 308 309 313 316 317 318 318 319 321 321 322 324 326 329 328 329 328 329 330 330 330 331 333 334 335 337 338 341 342 344 346 347 347 349 348 348 349 349 349 351 353 353 354 355 358 361 363 367 366 370 367 367 369 371 369
299 303 303 304 305 306 307 308 310 311 315 314 315 315 316 317 318 318 321 323 324 327 328 330 330 329 330 330 332 331 332 334 335 336 338 341 342 343 343 345 346 347 348 348 348 348 348 350 352 354 353 355 356 360 362 366 368 367 368 365 369 368 370
295 296 300 304 298 298 304 307 310 311 313 313 313 314 315 315 316 317 317 319 322 325 329 330 330 329 330 332 333 332 332 334 335 336 337 339 341 341 343 344 345 347 347 347 347 347 348 350 351 351 352 353 356 357 361 364 367 366 368 369 366 367 367
294 301 304 308 306 304 305 307 309 311 312 311 311 312 313 314 316 317 316 316 318 320 325 330 330 331 331 332 332 332 332 334 335 337 338 338 340 341 343 344 344 344 345 347 347 346 347 349 348 349 350 351 354 356 359 363 363 363 364 364 365 363 366
301 303 304 306 305 302 305 307 309 309 312 311 310 312 313 314 315 315 316 317 316 317 322 327 330 331 333 333 333 333 334 334 336 337 339 341 341 341 342 341 342 343 343 344 344 345 347 348 347 349 348 348 351 351 353 355 360 361 362 363 362 361 361
300 305 306 307 307 307 309 310 310 311 312 312 310 311 312 312 314 315 315 316 317 318 319 324 329 332 332 333 334 334 334 335 336 337 339 339 339 341 342 342 342 341 343 345 346 346 347 347 347 347 347 346 348 349 352 354 354 358 360 360 359 359 361

ECMWFFLT2_sfc_thetae_045.txt.gz
Theta_e
309 309 311 310 311 297 302 303 298 300 305 303 298 303 301 303 298 292 303 302 301 305 306 307 310 311 312 313 313 317 320 327 326 326 331 333 334 334 335 336 337 339 340 341 341 342 346 347 346 346 348 350 352 353 353 353 353 354 354 355 355 354 353
310 312 312 311 311 310 303 299 301 307 309 306 299 292 296 293 289 293 298 296 295 297 293 307 306 306 309 311 313 314 317 324 324 328 329 332 333 334 336 338 339 339 340 342 343 343 345 346 347 347 348 350 353 355 354 353 353 353 354 354 354 354 354
309 312 311 308 311 313 305 302 310 302 294 294 296 300 290 289 289 290 295 298 297 298 299 303 304 305 306 308 312 313 314 321 323 328 330 331 332 332 334 337 338 338 339 341 342 343 345 347 348 347 349 352 353 355 356 355 354 355 355 355 355 355 355
309 309 308 299 304 310 312 310 306 308 302 297 294 297 298 295 291 292 292 296 291 302 302 304 305 306 307 308 310 312 313 322 324 328 329 330 329 331 333 336 337 338 339 340 341 343 344 345 346 347 349 352 353 355 356 356 357 356 356 356 356 354 355
308 301 305 303 304 302 304 303 301 303 302 304 302 302 297 295 293 291 292 291 298 304 308 307 306 307 308 309 310 311 312 323 325 327 327 330 330 331 333 335 337 338 339 340 340 341 343 345 347 348 350 352 353 354 355 357 356 356 356 356 356 355 356
301 303 308 308 307 307 305 303 300 301 299 296 294 291 301 299 295 289 294 292 301 306 313 310 309 310 310 311 311 311 314 319 325 327 328 329 331 332 333 335 336 338 339 340 341 341 342 344 347 348 350 353 354 354 355 356 357 357 356 356 356 356 357
302 306 309 312 311 310 308 306 303 304 302 300 295 287 293 298 298 301 300 295 298 311 312 313 311 311 312 312 313 313 313 313 323 328 328 327 330 332 333 334 336 338 339 340 340 341 343 344 348 350 351 352 353 355 356 357 357 356 357 357 357 357 357
306 309 311 311 312 310 307 307 307 304 301 302 299 297 300 296 297 294 295 295 299 307 313 315 313 313 314 314 313 312 313 314 323 327 328 326 327 332 333 335 336 337 339 340 340 340 342 344 345 348 351 352 353 354 356 357 357 358 358 358 358 357 357
298 302 306 306 310 309 305 304 305 306 305 305 304 304 304 297 297 297 293 289 296 308 315 311 313 314 313 313 314 315 312 313 323 327 328 327 328 331 333 334 335 336 338 339 340 341 342 344 346 347 349 350 351 351 354 358 359 360 360 360 358 357 357
289 291 292 295 299 302 305 306 305 306 305 304 302 297 299 290 300 300 295 295 301 309 314 311 311 311 311 312 313 314 315 314 321 326 327 327 328 327 332 334 333 334 336 340 341 342 342 344 346 347 349 350 351 351 352 357 360 360 361 361 360 358 358
296 301 306 308 307 304 301 304 304 304 305 306 304 300 298 292 298 298 298 302 303 307 307 306 311 311 312 312 321 324 326 328 328 324 327 327 327 326 330 333 333 333 334 338 341 342 343 343 344 347 349 350 351 352 353 355 360 362 362 362 361 359 358
304 305 306 309 308 303 304 303 304 305 304 304 302 299 297 303 300 290 303 308 303 304 309 308 308 309 313 317 321 323 325 327 328 323 328 335 326 328 331 332 332 333 334 337 338 340 342 343 344 346 349 351 352 353 353 355 358 362 363 362 361 360 358
304 306 307 308 308 305 305 305 305 303 304 304 301 302 306 305 298 295 304 307 305 305 308 309 314 311 312 318 320 322 324 327 328 326 326 326 329 333 332 333 333 334 334 336 337 339 340 342 343 345 348 351 354 354 355 355 357 359 362 362 361 360 359
303 305 307 309 307 308 306 305 305 305 304 303 304 304 306 306 305 309 312 306 309 308 309 310 313 315 317 318 320 321 323 325 327 327 326 331 334 334 334 335 336 336 337 339 339 340 341 342 344 347 350 352 353 354 354 355 356 358 361 361 361 360 359
302 305 306 306 307 307 306 306 305 305 305 304 305 304 305 308 306 307 312 309 309 311 311 314 316 316 317 316 315 319 323 325 325 324 325 331 335 335 335 336 337 339 342 343 343 344 346 347 348 351 353 354 355 355 356 356 356 357 359 360 360 360 359
300 304 305 305 305 306 304 305 307 306 304 302 303 303 304 304 304 306 310 306 304 307 314 317 315 316 315 314 313 313 316 320 323 323 324 325 331 334 335 335 339 348 352 349 347 346 349 350 351 351 352 354 355 355 356 356 357 357 357 358 359 359 359
295 305 306 304 304 302 299 301 304 308 306 305 305 306 307 307 310 305 304 304 310 310 315 312 314 315 315 316 317 317 318 318 318 318 322 324 327 333 333 338 340 346 352 354 353 353 352 353 352 352 352 353 354 355 356 357 357 357 356 357 357 358 358
292 298 303 303 298 291 293 309 310 310 306 306 303 303 305 306 310 306 309 311 315 313 312 312 312 313 313 314 317 319 317 315 316 317 318 323 332 336 335 334 336 338 340 349 352 353 353 353 354 353 354 352 354 356 356 356 356 356 355 355 356 357 357
291 296 299 296 290 293 310 311 310 311 311 309 307 305 307 306 310 310 310 313 316 317 316 316 316 317 318 319 319 320 324 318 319 323 321 321 327 325 334 341 345 341 340 344 348 348 348 349 348 348 349 351 352 352 353 354 354 353 354 354 354 355 355
293 295 299 289 292 304 312 309 310 313 311 310 310 308 314 315 316 313 311 313 313 313 314 317 317 315 316 318 324 332 337 334 335 335 339 343 342 347 349 348 347 345 345 346 349 349 350 342 347 345 345 347 349 350 351 350 352 352 352 352 352 355 355
289 291 295 295 306 304 306 306 307 308 306 309 303 302 310 315 318 321 315 314 314 314 315 315 315 317 319 324 331 337 338 339 341 342 345 348 347 347 348 350 351 352 353 353 354 353 349 348 341 345 347 346 346 347 347 347 348 350 352 351 351 355 355
293 288 291 298 294 293 297 303 309 316 313 313 313 313 310 318 318 324 322 314 314 314 315 315 315 319 322 322 326 334 336 338 340 342 343 347 347 345 344 344 345 348 350 351 355 352 345 342 344 349 350 346 346 343 345 346 346 347 347 350 351 354 356
290 291 291 293 293 298 301 304 309 314 316 315 314 311 306 315 317 324 324 323 322 318 314 314 315 319 318 319 325 332 335 336 339 340 341 342 342 344 345 346 344 345 349 354 355 357 355 354 356 356 350 349 350 346 345 345 346 345 345 346 351 352 358
291 292 291 293 297 295 302 308 311 314 317 315 310 299 301 314 317 323 323 322 323 324 324 325 324 321 317 320 326 333 335 337 340 341 341 340 340 339 345 348 345 345 350 353 349 352 356 356 358 359 360 356 357 357 359 345 344 344 345 346 350 354 359
291 293 292 295 299 304 306 306 313 315 318 312 302 295 307 315 320 322 323 322 323 324 324 325 321 324 327 329 332 335 336 337 338 340 341 341 340 340 346 346 351 344 348 354 354 354 354 354 355 356 358 362 360 355 359 355 350 344 345 347 352 355 358
288 294 291 292 302 305 307 309 313 317 313 301 299 312 318 320 320 322 322 322 322 323 323 324 324 326 329 332 332 333 334 335 337 338 339 340 341 342 348 351 347 343 346 352 352 352 353 354 356 356 356 359 362 362 357 357 359 361 353 349 353 355 356
292 293 292 288 285 302 308 308 312 315 307 308 315 319 318 320 320 320 321 322 323 324 323 325 326 327 328 329 330 331 333 334 334 336 338 339 339 340 342 343 345 345 345 349 348 349 351 354 355 356 358 359 360 362 357 360 364 362 368 352 354 355 355
288 290 288 290 302 303 308 308 302 312 316 319 320 318 314 318 319 319 319 321 323 324 324 324 325 326 326 327 329 330 331 334 336 338 339 340 340 340 343 343 343 345 343 345 347 348 351 355 356 356 359 357 362 360 358 365 363 364 361 366 356 356 354
296 294 298 305 306 309 309 311 310 311 318 319 317 317 314 314 316 319 318 319 323 324 325 324 324 324 326 326 328 328 330 332 332 335 336 339 340 341 342 343 345 345 343 344 345 347 351 351 351 353 357 357 358 357 358 360 364 364 363 365 360 358 356
303 303 303 308 306 305 306 310 315 312 313 314 315 315 313 314 315 317 316 318 322 324 326 324 324 324 326 327 327 327 329 331 332 334 335 337 339 341 342 342 343 345 346 345 345 347 347 349 349 351 351 353 352 354 360 361 362 364 363 364 363 360 359
293 290 304 302 302 305 309 310 312 313 316 314 313 315 314 314 315 315 316 318 319 323 325 325 324 324 326 327 327 327 329 330 331 332 333 334 336 339 340 341 343 344 345 345 346 347 346 346 348 350 351 351 352 356 358 361 363 364 363 366 364 363 362
295 296 300 302 305 306 307 308 310 308 313 315 313 313 315 316 315 315 315 317 317 319 323 324 325 325 327 327 326 327 328 330 331 332 332 333 334 337 339 341 342 342 343 344 344 344 343 346 348 349 349 349 351 353 357 358 363 363 364 364 363 361 363
297 300 304 302 302 306 305 308 306 308 309 309 311 312 312 314 314 314 314 315 315 316 317 323 325 325 327 327 328 328 328 329 330 330 331 332 334 336 338 339 342 340 342 343 343 343 343 345 346 346 346 347 350 349 350 357 360 360 361 365 364 361 362
291 294 297 300 295 294 300 304 305 307 308 309 310 312 311 312 314 314 313 313 315 316 316 318 324 325 326 328 328 328 329 330 330 330 331 333 334 336 339 341 342 342 343 343 343 342 343 344 344 345 345 346 347 348 349 351 354 357 356 359 359 357 358
291 297 300 302 300 300 302 303 306 309 311 310 309 311 311 312 313 315 314 311 312 313 315 317 320 324 326 327 329 329 329 330 332 333 334 334 335 336 339 339 340 340 341 344 343 341 342 343 344 344 343 344 345 346 347 350 350 352 354 354 355 355 354
299 301 301 302 301 300 302 305 306 306 308 307 307 308 310 312 312 312 313 313 312 311 313 315 318 325 326 328 329 329 331 332 332 333 335 335 336 339 340 339 338 338 338 341 342 343 343 344 344 342 342 342 344 345 346 348 349 353 355 353 353 352 354
297 302 303 303 303 303 305 305 306 307 309 311 308 308 309 310 312 314 312 312 314 314 312 314 317 323 326 326 328 329 330 333 335 336 339 341 339 339 339 340 340 339 339 341 341 342 343 343 343 342 340 341 343 343 345 347 347 350 351 354 354 354 355

ECMWFFLT2_sfc_thetae_048.txt.gz
Theta_e
306 306 308 307 308 295 301 302 298 300 301 301 295 298 296 296 292 290 294 298 297 299 301 303 305 307 309 313 317 322 324 326 327 328 329 331 332 334 336 337 337 338 339 339 340 341 341 342 343 344 345 346 347 346 347 346 346 347 348 350 350 350 350
308 309 308 308 308 303 301 298 300 303 306 305 297 288 291 290 285 287 293 292 291 294 291 302 303 302 304 308 314 322 323 325 325 328 329 331 332 333 336 337 338 339 339 339 340 341 342 343 343 344 345 347 348 348 348 347 347 346 348 349 350 350 349
306 309 307 305 308 308 304 303 305 302 293 294 295 294 288 285 286 286 290 294 294 293 294 298 301 302 303 304 309 319 322 324 326 327 329 331 332 333 335 336 337 338 338 339 340 341 343 343 345 345 346 348 349 349 349 349 348 348 349 350 351 351 350
304 306 304 296 301 307 307 305 304 304 299 297 292 295 291 291 286 289 287 292 290 298 296 299 301 304 305 305 304 316 323 325 327 328 329 330 331 332 334 336 337 338 339 339 340 341 342 343 344 345 347 348 348 349 350 350 350 350 350 350 351 351 351
303 298 301 300 301 299 300 300 300 302 301 300 298 298 293 290 287 285 286 287 291 297 303 305 305 306 306 306 304 313 324 326 328 329 330 330 331 333 334 336 337 338 339 339 340 341 343 345 345 346 347 347 349 350 350 351 350 350 350 350 351 351 352
295 298 305 305 304 304 302 300 298 301 297 294 293 290 298 295 291 285 287 288 293 302 308 307 306 307 308 308 307 308 323 326 328 329 330 331 331 333 334 336 337 338 339 339 340 341 343 344 345 345 347 348 349 350 351 351 351 351 350 351 351 352 352
296 301 305 307 308 307 305 303 299 302 300 297 294 288 291 295 293 299 294 289 293 303 308 308 308 308 309 309 308 308 323 326 327 328 330 331 332 333 334 335 337 338 339 339 340 340 341 343 344 345 346 347 348 350 351 352 351 351 352 352 352 352 352
300 305 307 306 307 307 304 304 302 301 299 300 298 295 292 293 293 292 292 290 292 301 307 308 308 309 310 310 308 309 322 325 326 327 329 330 331 332 334 336 337 338 339 340 339 339 340 341 343 344 345 346 348 350 351 352 352 352 352 353 353 352 352
293 297 300 302 305 306 303 302 303 302 303 302 298 299 296 294 293 294 289 286 293 300 308 309 310 309 308 308 308 313 319 323 325 326 329 330 331 331 333 334 335 336 337 337 338 339 340 341 343 344 345 345 347 348 351 352 353 353 353 354 353 353 352
284 286 286 288 295 299 303 304 304 303 302 300 297 294 294 289 295 295 291 289 297 300 305 305 307 307 307 308 308 314 320 322 324 326 328 329 330 330 332 333 334 334 336 337 338 339 340 341 342 343 344 345 346 348 350 353 353 354 354 354 354 353 352
287 291 294 300 302 300 298 302 303 302 302 302 301 296 291 292 291 294 294 297 297 300 303 303 305 305 305 305 309 311 315 321 325 326 328 328 329 329 330 332 334 334 335 335 337 338 339 340 342 343 344 344 346 348 350 352 354 354 355 355 354 353 353
293 295 294 298 300 298 301 301 302 303 302 300 299 297 295 295 294 288 296 299 298 299 301 302 308 312 312 312 313 316 314 321 324 326 327 335 328 329 330 331 332 332 334 335 336 337 338 340 341 343 344 345 346 348 349 352 353 354 355 355 354 354 353
292 293 294 296 298 302 303 303 303 302 303 301 298 298 299 300 296 293 298 300 299 300 302 303 306 313 316 316 318 320 318 321 324 325 325 327 327 328 329 330 331 332 333 335 336 336 338 339 340 343 345 346 347 349 350 352 354 354 355 355 354 354 353
290 292 295 299 301 303 303 303 303 304 303 301 301 300 301 302 299 300 301 301 301 303 304 304 308 311 315 320 320 321 319 320 323 324 324 326 327 327 328 329 330 332 334 335 336 337 338 339 340 342 344 346 347 348 349 351 354 356 356 355 355 354 353
289 294 300 301 305 304 301 302 303 304 304 303 302 301 302 305 304 302 304 303 302 304 308 311 313 313 313 316 320 321 320 321 323 323 323 324 325 327 328 329 330 331 333 335 336 337 338 339 340 342 343 345 347 348 349 350 352 356 357 356 356 355 354
286 294 295 296 303 304 302 301 301 303 302 301 301 299 301 302 301 303 303 301 301 307 312 310 311 311 312 312 314 317 319 321 323 323 323 323 324 327 328 329 330 331 332 335 336 337 338 340 341 342 343 345 346 347 348 349 351 354 358 358 357 356 357
285 292 294 295 299 299 296 298 301 304 306 301 301 302 308 312 308 303 299 301 304 308 312 310 309 310 310 310 310 315 317 321 324 323 323 324 326 327 329 329 331 331 332 335 337 338 340 340 341 342 344 345 346 347 349 350 352 353 356 358 358 358 358
284 289 291 297 295 288 292 304 308 307 307 307 307 309 312 315 316 310 307 305 308 309 309 311 316 322 321 324 328 323 317 320 323 326 328 328 329 330 330 331 331 332 334 335 337 339 340 341 342 343 345 346 347 350 351 352 352 353 353 356 358 358 359
284 289 295 296 288 291 306 308 309 309 311 315 313 313 315 315 317 317 315 309 309 311 323 327 329 330 332 335 336 339 340 338 337 337 337 336 336 334 335 336 339 341 340 339 339 339 340 342 342 344 346 348 349 350 352 352 353 353 353 354 356 358 358
289 290 289 286 289 301 306 307 307 309 310 309 313 311 314 316 316 317 315 314 311 320 327 329 330 331 332 333 335 337 339 340 338 337 337 339 341 342 343 341 340 342 344 344 344 343 347 350 349 348 349 351 351 351 353 353 353 353 353 353 353 356 358
285 286 285 289 301 303 303 302 303 304 302 304 305 306 310 315 317 318 317 318 319 320 328 329 329 331 332 330 331 336 336 337 339 339 338 339 339 340 342 345 345 346 347 347 347 345 343 343 342 346 349 351 353 353 352 353 353 353 353 352 352 353 356
290 283 285 289 291 287 295 302 305 308 309 310 311 315 309 316 317 319 319 319 321 322 322 324 328 330 326 322 325 333 336 337 337 339 340 341 341 342 344 347 349 350 351 353 355 353 352 353 355 355 348 343 347 350 351 352 352 352 352 352 353 353 354
286 285 285 287 284 294 300 300 303 306 310 312 313 312 305 315 317 319 320 319 321 322 323 323 324 325 320 319 324 331 334 335 338 338 339 341 341 341 342 345 348 350 351 352 352 351 350 350 352 356 359 357 346 343 345 346 349 350 350 350 351 352 353
286 288 285 284 292 290 299 302 304 306 312 315 311 301 301 314 317 319 320 320 320 321 323 325 324 322 319 321 326 333 335 336 337 338 338 339 340 341 343 344 346 349 350 348 348 349 349 349 352 354 358 359 361 358 357 348 342 343 346 348 350 351 353
287 288 288 292 293 300 303 303 305 309 315 313 301 294 306 318 317 319 321 321 321 322 322 323 321 323 326 328 331 335 336 336 337 338 340 340 340 340 343 344 348 344 346 346 346 348 349 351 353 355 357 358 357 358 354 349 350 346 341 343 346 350 352
285 287 288 288 294 301 304 306 308 313 310 299 298 311 320 320 316 318 320 321 322 323 322 323 323 325 328 331 332 332 334 334 335 337 339 340 341 342 345 349 346 342 344 345 347 349 349 350 351 354 356 356 357 356 353 354 357 361 360 351 344 347 351
290 292 290 288 283 296 305 307 307 311 304 304 313 318 317 319 313 314 318 321 322 323 322 324 324 324 326 327 328 329 330 331 332 334 336 337 338 339 340 341 345 344 342 343 346 347 348 348 348 349 353 353 355 354 351 354 357 360 360 358 346 346 350
287 288 288 288 298 302 307 307 300 307 312 316 316 314 311 315 312 312 314 316 322 324 323 323 324 324 324 325 327 328 329 330 330 332 333 335 338 339 340 341 343 345 342 343 344 345 345 346 347 348 348 349 353 352 349 355 357 360 359 359 349 345 347
293 291 298 302 304 308 311 310 310 312 313 314 316 316 314 312 312 313 312 312 316 322 324 324 324 323 324 324 326 327 327 329 329 330 331 332 334 336 337 339 341 342 343 342 343 343 344 345 346 347 347 346 349 347 349 355 357 358 359 360 352 348 347
302 304 302 304 302 306 309 312 313 311 312 313 316 314 311 314 314 313 311 312 312 314 319 323 323 323 324 324 325 326 327 328 329 330 331 331 333 334 336 338 340 340 343 343 342 342 343 344 345 346 345 345 344 344 349 352 354 357 359 359 354 351 348
292 288 299 299 301 303 304 306 307 308 310 312 314 314 313 314 315 314 313 313 312 312 312 316 322 323 324 324 325 325 326 327 327 328 329 330 331 332 334 336 339 339 340 341 341 342 341 342 343 345 344 345 345 346 347 348 350 353 357 360 357 354 350
294 295 298 299 302 304 305 306 304 305 308 311 310 312 317 316 315 315 314 314 313 312 310 311 315 322 324 324 324 325 325 326 326 327 328 329 331 332 334 336 339 338 339 338 339 339 339 341 341 342 343 343 344 343 344 346 348 349 355 359 359 352 353
295 300 300 299 300 302 302 305 306 308 309 309 309 309 310 315 313 313 314 313 314 312 310 311 311 317 322 324 324 325 325 326 327 326 327 329 329 330 333 335 338 337 338 339 338 337 338 339 340 340 340 341 342 342 342 344 346 346 350 358 359 352 354
289 292 294 298 292 292 297 300 303 304 306 308 308 309 309 310 310 312 312 311 313 312 313 310 310 312 319 322 323 325 326 326 327 327 327 329 330 332 334 336 334 335 339 339 337 337 337 337 338 338 338 339 341 341 342 343 344 344 348 352 350 349 350
288 294 297 300 299 297 298 300 303 304 306 308 305 307 308 308 310 311 312 312 310 310 310 311 311 311 317 320 323 324 326 327 329 330 328 329 330 331 334 335 333 334 336 340 338 338 338 338 338 338 338 338 339 340 340 342 343 343 346 347 347 346 347
295 297 298 298 297 295 298 300 302 303 306 306 306 305 309 310 311 314 312 310 311 310 311 311 312 312 316 320 322 323 325 328 330 332 332 332 332 333 335 335 335 335 335 336 336 337 336 337 337 336 337 338 338 339 341 342 342 344 346 344 344 346 347
293 297 298 298 298 298 300 300 302 303 305 306 305 307 310 311 315 314 312 310 309 310 309 308 310 312 314 318 322 323 324 327 332 335 335 337 337 336 335 335 334 334 333 333 334 334 334 336 336 337 336 337 338 339 342 344 344 345 346 347 347 346 347

ECMWFFLT2_sfc_thetae_051.txt.gz
Theta_e
307 308 309 308 307 296 302 304 299 302 303 301 295 297 296 294 290 292 293 293 294 296 300 301 305 311 314 317 318 320 321 323 324 325 326 327 328 330 332 334 335 335 336 336 337 338 339 339 340 340 341 342 343 343 344 344 345 346 347 349 349 349 349
306 310 309 309 309 303 300 298 302 302 305 303 297 290 291 288 285 287 290 292 291 293 292 302 302 304 309 313 315 317 319 322 323 325 327 328 328 330 332 334 336 336 336 337 337 338 339 340 340 341 341 342 343 344 344 343 345 344 347 348 349 349 349
300 307 307 304 308 309 304 302 306 302 293 294 295 293 288 285 284 284 286 290 293 294 294 298 299 301 302 306 312 315 317 320 322 324 327 328 329 330 331 333 334 335 336 336 337 337 339 340 342 342 343 343 343 344 344 344 344 345 346 348 349 350 350
300 300 303 296 299 305 308 304 304 304 298 298 293 295 291 290 284 286 286 289 289 296 296 299 302 302 303 302 308 313 316 319 322 324 326 328 329 330 331 332 334 336 336 337 337 338 338 340 341 342 343 343 343 343 344 344 345 346 346 347 349 348 349
299 293 298 299 300 297 299 299 298 300 299 298 299 295 292 292 283 282 283 286 290 293 298 300 302 303 303 303 307 313 316 318 321 324 326 328 329 330 331 333 334 336 336 337 338 338 339 341 342 343 343 343 343 344 344 345 344 344 345 346 347 348 349
291 294 300 300 300 300 298 299 298 300 297 293 292 291 294 291 290 283 283 286 290 295 303 303 303 304 304 303 306 312 317 319 321 324 326 327 329 330 331 333 335 336 337 337 338 339 339 340 341 341 343 344 344 344 344 345 345 345 345 346 347 348 349
291 296 300 303 303 302 301 300 298 301 298 295 293 288 289 293 292 295 290 287 292 300 303 305 306 306 306 306 304 309 316 319 321 324 326 327 329 330 331 333 335 336 337 338 338 338 338 339 340 341 342 343 344 344 345 345 345 345 346 346 348 348 348
293 297 300 301 302 302 300 300 300 300 298 299 298 295 291 293 291 293 291 289 291 297 303 304 305 306 306 307 304 307 314 319 322 323 325 327 328 330 332 333 335 336 337 338 338 338 338 339 339 340 342 343 344 345 345 346 345 346 346 347 347 348 348
289 294 298 298 301 300 297 296 298 300 302 301 297 296 294 294 292 295 289 287 293 300 311 308 308 306 305 305 304 307 311 318 321 323 324 327 328 329 330 332 333 335 336 336 337 338 338 339 340 341 342 342 343 344 346 346 346 347 347 348 347 348 348
280 284 284 286 287 290 293 296 299 300 300 299 296 293 292 291 293 294 291 291 293 298 301 302 302 304 305 306 305 308 312 317 321 323 324 326 328 328 330 331 332 334 335 337 337 337 338 339 340 341 342 343 344 345 346 347 347 348 348 349 348 348 348
282 285 286 291 294 291 288 291 293 293 296 300 299 294 290 291 290 292 294 296 297 299 302 302 302 302 303 304 303 306 310 316 321 323 325 327 328 329 329 331 333 334 335 336 337 337 338 339 340 341 342 343 344 345 346 347 348 349 349 349 349 348 348
289 290 290 292 293 289 290 290 291 294 296 298 297 295 294 294 291 290 294 296 296 299 301 302 303 302 305 303 303 306 311 316 321 323 325 333 328 329 330 331 332 333 334 336 336 337 338 338 340 342 343 343 344 345 346 347 349 349 350 349 349 349 348
291 292 292 293 293 292 292 293 293 294 297 298 296 298 296 297 295 293 295 296 296 300 302 304 303 303 306 304 304 307 312 318 321 323 324 326 327 328 329 330 332 333 334 335 336 337 337 338 339 341 342 343 344 345 347 348 349 350 351 350 349 349 349
289 290 291 292 291 291 293 293 294 295 297 298 299 298 298 298 297 298 298 297 298 301 303 303 303 303 307 311 313 310 312 316 320 322 323 325 326 327 328 330 331 333 334 335 336 337 337 337 338 340 341 342 343 344 345 348 349 351 351 350 350 349 349
287 290 292 293 293 293 292 298 302 303 302 301 301 299 299 300 299 300 297 298 299 301 302 306 307 309 313 318 316 312 314 317 320 321 323 325 326 327 329 330 331 333 334 335 336 336 337 337 338 339 341 342 343 344 345 347 348 351 352 350 350 350 350
284 289 290 290 293 294 294 299 300 301 302 298 297 297 304 298 297 301 300 296 297 300 306 309 312 314 313 311 310 313 313 318 321 321 323 324 325 327 328 330 331 332 333 333 334 336 337 338 339 339 340 342 343 343 344 346 348 351 351 351 351 350 351
282 288 290 290 292 294 294 296 299 300 306 309 310 311 313 311 310 298 297 297 301 302 310 314 321 327 327 328 327 316 315 316 321 321 323 324 325 327 328 329 331 331 333 333 334 336 337 338 339 340 341 341 342 343 344 346 349 350 350 351 351 351 352
283 287 288 292 293 288 288 300 304 302 305 311 308 308 311 312 313 307 308 308 311 311 316 321 324 327 327 328 330 330 319 315 318 321 323 324 326 327 328 329 330 331 333 334 335 336 337 339 340 341 342 342 343 344 346 347 348 349 350 351 351 351 352
281 286 289 293 288 289 302 306 305 304 305 306 311 312 312 312 314 315 314 314 320 324 326 327 327 328 329 331 331 332 333 330 322 321 323 321 323 324 325 326 328 329 332 333 334 335 336 338 339 340 341 343 344 345 346 346 347 349 351 351 352 352 352
287 287 284 285 288 299 304 305 304 305 306 304 306 311 312 313 313 314 314 316 319 320 323 327 328 328 331 332 332 333 335 336 333 332 331 330 328 327 327 327 328 330 332 333 334 335 339 340 339 340 341 343 344 345 346 346 347 348 350 352 352 353 353
281 284 283 285 295 299 302 299 299 300 298 300 299 302 310 314 314 314 315 317 319 321 322 322 326 327 330 328 329 333 335 336 339 339 339 340 340 341 340 340 338 338 338 338 341 342 339 339 339 339 341 343 344 344 345 346 347 347 348 350 353 354 354
290 281 281 283 288 287 294 299 302 304 305 305 305 303 309 315 314 316 316 317 318 320 323 324 324 324 325 322 324 331 335 337 338 342 344 346 346 346 346 347 347 347 347 348 350 348 348 349 347 342 343 343 343 343 344 345 346 347 347 347 350 354 355
285 283 281 282 282 289 297 298 300 304 306 306 306 305 305 313 312 315 316 319 320 321 322 324 326 324 320 320 325 331 334 335 337 338 340 343 345 346 346 346 346 347 347 349 350 351 351 351 352 354 346 345 344 344 345 345 347 347 347 348 349 351 355
285 284 282 280 289 286 296 299 302 304 307 308 305 298 300 310 313 314 316 320 320 321 323 325 324 323 319 321 326 332 334 336 337 337 338 339 341 342 344 346 347 348 349 348 348 349 349 350 353 356 356 349 347 346 346 346 346 347 348 350 351 352 354
286 286 284 290 289 298 301 302 305 308 310 308 298 292 301 311 312 314 316 319 321 322 322 323 320 323 325 327 329 331 332 333 334 337 339 340 342 342 344 346 350 345 345 345 345 345 346 350 354 356 357 355 354 354 351 350 351 354 350 344 348 352 352
282 284 284 287 291 298 303 305 308 310 307 296 293 305 312 312 310 314 314 313 318 323 322 322 323 324 327 328 328 329 329 330 331 334 336 338 341 344 347 349 346 344 344 344 344 345 345 347 350 352 353 352 350 349 349 349 351 356 356 354 350 346 350
290 291 289 287 283 296 304 306 307 308 300 300 309 312 312 312 310 310 310 310 311 316 322 323 323 324 325 326 326 327 328 329 329 330 332 334 336 338 341 342 344 343 341 342 343 343 345 345 346 348 349 348 347 346 345 346 350 352 354 353 351 345 345
287 287 285 285 295 300 308 304 297 304 307 311 311 310 306 310 309 308 309 309 310 310 314 322 323 324 324 324 325 326 327 328 329 330 331 333 335 338 340 342 342 342 340 341 341 342 343 344 344 344 345 345 346 344 342 346 348 351 352 353 351 342 344
291 289 292 298 304 306 308 306 305 305 307 310 311 312 308 307 308 310 308 308 311 310 310 317 322 322 324 324 325 324 325 327 328 328 329 331 333 335 337 339 341 341 340 339 340 340 341 341 342 342 342 343 344 341 341 345 347 347 350 354 354 348 342
298 302 301 303 303 305 304 307 307 304 305 307 308 309 309 308 309 310 307 309 311 311 311 310 316 321 322 323 324 325 325 325 327 329 330 331 332 335 337 338 339 339 340 339 339 338 338 339 340 341 340 340 338 337 341 344 345 345 349 353 354 355 348
291 289 301 298 299 302 303 306 306 307 306 305 306 306 307 311 311 311 309 310 311 312 312 311 310 315 320 321 323 325 325 326 325 326 328 329 330 331 332 335 338 337 337 337 338 338 337 336 338 339 338 339 337 338 339 340 343 344 348 352 354 354 352
292 292 298 297 298 302 305 305 304 304 304 304 304 305 306 309 310 312 312 311 311 312 312 312 309 311 316 319 321 324 325 325 326 326 326 328 331 332 332 334 336 335 335 335 336 336 335 335 336 337 337 337 337 337 338 339 340 342 346 350 352 351 352
293 296 298 296 297 302 304 305 305 306 305 305 305 304 305 306 309 310 312 309 310 312 312 312 310 309 311 317 320 323 324 325 326 327 327 327 328 330 332 333 336 335 335 335 334 335 334 334 335 335 334 335 337 336 337 338 339 339 342 349 350 348 346
287 290 292 294 289 290 297 302 303 304 305 304 305 305 304 304 307 309 312 309 309 310 312 312 310 308 309 312 317 322 324 324 325 327 327 327 327 330 332 333 333 335 337 334 334 334 333 333 334 335 334 335 335 337 337 337 337 337 340 344 344 346 345
287 293 295 296 296 295 296 298 300 303 304 304 303 304 303 303 306 310 313 309 308 308 309 311 310 308 308 309 315 321 323 324 326 328 327 328 328 329 331 332 331 331 331 335 334 333 332 334 334 334 334 334 334 336 337 338 337 336 337 340 342 343 343
294 296 296 297 296 294 296 299 300 301 303 303 303 305 305 305 307 311 313 312 309 309 310 310 312 309 308 309 315 319 322 324 326 329 329 330 328 329 329 330 329 330 331 331 332 332 332 334 333 333 333 334 334 336 337 339 339 336 338 339 340 342 342
293 297 297 297 297 297 299 299 300 300 302 303 303 305 305 305 308 312 313 312 313 312 310 310 312 312 311 310 314 318 320 324 328 332 332 334 334 332 330 332 332 331 331 331 332 332 333 333 332 332 331 332 333 335 337 340 342 341 342 341 339 339 342

ECMWFFLT2_sfc_thetae_054.txt.gz
Theta_e
298 299 303 305 306 294 298 301 296 299 302 300 295 296 296 292 288 290 291 292 293 295 300 301 302 306 309 313 317 321 322 323 324 325 327 329 330 332 333 333 334 335 335 336 337 337 337 338 339 340 342 343 344 344 344 345 346 346 347 348 348 348 349
299 302 301 302 307 303 299 296 300 303 305 303 297 289 290 288 284 285 287 293 292 294 293 303 303 304 308 311 313 318 321 322 322 324 326 328 330 331 333 334 335 335 336 336 337 337 338 338 338 339 341 343 344 345 345 344 345 345 346 348 348 348 348
298 301 301 301 305 308 304 301 306 301 292 293 297 293 287 285 284 282 286 290 292 294 295 296 300 303 306 308 311 314 317 319 321 323 325 327 330 331 332 333 334 335 335 336 337 337 338 339 340 340 341 342 343 344 345 345 345 346 346 348 348 349 349
297 298 298 293 298 304 308 305 304 303 298 297 293 295 289 291 284 285 288 289 290 295 297 298 301 303 306 308 309 312 316 319 321 322 324 325 327 329 330 332 333 335 336 336 337 337 337 338 339 340 340 342 342 343 345 345 346 346 347 347 349 348 349
296 291 295 296 298 297 299 298 297 300 300 298 301 294 293 291 284 283 284 285 289 292 297 300 302 303 306 308 309 312 314 317 320 322 324 325 327 328 330 331 333 334 335 336 337 338 338 339 340 340 340 340 342 343 343 345 344 345 346 347 348 348 349
287 291 297 296 295 295 294 294 296 300 298 294 293 291 294 293 291 283 284 287 288 293 302 302 303 304 305 307 310 312 314 316 319 321 323 325 326 328 329 330 332 334 335 336 337 338 338 338 339 339 340 341 341 342 343 344 344 345 345 346 348 349 349
289 293 297 299 298 297 297 298 295 297 297 293 294 289 290 293 294 293 289 286 291 298 301 303 304 304 304 306 310 312 314 315 317 320 323 325 327 328 329 330 331 333 335 336 337 337 337 338 338 339 340 340 341 342 342 343 344 344 346 346 348 349 349
291 294 296 297 299 297 295 297 298 295 293 294 295 295 291 292 290 292 293 290 295 300 304 302 303 304 304 304 306 310 313 315 317 318 321 323 325 328 329 330 331 333 334 336 336 336 337 337 338 339 340 340 341 342 342 343 343 344 345 346 347 348 348
287 292 293 295 296 296 292 291 293 295 296 295 294 296 293 293 291 294 290 288 294 300 310 305 305 304 304 303 302 307 310 312 315 317 320 322 325 327 328 329 330 332 333 334 335 336 337 337 338 339 340 340 341 341 342 343 343 344 345 346 346 347 348
279 281 283 282 283 287 290 292 292 294 293 292 292 292 292 289 292 293 292 293 299 301 302 304 302 303 304 305 302 303 305 308 312 316 318 321 323 325 328 329 330 330 332 335 336 336 337 337 338 339 340 341 341 342 342 343 344 344 345 346 346 346 347
282 284 284 289 291 289 287 289 291 291 293 294 294 292 289 290 289 292 293 296 298 299 301 302 302 301 301 302 303 304 304 304 307 314 318 320 322 325 326 329 330 331 333 334 335 336 337 337 338 339 340 341 341 342 343 343 344 345 345 345 346 346 346
287 289 289 290 291 288 289 289 289 292 292 293 291 290 290 294 290 291 295 296 296 299 301 301 302 303 301 301 303 305 305 306 306 308 316 327 322 324 326 328 329 330 332 334 335 336 337 337 338 339 340 341 342 342 343 344 344 345 345 345 345 346 346
289 290 290 291 291 290 290 290 290 289 292 292 291 292 294 295 293 292 297 295 295 300 302 303 303 302 303 303 304 306 307 307 308 309 311 318 321 323 324 327 329 330 332 334 335 336 337 337 338 338 340 341 342 343 344 345 345 345 346 345 345 345 346
288 289 289 291 290 290 290 290 291 291 292 292 294 293 294 295 294 296 297 297 297 300 302 302 304 303 302 302 306 310 307 305 307 308 311 317 321 322 324 326 328 331 333 334 335 336 337 337 338 338 339 340 341 342 343 344 345 346 347 346 345 345 345
286 288 290 291 290 290 288 291 292 293 296 299 301 301 300 299 296 297 296 296 298 302 304 308 310 313 311 312 313 314 313 310 311 311 312 317 321 322 325 327 329 331 333 334 335 336 337 337 338 339 340 341 342 342 343 344 345 347 347 346 346 346 345
283 288 289 289 290 290 289 290 293 297 299 301 302 299 303 296 295 295 295 294 296 300 312 311 323 325 324 323 324 325 323 313 314 315 316 319 321 323 325 327 329 331 332 334 335 336 336 337 338 339 340 341 341 342 343 344 346 347 347 347 346 347 347
281 287 290 288 288 292 291 292 297 299 302 304 309 311 312 310 309 301 296 296 304 313 316 318 322 324 324 325 326 327 328 323 314 317 318 320 322 324 326 328 330 331 332 334 335 336 337 338 338 340 341 341 341 343 344 345 347 347 347 347 347 347 348
281 285 287 288 289 284 287 300 302 302 301 301 300 308 309 311 312 308 308 311 315 316 321 321 321 324 326 326 328 330 329 328 319 316 318 321 323 325 327 329 330 331 334 335 336 337 338 339 340 341 343 342 343 344 345 347 347 348 348 348 348 348 349
279 284 287 289 283 286 300 303 303 305 305 304 301 305 311 310 311 311 312 314 317 318 319 323 324 326 328 331 331 332 333 334 327 316 318 319 323 325 327 328 330 332 333 335 336 337 338 339 340 341 342 343 344 344 345 346 347 348 349 349 348 349 349
285 281 281 279 283 297 301 305 303 306 306 304 302 308 311 309 309 309 309 311 319 321 321 322 324 326 326 331 333 334 335 335 336 330 320 321 323 324 326 328 330 332 333 334 336 337 340 341 340 340 341 343 343 343 345 345 346 348 349 349 349 350 350
278 280 280 282 291 297 299 299 299 301 297 299 298 294 308 308 308 307 308 311 319 322 323 324 325 325 327 329 330 335 333 335 337 339 337 324 324 325 327 329 330 333 334 335 336 340 339 339 339 340 341 343 343 343 344 345 346 347 348 349 349 350 351
287 278 278 278 284 286 293 299 302 304 304 305 305 300 304 309 307 308 308 311 318 321 322 324 324 325 326 322 325 331 332 334 336 339 341 340 333 331 331 332 333 334 335 337 340 338 338 338 339 340 342 343 343 343 343 344 345 346 347 348 350 351 351
283 279 276 277 279 285 294 296 300 304 305 306 307 300 301 307 306 308 308 310 310 319 321 322 325 324 320 321 324 328 331 333 337 338 340 342 341 337 334 334 334 336 337 338 339 339 338 337 339 341 342 343 342 342 344 344 345 345 347 348 350 350 352
284 283 278 276 284 283 294 298 301 304 306 308 304 295 297 303 307 308 307 308 309 310 321 322 321 321 318 319 323 330 332 334 336 338 339 341 342 344 344 342 342 344 346 344 340 339 338 338 340 342 342 342 344 343 343 344 344 345 347 349 352 352 353
285 285 282 285 286 299 299 300 304 305 307 306 296 290 297 306 307 308 308 309 311 310 321 322 319 322 325 327 330 332 333 333 334 338 341 342 343 343 345 346 351 347 347 346 346 347 349 350 344 341 342 342 344 345 344 343 343 345 347 349 352 354 355
282 283 281 282 289 298 302 302 306 304 305 293 292 302 309 307 306 308 309 309 311 311 319 322 323 325 328 330 330 329 331 332 334 336 338 340 341 343 346 349 347 346 346 347 348 350 352 353 349 346 346 347 348 348 346 347 352 355 356 355 350 351 353
290 289 286 285 282 295 302 302 303 300 294 294 300 303 307 309 307 307 308 309 310 312 312 320 324 325 326 327 327 328 330 331 333 334 336 336 338 339 340 341 344 345 343 343 344 346 348 350 351 351 350 349 349 349 347 349 351 354 357 357 355 351 351
286 286 285 285 294 298 303 300 292 297 297 301 302 302 300 303 305 305 307 308 309 312 312 313 320 323 324 326 326 328 329 330 332 334 334 336 337 339 340 341 341 342 340 341 341 342 343 346 348 349 348 346 347 346 344 347 350 354 356 356 355 352 351
289 288 292 297 302 303 303 303 301 301 303 305 304 303 302 301 301 305 307 308 309 311 311 311 312 316 321 324 326 326 327 329 329 331 332 333 335 337 337 339 340 340 339 338 339 339 340 341 342 344 345 345 345 342 344 348 348 350 353 356 355 348 347
295 298 301 300 298 299 303 304 304 302 301 303 305 303 300 302 303 304 305 309 310 310 311 310 308 309 313 320 323 326 327 328 329 330 331 332 334 336 337 338 339 339 339 338 338 337 337 339 339 341 340 341 340 340 344 348 346 349 353 355 356 355 349
290 288 298 295 295 297 301 303 305 305 305 303 304 302 302 302 303 304 306 308 311 309 310 309 308 308 308 310 316 324 326 327 328 329 329 330 332 332 334 336 338 337 338 337 337 337 336 336 337 338 338 339 340 343 343 342 344 348 354 355 356 354 353
291 291 294 295 297 301 304 304 302 302 303 303 304 304 304 303 304 304 305 308 311 308 306 309 308 307 307 308 310 319 324 326 328 328 329 329 331 333 334 336 337 336 335 335 335 335 334 335 336 337 337 337 337 338 339 340 341 346 352 354 352 351 350
292 295 296 295 296 301 302 304 305 305 303 302 303 304 303 303 303 303 304 306 310 307 305 308 308 306 307 309 310 314 323 325 327 328 329 329 330 332 333 334 337 334 335 335 334 334 334 334 335 335 335 336 337 337 338 339 339 343 348 351 351 348 347
287 288 291 294 288 289 295 298 300 301 302 303 302 302 302 303 302 303 303 304 311 309 307 309 308 306 305 309 310 310 319 324 326 329 329 330 331 333 333 334 334 335 337 335 334 334 333 334 335 335 335 336 337 338 339 339 338 342 346 346 345 346 346
286 292 295 296 295 295 296 297 300 301 303 303 301 301 301 302 303 304 304 304 307 309 308 311 310 308 307 308 309 309 312 320 326 329 330 330 331 332 333 334 334 335 335 337 335 334 333 334 334 334 334 334 335 337 338 339 339 339 339 342 343 344 345
295 297 297 298 296 294 297 299 300 301 303 302 301 302 302 303 304 305 304 305 306 309 309 309 312 311 310 309 309 308 310 315 325 330 330 332 333 333 333 333 333 334 334 333 332 332 332 332 331 332 333 333 333 336 338 340 340 340 340 341 343 345 346
294 298 299 299 298 299 300 300 301 301 303 303 302 301 302 303 305 306 305 305 308 310 309 309 310 311 310 309 309 309 309 312 325 330 329 331 333 333 333 333 332 332 331 331 331 330 330 330 331 331 330 331 332 335 338 340 341 342 343 342 342 343 349

ECMWFFLT2_sfc_thetae_057.txt.gz
Theta_e
302 303 304 306 308 296 303 304 299 301 308 305 298 300 303 299 297 294 303 300 303 308 309 312 312 313 315 316 317 321 324 328 332 333 335 336 337 338 339 339 339 341 342 343 343 345 345 347 347 348 350 352 353 353 353 353 354 355 354 355 355 356 356
303 305 304 305 306 307 305 299 303 309 311 308 301 293 298 295 292 296 298 296 298 299 296 310 311 310 313 315 315 317 322 327 330 332 334 336 337 338 340 341 341 342 342 342 342 343 345 346 348 349 352 353 354 354 353 353 354 354 354 354 354 355 356
302 304 305 304 307 309 305 304 311 302 297 296 302 299 291 291 290 293 297 298 299 301 301 307 309 309 311 315 317 317 319 325 327 329 333 336 338 338 339 340 341 341 341 342 343 342 344 346 349 350 351 351 352 353 353 352 353 353 354 353 354 355 356
301 302 303 296 302 308 309 310 306 309 305 301 298 299 300 299 292 293 293 297 294 303 304 307 308 312 313 314 317 317 319 324 326 329 331 334 336 338 339 340 340 341 341 342 342 342 342 344 347 348 349 350 350 351 353 353 353 355 355 354 355 355 355
299 296 300 299 302 301 302 302 302 304 304 308 306 304 300 297 294 294 294 292 297 304 310 308 309 312 317 316 319 321 320 323 326 329 331 333 336 337 339 339 340 341 341 342 343 343 343 344 346 348 348 348 349 350 351 352 352 352 353 353 354 356 355
295 298 302 301 300 300 299 299 301 304 302 299 296 295 304 301 298 293 294 292 301 306 312 311 310 312 314 319 319 322 322 322 326 329 332 334 335 338 339 339 340 341 342 342 343 343 344 343 344 345 346 347 348 349 350 351 351 352 352 352 355 356 356
295 299 301 303 301 300 300 301 300 301 301 301 300 292 297 301 301 302 300 297 300 312 315 313 314 314 314 317 320 319 321 323 325 329 331 334 337 337 338 339 340 341 342 343 343 343 343 343 343 344 345 346 347 348 349 350 350 351 352 353 354 356 356
297 299 301 301 301 301 298 298 300 299 298 297 296 297 300 300 301 298 299 296 300 310 321 319 314 316 313 314 314 320 321 322 324 328 330 333 336 338 338 339 339 341 342 344 344 344 343 344 344 344 344 346 347 348 349 349 349 351 351 352 353 356 356
292 295 299 299 300 301 298 297 298 298 298 298 299 299 302 296 300 301 298 293 300 310 319 321 318 314 311 312 313 313 314 319 323 326 330 332 337 338 337 338 340 341 342 343 345 345 346 346 344 345 344 345 345 347 348 348 349 351 351 353 353 354 354
284 284 286 290 293 295 296 296 296 297 296 296 298 296 300 293 301 303 299 300 307 311 317 315 313 314 318 315 314 313 314 317 318 322 325 332 336 339 338 339 339 340 342 345 347 348 347 345 344 345 346 345 345 346 348 349 349 350 351 352 353 353 353
290 291 288 290 294 294 292 294 295 296 296 297 297 297 296 295 301 299 303 305 305 307 309 312 312 312 312 313 319 316 315 316 317 324 327 327 333 337 336 339 339 342 345 346 348 349 345 344 344 345 345 345 345 347 348 348 350 350 351 352 353 352 352
292 294 293 294 294 291 293 293 294 296 295 296 295 295 296 300 297 294 304 307 302 305 308 311 313 313 318 319 319 317 320 321 319 319 328 330 328 332 337 338 340 342 344 346 347 347 345 343 344 345 345 345 345 347 347 348 349 350 351 352 353 353 353
293 294 293 294 293 293 293 294 294 294 296 296 294 296 298 299 297 297 304 308 307 307 308 310 312 318 319 314 316 320 318 316 319 324 320 321 324 329 332 338 342 342 341 345 347 346 345 344 344 345 345 345 347 349 348 349 348 349 352 352 352 352 353
291 292 293 294 293 293 294 294 294 295 295 296 296 297 299 299 300 302 303 305 305 306 307 314 318 322 321 318 319 320 322 319 326 323 320 316 319 324 329 335 337 342 341 343 347 348 348 345 345 344 345 346 346 347 347 347 349 350 352 352 353 352 352
290 292 294 294 293 293 292 294 295 296 296 297 298 301 305 305 303 303 303 304 304 309 322 325 326 329 333 329 324 329 338 338 336 334 330 326 321 320 328 335 337 340 342 343 346 347 347 346 346 345 346 347 347 346 347 347 349 350 351 352 352 351 352
287 292 292 293 294 294 293 293 294 295 296 297 305 307 310 307 305 305 304 302 305 318 325 328 330 331 333 333 334 335 336 337 338 338 337 333 327 324 322 327 335 339 340 343 344 345 344 345 346 346 348 346 346 345 347 347 348 349 350 351 350 352 353
287 292 292 292 292 293 291 293 295 298 300 306 308 311 313 311 312 308 303 305 316 318 325 326 330 331 333 333 333 333 334 336 337 338 339 339 334 328 325 325 333 336 337 341 344 343 344 344 344 346 348 346 346 347 348 348 349 349 349 349 351 353 353
286 290 291 293 291 285 288 304 303 301 303 307 306 307 308 308 310 309 311 312 315 317 320 324 327 330 331 332 335 337 336 335 335 337 340 341 340 334 328 325 325 334 340 341 343 344 345 346 345 346 348 346 347 348 349 350 349 350 350 350 351 352 353
285 290 291 288 284 287 303 306 309 309 310 310 310 308 306 305 306 307 308 309 309 313 316 323 328 330 333 335 336 336 337 337 337 337 338 341 343 337 330 329 327 336 343 344 345 345 345 345 347 347 347 348 349 349 350 349 350 352 351 351 352 353 353
289 287 288 281 285 298 303 305 306 310 309 309 312 307 305 304 304 305 305 306 308 311 313 317 328 332 334 334 337 337 338 338 337 337 338 341 343 341 331 332 335 341 339 342 343 345 346 346 345 347 347 348 348 348 350 349 350 352 353 352 352 353 354
282 286 287 288 295 296 301 302 301 303 302 304 307 304 304 304 304 304 304 305 307 309 312 315 322 331 333 332 334 337 337 337 339 340 341 342 345 343 338 335 338 345 344 345 344 348 346 345 346 346 347 347 347 348 348 349 350 350 351 353 353 354 354
289 285 285 286 287 285 296 301 304 306 306 307 307 307 304 306 305 306 305 304 306 307 310 313 319 330 330 327 330 334 335 337 339 342 344 346 346 341 336 340 343 346 346 346 349 345 346 346 346 347 348 347 348 348 348 349 349 349 350 352 353 356 355
287 285 283 284 283 288 299 300 303 306 307 307 309 306 303 305 305 305 304 304 305 306 307 310 319 329 324 326 327 332 333 336 341 341 343 345 347 342 340 339 340 341 346 346 346 347 347 345 347 350 349 348 347 349 349 349 350 349 351 354 356 357 356
285 285 284 283 290 287 298 302 303 305 308 307 306 296 298 301 303 304 303 303 304 305 307 309 318 322 320 320 325 331 334 340 341 341 342 344 346 348 341 342 343 348 352 350 346 345 344 347 349 350 349 349 351 350 349 349 348 350 352 356 358 357 357
285 286 286 289 291 299 302 301 304 305 306 305 297 294 298 302 303 304 302 302 306 307 306 308 306 311 316 325 330 334 337 339 340 342 344 345 347 348 349 348 349 347 348 346 344 344 348 351 348 349 349 349 350 352 351 350 350 351 355 359 360 360 360
283 286 285 287 292 299 300 303 305 305 301 296 297 298 304 304 302 303 303 302 305 306 307 307 309 311 314 319 328 332 334 336 337 339 342 344 346 348 351 353 352 346 344 347 346 345 351 349 348 349 351 353 355 354 352 350 353 354 358 361 361 362 363
288 288 286 285 282 296 301 302 304 301 296 293 297 302 304 304 303 302 301 303 304 305 305 307 308 310 311 313 316 327 333 335 336 338 340 341 342 343 347 348 350 351 350 347 345 347 347 347 349 350 350 354 354 355 352 355 355 359 361 360 362 362 362
285 285 284 285 292 297 302 301 294 296 298 300 302 302 301 303 303 301 301 302 304 305 306 307 308 309 309 310 314 321 332 333 336 338 339 341 342 343 345 346 347 350 351 352 352 349 347 349 352 351 353 356 356 354 356 366 363 364 364 364 364 362 362
288 288 291 295 299 299 303 302 301 301 302 303 303 303 302 302 302 304 302 303 304 305 306 308 308 308 308 309 313 315 328 332 333 335 337 339 340 341 342 343 346 347 348 349 350 351 354 358 358 360 360 357 357 358 363 366 366 365 365 364 362 361 360
295 297 299 298 298 298 301 302 303 302 302 304 304 303 302 304 304 304 303 303 304 305 307 308 308 309 308 308 311 313 321 329 333 336 338 339 341 341 342 343 344 346 346 347 348 348 350 353 358 361 361 360 359 360 361 365 367 368 367 364 363 361 361
290 287 296 295 295 297 302 302 304 305 306 306 305 304 303 304 304 305 306 306 304 305 306 309 309 310 310 309 309 312 315 322 329 333 335 338 339 339 340 341 343 343 344 343 344 345 346 349 350 353 355 357 358 359 360 361 363 367 368 367 366 366 364
290 288 295 296 298 299 304 304 303 302 304 305 306 305 305 305 306 306 306 306 304 305 304 308 309 310 312 309 307 310 312 315 322 331 335 337 338 340 342 342 342 343 343 343 343 343 344 346 348 349 349 350 352 354 356 361 364 366 366 366 366 366 365
293 296 297 296 297 301 302 304 303 303 304 304 304 305 305 305 304 305 307 307 306 305 305 308 309 309 310 310 309 310 311 313 319 328 334 337 338 339 340 341 342 341 341 342 342 342 342 346 347 348 349 350 352 354 355 358 364 367 366 364 365 367 368
288 288 292 295 290 290 296 298 300 301 302 304 304 305 304 304 304 305 305 306 307 307 306 308 309 308 309 309 310 308 310 311 316 327 331 335 337 339 341 342 342 342 341 342 342 342 342 345 346 346 347 349 351 352 355 356 362 365 365 366 366 364 366
287 294 297 298 296 295 297 299 301 302 303 304 304 304 303 304 305 305 305 305 305 306 306 309 310 310 309 310 309 308 309 310 314 325 329 332 335 336 338 338 339 340 341 341 341 340 341 343 343 344 345 346 349 351 354 356 359 363 365 364 364 365 365
296 298 298 299 298 295 298 301 302 303 304 304 304 304 305 305 305 306 306 306 305 305 307 309 312 311 310 311 309 308 310 310 312 322 329 331 334 336 336 336 337 338 339 338 338 339 340 340 340 342 343 344 346 349 353 356 358 360 362 364 364 364 364
294 299 300 300 300 300 302 302 303 304 306 306 305 305 305 305 306 307 306 307 308 307 306 308 311 311 311 312 311 309 309 310 313 323 328 329 330 331 333 334 334 334 335 336 337 338 338 338 340 341 341 341 344 347 352 356 359 361 361 363 364 363 362

ECMWFFLT2_sfc_thetae_060.txt.gz
Theta_e
309 309 311 310 311 299 305 305 299 302 308 305 301 302 303 303 301 299 307 304 306 311 312 315 316 317 318 320 320 321 322 325 329 329 332 335 339 342 344 344 345 348 350 351 352 352 352 353 354 354 356 357 358 358 359 361 362 363 363 364 362 363 361
308 311 312 312 311 311 308 301 304 309 310 308 303 295 299 297 295 298 303 300 302 302 299 311 313 313 315 317 319 320 323 323 324 326 330 333 337 341 344 346 348 348 349 350 351 352 352 353 354 355 357 358 358 359 359 360 361 362 362 362 362 362 362
307 309 309 308 311 313 307 307 313 303 298 297 303 301 294 294 293 296 299 301 301 304 304 310 308 309 311 314 317 319 320 322 324 326 329 332 335 339 342 344 346 347 348 349 351 351 352 354 356 356 356 357 357 358 359 359 360 360 361 360 361 362 363
306 307 306 299 303 309 312 312 309 312 307 303 300 301 303 302 296 297 297 300 299 306 307 309 311 312 312 312 315 315 318 321 323 327 329 331 335 338 341 344 345 347 348 348 349 350 351 352 354 355 355 356 355 357 358 358 359 361 362 361 361 361 361
304 298 303 301 304 302 303 304 304 307 307 310 308 307 302 299 298 298 298 296 301 308 312 311 312 315 316 315 315 317 319 321 323 326 328 331 335 339 341 344 345 346 347 348 349 351 351 352 354 355 354 354 355 356 357 357 358 358 359 359 360 361 362
298 300 306 306 306 306 305 304 302 305 303 301 298 297 306 304 300 296 298 297 306 311 314 313 313 315 316 318 319 319 321 321 325 327 329 331 335 341 343 344 345 346 348 348 349 350 351 351 352 353 353 354 354 355 356 356 357 357 357 358 359 361 362
299 302 306 308 308 306 305 306 304 307 306 306 302 294 300 304 304 305 304 300 304 315 315 316 315 315 315 316 317 318 321 324 324 326 328 331 337 341 342 344 344 346 348 349 349 350 350 351 351 352 353 352 353 355 355 356 355 356 356 357 358 361 361
301 304 306 307 307 305 303 305 308 307 304 305 304 304 306 303 304 301 301 298 304 314 319 317 316 319 317 320 317 318 317 319 323 326 328 331 337 344 344 344 344 346 348 350 351 350 350 350 351 352 352 353 354 354 355 355 354 355 356 357 358 360 361
295 297 301 303 306 305 303 304 306 307 307 307 306 305 307 302 304 304 301 295 302 312 318 319 317 316 316 317 318 319 319 321 323 325 326 328 338 344 343 344 345 347 348 349 350 350 352 351 350 352 352 352 353 353 354 354 354 355 356 358 358 359 360
286 287 287 291 296 299 303 305 306 305 305 305 305 301 304 297 305 306 303 302 309 315 318 317 318 317 317 318 318 319 320 321 321 322 328 336 338 345 347 345 345 345 348 350 352 353 352 350 349 351 353 352 352 353 354 354 355 355 356 357 357 358 359
291 294 296 298 300 299 298 301 302 303 304 306 306 306 302 299 304 303 306 307 309 311 313 315 316 317 315 315 318 318 319 321 323 327 328 329 337 342 345 347 346 349 352 352 352 353 351 350 350 350 351 352 352 353 354 354 355 355 357 357 358 358 359
296 298 299 299 298 295 297 298 299 302 302 303 303 301 301 308 303 298 307 310 306 309 314 315 315 316 317 317 319 320 321 322 323 326 333 336 329 335 340 344 345 346 350 352 353 353 351 350 350 350 351 351 352 353 353 354 355 355 356 357 358 358 359
295 297 297 298 298 298 298 298 299 299 301 302 301 303 305 308 303 300 308 311 308 311 313 314 316 319 321 321 325 324 322 322 326 329 326 324 323 327 333 342 346 347 347 352 354 353 352 351 350 350 350 351 353 354 355 355 354 355 357 357 357 357 359
294 295 296 297 296 297 298 298 299 300 300 301 302 303 305 306 305 308 310 310 309 312 314 316 318 324 323 323 326 326 325 329 335 333 333 329 325 323 327 336 343 348 349 353 356 356 355 351 351 349 350 352 351 352 352 353 354 355 356 357 357 357 358
292 294 296 297 296 296 295 297 298 299 300 301 302 302 303 305 305 306 307 308 309 313 321 326 328 327 325 322 321 326 331 333 334 334 331 330 333 333 329 332 338 345 349 351 356 356 355 353 351 350 351 351 351 351 352 353 354 355 356 357 357 357 358
288 293 294 295 297 297 296 296 297 298 299 298 300 301 304 304 304 306 307 305 306 312 325 326 327 326 326 324 326 329 334 336 338 339 336 338 342 343 342 341 335 339 345 347 351 354 353 351 351 351 352 351 351 350 352 352 353 354 355 356 356 359 359
287 292 295 296 296 295 293 294 297 300 300 302 303 305 308 312 313 307 304 306 319 320 322 321 324 327 328 326 328 336 339 341 339 339 340 341 342 345 348 349 349 340 336 343 349 351 351 351 350 351 353 351 351 352 352 353 354 354 354 355 358 360 359
287 292 294 296 292 286 288 301 304 303 300 302 301 303 311 315 314 309 315 316 319 319 318 319 321 323 326 330 336 340 340 340 341 341 342 342 344 346 347 349 350 351 347 340 344 349 352 352 350 352 354 352 353 353 353 355 354 355 355 356 358 359 360
286 291 292 288 284 287 300 309 309 308 306 305 303 310 313 314 314 314 315 317 317 316 317 318 321 324 327 329 332 336 339 341 341 341 341 343 345 346 348 350 351 354 353 347 342 346 348 349 351 352 353 353 354 353 354 353 354 356 355 357 358 359 360
290 288 287 280 284 297 306 308 310 313 311 308 311 307 309 311 312 313 313 315 315 315 316 318 320 323 326 329 332 336 339 341 341 340 340 342 344 345 348 350 351 354 353 347 339 342 351 349 349 350 351 353 352 352 353 353 353 354 356 357 357 359 360
284 287 287 287 296 296 300 304 308 309 307 311 309 302 303 310 311 311 312 313 313 314 315 317 320 324 326 326 329 335 338 339 340 341 342 343 345 347 349 350 351 354 355 349 340 344 349 348 346 349 351 352 352 351 351 352 353 353 354 356 358 359 359
291 286 285 286 287 284 294 306 309 311 311 311 310 308 303 308 310 311 310 309 310 312 313 315 318 322 325 323 326 332 327 328 334 339 342 345 346 348 349 353 354 352 348 345 342 343 349 348 347 350 351 352 352 352 351 352 352 352 353 355 358 360 360
289 287 283 283 283 289 302 304 305 308 310 310 313 306 301 305 309 309 309 307 307 308 308 311 315 322 320 321 325 323 323 323 325 329 340 345 346 348 349 351 352 346 345 345 342 345 349 347 348 350 351 352 350 351 352 351 352 352 354 356 358 360 361
288 288 285 283 289 289 300 304 304 308 310 310 309 295 295 302 307 308 308 305 304 305 306 310 312 312 312 312 314 317 318 321 324 328 338 344 346 348 350 353 354 350 350 350 344 344 348 349 348 352 351 351 353 352 352 352 351 352 355 358 361 362 362
288 287 286 289 291 299 305 304 306 309 312 309 297 291 298 305 308 308 307 306 305 304 305 308 306 309 310 310 313 314 317 319 323 329 342 347 347 348 350 351 356 351 348 348 345 347 348 351 349 351 351 351 352 355 354 354 352 353 357 361 363 364 364
286 287 285 285 290 299 303 307 308 307 303 295 295 298 303 306 307 308 306 304 305 304 305 306 307 309 310 312 314 313 314 317 321 329 343 346 347 349 352 353 353 350 349 349 348 345 350 350 352 352 352 352 354 356 354 353 355 356 359 363 364 365 364
290 289 285 284 281 297 303 305 306 305 298 297 299 302 305 307 306 305 305 304 304 305 304 307 307 309 310 311 311 311 313 315 318 329 344 345 346 346 349 353 353 352 348 347 345 347 350 351 350 351 351 355 355 356 354 357 357 359 361 364 365 365 365
285 285 282 284 295 299 305 303 297 300 302 304 304 304 304 307 307 305 306 306 306 306 305 305 306 309 310 310 311 311 312 313 317 325 343 345 346 346 347 349 352 354 353 349 347 349 351 352 353 353 354 355 358 357 357 361 360 361 363 366 368 367 365
292 290 294 300 301 302 304 305 303 304 306 305 304 304 304 306 305 307 305 305 306 306 306 306 306 307 309 310 311 311 311 312 317 322 340 342 344 345 347 347 351 353 354 354 348 351 353 354 355 357 358 360 361 359 362 364 363 363 366 367 366 366 364
298 299 299 301 301 303 303 306 307 305 304 306 306 306 304 305 306 307 305 306 307 308 309 306 306 307 309 310 310 311 312 313 317 319 338 341 343 343 345 347 349 351 352 355 358 359 354 355 356 360 361 364 363 362 364 364 364 366 368 368 367 366 366
290 288 298 298 299 301 302 305 306 307 308 307 307 306 307 306 307 307 308 308 308 309 309 308 306 307 309 310 311 312 312 312 314 316 333 340 341 341 342 345 348 350 349 350 354 358 359 362 360 358 361 363 365 365 369 364 365 371 370 368 365 366 366
290 291 297 298 300 301 304 306 304 305 304 305 307 307 307 307 308 309 308 310 310 310 309 310 308 307 309 310 310 310 311 313 315 316 327 340 340 341 342 343 344 346 348 350 351 353 355 358 362 364 365 364 368 370 367 365 365 370 369 367 365 366 365
295 298 299 299 299 301 305 306 306 305 304 304 305 306 307 308 308 308 309 311 310 311 310 310 309 308 309 311 311 310 311 313 313 314 324 339 339 340 341 341 341 341 343 346 349 350 351 354 359 361 364 364 368 370 367 367 369 368 365 364 365 366 365
289 289 292 296 291 292 298 300 303 305 306 305 305 306 307 308 307 308 308 310 312 312 312 311 310 308 310 311 311 311 312 313 313 315 327 335 336 336 339 340 340 342 343 343 345 347 349 351 353 356 359 362 365 367 370 372 371 369 370 368 367 366 365
287 294 296 298 298 298 299 302 304 306 306 306 305 305 306 307 308 309 308 308 310 311 312 313 311 309 310 310 311 311 312 313 314 318 329 330 331 332 336 336 337 339 340 342 344 346 348 351 352 354 356 358 360 363 366 368 368 369 370 365 363 365 366
296 298 298 299 299 297 300 303 304 305 307 307 306 307 308 309 310 309 309 310 308 309 310 312 313 311 311 311 311 310 313 315 316 319 327 328 329 331 333 334 335 336 338 339 341 343 347 348 350 352 354 356 358 360 365 367 369 369 369 366 363 360 364
294 299 300 300 300 301 303 304 304 306 307 308 307 308 309 310 310 310 309 310 311 311 310 310 312 312 310 311 312 313 313 316 317 320 325 327 327 328 330 333 334 335 336 337 339 341 344 347 348 349 350 352 356 358 361 363 367 368 368 367 367 368 369

ECMWFFLT2_sfc_thetae_063.txt.gz
Theta_e
309 310 312 310 311 299 306 307 302 304 311 307 303 304 306 307 304 300 308 305 307 311 312 314 316 317 319 321 323 325 326 327 331 331 334 335 336 337 343 343 344 346 348 350 352 355 354 355 354 355 358 359 361 361 362 364 366 366 366 367 367 367 367
310 312 312 312 311 310 308 303 306 311 312 310 305 297 302 301 298 301 305 303 305 304 301 313 314 314 316 318 320 323 325 327 327 330 333 336 337 338 340 342 345 347 344 347 354 355 356 356 356 357 359 360 361 361 363 363 364 365 367 366 366 366 366
309 312 311 309 312 312 306 306 314 304 299 298 304 302 294 296 296 299 303 305 306 307 306 310 311 312 314 317 320 321 321 325 327 328 330 335 338 339 337 340 343 344 349 351 356 355 355 357 359 359 359 359 360 362 363 363 364 366 365 365 365 366 365
307 309 307 300 305 310 312 311 307 312 307 303 300 302 303 302 297 298 299 303 301 309 311 313 312 313 315 316 317 319 321 323 325 327 328 331 335 338 339 340 344 346 343 344 349 353 354 356 358 358 358 358 359 360 362 363 365 367 367 365 365 364 364
304 299 304 302 304 303 304 304 304 307 307 310 308 306 302 300 299 299 300 298 303 310 314 314 315 316 316 316 316 319 321 323 324 325 326 329 334 336 340 340 342 341 341 343 348 354 355 356 358 358 357 357 358 359 360 362 363 364 364 363 363 364 364
299 300 307 307 307 307 306 305 304 306 304 302 299 297 307 303 300 296 299 299 308 313 315 314 314 317 317 318 318 318 321 321 325 325 327 329 331 335 337 340 339 340 343 348 349 351 350 356 356 356 356 357 357 358 359 360 361 362 362 361 362 364 363
299 304 307 309 309 309 308 308 305 307 307 306 302 295 300 304 304 306 305 302 306 316 318 318 316 316 317 319 318 318 318 320 321 324 327 329 332 333 336 339 336 338 343 345 348 349 351 352 356 356 357 356 356 357 358 359 359 360 361 359 361 364 363
303 305 308 308 308 308 305 306 307 307 303 305 304 304 306 303 304 302 302 300 304 315 320 319 318 319 318 321 320 320 319 320 321 322 326 330 332 336 337 338 338 339 337 345 350 351 353 354 356 356 356 357 357 356 357 358 357 358 358 358 359 362 362
295 298 303 303 307 306 304 303 306 307 308 307 307 308 309 303 304 305 302 296 303 314 318 319 318 317 316 317 319 320 320 324 323 323 325 328 335 336 337 338 341 342 339 345 351 351 351 355 355 357 356 356 356 356 356 357 356 357 358 358 357 361 361
286 287 289 292 296 300 303 305 305 307 306 307 304 300 303 298 306 306 303 303 309 314 319 317 317 317 318 319 319 319 320 322 323 325 326 329 332 338 339 338 338 339 345 348 352 352 353 354 354 357 358 357 356 356 357 357 356 356 356 356 357 360 361
292 296 299 302 302 302 299 301 302 304 307 308 307 306 301 299 304 304 306 307 309 311 313 315 317 318 316 316 319 319 320 322 324 328 330 330 333 338 338 339 339 348 349 350 349 357 354 354 354 355 356 356 356 358 357 357 357 356 356 356 357 359 360
297 299 299 301 301 298 300 300 301 304 304 305 305 301 300 308 303 299 307 312 308 309 313 315 317 318 319 317 319 319 321 322 322 324 329 338 333 338 341 342 343 346 351 352 356 355 353 353 354 355 356 356 356 357 357 357 357 356 356 356 357 358 360
297 298 298 300 300 299 299 300 301 301 303 303 302 304 306 307 303 301 309 311 309 312 314 316 318 322 323 322 324 324 325 324 327 328 326 325 327 332 335 344 345 349 347 354 355 354 354 354 353 354 355 356 357 358 359 358 357 357 358 356 356 357 359
295 296 297 298 297 298 299 300 301 302 302 302 303 304 306 306 306 308 309 310 310 312 315 316 322 324 323 326 325 326 326 327 331 329 327 324 324 324 327 335 342 347 349 352 357 357 358 354 354 352 354 356 356 356 357 357 358 358 358 357 357 357 358
292 295 296 297 297 297 296 298 300 301 302 303 303 304 305 307 306 308 307 308 308 314 319 319 326 326 324 325 324 324 328 330 330 331 329 329 331 332 334 334 338 344 346 350 356 359 359 357 355 353 354 356 356 356 357 357 358 358 358 358 358 358 359
290 294 294 295 297 296 296 297 298 300 300 300 303 302 305 304 303 304 306 306 306 313 318 319 323 323 323 323 325 326 327 331 334 331 330 331 332 332 335 336 339 342 342 346 351 356 357 356 355 354 355 354 355 354 356 356 356 357 358 358 358 360 361
288 293 295 295 295 294 291 293 298 301 302 303 304 305 307 307 307 304 302 303 311 314 317 320 322 321 323 325 325 328 328 330 328 331 332 332 333 333 337 338 341 342 343 341 349 352 355 355 354 353 355 353 355 355 356 357 357 356 357 358 360 363 362
289 293 293 295 292 285 287 299 303 303 302 303 301 302 305 307 308 307 310 310 312 314 317 321 321 323 325 327 329 329 329 328 328 328 333 334 334 335 337 337 340 347 350 352 354 347 355 358 355 354 356 353 355 356 356 357 357 358 358 359 360 360 363
288 292 293 288 283 285 299 302 304 305 305 305 303 305 306 307 309 309 309 311 314 321 323 322 323 325 326 327 327 328 329 329 328 329 328 334 338 341 342 342 344 351 355 355 358 357 354 350 355 356 353 354 356 355 355 355 357 361 358 359 360 361 362
291 289 288 280 284 296 300 302 304 306 306 305 304 302 305 307 308 311 310 313 314 319 320 321 323 324 325 326 328 328 328 334 333 333 335 338 340 341 344 346 348 352 352 355 355 357 359 355 348 354 353 354 354 354 354 355 355 356 358 360 359 361 362
285 287 287 287 295 294 297 298 300 306 304 305 304 299 302 309 312 315 315 317 318 319 318 319 321 324 324 323 323 324 329 328 329 330 331 334 337 339 343 345 347 353 355 354 356 359 358 357 352 347 352 352 352 353 353 353 355 355 357 359 359 362 362
291 286 286 286 286 283 292 304 308 312 312 312 312 307 304 314 315 317 315 315 316 316 316 318 319 323 319 317 318 328 325 325 326 328 331 334 337 340 343 347 348 353 354 354 356 356 356 354 354 351 352 352 352 353 353 353 354 354 354 357 360 364 363
290 287 284 284 282 288 304 305 307 308 310 310 313 306 300 311 314 315 313 313 314 314 313 314 318 319 315 313 318 321 323 322 324 325 328 331 335 339 344 346 347 350 353 356 357 358 356 349 350 350 352 352 350 352 354 352 353 354 355 357 360 362 363
290 289 285 283 290 288 304 307 306 308 309 311 306 293 295 306 312 313 313 312 312 311 313 315 317 318 315 317 320 319 321 322 324 325 326 329 332 337 343 347 350 352 356 356 355 354 351 350 348 349 350 352 354 353 352 352 352 354 356 359 362 364 365
290 288 288 290 291 298 306 305 307 309 310 306 296 290 299 308 312 311 311 310 310 310 311 314 312 317 317 317 318 319 320 320 322 324 327 329 333 338 344 347 351 351 352 353 352 351 352 353 347 346 349 351 353 355 355 355 354 354 357 361 364 367 367
289 290 287 287 292 301 304 308 308 311 303 294 292 302 305 307 309 310 311 309 309 309 309 310 311 312 315 316 317 317 317 317 319 322 324 328 332 337 342 349 350 350 351 354 354 353 353 350 347 348 352 356 358 363 358 354 356 357 359 365 364 366 367
291 291 289 286 282 297 305 306 305 309 299 298 301 305 308 310 310 308 309 309 309 309 308 310 311 312 312 312 313 314 315 316 317 319 321 325 328 332 339 349 350 349 350 351 352 352 350 348 347 349 351 359 363 362 356 360 358 361 362 362 365 367 368
288 288 286 286 295 301 306 305 298 304 306 307 308 307 305 306 308 308 309 309 309 309 309 309 310 311 311 311 311 312 314 315 315 317 319 323 326 331 340 349 351 351 350 352 353 353 350 351 353 353 355 364 363 360 360 366 362 364 365 367 369 368 367
292 291 294 301 303 305 306 307 306 307 309 309 308 308 307 307 306 309 308 308 309 310 310 311 312 310 309 309 310 311 311 312 312 314 316 320 325 329 342 348 352 353 352 353 351 352 350 353 355 358 358 364 365 362 366 369 374 368 368 367 366 366 366
303 302 302 305 304 304 306 307 309 309 309 310 310 308 306 308 309 308 306 308 309 309 311 311 311 310 309 309 311 311 311 312 313 314 317 321 327 330 344 350 352 353 354 356 358 361 356 355 355 360 358 360 363 364 364 367 368 368 367 367 367 367 367
293 289 304 303 303 304 306 306 308 311 310 309 309 308 308 308 309 309 308 308 309 310 311 311 310 309 310 310 311 311 310 311 313 314 316 321 324 331 342 346 349 353 355 355 357 359 357 357 355 354 356 357 363 367 368 363 362 370 369 368 367 368 367
293 294 300 302 304 305 306 306 306 307 308 307 308 309 310 309 310 311 311 309 309 310 310 311 310 310 311 311 311 310 311 311 313 314 315 319 323 337 342 345 349 353 353 355 355 357 359 363 367 359 357 361 364 365 363 362 362 369 370 369 368 369 367
295 298 300 300 301 303 306 306 306 305 305 306 307 309 309 310 309 310 310 310 310 311 311 312 311 310 311 311 312 312 312 312 313 315 317 320 326 340 340 342 345 348 351 352 354 354 355 361 365 366 363 364 363 366 367 365 371 370 369 367 369 370 368
291 290 294 297 291 293 300 303 304 305 306 307 308 308 308 309 309 310 309 310 311 311 312 312 311 311 311 312 312 312 313 313 313 314 318 321 329 337 340 342 342 345 349 350 351 352 355 359 360 363 365 368 368 365 367 369 372 370 370 368 369 369 368
289 295 297 299 298 299 301 303 305 306 307 308 308 308 308 309 310 311 310 309 310 311 312 313 312 311 310 311 313 314 314 315 315 316 319 321 326 331 338 339 339 340 343 348 349 351 354 356 357 358 360 364 366 369 370 370 370 370 369 367 366 367 366
297 298 299 300 299 297 300 303 304 304 307 308 308 310 311 311 311 311 311 311 310 311 312 313 314 312 312 312 314 315 317 316 314 316 319 322 326 331 336 336 338 339 341 342 345 348 353 354 355 356 358 360 362 363 367 369 370 369 369 366 365 363 364
294 300 301 301 301 302 303 304 305 306 307 307 307 309 311 312 313 313 312 312 312 312 311 311 313 313 312 314 316 317 317 316 317 318 320 322 324 325 330 335 335 337 339 342 345 348 349 351 351 353 355 357 360 363 366 367 368 368 369 366 366 366 366

ECMWFFLT2_sfc_thetae_066.txt.gz
Theta_e
307 308 311 310 311 298 305 305 300 302 309 306 302 302 304 304 301 299 307 304 306 310 310 312 313 314 316 319 320 324 334 334 334 334 335 335 335 340 343 343 343 347 346 348 348 348 348 348 349 350 353 355 356 358 359 361 362 362 363 364 364 362 362
309 311 312 312 311 310 306 301 304 310 311 309 303 296 300 298 295 298 304 301 303 302 299 311 311 311 313 316 318 321 325 334 335 335 336 336 337 338 341 345 346 346 346 345 346 347 345 346 349 352 354 355 357 359 359 360 361 361 362 363 362 363 363
308 311 310 308 311 312 305 304 312 303 298 297 303 300 293 293 294 296 301 304 304 305 305 309 308 309 311 314 318 320 321 333 332 335 335 334 335 336 340 340 341 344 346 349 352 353 348 349 353 354 355 354 355 357 358 360 360 361 361 362 363 364 363
307 307 306 299 303 309 311 310 306 309 305 302 299 300 301 300 295 296 297 301 301 308 309 311 310 311 313 314 316 317 320 323 325 328 330 333 334 338 340 342 345 345 344 347 350 350 349 349 352 354 353 353 353 354 358 360 361 362 362 361 362 362 362
304 299 303 301 303 302 303 303 302 304 304 307 306 305 301 298 297 297 297 297 303 310 314 313 314 314 314 314 315 319 319 322 325 326 334 334 334 337 341 342 341 344 348 349 348 349 349 353 356 355 354 353 355 356 359 360 360 361 362 361 360 363 364
298 300 306 306 306 305 304 303 301 303 301 299 296 296 305 302 298 295 297 296 306 311 315 314 315 317 316 316 316 317 319 320 325 326 329 336 336 338 341 339 341 345 346 346 347 348 352 352 352 352 352 355 356 355 355 359 359 359 361 362 362 364 364
297 302 306 308 307 306 306 306 304 306 305 304 300 294 299 302 302 303 302 299 303 315 316 318 316 317 317 318 317 317 318 321 322 325 326 332 335 334 343 343 342 343 344 345 347 351 351 349 350 350 351 351 351 352 355 358 360 360 361 363 363 365 363
300 303 305 306 307 306 303 305 306 305 302 304 303 302 304 301 302 299 299 297 303 313 320 318 317 321 317 322 319 318 318 320 322 323 326 330 333 335 338 342 341 343 345 347 349 350 350 351 351 350 350 351 351 351 355 358 359 360 361 363 363 364 362
294 296 300 301 305 304 302 301 304 306 305 305 305 305 308 300 302 303 299 294 300 311 319 319 318 316 316 317 319 319 319 320 321 323 326 328 335 337 338 340 342 343 342 346 350 350 352 351 350 352 352 352 353 353 354 355 356 361 362 362 363 363 361
285 285 286 290 295 299 302 303 303 304 304 304 302 299 302 296 304 306 302 300 306 312 320 317 317 317 319 317 318 320 320 321 319 320 321 336 335 335 338 340 340 340 342 346 349 350 351 353 352 352 352 353 353 352 352 355 357 362 361 363 362 363 361
291 294 298 300 302 301 298 300 302 303 304 305 304 303 300 297 302 301 305 306 309 310 312 313 315 315 315 315 318 318 318 321 326 338 342 330 336 338 337 341 340 342 346 348 349 352 351 350 350 351 353 353 352 354 354 354 355 358 362 363 362 361 360
296 297 298 300 299 297 299 299 300 303 302 303 300 299 297 308 301 297 307 313 306 309 312 317 320 316 318 317 320 319 320 321 321 324 342 339 334 335 339 341 341 345 347 348 351 355 353 349 349 350 352 351 351 352 352 355 354 355 359 361 361 361 360
295 296 296 298 297 297 297 298 299 299 300 300 298 300 301 302 298 296 306 315 308 309 312 318 320 320 321 321 323 323 328 321 326 336 328 328 328 332 335 343 350 352 353 355 355 353 351 349 349 350 352 352 353 354 353 353 355 354 358 360 359 359 360
294 295 296 297 296 296 297 298 299 299 300 300 302 301 302 302 302 305 304 309 307 311 313 316 320 321 323 323 325 330 330 329 332 325 328 328 327 331 333 340 348 355 354 356 356 355 354 350 350 349 352 355 355 355 355 354 356 354 357 359 358 358 359
291 294 296 296 296 295 294 297 298 299 299 300 300 300 301 303 303 304 305 306 307 312 316 317 321 321 322 323 324 326 328 328 326 326 329 330 329 330 335 342 340 347 350 353 360 356 354 353 350 349 355 354 355 355 354 355 354 354 354 357 357 357 359
289 293 294 294 295 295 294 294 296 296 297 296 299 299 303 302 302 304 304 304 305 312 314 315 318 318 319 322 326 326 326 326 326 325 325 328 331 331 334 335 338 340 340 347 350 350 355 354 354 354 356 354 353 351 354 355 354 352 353 355 355 357 360
288 292 294 293 294 293 290 291 294 297 298 299 301 302 304 305 305 302 301 303 310 313 316 314 316 317 325 326 326 326 326 327 325 324 325 328 330 333 336 336 338 336 341 344 350 346 347 347 344 349 356 357 350 353 355 355 356 353 352 353 357 358 360
288 292 293 294 290 283 285 297 300 299 297 299 298 299 302 305 306 304 307 308 312 311 311 312 319 320 322 324 326 327 326 327 327 328 329 331 332 339 341 338 336 336 341 345 349 352 355 353 347 348 352 349 349 350 351 356 356 355 354 356 357 358 360
287 291 291 287 283 285 297 300 301 302 302 301 300 301 303 305 306 308 307 308 309 310 311 318 321 322 324 325 325 325 328 329 328 328 330 331 333 334 338 341 342 344 345 349 349 349 346 349 353 349 346 345 347 357 358 356 355 359 358 359 358 358 360
291 288 287 280 283 294 298 299 301 302 302 302 302 299 303 304 305 308 308 308 309 313 315 318 321 323 322 323 326 326 325 326 326 325 327 329 331 332 335 337 341 345 343 345 346 350 356 353 354 351 344 345 345 349 350 349 355 356 358 360 358 359 361
285 287 287 287 294 293 294 295 298 301 298 305 303 299 305 306 308 312 311 312 316 317 316 318 319 321 321 320 322 325 323 322 324 324 326 328 329 331 334 336 338 343 346 347 347 352 351 350 351 350 350 346 346 346 347 348 353 352 353 356 360 360 361
292 287 284 285 285 282 289 304 307 309 309 310 310 305 303 311 314 314 313 312 314 313 313 315 317 319 316 313 318 320 320 320 321 323 325 327 329 330 332 335 338 342 345 346 348 348 349 352 352 351 347 346 343 346 346 347 348 348 350 353 361 362 361
290 288 283 283 281 286 299 303 306 308 309 309 312 304 297 309 312 313 313 311 311 311 310 312 316 315 311 313 314 315 317 318 320 321 323 324 326 328 331 333 335 339 344 349 350 351 352 351 353 356 351 346 344 346 348 346 346 346 350 353 360 363 363
290 288 284 282 288 287 298 305 305 307 308 308 305 291 293 306 310 312 312 311 310 310 311 312 313 314 310 311 313 317 317 318 320 321 321 322 324 326 329 332 335 338 344 348 350 350 349 352 353 356 357 350 346 345 346 345 344 344 348 355 361 364 364
288 288 287 289 290 297 304 303 305 308 308 302 292 287 299 307 310 310 311 310 310 310 310 311 308 312 313 314 316 317 316 317 319 320 321 321 323 325 327 329 334 335 340 345 348 348 350 357 355 356 354 349 349 348 348 348 347 347 349 356 363 367 366
287 290 287 287 291 298 303 306 306 308 301 290 289 303 307 309 309 310 311 310 311 310 309 309 310 311 314 316 317 315 314 316 317 318 318 319 321 323 326 328 330 333 338 343 348 350 352 353 354 355 356 355 354 354 349 348 351 352 356 363 364 366 367
292 290 287 285 282 298 306 305 302 307 296 299 302 306 308 310 310 310 309 310 310 310 308 310 311 312 313 314 316 315 314 315 315 316 316 317 317 319 322 325 328 331 335 340 347 349 351 352 353 355 353 354 353 356 353 351 353 356 360 364 365 367 368
285 286 284 285 295 297 305 303 297 303 306 308 308 308 306 310 310 309 309 309 309 309 309 309 309 311 312 313 314 314 313 314 314 315 317 317 317 318 321 323 326 330 333 342 348 351 352 355 358 360 359 356 353 356 361 360 358 361 367 368 367 367 366
290 288 292 299 301 304 303 305 305 308 310 311 311 308 307 308 309 311 309 309 310 311 310 309 309 309 311 311 312 312 312 312 313 314 315 316 316 317 318 321 325 329 337 346 349 351 354 357 364 368 365 359 359 361 365 365 363 367 369 368 366 366 366
298 300 301 304 302 302 303 305 308 307 309 311 311 310 307 309 310 310 308 309 310 310 311 309 309 310 311 311 311 312 313 313 313 315 316 317 317 318 319 322 326 330 341 347 350 352 357 362 366 369 367 362 363 368 370 367 366 372 370 367 365 367 366
293 289 302 300 301 302 303 304 308 309 309 310 311 311 310 309 310 310 311 311 311 311 311 310 310 311 312 311 311 312 313 312 313 315 315 316 316 316 318 322 325 333 343 346 350 353 357 361 363 367 370 362 371 375 372 368 367 374 370 367 364 366 367
292 292 298 300 301 302 304 306 304 305 307 309 310 310 311 310 311 310 311 312 311 311 310 311 311 311 312 312 311 311 312 313 315 316 316 316 317 319 320 323 329 338 343 346 349 352 354 359 362 366 369 369 371 372 367 363 369 374 369 366 365 366 366
295 299 300 299 300 301 303 303 304 305 306 305 307 309 309 310 310 310 311 312 312 312 311 312 312 311 312 312 312 311 312 314 315 316 317 318 319 319 320 324 329 337 341 344 349 351 354 358 361 363 369 369 369 370 372 365 375 371 368 363 366 368 366
290 291 293 296 291 292 297 299 302 304 305 306 306 306 307 308 309 310 310 311 312 313 313 313 312 311 312 313 312 311 312 314 316 317 318 318 319 319 321 326 330 335 339 341 347 350 353 357 359 361 362 369 371 368 377 373 378 370 368 367 367 367 366
287 294 296 298 297 296 299 301 303 304 305 305 305 306 307 309 310 312 311 310 311 311 313 315 314 313 314 312 312 311 312 315 317 318 318 318 318 320 322 325 328 334 335 338 343 349 353 354 356 359 362 363 365 367 372 376 378 372 371 366 365 365 365
296 298 297 298 297 295 298 302 303 304 306 306 305 307 308 309 310 311 312 312 311 311 313 313 314 314 314 314 313 312 314 315 316 317 319 320 321 323 324 325 329 332 331 333 336 346 351 352 352 353 358 360 360 360 365 367 374 376 371 368 365 364 365
294 299 299 300 299 299 302 303 304 305 306 305 304 305 307 308 309 311 311 312 314 313 312 312 313 315 314 314 314 313 314 314 316 318 320 321 322 323 324 325 327 330 329 331 334 343 347 348 349 353 355 355 358 359 359 363 362 357 367 368 367 366 366

ECMWFFLT2_sfc_thetae_069.txt.gz
Theta_e
304 302 308 307 307 293 299 300 294 297 304 300 297 299 300 298 294 290 301 300 300 303 304 305 306 307 308 309 325 328 330 333 335 334 334 334 334 336 339 341 341 341 341 341 342 342 344 345 345 346 347 348 350 351 352 351 351 352 351 354 352 349 348
302 306 305 306 308 306 301 295 297 304 305 304 299 290 294 292 288 292 298 296 297 297 293 304 304 304 306 307 325 327 328 334 334 335 334 335 336 338 340 341 341 341 341 341 342 344 345 346 346 347 347 348 350 352 353 352 353 352 351 353 353 351 349
302 304 304 303 307 309 302 300 308 298 292 291 297 297 288 287 288 290 294 298 298 297 298 302 302 303 305 306 320 326 329 332 333 334 334 336 338 339 340 340 340 340 341 341 342 343 345 347 348 347 349 349 350 352 354 354 353 354 353 353 354 353 351
299 300 300 292 299 306 308 307 303 305 299 296 294 296 296 295 289 292 290 295 291 305 303 303 303 305 305 306 324 327 330 332 332 333 334 335 337 338 339 340 341 341 341 342 343 344 343 345 347 348 349 350 350 352 354 355 356 356 356 354 355 353 352
298 291 297 295 296 295 298 299 298 299 303 303 299 301 295 292 290 289 290 289 296 302 307 307 306 306 306 308 320 329 330 331 332 333 334 335 336 337 339 340 341 341 342 343 344 345 345 346 348 349 349 349 350 352 354 355 355 355 356 356 356 356 354
291 293 299 299 299 300 298 296 295 297 295 294 290 289 300 297 293 287 290 289 297 306 314 310 310 309 309 309 314 328 329 330 331 333 334 335 335 336 339 340 342 342 343 343 344 345 345 346 347 348 349 350 350 351 353 355 356 356 356 356 356 357 357
292 296 299 302 302 302 301 300 298 299 298 298 295 285 291 298 296 300 297 292 295 307 312 311 312 312 310 311 311 326 331 332 332 333 334 335 335 336 338 340 342 343 343 344 344 343 343 344 345 347 348 348 349 350 353 355 355 356 357 357 357 358 358
296 298 300 300 301 301 298 299 300 299 297 298 296 296 299 295 298 294 293 292 295 306 309 313 317 317 314 312 312 312 327 331 332 333 334 334 334 336 338 340 342 342 343 343 343 343 343 345 347 347 348 348 349 349 352 355 355 356 357 358 358 358 358
288 290 294 294 300 301 297 297 301 302 302 302 301 300 299 293 296 298 293 288 294 304 314 317 319 319 318 317 314 314 313 315 324 333 334 334 333 334 336 338 339 340 342 342 343 344 344 346 349 349 349 349 350 350 351 354 356 357 358 359 358 358 359
280 280 282 285 289 293 296 299 299 300 301 300 297 293 293 287 295 294 298 296 301 306 312 316 317 318 320 323 324 325 323 320 314 330 332 332 333 333 335 337 339 339 341 343 344 344 344 346 348 348 348 349 350 350 351 354 355 357 358 359 359 358 358
284 287 290 295 296 294 291 294 295 296 298 300 299 299 294 289 293 294 298 301 300 304 311 313 314 316 320 321 322 322 322 324 325 323 330 332 332 334 335 337 338 339 341 343 343 344 345 346 347 348 348 349 349 349 350 352 354 355 357 358 359 358 358
290 291 291 294 295 292 293 292 293 296 297 298 297 294 292 298 294 287 300 300 300 301 304 312 313 316 320 321 322 322 322 322 323 326 330 342 332 336 337 336 337 338 340 342 343 344 345 346 347 347 348 348 349 349 349 351 353 355 356 357 358 358 358
291 292 292 293 293 293 293 293 293 293 295 296 294 295 296 298 294 290 297 299 299 302 304 311 315 317 319 320 322 323 323 322 323 326 329 330 332 334 335 336 336 339 339 341 343 344 345 346 346 346 347 348 349 349 350 351 352 354 356 356 357 358 358
290 291 292 293 292 292 292 292 293 294 294 295 295 295 297 297 296 298 298 299 300 305 307 312 316 319 320 320 323 324 323 322 323 328 330 331 332 333 333 334 336 337 340 342 344 345 345 346 346 346 347 347 348 349 349 351 351 354 355 356 356 357 357
289 291 292 292 292 291 290 292 293 294 294 294 295 296 297 299 297 299 299 300 301 307 312 318 320 321 322 323 322 322 324 325 326 326 328 331 331 331 333 333 336 339 341 341 341 343 345 346 347 347 347 348 349 350 350 351 351 353 354 354 355 356 357
286 290 291 291 292 292 290 290 291 292 292 291 294 294 298 297 295 297 298 297 299 307 311 321 322 322 321 319 320 321 322 323 324 324 325 326 329 334 333 336 336 338 339 341 342 345 343 347 352 351 351 349 349 349 350 351 352 353 353 353 354 354 356
285 289 291 290 291 290 287 288 291 293 293 294 295 297 299 298 298 294 293 295 303 307 314 318 319 319 319 317 317 317 320 320 320 321 322 324 326 327 330 333 338 341 342 344 343 344 344 348 349 346 345 352 349 350 350 351 353 353 352 352 352 353 355
284 289 290 291 286 280 282 293 296 296 293 294 292 293 296 299 299 297 299 300 309 312 314 314 315 317 319 318 316 318 317 318 318 319 320 321 323 324 327 329 334 337 337 342 345 345 345 345 348 352 349 346 349 353 353 350 349 350 349 349 349 349 352
284 288 289 285 279 281 293 297 297 297 298 297 296 302 301 304 302 301 301 307 311 312 312 313 315 318 319 318 315 315 316 318 318 317 318 319 320 321 323 324 328 330 333 338 343 348 349 350 347 348 348 349 349 353 354 352 351 349 348 348 347 347 347
289 285 284 277 279 291 295 296 298 308 305 306 304 301 303 308 308 308 309 309 310 311 311 313 315 315 320 317 316 315 315 316 316 317 317 318 319 319 321 323 325 327 330 333 336 339 346 351 351 348 346 348 348 349 350 350 350 350 349 347 347 347 347
282 284 283 283 290 290 292 292 298 301 299 300 301 295 300 306 307 307 307 308 309 309 310 312 314 317 318 317 313 315 314 314 316 318 318 318 318 319 321 323 324 327 329 331 333 337 340 345 347 349 348 348 347 347 348 349 348 349 349 347 347 347 347
288 283 281 282 281 278 286 295 306 308 306 306 306 302 297 305 307 308 307 306 307 308 309 311 314 317 316 312 310 313 314 314 315 317 318 319 318 319 320 322 324 325 327 329 332 334 338 343 348 350 351 350 347 343 347 347 346 348 348 347 348 348 348
286 284 280 280 277 282 290 300 304 305 305 306 304 298 293 303 306 307 307 306 306 307 307 308 312 311 309 309 309 311 316 313 314 314 315 318 317 318 319 320 321 323 325 328 332 334 337 340 345 348 349 349 349 345 343 347 347 347 347 348 348 348 349
287 285 281 279 285 282 296 300 301 303 306 305 299 286 288 301 306 307 307 305 306 306 307 308 307 304 301 302 306 312 314 315 314 314 313 315 317 317 319 320 321 323 327 327 328 330 332 336 341 345 348 349 350 349 345 342 345 346 347 348 349 350 350
287 287 283 285 287 298 300 300 301 304 305 302 286 283 295 302 305 307 307 306 306 306 306 306 303 305 307 309 313 314 314 313 313 313 315 316 318 317 318 319 324 322 323 325 326 328 331 336 340 345 349 348 348 348 349 346 342 342 348 349 350 350 351
285 286 284 284 288 297 300 301 301 306 300 286 283 299 303 303 305 307 308 306 307 306 306 305 305 307 310 313 316 312 312 312 312 313 314 315 316 318 320 321 321 321 323 324 326 328 331 335 341 347 350 348 348 349 348 347 347 347 344 347 350 350 350
288 286 283 282 279 293 301 300 300 303 293 295 301 302 305 308 306 307 307 307 307 307 305 307 307 308 309 310 311 311 313 313 311 312 313 314 315 316 317 317 320 322 322 323 325 328 332 337 343 347 349 349 349 350 350 350 349 348 346 345 347 349 349
283 284 282 283 292 295 302 300 292 299 301 306 305 304 303 305 306 306 305 306 307 307 306 306 306 307 308 309 310 310 312 312 312 312 314 315 316 317 318 319 319 322 321 323 324 327 331 338 343 346 349 350 351 352 355 359 355 349 346 345 345 347 350
289 286 289 296 299 300 302 303 302 303 305 307 310 308 305 304 305 307 305 305 307 307 307 307 307 306 307 308 310 310 309 310 311 312 313 314 315 316 317 318 321 322 322 322 324 327 334 341 346 350 355 357 357 358 362 364 358 352 347 345 345 345 349
297 297 298 302 300 300 300 301 305 304 306 307 307 306 304 306 307 307 305 306 307 307 308 306 306 306 307 308 309 310 310 310 311 314 314 315 316 317 318 319 320 322 323 324 325 328 334 341 345 349 353 356 356 359 364 365 364 355 349 347 347 347 347
289 284 299 296 295 297 298 302 305 304 304 304 304 304 304 305 306 307 308 307 307 307 308 307 306 306 308 308 309 309 309 310 310 312 313 315 316 316 317 319 321 322 323 324 325 328 333 339 343 348 351 355 357 360 362 364 365 359 350 348 349 352 352
289 289 295 296 297 297 299 300 298 299 301 302 303 304 305 305 306 307 307 309 308 308 307 308 308 308 308 308 309 309 308 309 310 312 313 314 315 317 318 320 322 323 323 324 326 330 333 336 339 344 349 354 358 360 362 363 365 361 353 349 350 353 356
292 295 296 295 296 296 299 299 299 300 301 301 302 303 304 304 304 305 307 309 309 309 308 309 308 307 308 309 309 310 309 309 310 311 314 314 315 317 318 320 322 323 324 325 328 330 331 334 337 342 348 353 357 358 359 361 362 360 356 352 352 353 356
287 288 291 294 288 289 293 296 298 299 301 301 301 303 303 304 304 305 305 307 309 310 311 310 309 308 309 311 312 310 309 309 310 312 313 313 315 317 319 321 321 322 324 325 328 328 330 332 335 340 347 351 352 355 358 359 360 362 358 355 354 355 357
286 293 296 296 295 294 295 297 299 300 301 302 301 302 303 304 305 305 305 305 306 308 310 312 311 309 310 311 312 310 310 311 312 313 313 313 315 316 319 319 317 320 323 327 327 328 328 330 331 333 339 347 352 355 356 357 358 361 360 356 355 356 357
296 299 297 298 296 293 296 299 300 300 302 302 302 303 303 303 304 305 306 306 306 307 309 311 313 312 311 312 312 310 310 311 311 312 313 314 315 318 320 319 317 318 321 324 324 326 327 328 328 330 333 342 346 349 351 355 357 359 362 357 355 356 357
295 300 299 299 299 300 301 300 300 301 302 304 301 302 302 303 304 306 305 306 307 308 308 309 311 313 312 312 311 310 310 311 312 314 316 317 316 319 320 320 318 317 320 324 323 325 326 326 327 328 329 335 339 340 344 352 357 356 354 352 350 351 352

ECMWFFLT2_sfc_thetae_072.txt.gz
Theta_e
297 297 299 299 301 291 296 298 293 295 298 297 294 297 296 296 292 287 295 296 297 300 303 305 303 303 315 323 324 325 325 328 332 334 335 335 335 335 336 337 338 339 339 339 340 341 341 342 343 342 343 344 344 343 344 343 344 347 347 348 346 346 346
298 301 300 300 301 301 298 294 293 299 302 298 292 286 289 288 285 287 294 291 292 293 292 301 302 302 302 317 322 324 325 327 330 332 333 334 335 335 336 337 338 339 340 340 340 341 342 342 343 343 344 345 346 345 345 344 344 345 347 348 347 345 345
298 301 299 298 300 302 297 295 303 296 288 290 291 291 285 285 285 285 289 293 294 294 294 299 299 300 302 307 319 321 323 327 329 331 332 333 334 335 336 337 338 339 340 340 339 340 342 343 344 345 345 346 347 347 346 346 345 346 348 349 348 347 345
296 297 295 287 292 299 301 301 298 299 297 292 291 291 289 288 284 288 285 291 289 298 295 300 300 302 303 300 318 321 324 328 330 331 331 332 332 333 335 337 338 339 340 341 340 340 341 342 343 345 346 347 347 348 348 347 347 347 348 349 350 347 346
295 288 291 290 291 290 292 293 292 295 296 298 295 296 292 288 285 284 285 284 288 298 305 310 311 315 316 309 316 321 324 329 331 332 332 332 332 333 335 338 339 340 340 341 341 341 342 343 345 346 346 346 347 348 348 348 347 347 347 349 350 349 347
287 290 296 296 295 294 292 291 291 295 293 290 287 286 296 294 290 283 286 285 291 303 315 313 315 318 317 311 316 320 324 328 330 332 333 333 332 333 335 338 340 340 341 341 341 341 342 342 343 344 346 347 347 348 349 349 348 348 348 348 349 350 349
290 293 297 299 298 299 296 297 295 296 295 294 289 284 286 293 293 298 291 287 293 305 311 316 319 319 319 318 318 320 324 327 331 333 334 334 334 334 335 338 340 341 341 341 341 340 340 341 343 344 345 346 347 348 349 350 349 349 349 349 350 351 350
293 295 297 299 300 299 295 296 297 294 291 293 292 291 293 291 291 288 289 290 291 304 307 311 320 320 321 321 320 320 322 324 330 333 334 333 334 334 336 338 340 341 341 341 341 340 340 341 342 343 345 346 347 348 349 350 350 350 350 350 350 350 350
286 287 291 295 297 296 292 291 294 294 295 295 295 296 295 290 293 294 289 286 292 301 307 309 319 320 320 321 323 323 322 323 323 330 334 334 334 335 336 337 339 340 340 339 340 340 340 341 343 344 344 345 346 347 349 350 351 352 352 352 351 350 350
276 277 279 283 286 288 291 294 293 294 293 292 291 289 290 284 292 294 291 290 295 300 304 306 315 318 319 321 323 324 326 327 327 325 331 334 334 334 336 337 338 338 339 340 340 340 341 341 343 344 344 345 346 347 349 351 352 352 353 353 352 351 351
281 283 287 292 293 290 286 289 291 291 293 294 292 293 290 285 289 290 292 294 294 297 300 303 314 316 318 319 320 320 322 326 329 326 330 332 335 335 335 337 338 339 339 339 340 340 341 342 342 344 345 345 346 347 348 350 352 353 353 354 353 352 352
287 289 289 291 292 288 289 289 289 291 291 292 291 288 286 293 289 284 294 296 293 296 300 306 313 316 318 319 319 319 320 321 327 330 332 337 332 333 335 335 336 336 337 339 340 340 341 342 343 344 345 346 346 347 347 350 352 353 354 354 354 353 353
289 289 290 291 291 290 290 289 290 290 291 291 289 289 291 292 289 286 293 295 294 297 303 314 316 317 317 318 320 319 320 320 321 324 327 330 331 332 332 333 335 336 337 338 341 341 341 341 342 343 344 345 346 347 348 350 352 353 354 354 354 353 353
289 289 290 291 290 290 290 289 290 291 291 291 291 291 292 292 291 294 295 296 297 302 312 315 315 317 318 318 321 322 318 317 318 318 319 321 323 325 329 330 331 335 336 337 338 339 340 343 342 343 345 345 346 346 347 349 351 353 354 354 353 354 353
287 289 292 291 291 290 289 290 291 291 292 292 292 292 292 295 293 297 295 295 297 308 315 317 316 315 316 316 315 319 318 316 317 316 317 318 319 321 323 325 327 329 332 335 337 338 338 339 341 344 348 348 348 347 348 349 350 353 355 354 354 354 354
283 288 289 290 291 291 289 288 290 290 290 289 291 290 293 291 290 291 293 294 297 307 313 316 314 312 311 311 314 315 317 316 316 315 315 316 317 319 321 322 323 325 329 331 336 338 338 339 341 341 341 346 347 347 348 348 350 353 354 354 354 354 355
281 288 289 289 289 287 284 285 288 290 291 292 293 294 295 295 297 293 290 298 304 309 313 310 311 310 309 310 311 314 315 317 315 314 314 315 316 318 319 321 322 323 325 328 331 335 340 341 341 342 342 342 345 350 348 349 350 351 352 353 353 354 355
281 287 288 289 284 277 279 290 294 293 295 297 296 300 303 304 306 301 301 306 309 308 308 308 308 308 308 309 311 313 314 315 315 314 314 314 315 317 321 321 323 322 324 326 329 331 334 339 346 346 343 345 343 345 349 349 349 349 350 351 352 353 354
280 286 287 283 276 279 290 294 295 295 298 303 301 302 304 304 305 306 305 304 305 306 308 308 311 311 311 311 311 311 313 316 314 314 313 314 315 315 316 319 322 322 324 325 327 328 330 335 339 348 345 344 346 346 346 348 349 349 349 350 351 352 352
285 281 281 273 276 287 293 294 295 303 304 302 302 300 302 303 304 305 304 304 305 306 307 308 310 314 312 312 312 312 313 313 315 314 313 314 315 315 316 317 318 320 321 323 326 328 333 332 334 339 349 347 345 344 348 348 347 349 349 349 349 350 350
278 280 279 281 288 288 289 290 298 297 293 294 295 291 296 302 304 304 304 304 304 305 306 308 308 310 314 311 309 313 313 312 313 316 315 314 315 316 317 318 318 320 322 323 325 329 330 331 332 336 345 349 348 345 344 346 346 346 348 347 348 348 350
285 281 278 278 278 275 283 293 300 302 301 300 301 296 293 304 303 306 305 303 303 304 305 306 307 309 311 306 305 310 314 313 313 313 317 316 316 317 317 318 319 320 321 323 326 329 327 329 333 337 339 343 345 344 343 345 346 345 347 347 348 348 348
284 282 277 275 272 279 289 293 298 300 300 301 301 295 291 302 301 304 304 303 304 303 303 304 306 304 300 300 303 308 313 312 314 312 314 317 316 317 317 318 318 319 320 323 325 326 327 327 331 333 337 341 343 345 345 344 344 344 344 346 348 348 349
286 284 280 278 282 280 291 296 297 299 301 303 295 283 285 299 301 303 304 304 303 304 305 305 303 301 297 299 303 309 313 314 313 313 312 314 317 318 318 319 320 320 322 322 322 323 324 326 330 334 335 337 342 346 349 348 345 344 345 347 349 350 350
287 286 283 284 284 293 296 297 298 300 303 299 285 281 293 300 301 303 305 305 305 305 304 304 299 302 305 306 308 311 312 313 312 312 314 315 317 317 317 318 322 320 321 321 322 323 325 327 329 332 334 336 339 343 346 347 346 346 346 347 348 349 350
282 285 283 283 285 292 296 299 299 302 297 286 283 295 301 301 302 304 305 305 305 305 305 304 303 305 308 310 310 310 310 312 311 312 312 314 316 318 319 320 320 319 320 321 322 323 325 327 329 331 334 336 339 342 344 346 349 351 350 347 347 348 348
285 285 283 282 279 292 299 299 297 300 290 291 298 299 302 304 303 303 304 305 305 305 303 306 306 305 306 308 308 308 309 310 310 310 311 312 314 315 316 317 319 320 319 320 321 323 326 327 330 332 335 337 340 343 344 348 354 358 357 352 346 346 347
282 283 282 283 290 292 300 297 289 295 298 300 301 301 300 303 303 302 302 303 305 305 304 305 305 306 305 306 307 308 308 309 310 310 311 312 314 316 317 319 320 320 319 321 322 324 326 328 331 333 335 336 338 340 342 348 353 357 360 361 356 349 346
287 283 286 293 297 299 299 301 299 300 302 304 304 302 300 299 300 302 301 301 303 304 305 305 305 305 306 305 306 306 307 309 309 309 310 311 313 314 315 317 319 320 319 320 322 324 327 329 332 333 334 334 335 336 340 346 350 353 357 359 360 359 354
294 295 295 297 297 296 297 298 300 301 302 302 301 299 298 299 301 301 300 301 302 304 305 304 304 305 306 306 306 306 307 308 309 311 311 311 314 314 315 315 318 320 320 320 322 324 327 330 331 332 332 333 333 335 340 344 349 354 357 357 356 355 357
286 282 296 295 294 295 296 297 300 299 299 299 300 298 298 299 300 301 302 302 303 304 305 304 304 304 305 306 307 307 307 307 308 308 309 311 313 313 313 315 318 318 318 318 320 323 325 328 328 329 329 331 332 335 338 344 349 352 352 353 352 353 354
286 286 291 293 295 295 296 297 295 295 297 298 299 299 300 300 301 302 302 303 303 304 303 304 304 305 306 305 305 306 307 307 308 308 309 310 313 313 314 315 318 318 316 316 319 323 323 325 327 327 328 329 330 332 334 340 346 349 350 351 351 351 353
288 291 292 293 294 294 296 297 297 298 298 298 298 299 300 300 300 301 303 304 303 304 303 304 305 305 306 307 306 306 307 307 308 308 309 310 311 312 312 314 317 317 317 317 319 322 322 323 324 325 327 328 328 329 333 339 341 340 343 345 349 351 353
284 284 287 292 287 287 292 294 296 297 298 298 298 298 299 299 300 301 301 302 303 304 304 304 305 304 305 307 308 308 308 308 308 308 309 309 310 311 313 314 317 318 319 317 319 322 321 321 322 324 324 325 327 329 332 334 334 334 337 342 348 351 353
284 290 293 293 293 292 294 295 297 298 299 298 297 297 298 300 301 301 300 300 301 302 303 305 305 304 305 306 308 308 308 309 309 309 309 309 309 311 313 314 316 318 318 319 320 321 321 321 322 323 323 324 325 327 328 329 330 331 333 339 345 349 350
293 295 295 295 293 291 294 297 298 298 299 298 298 299 300 301 301 301 301 301 300 301 302 304 305 305 305 306 307 307 308 309 308 309 309 310 310 312 314 314 316 318 319 318 319 321 320 320 321 321 322 323 324 324 325 325 327 330 332 336 342 347 348
291 297 298 298 296 296 298 299 300 300 300 300 298 298 299 300 301 302 301 301 302 302 302 303 304 306 305 306 307 307 308 309 311 311 314 316 315 314 313 315 316 318 318 318 319 320 320 320 320 321 321 322 323 323 323 324 326 328 331 335 341 345 345

ECMWFFLT2_sfc_thetae_075.txt.gz
Theta_e
296 296 297 298 299 289 294 295 292 293 295 294 289 295 294 293 286 285 290 293 294 296 300 305 311 311 308 313 322 325 326 327 329 331 334 335 336 337 337 336 337 337 338 339 339 338 339 339 338 336 336 337 339 341 341 342 343 344 345 346 346 347 346
296 298 297 298 298 297 292 288 292 297 298 295 291 286 284 283 282 284 290 290 288 290 292 306 312 313 315 316 313 320 324 326 327 330 333 335 336 337 338 338 338 338 339 339 339 339 339 339 339 338 337 337 339 341 342 341 342 343 345 346 346 346 346
295 298 296 295 297 299 293 290 298 292 290 290 288 288 283 283 283 282 288 290 292 294 297 304 308 311 314 315 316 314 316 323 326 329 332 335 337 337 337 337 337 338 338 339 339 339 340 340 341 340 339 339 338 340 342 342 342 343 345 347 346 346 347
294 294 294 285 290 297 299 299 295 297 293 291 289 289 286 285 281 284 283 286 291 299 299 303 304 313 314 316 316 317 314 320 325 328 331 333 335 336 336 337 337 338 338 339 339 339 339 340 340 341 340 340 338 339 342 342 343 344 344 346 347 345 346
292 287 290 288 289 288 291 292 289 291 291 295 293 293 290 287 283 280 282 285 292 299 306 302 302 313 317 317 317 319 318 316 324 327 330 333 335 336 336 337 337 338 338 339 340 340 340 341 342 342 341 340 340 339 340 342 342 342 343 345 346 346 345
286 287 294 294 293 292 292 290 288 288 288 286 285 285 291 290 286 283 283 283 290 300 309 303 304 316 319 318 318 319 322 322 319 326 329 333 335 336 337 337 337 338 339 339 340 340 341 341 341 341 342 341 341 340 340 341 342 342 343 344 345 346 345
287 290 294 296 296 296 294 293 290 291 289 289 284 279 284 288 289 294 288 286 293 303 304 303 306 317 318 318 318 318 321 324 324 324 328 332 335 336 337 337 337 338 338 339 340 339 340 340 341 342 342 342 342 342 341 342 342 342 343 344 345 346 345
290 292 295 296 295 294 290 291 292 291 288 289 287 286 287 286 289 285 284 288 291 300 304 304 312 318 318 318 317 317 318 322 327 327 328 329 331 334 336 337 337 338 338 339 339 339 339 339 340 341 342 342 343 343 343 343 342 342 343 344 346 346 345
282 285 289 290 292 292 289 287 290 291 291 291 291 292 292 288 289 288 286 284 289 298 303 308 317 318 316 315 316 317 316 318 324 329 329 329 330 331 333 334 335 336 337 337 338 339 339 339 340 341 342 342 343 343 344 344 344 344 344 345 346 346 346
276 276 276 279 282 285 288 291 289 290 290 289 288 283 285 280 288 288 287 286 292 297 302 313 315 316 316 316 315 317 317 316 317 322 327 330 332 333 334 335 335 336 337 338 338 339 339 339 340 341 342 343 343 344 345 346 345 345 345 346 346 346 347
278 281 284 290 293 287 284 287 288 288 290 290 290 289 285 282 285 285 288 291 291 296 302 311 312 314 314 315 314 313 314 315 316 318 320 322 324 328 331 334 335 336 337 338 338 340 339 339 339 340 342 342 344 344 345 346 347 346 346 346 346 346 347
285 287 288 289 291 286 287 286 287 289 288 289 289 285 283 289 284 280 288 292 290 295 303 310 309 311 314 315 316 314 314 314 314 315 317 322 320 321 323 326 329 333 335 336 337 338 338 339 339 340 341 343 343 344 345 346 347 348 348 347 347 346 347
289 288 288 290 289 289 289 288 288 288 288 288 287 288 289 290 285 282 288 290 290 296 308 310 309 310 312 313 315 316 315 315 314 314 314 315 316 318 320 320 323 326 329 334 336 338 340 339 339 339 341 342 343 344 345 347 348 348 349 348 347 347 347
287 288 288 290 289 289 289 289 289 290 288 287 288 288 289 289 288 289 290 290 292 304 309 310 309 311 312 312 315 316 314 313 313 313 313 314 315 316 317 319 320 322 325 327 330 336 338 339 341 340 340 341 343 343 344 346 348 349 350 349 348 348 347
284 288 291 289 289 289 287 289 289 289 289 288 288 288 289 293 289 290 291 291 293 304 309 311 310 310 310 310 310 312 312 312 312 312 313 313 314 315 317 318 319 320 322 324 327 328 330 336 339 339 341 342 343 344 345 346 347 349 350 349 349 349 348
281 286 287 288 289 288 286 286 288 288 288 289 291 290 290 290 288 289 290 290 292 303 308 310 309 308 307 306 307 309 311 311 311 311 312 313 314 315 316 318 319 319 320 322 324 325 328 331 334 340 339 341 344 343 344 345 347 350 350 350 350 350 350
278 284 288 288 287 284 281 282 287 292 290 292 295 301 303 302 301 293 289 290 301 303 307 306 306 307 306 306 306 307 310 311 311 310 311 313 314 315 316 317 319 319 319 321 323 325 327 329 332 337 342 341 340 343 346 347 349 349 350 350 350 350 351
278 284 286 287 282 275 277 287 293 293 293 295 295 298 300 302 302 300 301 301 303 304 304 303 305 306 306 307 308 309 310 311 311 311 311 312 315 316 317 317 318 319 320 321 323 324 326 329 333 335 343 345 344 345 346 346 345 344 344 347 349 351 351
278 282 284 281 274 277 288 292 294 298 300 300 302 300 301 301 302 303 302 302 302 303 304 305 305 309 309 310 309 309 310 312 312 312 311 311 313 314 315 317 318 319 320 321 322 323 325 329 332 334 336 341 346 347 346 345 344 344 344 344 345 348 350
281 279 278 270 274 284 291 292 294 302 299 298 300 299 301 300 300 302 301 302 302 303 304 305 306 307 310 310 310 310 311 312 312 312 312 312 313 312 314 315 317 318 319 320 322 323 330 330 332 332 333 335 339 344 348 346 346 345 345 344 345 346 349
278 279 277 279 285 286 287 289 294 295 291 292 292 288 296 300 299 300 300 302 303 303 304 305 305 306 309 308 306 310 311 311 312 313 314 313 313 314 315 316 317 319 320 321 322 324 327 328 331 332 334 336 338 340 343 345 346 346 345 344 345 346 350
284 279 277 277 275 274 281 292 298 300 299 299 299 294 291 303 301 301 300 300 302 302 303 303 304 305 307 304 304 307 309 312 311 312 314 316 315 315 315 317 318 319 321 321 323 324 324 325 329 331 333 335 336 338 341 344 345 344 344 344 346 347 349
283 282 277 274 271 276 285 289 295 298 298 299 300 293 287 300 299 300 301 300 302 302 302 302 303 300 296 296 301 305 308 310 312 310 312 314 315 315 316 316 316 318 319 322 323 323 323 324 327 329 333 335 336 338 341 343 346 345 344 344 345 346 347
283 281 277 276 281 277 288 294 296 298 299 300 294 281 283 296 298 300 301 301 302 303 303 303 301 298 294 297 301 307 309 309 312 310 310 312 313 314 316 317 318 319 321 321 321 322 323 324 326 328 331 332 336 338 340 343 344 346 347 347 346 346 348
285 286 281 282 283 291 294 295 298 298 300 295 282 278 292 297 297 300 302 302 303 304 303 302 298 301 302 303 306 309 310 308 309 311 312 313 314 315 315 316 321 318 319 320 320 321 323 325 326 328 330 331 334 336 339 341 343 345 348 351 352 348 347
280 281 281 282 284 290 295 297 298 299 294 282 280 291 296 297 298 302 302 301 301 302 302 302 301 303 305 309 308 308 308 308 308 310 310 311 313 315 317 318 318 317 318 319 319 320 323 325 327 329 330 331 332 333 335 337 340 342 345 348 352 353 345
283 284 282 281 278 291 298 297 295 297 287 287 295 296 298 302 301 300 300 300 301 301 300 302 302 303 304 305 306 306 307 308 308 308 309 309 310 312 313 315 316 317 317 318 318 318 321 324 327 329 331 330 330 331 331 333 337 340 342 345 348 352 354
280 282 280 282 288 291 297 295 288 292 295 297 298 299 297 298 299 298 297 299 300 301 300 301 302 302 303 304 304 305 306 307 308 309 309 310 311 312 314 315 316 318 317 318 318 318 320 324 326 329 329 328 329 329 329 333 335 338 340 344 347 350 354
284 281 284 290 293 295 296 298 296 295 297 300 300 298 296 295 296 298 297 297 299 300 300 301 302 302 303 303 305 305 305 306 307 307 308 309 310 311 312 313 316 317 316 317 318 318 319 323 326 326 327 326 326 326 328 332 333 334 337 342 346 349 351
290 292 293 295 294 294 294 296 297 297 298 298 298 296 295 296 297 297 296 298 298 299 301 300 301 302 303 303 304 305 306 306 306 309 309 309 309 311 313 313 314 315 316 318 318 318 319 322 323 323 323 324 324 326 328 330 330 331 335 340 344 347 349
284 281 291 292 292 293 294 294 296 297 298 296 297 296 296 296 297 298 298 298 299 300 301 300 300 301 303 303 303 305 305 305 306 307 307 308 308 309 311 313 314 314 315 316 317 318 318 321 322 322 322 323 325 326 327 327 328 331 336 338 339 340 342
284 286 289 291 293 294 295 294 293 293 294 296 297 297 297 298 298 298 299 299 299 301 300 301 300 300 302 302 303 304 305 306 306 307 307 308 308 309 310 311 314 313 314 315 317 318 318 320 322 322 322 322 323 324 325 326 328 329 331 333 334 335 337
288 290 291 292 292 293 293 296 295 294 295 295 296 297 297 297 297 298 299 300 300 301 300 301 300 300 301 302 302 303 304 305 306 307 308 308 309 309 310 311 313 312 314 316 318 319 319 320 322 321 321 322 323 323 324 325 325 324 325 328 330 332 335
283 284 287 289 285 285 288 292 294 295 295 296 296 297 296 296 296 297 297 298 300 301 301 301 301 300 300 301 302 302 303 304 305 306 307 308 308 309 310 312 312 312 316 317 318 319 319 320 321 321 321 321 322 323 324 325 324 323 324 325 327 330 335
283 289 290 291 291 290 292 293 295 296 296 296 295 295 295 296 297 297 297 297 298 299 300 302 301 300 300 301 302 302 303 304 305 305 306 307 308 309 310 310 310 311 312 317 319 319 319 320 320 320 320 321 321 322 323 324 324 323 323 324 327 330 334
291 291 292 293 292 291 292 294 295 296 297 297 296 297 297 297 297 298 298 298 297 298 299 300 302 301 301 302 302 302 303 303 304 305 306 307 308 311 312 311 311 312 313 316 317 318 318 319 319 319 319 320 320 321 322 323 324 324 324 325 326 329 332
291 293 294 294 294 295 295 295 296 297 298 300 298 297 297 298 299 299 298 298 300 300 300 300 301 302 301 301 302 301 302 303 305 306 310 313 314 313 312 312 312 312 314 315 316 317 318 318 318 319 318 318 320 321 321 322 323 324 325 327 328 329 332

ECMWFFLT2_sfc_thetae_081.txt.gz
Theta_e
299 299 300 300 300 295 299 300 297 299 301 302 299 297 297 297 297 295 302 300 305 307 308 316 320 320 320 321 322 323 323 325 327 329 331 335 339 340 341 341 342 344 345 346 346 344 343 344 345 345 348 350 350 351 351 353 354 355 355 356 355 356 357
300 301 300 300 301 300 300 297 299 301 303 302 300 293 296 295 292 294 298 299 300 302 297 315 317 316 317 318 319 322 323 324 324 326 328 330 333 339 341 342 343 344 345 346 346 345 344 343 344 345 349 350 351 351 351 351 353 353 354 355 354 355 356
298 302 299 299 302 302 300 298 300 298 294 294 299 299 290 290 290 293 298 299 301 304 303 311 312 313 314 316 317 319 320 322 323 324 326 329 332 334 339 341 342 343 344 344 346 346 345 344 345 346 347 347 349 350 350 350 351 352 352 353 354 355 356
297 299 299 293 295 301 300 301 299 298 299 301 297 298 299 299 292 293 294 299 296 305 304 311 312 314 314 315 314 315 318 321 323 324 324 327 329 333 336 340 341 342 343 344 345 346 345 344 344 345 345 346 346 347 349 350 351 353 353 353 354 354 354
298 293 294 292 293 293 296 298 295 297 297 297 300 299 297 296 295 294 295 293 298 305 312 313 313 314 315 315 314 314 316 318 322 323 324 326 328 331 336 339 342 342 343 344 344 346 346 345 345 345 344 344 345 346 347 348 349 350 350 351 352 354 354
291 291 295 295 295 295 294 294 291 293 294 296 294 293 297 296 297 292 296 293 300 305 314 314 314 315 315 315 316 315 316 318 320 322 324 326 327 330 335 339 342 342 343 344 345 346 346 345 344 344 344 345 345 346 346 347 348 349 349 350 352 354 354
292 294 295 298 297 297 296 296 292 295 294 295 296 291 293 296 295 297 301 297 297 305 313 314 315 316 316 315 316 314 315 316 318 321 323 326 327 329 332 335 340 343 343 344 344 345 345 345 344 343 343 343 343 344 345 346 347 348 349 350 351 354 354
295 296 297 298 298 296 295 296 296 295 292 293 293 294 296 295 295 297 298 297 296 304 315 315 316 317 316 316 316 315 315 316 317 319 321 323 325 327 329 332 334 337 343 346 345 345 346 346 345 343 343 343 343 344 344 345 346 347 348 349 351 353 353
291 293 295 295 296 297 293 293 295 295 295 295 295 297 298 294 292 292 297 292 295 303 315 315 315 315 314 314 315 316 314 315 316 318 319 321 323 325 326 328 330 333 334 336 342 346 348 347 345 345 343 342 342 342 344 344 346 347 348 350 350 351 351
283 284 286 288 290 291 293 294 294 295 294 293 295 293 295 291 293 295 296 293 297 307 313 313 313 313 313 313 314 315 316 316 315 316 317 318 320 321 323 325 327 328 330 332 336 339 344 347 345 346 346 343 342 342 343 345 345 347 347 349 350 350 351
289 290 290 291 294 293 290 291 292 292 295 295 295 296 294 291 293 294 294 295 296 302 308 310 311 312 311 311 312 312 313 315 316 316 317 317 318 319 320 322 324 327 328 330 332 335 337 340 345 346 345 344 343 343 343 344 345 346 348 349 350 349 350
291 292 291 292 293 291 291 291 291 293 293 293 293 291 291 296 293 291 295 297 295 299 306 308 309 310 311 311 311 312 313 314 315 315 317 319 317 318 319 320 321 322 325 328 329 332 334 336 340 343 346 345 345 344 343 344 344 345 347 349 349 350 350
292 292 292 293 293 292 292 291 291 291 292 293 291 292 293 294 292 293 296 297 296 301 306 309 309 309 309 309 311 312 313 314 315 315 314 314 315 315 316 318 318 319 321 324 327 329 331 334 336 339 342 345 351 348 346 345 344 344 348 348 349 349 350
291 292 292 293 292 291 291 291 292 292 292 292 292 292 293 293 294 295 296 297 299 305 307 309 309 311 311 311 313 314 313 312 314 313 313 312 312 313 315 316 317 319 319 321 323 326 329 332 333 335 338 340 343 346 349 346 345 345 346 348 349 348 348
289 291 292 293 292 291 289 291 292 292 292 292 292 293 294 295 294 294 294 295 299 306 310 310 311 312 312 312 311 312 312 312 313 312 312 312 312 312 315 316 317 318 319 320 321 323 326 329 332 333 336 338 341 343 345 349 347 346 346 348 347 348 348
287 290 290 290 291 291 290 289 290 291 291 290 294 295 302 300 295 298 295 294 298 306 310 311 312 312 311 309 310 310 311 312 312 312 311 311 311 312 312 314 317 317 319 319 320 321 322 326 329 331 334 336 340 342 345 348 350 352 347 346 347 349 349
286 290 290 290 290 289 286 287 290 292 294 295 298 302 304 304 304 300 295 297 304 306 309 308 308 310 310 309 309 309 311 312 311 311 311 311 312 312 313 313 314 316 317 318 320 321 323 325 327 330 333 334 337 341 345 348 353 352 352 347 348 350 350
287 288 290 291 286 280 283 293 294 294 294 297 296 299 302 304 305 303 305 305 306 307 306 305 305 306 309 309 310 311 311 311 311 312 312 312 313 313 314 315 315 315 317 318 320 322 324 326 327 329 332 333 336 341 345 349 351 354 355 357 354 351 353
287 290 290 286 280 282 293 295 298 300 299 301 302 302 303 304 306 305 305 305 306 306 307 307 307 309 310 312 311 310 311 312 312 311 312 312 313 313 313 314 316 317 317 318 319 321 323 325 326 328 329 331 334 339 344 347 350 351 353 355 357 356 355
291 288 287 279 281 291 293 295 299 303 301 303 303 300 302 303 303 304 305 305 306 307 307 307 309 309 310 312 314 311 311 312 312 312 311 312 313 313 314 314 315 316 317 317 318 322 324 323 324 325 327 331 333 336 342 343 345 348 349 349 349 352 354
285 287 286 285 292 290 292 294 296 300 298 298 297 292 299 302 304 304 304 305 305 306 306 306 307 309 311 310 313 311 310 311 312 313 313 313 314 314 315 316 316 318 319 318 319 322 322 323 323 324 327 331 333 337 339 342 343 345 346 345 347 349 350
291 287 285 286 285 281 289 296 302 301 301 301 302 297 295 302 303 304 304 304 304 304 304 305 306 308 309 306 309 310 310 311 311 313 314 314 314 315 316 317 317 319 320 320 320 320 321 321 323 325 328 330 332 334 337 340 341 341 341 341 344 345 347
289 287 283 283 280 285 295 297 299 301 301 302 303 295 289 300 302 303 304 303 304 303 303 304 306 305 301 303 307 309 309 310 311 311 312 314 314 315 315 315 316 317 319 321 321 320 320 319 322 324 328 329 330 331 334 335 336 336 335 336 338 341 344
290 288 284 283 288 286 294 298 299 301 304 301 298 284 287 298 302 303 303 302 302 303 303 304 304 302 299 302 305 308 308 309 310 311 311 312 313 314 315 316 316 318 321 321 320 319 318 320 324 324 326 327 328 329 331 332 332 331 332 334 335 337 341
289 288 287 289 290 296 299 299 301 302 303 299 287 283 294 300 303 303 303 303 302 303 302 303 300 304 304 305 306 307 308 308 309 311 311 311 312 313 313 314 319 316 317 319 318 319 320 321 322 324 325 325 326 327 329 329 329 330 332 334 335 336 338
287 289 286 287 291 297 302 303 302 304 297 286 286 298 300 303 303 304 303 302 303 303 302 302 302 303 305 306 306 306 307 307 308 309 310 310 311 312 314 316 317 316 315 317 318 318 320 320 321 323 324 324 325 326 326 326 327 329 331 332 333 335 336
288 287 285 284 280 296 302 302 299 304 292 295 299 301 303 304 304 302 303 303 303 303 302 303 303 303 303 304 304 305 306 307 307 308 309 309 309 310 311 313 314 314 315 315 315 317 318 319 321 323 323 324 324 325 324 325 327 330 331 332 332 334 336
286 285 282 284 292 300 304 301 294 301 302 303 303 302 300 304 303 303 303 303 303 303 302 301 302 303 303 304 305 305 306 307 307 308 309 310 310 310 311 311 313 314 314 314 315 316 318 320 321 322 324 324 325 324 324 326 327 329 330 331 332 333 334
291 289 293 299 300 303 304 304 303 303 305 305 305 303 302 302 302 304 302 302 303 303 302 302 302 301 302 303 304 303 304 305 306 307 308 308 309 310 310 310 313 313 312 313 313 315 316 319 320 322 324 323 324 325 326 327 326 327 328 329 330 331 333
298 298 299 300 300 301 303 305 306 304 304 304 304 303 301 303 303 303 302 302 302 302 303 301 301 302 302 302 302 303 304 305 306 308 308 309 310 309 310 311 311 312 312 312 313 313 316 318 319 321 321 323 323 325 327 327 327 327 328 329 330 331 331
291 289 301 298 299 301 302 303 305 306 305 304 304 303 303 303 303 303 303 302 302 302 303 302 301 302 303 302 302 303 304 304 305 306 307 308 308 309 309 310 312 310 311 311 312 313 314 317 318 317 319 321 323 326 327 326 327 328 328 328 328 329 329
292 293 299 300 300 301 302 302 301 302 303 304 305 304 305 304 304 303 303 303 302 303 302 302 302 302 303 302 302 302 303 304 304 305 306 307 308 309 310 311 311 311 311 311 311 312 314 316 319 318 319 321 322 324 325 326 326 326 326 327 327 327 328
296 299 299 300 301 300 301 302 303 303 304 304 304 304 304 303 302 303 303 304 303 302 302 303 302 302 302 303 303 303 303 304 304 305 305 306 307 308 308 309 310 310 311 311 311 312 313 315 317 318 319 321 323 324 325 326 326 325 324 325 326 327 328
292 293 297 300 293 293 299 301 304 304 305 304 303 303 302 302 302 303 302 302 304 303 303 303 302 301 302 303 303 303 303 303 304 305 305 306 306 307 308 309 310 310 311 311 311 311 312 314 316 318 319 322 325 325 324 324 324 324 324 324 324 324 326
292 299 302 303 301 301 301 302 303 305 305 304 302 302 302 303 303 303 302 302 302 302 304 305 303 303 302 303 303 302 302 303 304 305 305 305 305 306 307 307 308 308 309 311 311 312 312 314 315 317 320 322 324 325 324 323 322 322 322 322 322 324 326
302 304 305 304 301 299 302 304 304 304 306 304 303 304 304 304 304 304 303 303 302 302 303 304 305 304 303 303 302 301 302 303 303 304 305 305 306 306 307 307 307 308 309 310 311 312 313 314 316 318 319 321 324 324 323 322 322 321 321 320 320 322 324
300 306 305 305 303 303 304 304 305 305 306 305 303 303 304 304 304 305 304 304 305 304 303 303 304 305 303 303 302 301 301 302 304 304 306 307 307 307 307 308 308 309 310 311 313 314 314 315 316 318 319 321 324 323 322 321 321 320 320 320 320 321 323

ECMWFFLT2_sfc_thetae_084.txt.gz
Theta_e
304 304 306 306 306 299 306 307 302 305 310 308 304 304 304 305 302 299 307 306 310 317 320 322 324 324 325 326 326 327 329 331 334 333 335 337 339 341 346 346 346 350 350 350 350 350 350 350 351 352 354 356 357 359 360 363 365 365 365 366 364 365 365
305 306 306 306 307 307 307 301 305 309 311 309 305 298 301 300 296 299 303 302 305 304 304 319 320 321 322 324 325 326 328 330 330 332 334 335 336 339 341 345 349 350 351 351 350 349 350 351 352 353 355 355 358 359 360 361 362 363 363 364 363 363 365
304 306 305 305 306 308 305 304 311 303 298 298 304 303 295 294 294 298 301 304 306 308 310 315 316 317 319 322 324 324 324 326 328 330 332 335 336 337 339 342 346 348 349 350 352 350 350 351 354 354 353 354 356 358 358 358 360 361 362 361 362 363 364
304 305 304 299 302 306 307 308 306 309 306 303 300 301 304 301 295 297 299 304 302 311 312 314 314 317 319 320 322 322 323 325 326 329 331 334 335 335 339 340 343 346 348 349 350 351 350 351 351 352 352 353 353 356 357 356 358 361 361 361 362 361 362
303 299 301 299 300 301 302 303 303 304 305 307 307 305 302 300 298 298 299 297 303 310 316 315 317 318 320 320 320 321 322 324 326 328 330 333 335 336 339 342 342 345 348 348 350 351 351 352 351 353 351 352 352 354 354 355 355 357 358 358 360 362 362
299 297 301 300 300 301 302 303 302 303 302 301 298 298 305 303 300 297 299 297 306 312 318 317 318 320 320 321 322 321 321 322 325 326 328 331 333 337 339 339 341 342 347 349 349 351 351 349 351 351 351 351 353 353 352 353 354 354 355 356 359 362 362
297 299 300 303 302 302 302 303 300 303 303 304 301 294 299 302 303 304 305 303 304 315 319 319 319 320 320 321 322 320 320 322 323 324 325 329 332 334 335 336 337 338 340 345 347 349 350 350 350 350 351 350 351 351 351 352 352 353 354 355 357 361 361
300 302 303 303 303 302 301 302 303 302 301 301 301 302 306 301 302 299 301 300 305 313 319 320 320 322 322 323 322 321 320 319 320 322 324 325 328 331 333 334 336 336 337 339 342 345 349 350 351 350 351 351 351 351 351 351 351 352 354 355 356 359 360
295 297 301 300 302 302 300 299 300 301 302 302 303 305 308 302 302 302 300 296 300 310 318 320 320 320 320 321 321 321 319 319 319 320 322 323 326 327 329 331 332 333 334 334 335 339 344 348 349 351 351 351 350 351 351 351 351 352 354 356 355 357 358
288 288 289 293 295 297 299 300 299 300 299 300 302 300 303 297 304 307 302 300 306 312 317 317 319 319 319 321 321 322 321 319 318 319 319 321 322 324 325 327 329 329 330 331 333 335 338 342 346 350 350 349 350 351 351 352 351 353 353 354 355 355 357
295 296 297 298 300 299 297 296 297 297 299 300 302 303 302 298 303 303 304 306 308 309 313 315 316 317 317 317 319 319 320 320 320 319 318 318 319 321 322 324 325 328 328 328 331 333 335 338 342 345 348 347 349 352 352 352 352 352 353 354 355 354 355
298 298 297 297 299 297 297 296 296 297 297 299 300 300 299 302 302 297 303 311 308 308 311 314 315 316 317 317 318 318 319 319 319 318 319 320 317 318 320 322 323 324 326 328 329 330 333 336 339 343 346 346 349 352 350 352 352 351 350 352 353 354 355
297 298 297 298 297 297 296 296 296 296 296 298 298 298 299 302 300 299 301 305 308 309 311 313 315 316 316 316 317 318 319 320 320 321 319 318 317 317 317 319 320 321 322 326 328 329 330 333 335 338 342 346 349 351 353 356 350 350 353 351 353 353 354
295 296 296 296 295 295 295 295 295 296 296 296 297 296 298 298 301 301 302 305 307 311 312 314 316 318 317 318 319 320 318 317 319 319 318 318 318 318 318 319 318 320 320 322 325 328 330 330 332 335 337 341 345 347 350 352 352 350 351 351 352 352 352
293 294 295 296 295 294 293 294 295 295 296 296 297 297 298 298 299 299 300 303 303 310 315 315 317 318 318 319 317 318 318 317 317 318 317 318 318 319 320 320 318 319 319 320 322 324 326 328 330 332 335 338 342 346 348 349 353 353 349 350 349 351 353
292 293 294 293 295 294 293 293 294 294 294 294 296 297 302 300 299 300 299 299 303 311 315 316 315 316 316 315 316 316 317 316 317 317 317 318 318 319 320 321 321 320 318 318 320 322 324 326 328 329 331 334 337 340 345 349 352 353 353 349 348 351 353
292 293 293 293 292 293 291 292 294 296 296 298 301 304 306 306 308 301 297 299 311 312 315 313 314 314 315 315 314 315 317 318 316 316 316 317 318 320 320 320 322 321 319 319 320 322 325 326 326 327 329 331 333 335 340 347 353 353 353 355 351 351 352
293 292 292 294 291 286 288 298 300 299 299 299 298 301 304 307 306 306 309 309 311 311 311 311 312 312 313 315 316 316 316 316 317 316 317 316 318 319 321 321 322 322 322 322 321 323 325 327 327 328 330 330 332 336 340 346 351 356 355 356 358 358 356
292 293 293 290 285 287 297 301 301 302 302 303 303 305 305 306 307 308 308 308 308 310 310 312 313 314 315 315 316 315 315 317 317 316 316 316 317 317 318 320 322 323 324 324 324 324 324 325 326 327 329 331 334 336 339 343 346 350 355 357 356 357 358
296 292 292 283 285 295 298 299 302 304 304 305 305 302 305 307 307 308 307 309 309 310 310 311 314 314 314 316 318 318 315 316 317 316 315 316 316 316 317 318 320 321 322 323 323 324 326 324 326 327 327 331 332 334 337 340 342 344 350 354 354 355 357
291 293 292 290 297 295 296 295 298 302 300 300 300 298 302 306 308 308 308 309 309 309 310 311 312 313 314 315 317 316 314 314 315 316 318 316 316 317 318 318 319 320 322 323 324 325 325 324 326 327 328 331 332 333 335 337 341 341 340 341 345 348 348
296 292 290 291 290 286 294 302 305 306 306 307 307 299 298 308 308 309 307 308 307 308 309 310 312 311 311 309 312 313 314 314 313 315 317 317 317 317 318 319 320 320 321 322 324 323 324 324 325 328 329 331 332 332 334 335 336 338 338 338 340 340 344
295 292 287 287 284 290 300 302 303 305 306 305 306 299 293 307 309 308 309 306 307 308 308 309 311 309 304 306 310 312 312 313 314 314 315 316 316 316 317 317 317 318 321 321 321 322 323 321 324 326 330 330 329 331 332 333 334 335 336 336 336 337 339
295 293 289 287 293 291 300 303 303 304 308 304 303 290 291 305 307 307 308 306 306 307 308 309 308 307 302 305 308 311 311 312 313 313 314 314 315 316 316 317 318 319 323 321 320 319 320 322 324 325 326 328 329 329 330 332 332 332 333 335 336 338 340
293 290 291 293 295 302 304 304 305 306 306 304 294 287 299 305 307 308 308 307 307 308 307 308 306 308 310 310 310 311 311 311 311 313 314 314 314 315 315 316 319 317 318 318 318 318 320 322 321 323 325 326 328 329 330 331 331 332 334 335 337 337 339
292 294 290 291 295 302 305 306 306 307 301 290 291 303 308 309 308 309 309 308 308 309 307 308 308 309 310 310 311 310 310 310 311 312 312 313 313 315 316 317 317 316 316 318 318 318 320 320 321 321 324 325 327 329 329 328 330 333 335 337 337 337 338
294 294 290 288 284 300 306 306 304 305 295 297 304 307 308 308 309 308 308 308 308 308 307 309 309 309 308 309 309 309 310 310 310 311 311 312 312 313 314 315 315 315 316 315 316 317 318 319 321 322 321 324 327 328 328 330 330 331 334 335 336 336 338
289 289 286 287 297 303 308 304 297 304 304 308 309 307 306 309 308 308 308 308 309 309 308 307 307 308 308 308 309 310 309 310 310 311 312 312 313 313 313 313 315 315 315 316 315 317 317 320 322 323 322 323 325 326 328 331 332 333 333 334 335 336 338
294 292 297 303 304 306 308 305 304 307 310 311 311 309 307 306 307 310 307 307 308 309 308 307 307 306 307 307 308 308 308 309 309 309 310 311 311 312 312 312 315 315 315 315 315 316 317 320 322 323 324 322 323 325 328 331 331 332 332 333 333 334 336
303 304 304 306 305 305 305 307 308 307 310 309 309 308 306 307 308 309 307 307 308 308 308 306 307 306 307 308 308 308 309 309 309 311 311 311 312 311 311 313 314 315 314 315 316 315 317 319 321 323 323 323 322 324 327 330 330 330 330 330 331 333 334
296 291 304 302 303 305 305 305 308 310 310 309 310 308 307 307 308 308 309 308 308 308 308 308 307 307 308 308 308 309 309 309 310 310 310 311 312 312 312 313 314 314 315 314 315 317 317 319 319 320 321 322 323 324 326 327 328 329 330 331 331 332 333
297 297 302 304 305 306 307 306 305 306 308 309 309 309 309 309 310 309 309 309 308 308 307 308 308 308 309 308 308 308 309 309 309 310 310 311 311 313 314 314 315 315 314 315 315 316 317 319 320 320 320 321 322 323 322 325 327 330 330 329 328 330 331
300 304 304 304 306 306 306 306 307 307 307 308 308 309 309 309 309 309 309 309 308 308 308 308 308 308 308 308 308 308 308 309 309 310 310 311 312 312 313 313 314 314 314 314 315 316 317 318 319 320 320 321 323 324 325 327 329 328 329 329 330 330 331
296 297 301 304 298 298 303 306 307 308 308 308 308 309 309 308 308 309 308 308 309 309 308 308 307 306 306 307 308 307 307 308 309 309 309 310 311 311 312 313 313 313 314 314 314 314 315 318 319 319 319 320 323 323 325 328 328 327 327 328 329 328 329
296 303 304 306 305 305 305 306 308 309 309 309 308 308 308 309 309 309 308 307 308 307 308 309 307 307 306 306 307 306 306 307 308 308 309 309 309 310 311 311 311 312 312 313 314 314 315 317 317 318 320 321 322 324 325 328 327 327 326 325 326 327 328
304 305 306 307 306 303 306 308 309 309 310 309 308 309 310 309 309 309 309 309 307 307 307 307 308 307 307 307 306 305 306 307 307 308 309 309 309 309 310 310 310 311 311 312 312 313 314 315 316 319 320 321 323 323 325 327 328 327 325 324 323 325 327
301 307 308 310 310 308 308 310 310 310 311 310 308 309 310 310 310 310 309 308 308 307 305 305 307 307 306 306 306 305 305 306 307 307 309 309 308 308 309 310 310 311 311 311 312 313 314 315 316 317 318 319 321 324 326 326 327 326 325 324 324 324 325

ECMWFFLT2_sfc_thetae_087.txt.gz
Theta_e
310 310 312 311 311 300 308 309 304 307 313 310 305 306 306 307 303 301 309 312 315 321 324 325 327 326 327 328 330 331 332 334 336 336 338 340 341 344 344 346 345 348 348 348 348 349 350 350 349 349 353 353 356 360 360 363 365 367 365 367 364 365 364
308 311 310 311 311 311 308 304 308 313 315 312 307 300 304 301 297 300 305 305 310 311 306 323 323 323 324 326 327 329 331 333 332 334 336 339 340 341 345 347 348 348 348 348 348 349 349 350 351 352 356 356 357 360 362 362 365 364 366 365 362 364 365
307 310 309 307 311 313 308 307 313 305 301 301 306 303 297 297 296 299 302 306 307 307 310 318 318 320 321 325 327 328 328 329 331 333 334 338 340 343 343 347 348 349 349 352 353 351 349 351 351 349 353 355 358 358 358 357 362 364 363 365 363 363 363
307 307 306 299 303 310 311 312 308 312 309 305 302 304 306 304 298 298 300 304 303 313 314 317 318 320 322 324 324 325 327 328 329 331 333 334 337 339 342 344 345 348 347 351 351 350 351 353 353 351 351 354 352 355 357 360 357 360 363 361 362 362 362
306 300 304 302 304 302 304 306 305 307 308 311 309 308 305 302 301 299 299 298 308 315 320 319 319 321 322 323 324 325 326 328 329 331 332 333 336 337 340 342 343 346 350 352 349 350 352 353 354 356 352 351 354 354 355 357 356 358 358 356 359 363 361
299 302 307 305 305 307 305 305 304 307 304 302 299 299 308 305 302 297 299 298 308 316 322 320 320 322 322 324 325 324 326 327 329 330 331 332 333 336 339 340 341 344 347 349 350 352 351 353 352 352 353 356 357 355 352 353 355 360 361 361 358 361 362
301 304 305 308 308 308 307 308 305 308 307 306 303 295 301 303 304 307 306 304 305 318 322 321 321 322 322 324 325 323 325 327 328 330 331 332 333 334 336 337 338 340 344 346 349 350 349 353 352 356 353 354 352 353 356 357 355 357 356 355 357 362 361
304 306 307 308 308 307 306 307 307 306 304 306 305 304 307 303 303 301 303 304 306 317 321 322 321 324 323 324 324 325 325 326 328 328 330 329 330 333 334 336 336 338 339 342 344 346 350 351 350 349 352 356 355 352 354 356 357 358 359 356 357 359 360
299 300 303 304 306 306 304 304 307 307 307 307 307 307 309 303 304 304 302 300 305 315 323 321 321 321 321 322 323 325 324 325 325 326 326 328 329 330 331 333 334 335 336 337 340 342 347 350 351 353 353 352 352 352 354 354 356 357 354 354 359 361 360
290 290 291 294 297 300 304 305 303 305 305 305 305 301 305 298 305 306 300 303 310 315 320 319 319 320 321 322 323 324 325 325 324 324 325 326 328 327 330 331 331 332 334 336 338 340 342 344 347 353 350 352 352 351 354 357 355 357 361 362 354 357 356
297 300 301 304 306 303 300 301 303 302 304 305 306 306 303 300 305 304 310 309 310 313 315 317 318 318 319 319 322 322 322 324 324 325 325 325 325 325 326 328 328 330 332 334 336 338 338 339 341 343 347 352 350 352 355 356 355 356 356 356 358 353 356
301 300 300 303 304 302 302 301 300 302 302 304 304 302 301 310 303 297 312 315 311 313 316 317 318 318 318 319 320 321 323 323 324 324 325 326 323 324 324 325 325 326 329 331 333 334 335 336 339 341 343 345 348 353 352 353 351 352 356 356 356 357 361
300 301 301 302 302 302 301 301 300 301 302 303 303 304 304 308 304 302 313 315 313 314 316 317 317 319 319 318 319 321 323 323 324 325 323 323 322 322 322 323 324 324 324 328 331 331 332 334 335 337 339 342 348 350 352 352 353 353 354 355 353 352 356
299 299 300 300 300 299 300 300 300 300 301 302 302 302 304 307 310 311 311 315 313 315 315 316 318 319 319 320 322 322 322 321 323 323 322 322 322 322 322 323 323 324 324 325 328 331 332 332 332 333 336 339 341 345 349 353 353 355 357 353 353 352 352
297 298 298 299 298 298 298 299 299 300 300 301 301 302 303 307 307 309 311 310 312 316 319 317 319 320 320 321 319 320 321 321 321 321 320 321 321 322 324 324 324 325 325 325 326 328 330 331 331 332 334 337 339 342 344 348 351 352 353 352 353 351 352
295 296 296 297 297 297 297 298 298 299 299 298 300 301 304 304 304 307 309 308 308 314 318 317 318 319 319 318 319 319 321 320 320 320 320 320 322 322 323 325 325 325 325 326 326 326 327 329 331 332 334 335 337 338 342 345 349 352 351 354 353 353 354
295 297 296 296 296 296 293 295 298 299 300 303 303 307 307 309 306 303 303 306 312 314 317 315 315 317 317 317 317 319 321 322 320 319 319 320 321 322 323 323 325 325 325 326 327 327 328 328 330 332 333 334 334 336 339 343 348 350 353 353 353 356 357
295 295 296 296 293 288 291 301 303 302 299 301 301 303 304 309 309 309 314 313 315 315 316 315 313 316 315 317 318 320 321 321 320 319 319 319 319 321 323 323 323 324 325 327 327 329 329 330 332 333 335 335 335 336 338 343 346 347 348 351 353 352 353
294 296 295 291 287 289 301 304 304 304 305 304 303 308 308 308 310 312 313 313 313 314 315 316 316 316 316 318 318 318 319 321 320 319 318 318 319 319 320 322 322 323 324 326 327 328 328 329 330 330 332 335 336 338 339 340 342 343 344 344 345 347 351
299 294 291 284 287 300 302 303 304 304 307 306 306 306 308 309 309 312 313 313 313 314 314 315 316 316 318 318 319 318 318 319 320 319 317 318 318 318 319 320 322 322 322 323 325 326 329 327 328 329 330 332 334 335 339 337 338 341 341 342 341 343 345
292 294 293 291 300 298 299 298 299 301 301 301 302 299 304 307 310 310 311 311 312 313 313 314 315 316 316 315 317 317 317 317 319 319 319 318 318 318 319 319 320 322 323 323 323 325 328 326 326 329 331 333 333 335 337 337 338 338 339 340 340 340 341
297 294 292 294 292 289 296 303 308 310 309 308 308 304 303 309 311 310 312 311 311 311 312 312 314 314 313 311 312 317 316 316 316 318 319 318 318 318 318 320 320 321 322 323 323 322 323 324 324 328 330 333 334 334 335 336 337 336 336 336 339 339 339
296 294 290 290 287 293 303 304 305 306 306 306 304 300 295 309 311 310 311 309 310 311 311 312 313 309 307 308 314 315 315 315 316 315 316 317 317 317 317 318 318 318 320 322 322 322 323 322 323 325 327 331 332 332 333 334 335 335 335 335 336 337 339
297 295 291 289 295 295 304 305 306 305 309 304 303 291 292 309 310 310 310 309 310 310 311 311 310 309 306 307 312 313 314 314 315 315 315 315 316 317 317 318 318 319 322 321 321 319 320 322 323 325 323 324 329 329 330 333 333 332 334 335 336 339 339
296 294 294 296 298 305 308 306 306 307 306 304 294 289 302 311 310 310 311 310 310 310 309 310 307 311 313 312 314 314 314 313 314 315 315 315 316 316 316 317 320 318 318 318 318 318 321 322 322 323 322 323 324 328 329 331 331 332 334 337 338 339 341
294 295 293 293 298 305 308 309 308 308 302 292 292 306 313 311 310 312 310 309 310 310 310 310 310 311 312 313 313 313 313 313 314 314 314 315 315 316 318 318 318 317 317 318 318 318 320 320 321 322 323 323 325 326 327 328 330 331 334 336 337 338 339
296 296 293 290 286 302 310 308 306 306 298 301 308 311 312 312 310 309 310 309 310 310 309 311 311 311 311 312 312 312 313 313 313 313 314 314 314 314 315 316 316 316 316 316 316 318 318 319 320 322 323 325 325 326 324 328 330 332 333 334 337 337 338
292 292 290 290 301 306 311 305 300 306 306 311 311 310 308 309 309 309 309 309 310 310 310 310 310 311 311 310 312 313 313 313 313 313 314 315 315 314 314 314 315 315 315 316 316 317 318 321 321 323 324 324 325 325 326 329 330 332 333 334 336 336 337
298 295 298 304 308 309 309 307 306 307 313 314 313 312 311 310 309 311 309 309 310 311 311 310 310 309 310 310 311 311 311 312 312 313 313 314 314 314 314 313 316 316 315 315 315 316 318 320 322 323 324 323 325 325 327 329 329 329 331 332 333 333 334
306 306 307 310 309 308 309 310 310 309 311 311 312 311 308 310 310 311 310 310 310 310 312 310 310 310 311 310 311 311 312 312 312 314 314 315 316 315 315 315 316 316 315 315 315 316 318 320 321 324 323 323 323 325 327 328 328 327 329 331 332 332 333
298 293 306 305 306 307 307 307 310 312 311 311 312 311 310 309 310 311 312 311 311 311 311 311 311 311 311 310 311 312 312 312 313 313 313 314 315 315 315 316 316 316 316 315 316 317 318 321 321 321 322 322 323 325 326 325 325 327 328 329 330 331 331
298 299 305 306 308 309 309 309 308 308 310 311 312 313 313 312 312 311 311 312 311 310 309 311 310 310 311 311 310 311 311 311 311 311 312 313 313 315 316 316 316 316 316 316 316 317 317 320 321 322 322 323 323 323 323 325 325 327 327 327 328 329 328
302 304 306 306 308 309 309 309 310 310 310 310 312 312 312 311 310 311 311 311 310 310 311 311 311 310 310 311 311 309 309 310 310 310 311 312 312 313 314 314 316 315 316 316 317 317 318 319 320 321 321 322 324 325 325 325 326 326 326 329 330 329 330
298 299 303 308 301 301 306 309 311 311 312 311 311 311 311 310 310 311 310 311 312 311 311 310 310 309 310 311 310 309 309 309 311 311 311 311 311 312 313 314 314 314 315 316 316 317 318 319 319 319 320 321 323 324 326 326 326 325 326 328 328 328 328
298 304 307 308 308 307 308 309 310 311 311 311 310 310 310 310 311 311 311 310 310 310 310 311 310 309 309 310 310 309 309 309 311 311 310 310 310 310 312 312 313 313 314 315 316 316 317 319 318 319 320 321 322 323 325 326 326 327 327 327 327 328 327
306 308 309 311 309 306 309 311 312 312 312 311 310 311 311 310 311 311 310 310 309 308 309 310 311 309 310 310 308 308 309 310 310 310 311 310 310 310 311 311 312 312 313 314 315 315 316 317 317 319 318 319 321 321 323 324 326 327 327 327 326 325 327
306 311 311 311 312 312 313 313 313 314 313 312 310 310 310 310 311 312 311 310 311 310 309 309 310 310 309 309 309 308 308 309 309 310 310 310 309 309 310 311 311 312 313 313 314 315 315 316 316 317 317 318 319 319 321 323 324 323 325 326 326 326 326

ECMWFFLT2_sfc_thetae_090.txt.gz
Theta_e
311 311 313 313 314 301 308 308 304 306 312 309 304 305 306 306 303 300 308 311 316 321 322 324 326 325 326 328 330 331 333 334 335 335 337 340 344 346 348 348 348 348 349 349 351 352 350 349 349 350 356 357 358 357 358 359 361 360 360 364 363 363 364
310 313 313 313 315 314 306 303 306 313 314 311 306 298 302 300 297 300 308 307 308 311 306 325 322 321 324 325 328 330 331 334 334 335 337 339 340 342 345 348 348 349 349 348 348 348 349 349 349 349 358 359 359 358 359 359 361 360 359 359 361 362 363
309 312 312 310 313 315 307 307 314 305 300 299 305 302 295 295 295 298 303 308 309 313 310 317 319 319 321 324 326 327 328 329 330 334 336 338 339 340 342 343 346 348 348 350 352 352 350 352 352 352 356 353 354 357 359 357 358 360 359 359 360 362 362
308 309 307 300 304 311 312 312 308 311 306 303 301 303 304 303 297 296 297 306 305 313 316 321 319 322 322 323 324 325 326 328 330 331 334 337 336 338 339 341 345 347 349 349 348 349 350 353 354 354 355 353 354 357 358 359 359 361 361 359 361 360 359
307 300 303 301 304 302 304 304 303 306 306 309 307 307 303 301 299 298 298 300 306 314 321 320 320 322 323 324 323 325 326 327 329 331 332 335 339 339 340 342 344 345 349 349 351 354 356 355 354 353 349 350 352 354 354 354 355 356 358 358 358 359 361
300 302 307 306 305 306 305 304 303 305 303 301 298 298 306 305 301 296 298 299 309 316 323 321 320 322 323 324 324 324 326 328 328 329 331 333 335 337 340 342 343 345 347 350 352 353 352 353 353 352 352 354 352 348 350 352 352 354 354 353 355 358 357
301 304 307 309 309 309 307 306 304 308 306 306 302 294 300 304 304 305 307 304 306 319 321 322 321 322 323 324 324 324 325 328 328 329 330 332 334 335 337 339 341 343 346 348 350 351 353 354 354 358 353 350 348 349 350 353 352 354 354 355 356 359 353
304 307 308 309 309 308 306 306 308 307 304 305 304 303 305 302 304 301 303 304 307 318 323 322 322 323 323 324 325 324 324 325 328 328 329 330 333 334 336 338 339 340 341 344 346 348 349 351 353 356 355 353 353 352 353 350 353 354 355 359 359 359 357
298 300 304 304 307 307 304 304 306 308 308 305 305 305 307 301 302 302 303 299 305 316 322 322 321 322 321 322 323 324 323 324 326 327 328 329 329 331 333 335 336 337 337 338 341 344 346 347 349 351 351 355 353 355 354 353 355 356 357 357 357 355 355
289 289 291 293 297 300 304 306 306 307 306 305 304 300 306 296 305 307 303 303 311 316 320 319 321 320 320 321 322 323 325 325 325 326 327 328 327 327 329 332 333 333 334 335 338 341 342 343 345 346 348 351 351 351 353 355 353 354 356 359 358 355 356
295 297 300 303 305 303 300 302 304 304 305 306 305 303 301 299 304 304 309 309 309 312 315 316 317 318 318 319 320 321 322 324 325 326 326 327 327 327 327 328 330 332 332 333 334 337 339 340 341 343 346 348 349 352 352 356 356 354 358 359 357 356 356
303 301 301 303 305 302 303 302 303 304 304 304 303 301 300 307 302 301 310 313 310 310 315 316 317 317 319 319 320 320 321 323 324 324 325 327 325 326 326 326 327 329 330 332 333 333 336 338 339 342 342 343 349 351 350 352 355 355 358 359 357 355 356
304 303 302 303 302 302 302 303 303 302 303 303 301 303 305 305 302 302 311 313 311 313 315 316 317 318 318 318 319 321 322 323 324 325 324 324 323 324 324 325 326 327 328 330 331 332 333 336 338 339 341 341 344 345 347 350 354 355 359 357 354 355 356
302 301 302 303 301 302 302 303 303 303 302 302 303 303 305 305 308 313 314 315 313 316 316 317 319 320 319 320 321 322 321 320 322 323 323 322 323 323 323 324 324 326 327 328 329 331 332 332 334 336 339 341 342 344 344 346 350 352 356 356 355 356 358
298 301 302 301 301 300 300 301 302 301 302 302 304 304 304 306 310 311 311 313 311 316 320 319 320 321 320 320 319 319 320 321 320 321 321 322 322 323 324 325 324 325 326 327 327 329 330 331 332 334 335 337 340 341 343 345 348 351 353 354 353 353 354
295 300 299 300 300 300 299 300 301 300 300 299 301 302 304 304 305 308 311 308 308 314 319 319 320 319 319 318 318 319 320 319 320 319 319 320 321 321 322 324 325 325 325 326 327 326 327 329 331 332 335 336 337 339 342 344 347 348 349 350 352 354 355
292 299 299 298 298 297 295 297 300 301 302 302 303 304 306 308 308 305 305 308 313 316 318 316 318 318 318 318 318 318 319 320 319 318 318 319 320 320 321 321 323 324 324 325 327 326 328 328 330 332 334 335 336 337 342 342 345 346 346 346 347 350 353
293 297 297 298 294 288 290 301 304 304 301 302 301 302 304 308 312 308 314 314 316 316 316 315 315 316 316 318 320 321 320 319 319 319 318 318 320 320 321 321 321 322 323 323 326 327 328 331 331 334 335 335 336 337 339 341 343 344 344 344 345 345 348
292 297 297 292 287 289 301 304 306 306 305 304 304 307 307 309 312 313 311 313 314 316 317 317 317 317 317 318 317 319 321 321 320 318 317 317 318 319 320 320 321 322 323 323 324 325 325 328 331 330 332 334 337 338 339 340 341 342 342 342 342 342 343
296 294 294 286 288 300 303 303 304 306 306 304 305 305 308 309 311 312 312 314 315 316 316 316 317 318 317 317 318 318 319 320 320 317 316 317 317 316 318 318 319 320 321 323 322 325 325 323 326 328 330 333 334 335 337 336 337 338 339 340 341 341 340
290 293 293 291 299 299 300 299 300 301 301 302 300 297 304 309 311 313 312 313 314 314 315 315 316 317 316 313 314 317 318 318 319 318 318 317 317 317 319 318 317 320 321 322 322 325 328 322 324 326 330 333 333 335 335 337 340 338 337 337 338 340 341
296 292 291 291 291 288 296 304 308 309 308 307 308 305 303 309 310 314 313 312 313 312 312 312 314 314 311 309 310 315 316 317 317 317 318 317 317 317 317 319 318 319 321 321 322 320 321 320 323 328 329 332 332 332 334 336 335 335 335 335 337 338 339
295 293 290 289 287 291 302 304 305 306 307 305 304 301 297 308 310 311 313 311 312 311 311 311 313 310 306 308 310 314 315 315 316 315 315 316 316 317 317 317 316 317 319 320 320 320 321 318 321 324 326 331 326 326 327 330 331 333 334 335 336 337 338
297 294 291 289 296 296 302 304 305 306 306 303 303 289 291 309 310 311 312 311 310 310 311 312 311 307 305 307 312 314 314 315 315 315 315 315 316 316 316 316 317 319 322 320 318 317 317 319 320 324 322 324 326 325 324 328 327 327 331 333 337 338 339
294 295 293 294 299 306 307 306 306 305 307 303 292 288 300 310 311 311 311 310 310 311 310 310 308 311 313 314 314 316 315 314 314 315 315 315 316 315 315 315 320 317 318 317 316 317 320 322 319 320 321 324 325 326 325 325 327 327 331 335 338 338 340
292 297 292 292 300 306 308 307 306 304 302 291 290 306 313 313 311 312 311 310 310 311 309 309 310 312 313 313 314 313 313 313 314 314 314 315 315 316 317 319 318 316 316 317 317 317 317 318 319 320 322 324 325 326 326 325 326 328 329 334 335 336 338
296 295 292 290 288 302 309 308 306 305 297 302 309 312 312 312 310 311 310 310 310 311 310 310 310 311 311 312 312 312 313 313 313 313 314 314 314 314 315 316 316 315 315 315 315 315 315 317 320 321 321 323 323 325 324 327 328 329 329 330 333 335 337
291 291 289 289 301 306 310 307 300 306 309 311 313 311 308 310 311 311 310 310 310 311 310 310 310 311 311 311 311 311 312 313 313 314 315 315 315 315 315 315 316 317 315 315 314 315 316 319 320 321 322 322 323 323 325 328 329 329 329 330 334 334 335
297 295 299 303 308 310 309 309 311 312 313 313 312 313 311 310 309 313 309 311 310 311 311 310 310 309 310 310 310 311 311 312 312 313 314 314 314 314 315 315 318 317 315 314 315 316 317 319 320 322 322 322 322 322 326 329 329 329 330 329 329 330 332
306 307 307 311 309 310 308 308 310 310 310 311 311 311 309 311 311 311 309 310 311 312 312 309 309 309 310 310 311 311 312 312 312 314 314 314 315 315 315 315 315 315 315 315 315 316 317 319 319 322 321 321 321 323 324 327 327 327 328 328 328 329 328
298 293 306 306 307 309 309 308 310 311 311 311 311 311 308 309 310 310 311 311 311 311 312 311 311 311 311 310 310 311 312 312 312 312 312 313 313 313 313 314 315 314 314 314 315 316 316 318 319 319 320 320 322 324 326 324 324 328 326 325 327 328 329
298 298 304 306 308 309 310 309 308 308 310 311 312 312 312 313 312 311 312 311 308 309 309 311 310 309 310 308 309 310 311 311 311 311 312 312 312 313 314 314 315 314 314 314 314 315 316 318 319 320 320 320 320 322 322 324 324 325 326 326 325 325 325
302 304 305 306 309 308 309 309 310 311 310 311 311 311 312 311 310 310 310 311 310 310 309 310 310 309 309 310 310 309 309 310 311 311 311 312 312 312 312 313 313 313 313 313 314 315 316 317 318 318 319 320 321 322 323 324 325 324 325 326 326 326 326
299 300 303 307 299 299 305 308 310 310 311 311 310 311 311 310 310 311 309 310 310 309 310 310 309 308 309 309 310 309 310 310 310 311 311 311 311 311 312 312 312 313 313 313 313 314 315 316 317 318 318 320 321 321 322 323 324 323 323 324 324 325 326
300 305 307 309 308 307 308 309 311 312 313 312 310 309 310 310 310 311 310 309 309 309 310 310 308 307 308 309 310 309 308 310 313 312 311 310 310 310 311 310 311 311 312 313 314 314 315 317 316 317 318 318 320 320 321 322 321 322 322 322 322 323 325
308 309 310 310 309 306 309 312 313 313 314 312 310 311 311 311 311 310 310 311 309 309 309 310 310 309 310 309 308 308 308 309 310 309 310 310 310 310 310 309 310 311 312 313 314 314 314 315 315 316 316 317 319 318 320 319 320 321 320 319 320 320 321
306 313 312 312 311 311 312 313 313 314 315 314 311 310 311 311 311 312 311 312 312 310 309 309 310 311 310 310 309 308 309 309 310 310 310 310 309 308 309 310 310 311 312 312 313 314 314 314 315 315 315 315 317 317 319 319 320 320 320 319 318 318 320

ECMWFFLT2_sfc_thetae_096.txt.gz
Theta_e
304 304 307 306 304 293 297 300 294 295 301 302 298 301 301 299 295 295 308 308 312 317 317 320 323 325 326 329 330 332 332 334 335 336 337 338 339 340 340 340 340 341 342 343 343 342 340 342 344 344 342 347 346 346 347 348 347 349 350 349 350 353 353
304 306 306 306 307 303 301 297 296 301 306 304 298 291 292 290 287 294 306 304 307 306 301 319 320 321 325 326 328 330 331 334 333 334 336 337 338 340 341 341 342 342 343 343 343 344 344 343 344 350 349 347 348 347 348 349 348 349 351 350 350 352 352
303 306 305 303 306 308 300 297 304 299 293 294 295 294 289 288 290 295 302 304 305 305 304 314 316 319 322 325 327 329 330 331 332 333 336 337 340 340 340 341 341 342 341 343 344 344 345 346 348 349 353 351 349 348 349 350 349 351 352 351 352 352 353
302 302 299 293 297 304 307 306 302 303 298 295 293 293 293 292 290 297 299 301 298 308 309 315 317 317 319 322 326 328 329 331 331 332 333 335 335 338 340 341 341 341 343 346 345 346 347 347 348 347 349 348 352 351 351 352 352 352 353 352 353 352 353
300 293 295 292 295 295 299 299 296 299 299 301 297 300 294 291 293 298 298 295 299 307 316 317 317 320 322 323 322 323 325 327 329 332 334 334 335 337 339 342 342 341 344 343 345 344 346 347 348 350 350 348 349 350 349 350 350 352 354 354 354 354 354
292 295 302 302 300 298 298 296 296 296 296 296 292 289 296 296 297 293 296 292 300 312 321 318 321 323 324 325 324 323 325 326 328 330 331 332 332 334 337 340 342 343 343 344 344 344 346 347 347 348 349 349 349 350 350 350 350 351 352 352 355 355 356
295 299 303 305 304 303 301 299 297 298 297 295 291 287 289 301 303 306 301 298 300 317 321 320 322 323 326 325 326 323 323 325 326 328 329 330 330 331 332 335 340 343 342 342 344 344 345 346 347 347 348 348 348 350 351 351 350 350 352 352 352 350 351
299 301 303 303 304 302 300 298 300 299 296 296 294 292 295 300 303 298 297 298 305 317 321 321 323 325 326 326 325 324 322 323 325 326 327 328 328 329 331 332 336 337 339 341 343 343 344 345 345 345 346 346 347 347 347 349 350 348 351 353 352 350 350
292 295 298 299 303 301 297 297 298 301 299 299 298 301 301 299 300 301 298 295 303 314 320 322 322 324 325 326 326 325 321 321 323 324 326 327 328 328 329 331 333 337 337 336 339 340 340 341 344 344 344 346 345 346 347 347 348 350 352 354 352 351 350
285 284 285 288 293 295 298 299 299 300 301 302 298 296 297 292 301 303 300 300 307 315 317 319 321 322 323 326 325 323 322 321 321 322 324 326 326 326 328 329 331 332 334 336 337 337 341 342 342 343 345 346 347 347 347 348 348 350 351 353 352 351 350
290 291 292 298 304 297 292 295 297 298 300 306 303 299 295 293 299 299 301 305 305 310 313 315 317 320 319 321 323 321 320 320 321 322 323 324 325 326 326 327 328 330 332 334 336 337 338 341 345 345 346 345 347 348 348 351 351 349 350 350 350 349 349
298 299 299 301 302 296 295 294 295 298 299 301 301 297 298 304 301 292 302 307 306 307 312 313 315 319 319 319 320 320 320 320 321 322 323 325 324 325 326 326 327 327 329 332 335 337 338 339 342 344 346 347 346 347 347 348 351 351 351 350 350 348 348
297 297 300 300 298 297 296 296 296 297 298 299 298 302 306 305 298 297 304 306 306 308 312 315 317 317 317 318 319 320 321 321 320 320 321 321 321 323 325 323 325 326 327 329 331 334 337 339 339 339 340 340 343 347 347 347 348 348 351 350 350 350 349
297 297 298 297 295 295 296 296 297 298 299 303 301 305 309 309 304 307 307 307 308 311 313 315 316 319 319 320 321 320 319 318 319 319 319 320 320 321 321 322 324 324 325 326 327 329 331 336 338 338 339 341 342 344 343 346 348 351 351 351 350 349 349
293 298 299 297 296 295 294 296 297 298 300 309 311 311 311 311 308 309 308 307 306 311 316 317 318 319 319 319 318 317 318 318 318 317 318 318 319 320 321 321 322 323 324 325 326 327 328 331 334 337 338 339 341 342 343 344 343 345 347 348 350 350 349
291 296 297 297 297 298 295 295 296 297 296 296 303 308 310 307 305 307 307 304 304 310 317 315 316 317 316 315 315 315 316 316 316 315 315 315 316 317 319 320 320 322 323 324 325 325 327 329 331 334 335 338 339 340 341 342 342 344 343 343 341 341 346
289 294 296 296 295 294 291 292 295 299 300 301 304 310 314 311 310 306 302 302 309 312 315 311 312 314 313 313 314 313 314 314 314 313 313 314 315 316 317 318 320 320 321 323 324 324 325 327 328 332 335 335 335 337 338 340 342 342 342 341 341 341 342
288 293 293 299 290 284 288 297 300 304 304 305 305 306 309 311 312 308 309 310 313 314 311 310 310 310 311 312 314 315 313 313 313 313 313 313 314 315 315 316 317 318 319 320 323 324 324 325 327 330 336 335 335 336 337 339 339 339 339 338 339 340 341
287 292 293 288 283 288 299 301 303 305 309 311 309 309 310 310 311 311 310 311 312 314 314 313 312 312 312 314 314 314 315 314 313 313 313 312 312 311 311 312 313 315 315 316 319 322 324 325 324 325 327 332 334 334 334 333 336 337 338 337 338 339 340
290 287 286 280 283 296 301 303 302 308 304 306 309 305 309 311 311 311 310 311 312 313 314 315 315 311 311 311 312 313 315 315 314 312 311 311 311 311 311 311 311 312 315 315 317 320 326 322 322 322 323 327 332 333 333 333 334 334 334 334 337 338 338
286 287 284 285 294 294 297 300 299 300 299 300 304 299 301 309 311 311 310 311 312 313 313 313 313 313 311 308 308 311 312 312 313 313 312 312 311 311 312 312 312 313 314 314 315 318 321 322 321 321 322 323 324 328 330 329 329 330 331 332 333 334 338
293 285 281 281 284 282 290 298 303 301 301 304 307 305 299 307 310 313 311 309 310 311 313 313 314 313 308 305 304 308 309 310 310 310 311 310 310 311 312 312 312 312 313 314 316 315 316 319 321 322 322 322 322 323 324 325 324 324 326 329 331 332 333
290 287 280 280 278 283 293 297 299 300 300 303 307 302 295 303 309 312 313 311 311 311 311 311 311 309 304 302 305 307 309 309 309 309 309 310 311 312 312 311 311 311 312 314 314 316 316 317 319 321 322 323 323 322 323 322 322 321 322 325 327 328 331
292 289 284 281 289 289 297 300 299 299 301 303 299 291 290 301 305 309 312 311 311 311 311 312 309 305 300 300 303 308 309 309 309 309 309 310 312 313 314 314 312 313 314 312 312 313 314 314 317 319 320 321 324 323 322 321 321 321 321 322 322 327 329
289 292 286 288 291 299 302 300 301 303 306 296 287 284 295 305 304 306 312 311 311 311 310 308 303 305 306 306 307 309 309 309 309 310 312 312 313 314 315 315 319 312 312 312 312 313 314 315 317 318 319 320 321 322 320 317 319 321 321 321 322 324 326
284 284 284 284 288 295 300 301 305 305 300 287 282 295 305 306 303 307 309 310 310 310 308 306 304 305 308 310 309 309 309 308 309 310 311 312 312 313 316 319 317 311 311 311 312 314 315 316 317 317 318 320 321 320 316 316 318 321 322 322 322 323 326
287 287 284 284 282 295 306 303 300 303 290 290 297 303 304 307 303 303 305 307 307 307 305 306 306 306 307 307 308 308 308 308 308 309 309 309 309 309 310 311 315 313 310 310 311 313 314 315 315 317 317 318 320 319 315 317 320 322 322 322 322 322 324
284 283 282 283 288 295 305 300 293 299 302 305 306 302 301 304 304 303 303 304 305 306 305 305 305 306 306 306 307 308 308 308 308 309 309 309 309 310 311 312 313 315 310 311 311 312 313 315 314 315 315 316 319 317 314 318 319 322 320 321 322 323 324
291 289 290 296 299 303 306 305 304 306 310 311 309 305 303 302 303 305 303 304 305 306 305 305 305 305 306 306 307 307 307 308 308 307 307 308 308 308 309 311 313 311 309 309 310 311 312 313 314 315 314 314 317 315 315 320 319 319 319 321 322 322 321
297 299 299 302 304 305 305 307 307 306 306 307 308 306 303 304 304 305 304 305 305 305 305 304 303 304 305 305 306 306 307 307 307 308 307 307 307 308 309 309 311 310 309 310 310 312 311 313 312 315 314 313 314 314 316 319 318 318 319 320 321 321 319
289 285 298 300 301 304 305 305 307 307 305 304 304 305 305 305 304 304 306 307 307 306 306 304 304 304 305 305 304 305 306 306 306 306 306 306 306 307 308 311 311 309 309 308 311 311 310 311 312 313 313 314 315 315 317 316 317 318 318 320 322 318 315
288 293 298 300 303 303 305 305 303 303 304 304 305 305 306 306 306 306 305 307 306 307 305 304 304 303 304 304 304 305 305 305 305 305 305 305 306 307 308 309 309 307 307 306 308 310 310 310 311 313 313 313 314 314 315 315 316 316 318 320 317 314 314
296 298 300 302 299 302 304 305 306 303 304 305 304 305 304 304 304 305 306 306 307 306 304 304 303 303 304 304 303 302 302 303 304 305 305 305 306 306 306 307 308 305 308 308 308 309 311 310 310 311 311 312 313 312 313 313 314 314 316 318 317 314 314
288 293 296 300 291 293 300 304 305 306 307 305 304 303 303 304 303 303 303 304 307 306 305 304 304 303 303 303 304 303 304 304 304 305 304 304 304 305 306 307 306 309 310 308 309 310 309 309 310 311 310 311 312 313 313 313 313 313 315 315 313 314 315
290 297 300 302 301 299 302 304 306 306 307 306 305 304 303 303 304 303 302 302 302 303 304 306 304 303 303 302 302 303 304 304 304 304 304 303 303 304 305 304 304 305 308 312 310 310 309 311 311 311 311 311 311 312 313 313 312 312 311 313 315 313 316
301 304 304 305 302 301 303 305 306 306 307 307 306 306 308 307 304 304 303 303 302 302 303 305 304 304 303 302 304 303 303 303 303 303 303 303 304 305 305 304 307 308 308 308 308 309 307 310 309 309 311 311 311 313 314 314 313 311 311 312 311 312 312
300 305 307 307 305 305 306 306 306 307 309 309 308 308 309 309 309 308 304 303 303 303 303 304 304 305 304 303 303 303 302 303 304 304 307 308 307 305 306 307 307 307 306 306 306 306 307 308 310 313 311 312 313 314 314 315 314 313 313 313 312 311 312

ECMWFFLT2_sfc_thetae_099.txt.gz
Theta_e
300 300 303 302 301 291 295 297 293 295 299 300 297 302 301 298 297 294 304 303 307 312 315 319 322 324 326 329 330 331 331 333 333 333 334 335 336 337 338 338 338 338 338 340 338 333 335 336 336 337 341 342 342 343 344 344 344 346 346 347 349 350 349
300 303 302 303 302 298 297 293 294 299 304 301 296 292 293 291 288 293 303 301 301 300 301 316 318 318 320 324 327 330 330 332 331 333 334 335 336 337 339 339 339 339 339 340 342 341 338 338 341 340 341 343 343 343 345 344 344 345 346 346 348 350 349
300 303 301 300 303 303 297 296 300 298 291 292 291 294 289 289 291 295 301 304 302 301 302 312 313 316 318 322 326 328 329 330 331 332 334 335 337 338 338 339 339 340 340 341 341 342 343 345 346 345 344 345 345 344 345 346 345 347 347 347 349 351 351
299 298 296 292 292 298 303 303 299 299 296 291 291 293 293 292 290 297 300 304 298 306 307 314 315 319 320 321 323 326 328 330 331 332 333 335 336 337 337 336 337 338 341 343 342 342 342 344 345 347 349 346 345 345 346 346 346 346 348 347 349 350 351
297 291 294 293 294 293 293 295 294 298 296 298 297 299 294 293 294 297 298 297 299 304 317 317 318 320 322 324 324 326 328 329 330 330 331 332 335 337 336 336 336 338 340 343 345 344 344 344 346 347 349 349 347 348 347 349 347 347 348 348 348 349 351
290 292 296 299 297 295 295 292 293 293 295 294 290 288 294 301 298 294 297 295 301 312 321 319 320 322 323 325 324 325 326 327 327 327 328 330 332 336 340 339 340 341 341 342 343 344 343 343 344 345 348 348 347 348 349 349 349 348 349 349 349 349 350
294 297 300 302 301 300 297 296 296 296 293 291 288 286 289 299 301 304 298 296 298 315 320 320 322 322 322 323 323 323 325 325 327 329 330 331 332 333 335 338 340 340 341 341 341 343 344 343 342 345 346 348 348 349 350 350 349 349 351 351 351 351 350
298 301 302 302 302 301 296 294 296 294 293 294 292 289 291 297 299 296 295 295 302 316 322 320 323 323 323 324 323 322 324 325 327 327 328 330 331 333 335 335 337 339 340 341 340 341 342 343 342 343 345 347 348 349 350 349 349 350 352 353 353 352 351
292 294 298 298 301 300 296 295 295 296 295 296 296 298 298 298 299 299 296 293 303 315 321 321 322 322 321 321 323 323 321 324 325 326 328 328 331 332 334 334 336 336 338 339 339 340 340 341 343 343 344 345 347 348 350 349 349 351 352 352 352 352 352
285 285 285 288 292 295 297 297 295 296 295 298 298 296 296 290 298 299 297 299 308 316 319 320 321 320 320 320 320 322 322 322 323 325 325 325 327 328 330 332 333 334 335 336 337 339 340 341 341 343 344 345 345 347 348 350 350 349 351 352 351 351 350
289 291 293 299 304 296 291 294 294 295 296 302 298 295 294 292 295 297 300 306 307 310 315 317 319 319 317 318 319 319 320 322 323 323 323 324 325 326 327 329 331 334 335 334 335 337 340 342 343 344 344 344 344 344 345 348 349 349 349 351 350 350 349
299 297 298 299 303 296 295 293 294 296 296 297 298 295 292 299 301 293 303 310 307 309 314 316 317 317 317 318 318 320 320 320 321 322 323 324 323 324 326 326 327 329 333 335 335 337 339 342 343 344 343 343 343 343 344 346 348 349 350 350 349 348 348
300 298 297 296 295 294 295 294 294 295 302 299 299 299 303 303 298 296 304 309 307 311 315 317 317 317 316 316 318 321 322 322 321 321 321 321 322 323 323 324 325 326 327 330 333 336 338 338 338 338 340 340 343 344 346 347 348 348 349 348 347 346 347
296 297 297 296 295 294 295 295 295 297 305 305 305 305 306 304 299 305 308 307 309 313 315 317 317 318 318 318 319 319 319 321 320 319 319 320 321 322 323 325 326 327 328 329 330 333 334 336 337 338 339 340 342 343 343 346 348 349 348 347 347 346 346
293 297 299 297 296 294 293 296 297 296 304 308 307 307 308 309 307 308 308 307 307 313 316 316 317 318 318 318 317 317 317 318 318 318 318 318 319 320 322 324 326 327 327 327 328 329 331 334 336 337 338 339 341 342 341 342 342 344 348 347 346 346 345
291 295 296 296 297 295 296 295 295 295 294 303 306 304 307 305 303 306 307 305 305 310 316 317 316 316 314 313 313 314 314 316 317 316 316 317 317 318 319 321 324 326 326 326 326 328 330 332 333 334 335 337 338 339 340 340 341 342 342 344 345 345 347
288 294 296 296 295 293 292 293 294 295 297 303 309 309 311 310 310 306 304 304 310 312 316 313 313 313 313 312 312 312 312 314 314 314 315 315 316 316 318 320 322 323 324 324 324 326 327 330 332 332 333 334 335 337 337 339 341 340 339 340 340 340 342
286 292 296 298 290 284 286 296 300 301 303 305 304 303 306 308 309 306 309 309 311 313 313 312 311 311 311 312 313 314 312 312 312 312 312 312 312 313 315 317 318 319 321 322 322 323 324 327 330 332 333 333 333 336 337 338 338 337 337 338 339 339 340
286 290 293 289 282 285 296 301 301 309 309 307 305 305 306 308 310 310 309 310 311 312 313 313 312 312 313 314 313 313 313 312 311 311 310 310 310 310 311 313 315 316 319 320 320 320 322 325 326 329 330 331 331 332 334 334 335 335 336 337 338 339 339
287 284 285 280 280 293 299 300 301 304 302 301 307 304 305 307 309 309 307 308 309 310 311 312 312 312 312 313 313 312 312 312 311 310 309 309 309 309 310 311 312 314 317 318 319 319 322 321 321 323 324 327 326 325 326 326 328 330 332 332 334 337 337
283 284 283 287 295 295 295 296 297 299 296 295 300 296 300 306 309 310 309 308 308 309 310 310 310 311 310 307 306 311 312 311 310 309 308 309 308 309 309 311 311 314 315 315 317 318 317 319 320 321 322 323 323 323 322 322 322 322 323 323 327 330 334
287 282 282 284 286 284 290 298 302 303 299 299 305 303 299 304 310 312 310 309 310 308 308 308 308 309 305 301 302 307 309 308 308 309 309 309 309 310 310 311 312 313 314 315 316 315 315 316 317 320 322 322 320 320 320 320 319 319 320 320 322 325 327
287 283 279 281 281 286 294 297 301 303 300 304 307 302 296 303 309 312 312 310 312 312 306 305 307 304 299 298 301 304 306 307 309 309 309 309 310 310 311 311 312 313 314 315 316 315 314 314 316 319 320 321 318 317 318 318 318 318 318 320 320 322 325
288 284 280 282 285 289 297 299 301 301 303 304 300 289 292 301 310 313 312 311 312 313 313 312 308 301 298 299 302 306 307 308 310 310 309 310 310 310 311 312 313 313 315 314 313 313 313 313 316 319 320 319 320 318 317 318 317 317 318 319 321 322 323
288 291 283 284 287 296 300 301 301 302 305 299 291 286 294 305 310 312 312 312 314 315 314 314 309 310 308 308 308 310 314 311 311 312 313 312 312 311 312 314 317 312 312 312 311 312 312 314 315 317 319 317 316 318 317 316 317 318 318 320 321 322 322
284 282 282 283 285 292 298 300 301 304 298 287 283 292 301 306 309 312 313 312 313 313 313 313 308 308 312 312 310 311 313 312 313 311 311 311 314 316 317 317 314 311 311 311 311 312 313 314 315 315 317 317 316 315 314 315 316 319 318 319 321 321 321
283 281 280 281 280 294 303 301 299 301 293 289 291 299 303 304 309 311 311 312 313 313 309 306 306 307 308 307 307 308 309 309 309 310 309 309 309 309 310 311 314 311 309 309 310 311 312 313 313 314 315 316 316 314 312 314 316 318 318 319 320 319 320
282 280 281 282 286 292 299 300 294 296 300 300 301 299 299 302 305 310 310 311 312 309 305 305 306 306 306 306 307 307 307 308 308 308 309 309 309 310 310 310 310 312 309 309 309 310 311 312 312 313 312 315 317 314 311 315 316 319 317 319 319 317 318
289 288 286 291 294 298 301 301 300 304 306 306 303 301 300 301 301 304 308 306 306 305 305 305 306 305 306 306 307 306 306 306 306 306 306 307 308 308 308 309 311 309 308 308 308 309 309 311 311 312 311 313 314 312 312 316 315 315 316 319 319 315 314
294 296 297 299 301 301 303 303 304 304 303 304 303 302 301 302 303 303 303 303 304 304 306 305 304 305 306 306 306 306 306 306 306 307 305 306 306 306 307 307 309 308 308 308 308 308 308 310 311 313 311 311 311 310 313 314 313 314 316 318 318 314 314
287 285 292 297 298 300 301 302 302 302 303 303 304 303 302 302 304 304 304 304 305 306 306 305 303 303 305 305 305 306 305 305 305 304 304 304 305 306 306 308 309 306 306 307 309 309 308 308 309 311 309 310 311 311 312 312 312 313 315 317 316 313 311
289 292 296 298 300 301 303 303 300 300 301 302 303 303 303 303 304 305 304 305 306 308 307 307 306 307 308 305 303 304 304 304 304 304 304 304 305 305 306 307 306 304 304 305 307 308 308 306 308 309 309 309 310 310 311 312 311 312 315 315 312 310 311
292 294 296 298 299 301 302 303 304 303 302 302 302 302 303 303 303 303 304 304 305 306 306 307 307 306 305 306 305 304 303 303 303 303 304 304 304 304 304 304 305 304 306 308 308 308 307 306 307 308 308 309 310 310 312 312 311 312 314 315 313 310 311
287 291 295 298 293 294 299 301 303 304 304 302 302 302 301 302 302 303 303 304 304 303 304 304 305 304 303 303 304 303 303 303 303 303 304 303 303 302 303 305 306 309 309 307 308 308 305 306 307 309 308 310 310 312 313 312 312 312 313 313 311 310 312
288 292 296 298 295 294 300 302 304 304 305 304 304 304 302 302 301 303 303 301 301 302 302 304 304 303 303 302 302 303 303 303 304 304 303 302 302 302 303 304 304 305 307 310 309 308 306 309 309 309 310 310 310 312 312 312 312 311 311 313 312 310 313
299 299 298 300 298 299 301 303 304 304 305 305 305 305 306 305 303 302 302 303 302 301 302 302 304 303 303 302 303 303 302 303 302 302 301 302 302 303 303 305 306 306 306 306 306 307 306 308 308 308 310 310 309 311 311 312 312 310 310 311 309 309 311
299 302 302 302 300 303 304 305 306 306 310 308 306 306 307 308 308 305 303 301 301 302 302 302 302 303 302 302 303 303 302 302 303 302 304 306 305 305 305 305 305 306 305 304 303 303 304 307 309 310 308 308 309 310 310 310 310 310 309 309 308 308 312

ECMWFFLT2_sfc_thetae_102.txt.gz
Theta_e
298 298 301 300 299 290 293 294 290 292 297 298 295 298 296 298 294 293 299 301 304 309 313 318 321 323 325 327 328 330 331 332 333 332 332 331 333 333 338 339 338 337 336 332 333 334 335 336 336 337 340 342 343 344 344 344 345 347 347 348 347 349 350
299 298 301 300 301 296 294 290 293 298 302 299 295 289 288 286 287 290 300 299 299 300 302 316 319 320 323 325 327 329 330 331 331 332 332 331 331 333 338 341 340 339 338 337 333 334 336 337 337 337 340 342 343 344 345 344 345 345 346 347 347 348 349
298 299 299 298 302 301 295 293 298 297 291 291 291 292 286 286 285 288 296 301 300 299 302 313 315 318 321 324 326 327 328 330 330 331 333 334 334 337 337 338 338 339 340 341 339 335 336 337 339 338 340 342 343 344 346 345 345 346 347 347 348 349 350
297 295 294 291 291 296 300 299 298 298 294 289 291 291 289 291 288 293 293 298 295 304 307 313 316 320 321 325 327 328 329 330 331 333 334 334 334 335 338 338 339 340 342 343 342 339 337 337 339 339 341 342 342 343 345 346 347 347 347 347 349 348 349
295 293 294 289 290 293 296 292 293 297 295 297 295 295 293 293 293 291 291 292 297 303 315 316 319 322 324 325 324 325 326 328 331 333 334 334 334 335 337 337 338 339 341 343 344 344 344 345 345 343 342 342 343 344 344 346 346 346 347 347 347 348 350
289 290 293 296 294 292 292 289 293 291 291 292 289 288 294 299 296 292 293 291 298 310 320 321 321 323 324 325 324 324 325 327 328 330 334 336 335 335 336 338 340 339 339 342 345 345 344 344 345 345 345 345 344 344 344 346 346 346 347 347 347 348 350
292 294 298 299 299 296 294 293 294 293 292 290 286 284 288 298 299 303 297 292 294 313 321 321 323 322 324 325 325 323 325 326 328 330 333 334 337 338 338 339 339 340 340 342 342 343 343 343 344 347 347 345 344 345 347 347 346 346 347 348 349 349 350
296 298 299 300 299 296 294 293 293 292 291 293 290 288 291 297 298 295 292 292 298 314 323 323 323 323 324 325 325 324 325 326 327 328 330 332 334 335 338 339 339 339 340 341 341 341 341 341 342 344 345 347 347 347 347 348 348 349 349 350 350 350 350
289 291 295 296 298 297 294 294 295 295 293 293 293 296 295 297 299 297 294 290 300 314 321 323 322 322 322 322 323 325 323 325 327 328 329 331 332 333 335 336 337 338 339 339 339 341 341 342 342 342 343 344 346 348 349 349 349 351 351 353 352 351 351
284 284 284 287 289 292 295 295 293 294 294 297 297 294 294 289 296 297 293 294 305 316 320 320 320 320 319 321 322 323 324 324 325 326 328 329 331 332 333 333 334 335 336 338 338 339 340 341 341 341 342 344 345 347 348 350 349 351 352 350 351 352 352
289 290 292 297 303 295 289 293 292 293 293 298 296 293 292 290 293 297 296 301 307 311 315 316 318 318 317 318 319 320 321 323 324 325 327 329 330 331 332 333 334 334 335 336 337 339 341 342 341 342 343 344 345 344 344 346 349 350 349 350 350 351 352
297 298 297 297 298 295 293 292 293 296 300 299 297 295 291 295 299 291 299 307 308 310 315 317 316 317 317 319 319 320 321 322 323 324 326 328 328 329 329 330 332 333 334 335 336 338 340 343 343 343 344 345 345 345 345 345 347 347 349 349 348 348 348
301 300 296 296 295 293 293 293 293 293 296 301 297 295 296 301 297 295 300 308 308 312 316 318 317 317 317 318 319 320 320 321 322 322 323 324 325 326 327 328 329 331 333 334 335 337 338 339 339 339 340 341 343 343 345 346 347 348 348 347 347 346 346
296 297 297 297 295 294 293 294 294 296 296 302 303 303 304 302 299 301 307 309 310 315 317 317 317 319 319 319 321 321 319 319 320 320 321 322 324 325 325 326 328 329 331 332 333 334 336 337 338 339 339 341 341 342 343 345 346 347 347 346 346 345 345
293 294 299 300 298 295 292 293 298 299 299 300 306 306 307 309 307 309 310 310 310 317 319 318 318 318 319 318 317 317 317 318 319 319 320 322 323 324 325 326 326 328 329 330 331 331 332 334 335 336 337 338 339 339 339 341 342 345 347 345 346 346 345
289 293 295 298 299 298 294 294 298 301 299 295 302 301 306 305 305 309 309 307 308 315 318 317 317 316 315 314 314 314 316 318 318 318 319 320 321 322 323 324 325 326 327 328 329 329 330 331 333 334 335 336 336 337 339 339 341 343 344 344 344 345 346
287 291 295 296 298 297 293 292 297 302 300 297 305 305 307 307 311 308 305 307 314 315 317 313 313 314 313 313 313 313 314 317 317 316 317 319 319 320 322 322 323 324 324 325 327 328 329 330 331 332 333 333 334 335 336 338 341 341 341 341 341 340 342
285 290 295 297 292 286 288 298 303 306 302 303 302 302 304 307 308 306 310 312 315 315 314 312 311 311 311 312 312 314 313 313 314 313 313 315 316 316 317 319 320 321 321 321 323 324 325 326 327 327 328 327 328 330 331 333 335 337 338 338 339 339 340
285 288 291 289 284 286 297 303 303 308 307 306 304 304 305 306 309 310 312 313 314 314 314 313 312 312 312 312 311 311 311 311 310 311 312 312 314 314 316 317 318 318 319 320 320 321 322 324 323 323 323 323 323 323 324 324 327 328 330 333 334 336 335
284 283 284 281 283 292 299 300 303 306 303 302 306 304 305 306 308 308 310 312 313 313 312 312 312 311 310 310 311 309 309 310 310 309 310 312 313 314 315 315 315 316 317 318 318 319 323 322 322 321 321 321 321 320 322 322 322 323 325 326 327 330 331
282 282 282 285 291 292 296 296 298 297 296 296 299 296 300 305 309 309 309 311 312 311 311 311 310 310 309 306 305 308 308 308 310 310 311 312 313 314 314 314 314 315 316 317 318 319 319 320 320 320 320 320 320 319 319 320 321 322 322 323 325 326 326
283 279 283 282 284 282 288 297 303 305 301 302 302 301 299 304 309 311 310 310 310 309 309 309 309 310 305 301 301 305 307 308 308 310 312 313 313 313 313 314 315 315 316 317 319 318 318 319 319 319 319 319 319 318 318 319 319 320 321 321 323 324 324
285 281 278 279 278 283 290 296 301 302 303 303 307 300 294 303 307 311 312 311 312 310 308 308 310 306 300 299 301 304 306 307 308 308 309 311 312 313 314 314 314 315 316 317 317 317 317 317 318 319 319 319 317 317 318 318 318 318 319 321 321 321 323
286 281 280 281 282 288 295 297 300 302 304 304 300 289 289 302 309 311 311 310 310 311 311 310 308 304 299 298 301 307 308 309 309 309 309 310 311 312 313 313 314 315 317 315 314 314 314 315 318 318 318 319 320 317 316 317 317 318 319 320 321 321 322
288 289 282 283 286 295 298 299 300 301 305 300 290 285 292 306 310 311 311 311 310 310 309 309 305 310 308 306 309 313 312 310 310 310 311 311 312 312 313 314 317 312 312 312 312 312 313 316 317 318 317 316 316 317 316 315 317 317 319 320 319 319 320
282 282 284 282 285 291 296 300 301 303 298 290 288 295 299 309 310 312 311 310 310 311 311 310 309 309 310 312 311 311 312 311 312 311 311 312 313 315 317 317 314 311 311 311 311 312 313 314 316 317 316 316 315 315 314 314 316 318 319 319 318 318 318
282 278 280 280 280 293 300 300 299 302 294 292 294 300 305 312 312 312 311 311 311 312 310 310 310 310 310 310 310 310 311 311 311 311 312 312 310 310 310 311 313 311 309 309 310 311 312 313 314 316 316 315 314 314 313 315 316 319 320 318 317 318 319
282 281 281 281 287 293 298 300 294 296 300 300 300 301 304 307 311 312 311 311 311 310 311 311 311 310 309 309 310 310 310 310 310 311 312 311 312 310 311 311 311 312 309 309 310 311 312 313 313 314 315 315 315 313 312 316 317 320 319 318 317 317 319
287 287 285 288 291 295 299 300 299 300 303 304 302 301 302 305 307 310 311 311 311 308 309 312 311 308 309 308 310 309 309 309 309 309 309 310 310 311 310 311 312 310 309 308 309 310 310 312 312 312 313 314 314 312 313 317 316 317 319 319 317 315 315
293 294 295 298 298 299 301 301 302 301 301 302 303 303 303 304 305 308 311 311 307 305 307 308 307 307 308 308 309 309 309 308 308 309 308 308 309 309 310 310 310 310 309 309 309 309 309 311 311 314 311 312 312 312 314 315 315 316 318 318 317 315 316
287 287 291 297 297 299 301 301 302 302 302 301 302 302 302 303 305 306 306 306 305 305 306 306 305 305 307 307 307 307 307 306 306 306 307 307 308 308 307 309 311 308 309 309 309 310 309 310 310 311 311 312 313 314 314 313 314 317 318 317 316 315 314
290 290 296 297 298 300 301 301 301 301 302 301 301 302 303 304 305 306 307 308 307 308 307 307 306 305 306 306 305 305 306 305 305 306 306 306 306 307 308 309 308 308 309 308 309 309 310 309 310 311 311 312 312 313 313 313 314 317 318 317 313 312 313
291 293 295 297 297 299 301 302 302 302 302 301 302 301 302 303 303 304 306 309 309 310 310 311 308 308 308 308 308 306 306 305 305 305 305 306 306 306 305 307 309 308 309 309 309 310 309 308 309 310 311 312 313 313 313 314 315 317 317 316 314 313 314
289 291 295 296 295 293 297 300 302 303 304 303 304 304 303 301 301 302 304 306 309 311 311 311 309 308 309 309 308 306 305 305 305 306 306 306 305 305 306 308 308 310 311 309 309 310 308 309 310 311 311 311 313 313 314 314 314 316 316 314 313 313 315
288 292 293 296 295 294 300 301 303 303 304 305 305 305 304 303 301 301 302 302 304 307 309 310 309 308 308 308 307 305 304 305 305 306 305 304 304 305 307 307 307 308 308 311 311 311 310 311 311 311 310 310 311 312 313 313 313 312 313 313 312 313 315
297 299 296 297 298 300 301 302 302 303 305 305 305 305 306 307 304 301 301 301 302 302 304 305 307 308 307 306 305 304 304 304 304 304 304 304 305 306 307 307 308 309 309 310 310 310 309 310 310 310 310 309 310 311 311 311 311 310 310 310 309 311 314
300 301 299 300 299 302 302 303 305 304 308 308 305 305 307 307 308 306 304 302 302 303 302 302 304 305 305 305 305 305 304 304 305 304 306 307 305 306 306 307 308 308 309 308 307 308 309 309 309 309 308 308 309 309 310 310 310 309 309 309 308 310 312

ECMWFFLT2_sfc_thetae_105.txt.gz
Theta_e
304 305 306 304 306 296 300 300 297 300 307 304 302 304 303 305 303 301 313 310 314 320 320 325 330 330 330 331 329 331 333 336 337 336 337 338 340 341 341 342 338 338 339 342 343 343 343 344 345 345 348 350 351 353 353 355 356 357 357 359 359 359 360
304 304 306 306 306 306 301 297 301 307 309 307 302 295 301 300 295 299 308 304 309 308 305 324 326 326 328 330 331 332 334 336 335 336 336 338 339 343 343 343 344 340 338 340 341 342 343 345 344 346 350 350 352 353 353 353 355 355 356 357 357 358 359
305 304 304 303 305 306 304 302 308 300 296 295 305 300 293 294 293 299 305 308 309 312 311 319 321 322 324 329 331 332 332 334 335 336 337 338 340 341 342 344 345 342 339 338 341 342 345 347 348 347 349 350 351 352 353 352 353 354 355 355 356 358 359
303 304 304 298 301 305 305 305 303 305 303 300 298 299 302 301 294 297 301 306 304 315 316 320 320 323 326 329 330 331 332 334 335 336 336 337 338 341 342 343 344 345 343 342 341 342 344 346 347 347 348 348 348 351 352 353 355 356 356 355 356 356 357
301 299 302 300 303 300 301 302 301 302 303 305 305 304 301 298 299 298 298 299 307 316 320 321 322 325 327 328 327 330 332 335 336 337 337 337 339 341 343 344 346 347 348 346 345 345 345 347 347 347 346 348 350 352 352 355 355 356 356 356 356 356 356
299 300 303 302 302 302 302 302 301 302 300 299 295 295 305 306 302 298 297 296 311 317 322 324 325 326 327 328 329 329 332 334 336 337 339 339 339 341 343 344 345 347 349 350 350 349 350 348 346 347 349 350 351 352 352 355 355 355 355 355 356 358 357
299 302 303 304 304 304 301 302 299 301 302 304 299 292 298 307 308 309 307 302 308 319 323 325 326 327 328 330 331 329 332 334 336 338 340 341 342 341 342 342 343 341 342 348 350 349 348 349 350 351 350 349 349 351 353 354 354 355 355 355 357 359 358
303 305 305 305 304 303 302 303 304 301 299 299 301 302 306 302 308 304 304 301 310 317 324 326 327 328 328 329 331 330 331 333 335 337 339 341 342 343 344 344 342 342 343 346 345 346 346 346 348 349 346 344 349 352 353 353 353 355 355 356 356 358 358
297 299 303 302 306 304 301 300 303 303 303 300 300 307 309 304 307 306 302 296 308 316 324 326 326 326 326 326 329 332 329 330 332 334 336 339 341 341 342 342 343 343 343 342 341 344 346 346 348 349 350 350 351 354 352 352 354 356 357 358 357 356 357
287 288 289 291 295 297 300 302 303 305 306 303 304 300 305 296 307 308 303 305 312 319 322 322 324 323 323 325 326 328 330 330 331 332 334 335 337 339 341 342 342 342 343 343 344 343 343 344 345 345 346 348 349 351 350 353 352 351 352 356 357 355 357
292 295 297 299 302 300 297 300 304 305 307 307 304 307 303 297 307 306 310 312 311 312 317 319 321 321 320 321 324 325 327 329 331 333 333 334 336 337 337 339 340 341 339 338 341 343 343 344 345 345 345 346 347 348 349 350 352 353 353 353 353 355 358
299 301 299 300 300 298 299 302 305 308 307 308 304 304 300 314 305 301 313 315 311 312 316 319 319 321 322 323 324 325 327 330 331 331 332 332 332 334 335 336 336 337 337 339 340 342 344 344 344 344 347 349 349 348 348 350 352 353 354 354 354 353 355
300 301 301 301 300 299 301 305 307 307 307 311 307 304 307 308 303 299 313 316 315 316 317 320 320 321 322 322 324 326 328 329 330 331 330 329 329 331 332 334 337 336 337 338 341 342 343 344 344 345 346 346 347 347 349 350 351 350 353 353 352 350 350
300 298 299 301 301 299 301 304 306 309 308 310 311 310 312 310 311 310 313 317 317 318 319 321 321 323 323 324 325 326 326 327 329 329 328 328 328 329 330 332 333 334 334 335 336 337 339 340 342 343 344 344 345 346 348 349 350 351 353 353 350 349 348
298 298 301 302 301 301 300 304 306 308 309 310 311 311 311 312 313 313 315 315 314 321 324 322 323 323 323 323 322 324 325 326 328 328 326 326 326 327 328 329 330 331 332 332 333 334 335 336 337 337 338 339 341 343 344 347 349 351 351 348 349 348 347
296 298 298 300 302 302 301 302 305 307 308 306 308 308 310 309 310 312 314 312 312 319 323 322 322 321 321 320 321 322 324 326 327 326 325 324 325 325 326 327 328 328 328 329 329 329 330 331 333 335 336 339 340 340 342 343 346 349 348 346 347 348 349
295 298 299 299 300 299 296 299 305 309 310 309 309 311 312 311 311 311 309 311 318 320 322 319 319 319 319 320 321 321 323 326 326 324 323 323 324 324 325 325 325 325 325 325 325 324 324 325 326 327 329 330 332 335 337 339 342 343 343 343 343 345 349
295 297 299 300 297 290 293 306 309 312 309 310 308 308 309 312 313 312 315 317 319 319 319 317 316 317 318 319 320 324 323 324 323 322 323 323 323 324 325 324 323 323 323 322 323 323 323 324 324 326 327 326 327 329 331 333 335 336 337 337 337 337 339
295 298 298 295 288 291 302 307 311 314 313 313 311 310 311 312 315 315 316 318 318 319 320 319 318 315 314 316 317 319 321 322 321 320 321 322 323 322 322 322 322 322 323 323 323 323 323 324 324 323 324 326 327 327 328 329 330 331 332 332 333 334 335
297 296 295 286 289 298 301 302 304 311 309 305 306 309 312 313 314 316 317 317 318 317 315 315 314 312 311 310 311 313 316 319 320 319 319 323 324 322 321 321 322 322 322 322 323 323 323 322 322 323 324 326 326 326 328 327 328 328 329 330 330 331 331
292 295 295 294 299 297 299 299 300 300 302 302 306 301 309 313 315 318 316 314 313 312 312 311 311 312 311 308 308 311 315 317 320 322 322 320 320 321 321 321 320 321 321 322 323 325 324 323 323 323 324 327 327 327 327 327 328 327 328 327 328 329 330
296 293 292 293 292 290 295 299 304 306 305 304 307 311 308 313 316 319 315 312 312 310 311 311 312 313 310 306 306 309 313 317 317 318 319 319 319 320 321 322 322 322 321 321 322 322 322 323 323 324 325 325 325 324 324 325 325 325 325 326 326 327 328
295 293 290 290 288 292 298 301 304 306 306 306 306 305 300 312 316 319 317 313 312 311 310 310 312 310 306 305 307 310 312 315 316 316 317 318 318 320 321 321 320 320 320 320 320 321 321 320 322 323 324 324 322 321 323 322 324 324 324 325 326 325 326
295 293 290 289 294 294 301 304 306 307 308 306 306 293 295 312 316 318 317 314 314 315 316 314 313 310 306 305 307 311 313 315 316 316 315 315 315 317 318 319 319 320 322 321 319 318 318 319 321 322 321 321 322 320 320 321 320 322 324 325 327 328 328
293 295 293 295 297 303 306 306 308 308 309 304 296 291 300 313 317 319 318 316 316 316 316 316 313 315 314 312 313 315 316 316 316 317 317 316 316 316 317 318 321 319 319 318 318 318 320 320 320 321 321 321 320 321 320 320 319 321 324 327 327 327 328
291 292 291 292 295 300 304 309 309 310 303 296 296 305 309 311 316 319 319 317 318 317 316 318 318 317 315 315 314 314 315 317 316 316 317 317 317 318 320 320 319 318 318 319 319 319 321 320 321 321 322 321 321 321 320 319 320 322 324 326 326 327 327
293 293 291 290 286 301 307 307 307 310 301 301 307 308 310 314 317 316 318 318 318 319 317 318 317 314 313 313 313 314 316 315 315 316 316 317 317 316 316 316 318 317 317 317 317 318 319 320 321 320 321 321 320 320 319 321 321 323 323 325 326 326 326
291 289 288 288 300 306 308 307 302 306 308 309 309 309 307 316 318 317 317 316 317 318 317 315 313 312 312 313 314 314 314 314 315 315 316 317 316 315 315 316 317 318 317 316 316 317 318 320 321 321 321 320 320 319 319 323 322 322 323 324 325 324 324
297 296 298 304 306 307 308 307 308 308 309 310 310 309 309 314 317 319 318 317 317 318 317 315 313 311 312 313 313 312 313 314 314 314 314 315 315 317 315 316 317 317 316 315 315 316 317 318 320 321 321 319 318 318 321 324 323 322 322 322 321 321 323
304 304 304 306 307 308 309 310 309 308 309 309 310 310 310 312 317 319 318 317 317 318 317 314 313 313 314 314 312 312 313 314 314 315 315 315 315 315 315 315 315 316 316 315 315 315 316 317 318 320 319 319 318 319 321 322 322 321 322 321 321 322 322
297 293 305 306 306 307 308 309 311 312 311 309 310 311 311 311 314 319 319 317 318 318 317 314 314 314 314 315 314 315 313 313 313 313 314 315 315 314 312 313 314 313 314 315 315 316 316 318 318 318 318 318 321 322 322 320 321 322 322 321 321 321 321
298 299 304 306 307 308 309 309 310 309 310 311 311 311 312 313 314 316 316 316 316 318 318 316 314 314 314 314 313 313 313 313 313 313 313 314 314 316 316 314 314 314 313 314 315 315 316 318 319 318 318 318 319 321 320 321 321 322 322 321 319 320 320
303 304 305 306 307 307 309 310 311 312 312 313 311 311 311 313 313 314 315 317 316 316 316 315 313 313 313 313 313 311 312 313 313 313 313 314 314 315 316 316 315 313 313 313 313 314 314 317 318 319 319 319 320 321 322 322 322 321 320 321 321 320 320
299 300 304 306 301 303 306 308 310 312 312 315 313 312 310 311 312 314 314 315 316 316 317 316 315 313 311 313 314 313 312 312 312 312 312 313 313 313 314 315 316 316 315 314 314 313 313 314 315 315 316 317 318 318 320 321 321 319 319 319 318 318 318
299 305 306 309 308 308 308 309 311 313 314 314 313 313 311 310 311 313 313 313 314 315 317 316 316 314 312 312 313 312 311 311 312 312 312 313 313 313 313 314 316 316 316 316 316 315 315 316 315 314 314 314 315 316 317 317 317 317 318 317 316 315 317
308 309 310 309 310 308 309 311 312 312 315 314 312 314 315 313 312 311 311 311 312 312 314 315 316 316 316 315 314 312 312 313 313 312 313 313 313 313 314 316 316 316 316 316 316 316 316 316 315 315 313 314 314 313 314 314 315 315 315 315 314 314 315
308 312 312 312 311 311 312 312 313 313 315 315 313 313 314 315 316 315 314 313 312 312 313 313 313 314 316 316 315 314 313 313 313 312 312 311 311 313 315 316 316 316 316 317 317 317 317 316 315 315 313 313 314 313 314 313 313 313 314 314 313 314 314

ECMWFFLT2_sfc_thetae_108.txt.gz
Theta_e
309 309 310 309 310 299 305 305 300 303 309 307 304 307 308 307 305 302 312 311 314 324 323 328 333 331 334 334 333 334 336 338 341 340 341 341 341 342 344 346 344 345 345 347 348 350 350 351 350 351 353 356 358 359 361 362 361 361 360 363 360 361 363
308 311 311 311 310 310 307 300 304 309 311 309 305 299 303 301 298 302 307 306 308 309 306 329 330 330 331 332 332 333 336 339 339 338 339 340 341 344 346 345 346 346 346 347 348 349 350 351 350 352 355 357 359 360 361 360 360 359 358 359 358 359 360
308 310 310 308 311 311 307 306 312 303 298 297 304 303 296 296 296 300 304 307 307 310 312 320 325 328 330 332 335 334 334 338 337 338 339 341 342 344 346 345 345 345 345 346 349 349 352 354 354 353 355 356 358 359 359 356 356 356 356 354 356 358 359
308 308 307 300 304 309 311 311 307 309 306 301 299 301 304 304 299 298 301 305 303 312 313 324 327 330 332 333 334 335 335 336 337 338 339 339 343 344 344 345 348 346 347 349 348 349 352 354 354 354 356 355 355 357 357 357 359 360 357 354 355 355 356
307 301 304 302 305 302 303 304 304 305 304 308 306 305 302 301 300 300 300 300 306 318 331 331 330 332 333 333 332 335 335 337 338 339 339 340 340 343 344 345 345 345 345 345 345 348 351 354 354 354 355 356 357 359 358 359 359 360 360 357 355 357 357
300 303 308 308 307 308 306 304 303 305 302 300 298 297 305 303 301 298 299 298 308 324 331 331 331 330 332 334 334 334 335 336 340 341 341 341 341 343 345 346 347 345 345 344 345 347 350 351 350 351 353 354 356 357 358 360 361 360 361 359 358 361 359
301 305 308 310 310 310 309 308 305 307 306 305 301 293 300 303 305 306 306 302 310 326 329 331 331 331 333 335 334 334 336 338 340 342 342 342 344 344 346 347 347 346 346 348 346 346 347 350 351 352 354 354 354 356 357 360 360 361 360 360 362 362 362
306 307 309 310 309 309 307 308 309 307 304 305 303 302 304 302 303 301 303 301 308 323 329 330 331 333 335 337 336 336 337 339 342 342 344 344 344 346 348 348 349 348 350 352 349 347 348 349 351 351 354 356 356 357 357 359 360 361 361 361 361 363 363
300 302 305 305 309 309 306 306 309 310 310 308 307 307 310 303 303 303 301 297 308 324 328 329 330 331 331 333 335 337 335 338 340 342 344 345 345 345 346 349 350 350 349 346 345 345 344 346 350 352 351 352 356 357 358 358 359 361 362 362 362 362 363
290 290 292 295 300 303 307 309 309 310 309 309 306 300 304 298 306 307 302 302 318 324 326 326 328 329 330 331 333 335 337 336 337 339 341 342 343 344 346 347 347 347 348 346 346 346 346 349 349 350 349 351 353 355 356 358 357 360 362 362 362 360 361
296 298 300 303 306 305 303 305 307 308 310 311 309 307 303 299 304 304 306 308 315 321 321 324 326 328 327 328 331 331 334 335 337 339 339 340 342 343 346 346 346 346 346 346 347 348 348 348 349 350 350 349 349 350 351 354 358 358 359 361 362 361 362
303 303 303 304 305 303 304 304 304 308 310 312 308 304 302 313 305 299 310 314 311 318 322 324 325 327 327 329 331 332 333 335 335 336 336 337 339 341 341 342 343 344 345 345 346 346 346 346 348 348 349 351 350 352 351 355 356 356 357 359 360 360 359
304 304 304 305 304 304 304 305 305 306 311 313 310 309 312 314 306 301 315 317 309 315 322 325 325 327 327 330 331 334 336 335 334 335 334 334 335 337 338 339 341 343 342 343 345 346 346 346 346 347 347 349 351 351 352 352 353 353 357 355 353 354 356
303 304 305 305 304 304 304 304 305 306 309 312 313 313 314 313 314 316 316 319 318 323 325 326 326 329 329 330 332 333 333 333 334 333 333 333 334 335 336 337 338 340 341 342 345 345 346 346 347 347 347 347 348 349 350 353 353 354 356 356 355 354 353
301 303 304 304 303 303 302 304 305 306 306 311 313 314 315 314 312 316 312 319 319 325 330 328 329 330 329 331 330 330 332 332 331 331 332 332 332 332 334 335 336 337 339 340 341 343 345 347 346 346 347 347 348 349 350 352 353 353 355 354 354 354 353
299 302 302 302 303 302 302 303 304 305 305 306 311 312 315 314 314 315 316 316 316 323 327 327 328 327 328 327 327 328 330 331 330 330 330 330 330 330 330 332 333 333 333 335 336 336 336 337 340 342 344 345 346 347 348 349 352 353 352 352 352 352 353
297 302 303 302 300 299 297 300 304 309 310 310 314 316 317 316 316 314 310 317 324 325 326 324 325 325 327 328 327 327 329 330 330 329 328 328 328 328 329 329 330 330 330 331 333 333 335 335 336 337 337 336 337 342 345 348 352 353 352 350 350 351 352
298 301 302 303 299 290 293 311 313 312 308 309 307 309 314 316 318 318 319 321 325 326 325 322 322 323 325 326 328 329 329 327 327 329 329 328 328 328 329 329 330 330 330 330 330 331 331 332 333 334 333 334 335 338 338 340 342 344 345 344 345 347 350
296 300 302 297 292 294 308 310 311 315 314 312 312 314 314 315 318 319 318 320 322 325 326 325 323 323 323 323 324 326 329 329 328 327 328 329 328 326 326 327 329 330 330 329 330 330 331 331 332 334 334 333 333 333 334 335 338 339 341 342 342 343 344
301 298 296 287 292 305 306 305 307 309 309 310 310 313 314 318 318 320 320 321 322 325 325 323 321 320 320 320 321 322 325 329 328 327 327 327 327 326 327 327 328 328 329 330 329 330 334 331 330 330 331 332 330 332 333 332 331 333 335 337 337 338 339
294 296 296 296 304 302 303 303 304 305 305 306 307 305 312 318 320 321 321 322 322 323 325 323 323 323 321 317 316 320 323 324 326 328 327 327 326 326 327 328 327 327 328 329 331 332 332 331 332 332 332 332 332 332 331 331 331 331 332 332 334 336 338
300 296 294 296 295 292 300 305 308 310 309 309 311 308 309 318 321 323 322 320 320 320 321 322 323 325 319 312 312 317 321 322 322 325 324 323 322 322 324 327 327 326 326 328 329 329 329 329 330 332 333 333 332 331 331 331 330 330 331 331 332 334 336
299 296 293 291 289 296 304 306 308 310 312 312 312 308 303 315 321 323 323 321 322 320 319 320 322 320 315 313 313 317 321 323 325 324 324 322 321 321 321 322 322 323 323 324 325 327 327 326 328 329 330 330 329 328 330 329 330 330 331 332 332 331 332
299 298 294 292 297 299 306 308 310 311 313 311 310 296 297 308 318 321 322 322 321 319 319 321 321 317 313 311 313 320 323 324 324 323 322 325 321 321 322 322 322 323 323 322 322 322 322 323 325 327 326 326 326 325 325 328 328 329 331 333 334 334 333
298 295 296 298 300 307 310 311 311 312 314 308 298 293 303 311 314 321 323 323 323 322 320 321 319 320 322 318 319 322 323 321 321 322 322 323 323 322 321 321 323 320 320 320 319 320 322 322 322 324 324 324 323 324 324 325 326 327 330 333 333 334 334
296 297 295 297 300 306 313 314 312 315 311 298 295 308 316 316 316 321 323 322 323 323 322 321 322 322 324 322 321 321 322 321 321 321 320 320 320 321 322 322 321 319 318 319 319 320 321 321 322 322 324 324 323 324 323 322 324 327 329 331 332 332 332
296 297 295 293 288 306 314 314 313 314 306 305 311 313 315 318 319 321 322 323 323 324 323 324 324 322 320 320 320 320 320 321 320 321 320 321 319 319 319 320 320 320 319 318 318 319 320 322 323 323 323 323 323 323 322 323 323 326 327 328 329 329 330
296 294 292 292 303 310 314 313 305 310 312 313 315 314 313 318 322 322 323 323 325 323 323 324 322 321 320 321 322 322 321 320 321 321 322 321 321 318 317 318 319 318 317 317 318 320 320 322 322 322 323 322 323 322 322 325 325 326 327 327 329 328 327
301 299 302 308 313 313 315 314 314 314 316 317 316 317 317 317 322 325 323 324 325 325 325 323 321 320 320 321 322 320 318 319 320 320 320 319 318 319 320 320 320 318 317 317 318 319 320 321 322 322 323 322 322 321 323 326 327 326 326 326 326 326 327
309 310 310 312 314 314 314 316 315 315 316 317 317 318 318 319 322 325 323 324 324 324 325 321 320 320 320 320 320 320 320 320 320 321 320 320 319 317 317 318 319 318 319 317 318 318 318 319 320 322 322 323 322 323 325 326 327 326 326 326 326 326 326
301 297 311 312 311 314 314 314 317 318 318 317 318 319 319 320 323 325 324 324 324 325 323 323 322 320 321 319 319 320 320 320 320 319 318 318 319 318 316 318 319 317 317 317 316 318 318 320 320 320 320 322 324 325 325 324 324 326 326 325 325 326 325
302 305 310 312 313 314 316 315 315 315 317 318 318 319 321 322 324 325 325 324 323 323 321 321 321 319 320 321 319 318 318 319 319 319 319 319 320 320 319 319 319 318 317 316 315 316 317 319 320 320 321 321 322 324 323 323 323 323 323 323 323 324 323
308 310 311 313 313 313 315 316 317 317 318 318 317 317 319 322 322 323 324 325 323 323 322 322 321 319 320 319 318 318 317 316 316 317 318 320 321 320 318 319 319 320 320 319 319 318 317 319 318 319 320 321 322 322 322 323 323 322 321 321 323 323 323
301 305 308 311 305 307 311 313 316 317 319 319 318 317 317 318 321 323 322 322 324 323 323 322 320 320 320 320 319 318 317 317 317 317 318 319 319 318 319 319 318 318 318 318 317 317 318 319 318 318 318 319 320 321 321 322 322 321 321 322 322 322 322
303 308 313 315 313 312 313 315 316 318 319 319 318 317 317 316 318 321 322 320 319 320 321 323 322 321 321 321 320 318 317 317 316 316 316 313 314 315 318 318 317 317 317 317 318 317 318 318 316 315 315 315 316 317 319 320 321 321 321 320 320 319 320
311 313 314 315 314 311 314 316 317 319 320 319 318 319 320 319 318 317 318 320 320 319 320 322 322 321 322 322 321 320 319 319 317 317 316 314 315 317 318 317 317 317 318 318 317 317 318 317 316 316 314 314 314 314 315 316 318 319 320 319 318 318 318
310 315 316 316 315 315 316 317 318 319 320 319 318 318 318 319 320 320 318 317 318 318 319 321 322 323 323 324 322 320 320 319 319 317 315 314 315 315 315 317 317 318 319 320 320 319 319 318 318 318 316 315 314 314 315 315 315 315 316 317 317 318 318

ECMWFFLT2_sfc_thetae_114.txt.gz
Theta_e
310 309 311 312 312 299 306 306 302 305 312 308 303 304 305 304 302 300 308 311 317 322 324 326 328 330 327 329 333 334 335 337 337 337 336 336 340 344 348 349 344 343 342 345 345 345 343 343 344 346 351 351 353 355 355 358 360 359 359 362 360 361 362
311 312 312 312 312 311 307 301 304 310 312 310 305 297 302 300 296 300 306 307 310 312 308 323 325 324 326 327 332 334 337 335 335 336 336 335 337 343 348 350 353 345 344 344 345 343 345 345 344 347 354 350 355 353 355 355 358 358 358 359 358 359 361
310 313 311 308 310 312 306 306 312 303 298 297 303 301 294 295 295 298 303 305 311 311 313 320 320 322 325 328 328 331 333 334 333 334 336 340 341 343 347 348 348 350 343 343 346 345 348 350 351 349 350 350 350 352 354 354 354 356 356 357 358 359 359
310 309 308 300 303 308 310 312 308 311 306 301 299 301 302 301 296 297 300 305 305 314 317 319 322 323 324 327 328 330 331 334 334 336 338 339 339 341 346 347 349 350 354 346 346 347 349 351 352 351 352 349 348 350 351 352 356 357 356 354 356 355 357
308 301 305 303 304 301 303 304 304 306 305 308 306 305 301 299 298 299 298 299 308 320 330 323 324 325 329 330 329 332 335 336 338 337 338 340 340 341 345 347 349 348 348 349 352 348 353 353 353 353 351 353 354 355 353 355 356 356 354 351 353 355 356
302 304 309 308 308 307 305 304 303 305 303 300 297 296 305 302 298 294 297 299 311 323 333 329 331 331 329 333 332 332 333 338 338 339 336 340 340 341 344 346 346 346 347 348 350 356 352 352 351 352 354 361 361 362 354 355 358 357 354 349 354 356 356
302 306 308 312 311 310 308 307 304 307 306 305 301 294 299 303 302 304 302 299 310 325 329 332 331 330 331 331 332 332 333 333 335 339 340 340 344 343 343 345 346 347 347 347 348 351 352 351 351 355 359 359 359 358 360 361 358 357 353 350 356 356 355
307 309 311 311 311 309 306 307 308 306 303 305 304 302 304 301 303 299 299 297 311 323 328 328 333 333 334 332 333 334 334 337 341 340 340 344 344 345 344 347 349 347 347 349 349 350 350 353 356 360 361 361 361 363 363 361 360 358 353 356 355 358 358
300 303 306 306 309 308 305 305 307 307 307 306 307 307 308 301 302 302 300 295 310 325 329 330 329 330 330 333 335 335 334 338 340 340 343 345 346 347 348 348 349 351 352 353 354 356 358 356 357 358 356 358 357 356 357 358 361 361 362 360 361 359 357
289 290 292 295 298 301 305 307 307 308 306 305 303 299 303 296 304 305 301 306 316 323 326 325 328 327 328 332 334 335 336 338 338 341 342 344 345 343 342 342 343 344 351 354 352 354 357 354 351 353 354 354 355 353 355 358 356 360 361 366 364 354 360
297 298 303 306 308 305 301 304 306 305 307 308 308 306 305 300 304 304 310 309 314 318 323 325 325 330 327 327 328 330 331 336 338 340 342 342 342 342 343 343 344 346 345 344 346 350 357 356 357 357 358 356 354 352 353 356 358 357 355 362 365 361 363
303 304 304 306 306 303 304 303 303 306 306 308 306 303 301 311 304 297 311 315 311 313 318 321 325 326 328 326 328 329 329 332 333 334 338 340 341 343 344 343 343 343 345 345 346 348 354 355 358 360 361 360 355 355 354 356 354 353 358 363 365 364 363
303 305 305 306 305 305 305 305 305 305 307 307 305 305 307 307 303 301 308 313 312 313 317 320 324 327 328 330 331 332 333 334 333 332 333 338 338 338 340 341 341 342 343 344 344 345 349 352 352 353 355 356 358 358 358 356 356 358 364 367 366 365 366
303 304 305 306 304 304 305 305 306 306 306 306 307 307 308 307 307 309 309 312 316 321 319 322 326 329 331 333 335 335 334 333 333 333 331 332 335 336 337 339 339 340 341 344 343 344 347 347 346 345 347 349 350 352 353 353 355 358 362 364 363 364 365
300 304 305 305 305 304 302 304 305 305 306 306 307 308 310 311 310 309 311 311 315 322 328 327 328 332 333 333 331 333 334 334 332 332 331 332 334 335 333 334 337 340 341 342 344 345 346 344 343 342 345 348 350 350 351 352 353 355 355 357 357 358 360
298 302 303 304 304 304 303 303 304 305 305 303 305 307 313 311 309 310 310 309 314 321 327 327 330 330 331 329 330 333 332 334 332 330 330 331 332 334 334 335 336 336 338 338 340 342 344 346 348 347 347 348 347 349 351 351 354 356 357 356 354 354 355
296 301 303 302 302 301 298 300 305 306 308 308 309 312 313 312 313 310 307 312 315 323 325 325 326 327 325 324 325 328 332 332 335 332 332 333 337 335 335 334 335 337 336 335 336 337 338 341 341 345 350 350 350 353 352 353 354 355 355 354 353 353 355
298 301 301 302 298 291 295 306 313 310 307 308 306 309 311 312 315 313 318 318 323 324 324 323 325 324 324 327 329 332 331 331 330 332 333 335 335 335 334 335 335 334 335 336 338 338 339 342 343 344 345 346 346 347 349 351 352 353 353 353 353 352 353
297 301 301 297 292 293 305 311 311 313 312 312 309 313 312 315 315 316 316 318 321 323 326 326 326 327 328 327 326 328 332 333 333 332 331 333 332 332 332 332 333 335 337 339 338 337 339 340 342 341 342 343 343 345 346 345 346 344 343 344 346 348 348
302 299 298 290 292 304 307 310 310 311 311 309 309 308 312 315 315 316 315 318 322 323 325 327 327 327 326 326 327 327 330 333 334 331 330 332 333 332 332 332 332 332 335 336 336 337 341 341 341 341 340 342 342 342 341 340 341 340 342 343 343 343 342
295 299 297 297 304 302 305 306 307 308 306 307 306 302 309 316 315 316 316 317 322 323 323 323 325 326 327 324 324 326 327 329 334 333 330 330 330 331 332 332 332 334 335 333 333 334 336 336 337 337 338 339 339 338 337 338 339 339 339 339 341 343 343
300 297 294 295 295 293 301 310 312 313 312 312 312 308 310 313 315 318 318 319 320 323 322 322 322 323 319 316 317 322 324 327 326 331 330 329 328 326 325 324 323 331 335 334 334 334 334 333 335 337 338 338 337 335 334 334 333 333 335 336 338 339 342
300 298 293 293 291 298 305 309 311 312 313 313 313 306 302 310 315 315 318 319 322 322 322 321 322 316 311 312 314 320 322 321 322 321 323 324 325 325 323 321 319 319 321 323 325 328 328 328 332 336 337 339 335 333 334 332 333 332 334 335 338 338 337
298 297 293 292 301 300 308 312 312 312 314 313 308 295 297 309 315 316 317 319 320 322 323 323 321 316 310 311 314 319 321 319 322 322 319 319 319 319 320 320 319 320 323 321 321 321 322 325 327 328 328 328 331 330 329 330 330 330 332 334 335 336 337
297 297 295 299 302 308 311 311 312 314 314 308 297 292 302 315 317 317 319 321 321 323 321 321 318 320 321 321 322 322 321 319 318 318 319 318 319 318 319 319 324 320 320 320 319 320 323 325 326 328 327 325 325 328 328 327 328 329 332 335 336 337 338
295 297 296 297 302 308 311 314 312 316 309 298 297 308 317 318 317 318 322 321 323 323 320 322 322 322 324 324 325 323 321 320 318 318 318 319 320 319 319 321 320 318 318 319 319 319 321 323 325 325 326 325 326 325 324 324 326 328 330 333 335 334 337
300 300 295 294 289 305 312 313 312 314 306 306 313 315 317 319 318 318 320 323 324 325 321 322 322 322 322 322 322 321 319 318 319 320 321 321 320 319 320 320 319 318 317 318 318 319 320 322 323 324 325 325 324 324 322 325 326 328 327 327 329 330 334
296 295 294 293 303 310 314 313 305 310 313 316 317 317 314 318 321 320 322 322 324 325 324 321 322 322 322 322 321 321 319 318 318 318 318 319 319 318 320 322 322 322 319 319 319 320 321 321 321 321 322 323 324 324 325 327 328 329 330 330 330 328 329
301 299 302 308 312 312 314 315 314 315 317 319 318 319 317 316 319 323 322 321 323 325 325 323 322 321 323 322 321 320 318 317 316 316 316 316 316 316 316 318 321 321 319 319 319 320 322 322 323 324 322 322 323 322 324 329 329 329 329 329 328 326 326
310 311 311 312 312 313 313 315 316 315 316 317 318 317 317 318 320 322 321 324 324 325 327 323 323 322 323 323 323 320 319 317 316 317 316 315 314 314 316 317 317 318 319 319 318 317 320 322 323 325 323 323 323 325 326 326 326 329 329 328 328 329 327
303 298 312 311 310 313 315 314 317 318 318 317 317 318 318 319 319 321 324 325 325 326 326 325 323 323 324 322 322 324 318 317 317 316 315 314 314 315 316 319 320 318 318 318 318 318 319 323 324 324 322 321 324 326 325 322 322 326 326 328 329 328 328
304 304 311 311 312 313 314 315 316 315 317 318 318 319 320 321 322 322 325 326 326 326 326 326 323 322 322 321 320 321 321 318 318 317 317 317 317 319 321 322 322 321 320 319 319 317 318 320 322 322 322 322 324 324 325 325 324 325 326 324 324 324 323
307 310 311 315 313 313 313 314 315 316 316 317 317 318 319 320 321 322 323 323 324 326 325 325 324 322 321 323 322 321 321 322 321 319 319 319 320 321 321 321 321 320 320 319 317 317 317 316 318 320 320 320 322 324 324 324 326 327 326 327 326 325 325
302 303 308 312 305 307 311 314 316 317 318 318 317 318 317 318 319 320 321 322 325 326 326 326 324 322 322 322 322 322 322 322 322 321 320 320 321 321 323 323 323 323 323 322 320 319 317 314 314 315 317 319 319 320 322 325 326 325 324 324 323 322 321
302 309 312 315 315 313 315 315 316 319 318 319 318 318 318 318 319 319 319 320 321 323 325 326 324 323 323 322 323 322 322 323 324 324 323 323 323 324 323 322 323 323 322 322 321 320 319 318 316 316 316 316 317 319 320 321 320 323 323 324 323 321 321
312 314 314 315 313 310 315 318 318 317 318 319 318 319 319 319 318 319 319 319 318 319 322 325 326 326 325 325 323 321 323 324 324 324 325 324 327 327 326 323 321 320 320 320 320 319 318 318 317 317 316 315 317 316 318 318 320 320 318 319 322 322 321
313 317 317 316 315 316 318 318 319 320 319 318 318 318 318 318 319 319 319 319 320 319 319 322 326 325 325 325 324 323 322 322 325 325 325 325 323 322 324 323 321 320 320 321 321 319 319 318 319 318 317 317 317 315 318 318 317 317 318 318 315 315 317

ECMWFFLT2_sfc_thetae_117.txt.gz
Theta_e
306 306 308 307 308 294 301 304 297 300 306 303 299 303 304 301 299 294 310 310 313 319 322 324 327 327 329 332 333 334 333 335 336 335 337 339 341 342 342 345 338 336 338 339 341 341 342 341 342 344 347 350 352 352 354 354 356 358 358 357 357 355 356
306 308 308 307 308 308 304 300 300 307 308 306 303 293 295 294 292 295 308 306 307 309 303 320 322 323 326 329 331 333 333 334 333 334 336 338 339 341 342 344 347 341 338 339 342 342 341 341 342 344 348 350 353 353 355 354 356 355 356 357 356 355 355
307 309 308 304 307 309 302 301 307 299 295 293 299 298 289 289 290 291 301 309 308 310 308 317 318 319 321 325 329 330 331 332 333 334 336 338 339 340 341 344 345 347 338 339 341 340 341 341 343 346 348 351 353 354 356 355 355 356 356 357 357 356 356
306 306 302 296 298 305 307 306 302 305 300 297 295 295 297 296 289 293 298 304 299 316 316 318 319 320 322 326 327 329 332 333 335 336 336 336 337 339 341 344 345 347 343 339 340 340 340 340 342 347 348 351 352 353 355 354 355 356 356 355 356 355 355
306 298 300 297 298 296 297 298 296 299 301 302 301 299 295 293 293 292 294 296 302 313 325 325 322 322 323 326 328 330 332 333 335 336 336 336 336 337 340 344 345 345 345 339 341 340 341 342 345 347 348 349 351 352 353 355 353 354 354 355 355 355 355
298 301 306 306 305 305 300 296 296 297 296 296 291 290 300 297 293 287 292 298 309 322 328 326 325 327 329 328 329 329 331 332 333 335 335 336 336 337 339 344 346 346 345 346 343 344 343 342 346 344 346 348 349 349 352 353 354 354 353 353 355 354 355
298 303 307 309 309 308 306 302 299 302 299 299 294 286 292 297 296 299 297 300 305 322 326 326 327 328 329 330 332 332 333 336 336 338 337 337 338 339 341 344 344 344 345 344 343 346 344 344 345 346 350 348 348 349 350 352 353 352 353 351 354 354 354
303 306 309 309 309 308 304 304 304 301 298 299 298 295 299 296 298 292 293 297 304 321 326 325 327 329 329 332 333 333 334 336 339 339 337 340 340 341 342 343 343 342 344 346 343 342 345 346 348 349 350 352 350 348 350 352 350 351 352 350 352 352 352
296 299 302 304 308 307 303 301 303 303 301 302 302 301 305 297 302 303 299 295 301 319 327 326 327 327 328 331 333 334 333 336 337 336 337 339 340 339 339 341 341 340 341 341 339 340 345 350 352 352 352 354 354 351 353 351 350 350 350 350 351 351 351
287 287 288 290 295 299 302 305 305 305 304 304 300 297 301 290 303 307 304 304 311 319 322 322 322 326 325 328 330 333 334 334 333 333 335 339 342 340 339 339 340 339 340 341 343 347 349 351 351 351 351 352 352 353 354 357 355 355 351 355 350 350 349
293 297 298 303 306 302 298 302 303 304 306 306 305 303 299 294 302 304 308 311 311 314 318 319 320 322 324 326 327 329 330 332 335 334 334 335 337 337 338 338 341 341 341 344 348 348 348 348 349 350 350 350 349 350 354 355 355 353 354 357 355 349 349
300 304 305 305 306 301 302 301 302 304 304 304 303 299 299 306 299 294 307 313 311 312 316 317 319 320 323 327 328 328 330 330 332 335 334 338 339 336 337 337 338 339 340 342 346 347 346 346 347 350 352 350 348 349 351 352 352 352 355 355 357 356 353
301 302 304 304 303 303 303 303 303 302 303 303 301 303 307 307 301 297 308 310 309 313 316 317 321 324 323 326 329 332 332 332 331 330 331 334 336 335 334 335 334 336 338 339 341 347 350 349 347 348 348 348 348 348 348 350 350 352 354 355 351 353 355
299 300 301 303 302 303 303 303 303 303 304 305 305 308 310 309 307 309 312 314 313 315 318 320 323 326 327 328 330 330 331 331 330 328 329 330 333 334 334 333 334 335 335 338 340 342 341 341 344 346 347 349 350 350 348 349 350 352 353 353 352 350 349
297 300 302 302 302 303 301 302 303 305 305 308 309 309 309 311 309 311 312 311 310 318 322 322 326 327 328 327 324 326 329 330 328 327 328 329 329 331 332 334 335 334 335 336 337 338 339 340 340 341 342 345 347 348 346 347 348 350 351 350 351 351 350
295 300 300 301 302 302 302 302 304 304 303 304 307 306 309 308 306 308 309 306 307 315 322 323 323 324 323 321 322 325 327 329 327 327 329 328 329 330 331 332 335 334 334 334 335 337 339 340 341 343 344 345 345 344 344 345 347 349 349 347 346 349 352
294 299 300 299 300 301 297 300 304 305 306 308 310 310 312 312 312 307 304 306 314 317 321 320 321 322 323 323 325 326 326 328 328 328 330 331 330 330 330 331 332 333 333 334 335 337 337 337 338 340 340 340 340 344 345 347 347 347 348 347 346 348 350
293 298 299 300 295 288 293 307 312 308 307 306 307 307 310 312 314 310 313 314 318 318 319 320 319 319 319 321 323 327 328 327 327 329 329 329 330 331 332 333 333 334 334 334 335 336 336 337 340 340 340 339 340 342 342 344 346 346 347 349 349 348 348
293 297 299 293 287 292 306 308 314 316 311 313 310 310 311 312 313 314 314 316 318 318 321 322 321 320 322 323 322 323 327 330 329 329 328 328 329 330 330 331 332 333 335 335 336 337 338 339 340 340 340 341 340 339 340 339 341 341 341 342 342 343 343
299 295 294 285 290 303 308 311 309 311 309 309 311 307 309 311 312 313 313 316 319 320 319 319 323 324 323 322 321 323 326 328 327 327 327 329 330 330 331 330 330 331 332 334 336 337 340 339 340 341 339 339 337 336 338 337 338 339 339 340 341 342 341
291 293 293 295 304 302 305 307 307 307 303 304 303 299 303 310 312 314 314 317 318 319 319 320 323 323 323 317 316 322 325 327 327 325 322 319 319 320 323 329 333 334 335 335 336 337 336 337 336 336 337 336 334 334 334 335 335 336 336 336 337 340 342
297 293 290 292 291 291 298 307 311 313 311 310 312 308 303 310 313 318 316 316 317 318 320 321 322 323 318 311 313 318 321 326 324 324 322 321 318 317 318 319 319 322 325 327 330 333 334 335 336 336 335 334 333 332 332 333 333 333 333 334 335 336 338
296 295 290 288 287 293 303 306 310 311 312 310 309 304 298 307 314 317 317 315 317 317 316 317 319 315 310 309 312 318 317 318 317 316 316 317 317 317 318 318 318 320 323 327 328 329 326 324 325 329 334 333 331 330 331 331 331 330 331 332 333 334 335
295 295 290 289 297 297 306 310 310 310 311 310 304 292 295 308 316 318 318 318 317 317 317 318 316 312 308 309 313 319 319 317 315 315 316 317 316 317 318 318 318 319 321 320 321 323 324 324 328 327 325 326 328 327 328 329 328 329 331 332 333 334 335
295 296 294 297 300 307 310 309 310 312 314 309 294 289 300 313 316 319 319 319 320 319 318 318 312 314 316 316 318 320 320 320 316 316 317 317 317 316 316 317 321 317 317 318 318 319 321 325 326 325 324 323 323 325 325 325 326 327 329 331 331 332 333
293 294 294 294 297 304 308 310 312 312 309 295 293 303 312 316 318 319 320 320 320 320 318 317 317 318 319 321 320 318 319 318 317 318 317 315 315 317 320 322 320 317 317 316 317 318 320 322 324 324 324 323 323 323 323 322 323 325 326 328 329 329 330
298 297 293 289 285 302 312 313 309 310 302 301 308 313 315 319 318 319 319 320 321 320 317 319 318 319 319 319 317 318 317 317 317 317 316 316 316 316 316 317 320 319 317 316 316 316 318 319 321 323 324 323 323 323 322 323 327 328 326 325 326 328 328
292 292 291 289 300 306 313 309 301 308 309 313 315 313 312 318 319 319 318 319 321 321 319 318 318 319 318 317 316 316 316 316 316 315 314 314 315 317 319 319 318 319 317 317 318 318 319 319 320 322 323 322 322 321 320 323 324 327 330 331 327 327 329
298 296 298 305 310 309 311 313 312 312 314 316 316 315 314 315 317 321 318 319 321 321 321 320 319 318 318 317 316 314 314 314 314 313 311 311 313 315 315 316 319 318 316 316 318 318 319 321 322 321 322 321 321 319 320 324 324 324 326 329 328 326 321
307 308 309 311 309 309 310 313 314 313 313 315 316 315 314 316 318 320 319 321 322 322 322 320 319 318 318 317 315 314 314 314 314 315 313 311 313 314 315 315 317 317 317 317 317 319 320 320 321 322 321 320 319 320 322 324 324 325 326 328 326 325 325
298 293 309 308 308 311 313 313 315 315 315 315 316 316 316 317 319 321 323 323 324 324 322 321 320 319 320 320 320 316 313 313 312 312 311 311 311 313 314 316 318 317 316 316 316 318 317 319 319 320 320 320 319 320 321 323 324 325 326 326 328 325 323
301 303 309 309 311 313 314 313 312 312 313 315 316 318 319 320 321 321 321 324 323 323 320 321 321 320 321 319 318 317 313 313 313 312 311 311 314 316 317 318 320 318 316 314 314 315 315 314 317 318 318 319 320 318 319 321 321 323 326 326 322 320 322
306 309 311 311 312 312 312 313 312 314 315 315 316 317 316 318 319 319 320 322 322 323 321 322 320 319 320 320 318 318 315 315 315 314 314 315 316 317 317 319 320 316 316 315 314 315 314 314 315 315 315 316 319 320 321 321 322 322 324 327 324 318 319
300 300 305 310 302 302 308 312 315 314 316 318 316 317 315 317 318 319 319 320 323 323 323 322 320 319 319 320 319 319 319 317 316 316 316 317 317 317 319 319 319 319 319 315 315 314 311 312 313 313 314 314 316 319 319 319 320 321 322 324 322 319 318
299 309 311 312 311 311 312 312 315 318 317 317 317 315 316 316 317 318 319 319 320 321 323 325 322 320 319 318 320 319 319 319 318 317 317 317 317 317 319 318 319 319 319 320 318 315 313 313 312 313 313 314 314 316 318 319 319 317 316 320 321 320 319
310 313 313 314 312 309 313 315 316 315 318 318 316 317 317 317 317 317 317 318 318 319 321 322 323 322 321 320 320 319 321 321 320 319 319 319 319 320 320 320 318 317 317 318 317 316 315 315 314 313 312 312 314 315 316 317 317 316 316 315 314 318 321
309 315 315 317 316 315 316 317 317 315 316 318 317 315 315 315 314 317 318 317 318 318 320 321 323 324 322 321 321 320 319 320 322 322 322 322 323 319 319 318 318 317 318 317 316 315 315 314 314 315 313 314 314 315 314 316 316 315 315 316 314 316 318

ECMWFFLT2_sfc_thetae_120.txt.gz
Theta_e
302 303 306 306 304 292 296 299 297 299 303 302 296 301 302 297 291 289 305 307 310 314 317 321 326 326 327 329 329 330 332 334 335 334 335 336 337 339 340 339 334 335 336 336 337 337 339 339 344 348 349 351 352 353 353 354 355 354 354 356 354 354 354
306 307 304 305 304 303 299 294 294 301 304 302 296 290 291 289 286 288 305 302 305 303 301 317 323 323 325 327 328 329 331 333 333 334 335 336 338 341 342 343 339 335 337 337 338 339 340 340 345 347 349 352 353 354 354 354 356 354 354 355 354 354 353
305 308 304 300 305 305 300 297 306 297 292 292 293 294 288 286 286 288 299 304 305 307 306 318 317 320 323 326 329 329 329 332 333 333 335 336 338 340 341 342 343 340 336 338 339 339 341 341 346 348 350 351 353 354 355 355 356 356 355 356 355 355 354
303 302 301 292 298 306 307 304 299 301 296 293 293 293 291 290 286 292 296 300 297 310 313 319 320 320 323 326 328 329 330 331 333 333 334 335 337 338 339 340 341 343 339 337 339 340 340 341 345 348 349 351 351 353 355 355 356 357 356 355 356 354 354
300 293 298 297 298 296 299 298 297 296 297 298 297 297 294 290 287 289 293 293 296 307 319 321 321 323 322 326 327 329 330 331 333 333 334 335 336 337 338 339 340 342 342 339 340 340 341 341 346 348 349 350 351 352 353 354 354 355 355 355 355 354 354
293 295 302 303 303 303 300 297 298 296 294 291 288 286 295 296 291 288 292 290 299 315 327 323 322 324 327 329 327 328 331 332 332 333 333 334 335 336 337 339 342 339 339 339 341 344 345 342 344 346 348 350 350 351 353 354 354 354 355 354 354 353 354
295 299 303 306 307 307 304 300 299 301 296 294 292 285 287 294 295 299 298 298 299 316 324 325 324 326 329 330 331 330 332 332 333 335 335 335 336 338 337 340 340 341 340 339 339 342 343 345 344 345 348 349 350 351 352 353 353 353 355 354 355 354 353
302 304 305 306 308 306 302 303 304 302 298 299 294 291 291 293 299 293 299 298 301 314 324 324 325 327 329 330 331 331 332 334 334 333 332 333 334 337 342 342 341 339 340 341 341 341 340 341 343 345 347 349 350 351 352 352 353 353 354 354 354 354 352
295 298 301 300 305 304 301 300 302 303 303 303 302 297 299 295 301 300 299 296 301 312 323 322 323 324 327 327 330 331 330 331 331 333 336 335 335 337 339 339 338 338 339 339 339 340 339 340 342 343 346 348 349 350 352 351 352 354 354 354 353 353 352
285 285 287 289 294 297 301 304 303 306 306 302 301 295 295 292 300 303 298 299 305 314 319 319 321 322 323 326 327 330 330 331 331 331 333 335 336 335 337 337 336 336 337 337 338 339 340 340 343 344 345 347 349 350 351 352 352 353 353 352 353 353 352
289 293 296 301 304 301 297 300 302 307 309 309 305 302 296 295 301 301 301 305 306 310 314 316 319 322 323 325 327 327 327 328 331 332 333 335 334 333 332 334 336 336 336 336 337 339 341 346 347 347 346 346 347 348 349 352 352 352 352 350 352 352 351
296 298 301 304 306 301 300 300 303 307 307 308 306 301 298 302 300 295 303 309 308 308 313 315 318 320 322 324 326 328 328 328 328 329 330 334 333 334 335 334 333 333 335 338 338 340 344 345 345 345 343 345 346 347 347 348 346 348 351 350 350 350 350
298 299 298 303 303 302 302 302 304 306 307 308 305 305 307 305 297 297 306 310 308 311 314 317 319 322 321 322 325 329 330 329 329 327 328 331 331 332 332 332 332 332 333 335 338 340 340 342 341 342 343 342 343 343 343 343 344 346 346 346 346 348 346
297 298 299 301 300 303 302 302 305 307 307 307 308 308 310 309 306 308 310 311 310 313 315 318 320 322 322 323 326 327 327 327 328 328 328 328 329 330 330 331 332 333 333 335 337 338 339 339 341 342 342 341 342 343 344 345 346 346 347 346 345 342 343
294 298 301 300 300 302 303 303 306 308 308 308 308 308 308 309 307 309 309 308 307 314 319 321 322 322 322 323 323 325 327 327 328 327 327 327 328 330 330 331 333 332 333 335 336 337 337 338 340 341 341 340 341 341 342 343 343 345 345 345 346 344 342
291 296 298 299 302 304 302 301 303 306 306 304 306 306 309 306 304 306 309 307 308 314 319 320 319 319 319 319 322 324 326 327 327 326 327 327 328 329 330 331 332 332 333 333 334 334 335 337 338 339 340 341 341 340 341 342 343 345 344 343 343 345 345
288 295 299 298 300 300 298 298 303 306 307 308 308 308 311 311 311 307 304 305 314 316 320 317 317 317 318 318 321 323 326 327 327 327 327 328 329 329 330 331 331 332 332 333 333 334 335 336 337 339 340 340 340 342 343 344 345 344 345 345 344 344 345
288 295 297 299 294 289 292 305 307 309 306 305 303 303 306 310 313 308 312 314 318 319 319 316 315 315 316 318 321 324 323 326 326 326 327 327 328 329 329 331 331 332 333 334 335 336 336 337 338 339 340 339 339 341 342 343 344 344 344 344 344 344 345
288 293 295 291 287 289 305 309 309 312 310 309 306 307 309 311 315 316 316 317 318 319 319 318 317 317 318 319 320 322 323 322 324 324 325 326 327 327 328 328 330 332 333 335 335 336 337 337 337 336 337 338 338 339 340 340 340 340 341 341 341 342 343
290 289 288 283 285 299 307 309 311 312 312 310 308 306 308 313 315 315 314 316 318 320 320 320 319 318 318 318 318 319 322 321 320 320 319 320 321 321 323 323 325 329 332 333 333 334 337 335 334 335 334 336 336 336 337 337 338 339 340 340 340 341 340
289 288 287 290 298 299 301 304 307 306 302 303 304 299 304 311 315 314 313 314 315 316 318 318 318 319 317 314 314 318 319 320 319 320 318 317 317 319 320 322 323 325 327 330 334 334 333 333 333 333 334 334 333 333 333 333 334 335 335 336 337 340 341
291 287 286 288 287 286 295 306 311 313 312 310 311 306 303 312 316 317 314 313 314 315 316 316 317 317 312 309 310 315 316 317 316 316 316 316 317 318 319 321 323 324 325 325 326 326 328 332 334 334 333 332 331 330 331 331 331 332 332 333 334 336 338
289 289 284 284 283 288 297 303 309 312 313 311 311 303 297 307 315 317 316 313 313 313 315 316 316 309 306 307 309 312 315 314 316 314 315 315 316 316 317 318 319 322 324 325 326 325 325 325 327 330 331 331 330 329 329 329 330 329 330 331 333 334 335
291 288 284 287 291 292 300 305 308 310 311 310 302 290 292 304 314 318 318 315 312 313 313 314 310 308 306 307 310 314 315 314 315 315 314 314 314 315 316 317 319 320 322 322 322 322 322 323 326 327 327 326 327 325 325 326 325 326 327 329 330 332 332
293 296 291 292 295 302 306 305 308 309 313 305 292 287 296 308 314 318 319 318 317 315 313 312 308 311 312 313 313 316 317 314 313 313 313 314 315 314 315 317 321 317 319 320 320 320 321 323 325 326 326 325 324 325 323 322 323 324 327 329 329 331 330
290 290 289 289 293 299 304 307 309 311 305 292 291 301 307 312 315 317 319 318 318 317 315 314 313 312 314 317 315 315 315 314 313 314 314 314 316 318 321 321 318 315 316 317 318 319 320 323 324 324 323 322 322 322 323 324 326 325 326 327 328 328 328
292 290 288 286 283 297 310 309 306 307 298 299 305 311 314 317 316 316 317 317 317 317 315 315 314 314 314 314 314 314 314 314 313 312 313 313 314 315 315 316 320 317 315 315 316 317 319 321 322 323 322 321 321 320 320 321 325 329 330 327 326 328 328
288 287 286 286 293 299 309 304 298 305 306 307 312 313 311 316 315 314 314 316 316 317 315 315 315 314 313 313 313 313 313 312 312 311 312 313 314 314 315 317 318 320 315 316 317 318 319 320 320 320 320 320 321 320 318 321 324 327 327 326 324 324 328
293 290 292 300 303 306 308 309 308 309 311 313 312 312 312 312 314 315 314 315 316 318 317 316 315 313 313 313 313 312 311 310 309 309 310 311 312 312 313 315 319 316 315 316 317 318 318 319 319 319 318 319 320 319 319 325 323 323 325 326 325 323 323
303 303 304 306 305 307 308 310 310 312 312 314 314 314 312 313 314 316 316 317 318 317 318 316 314 314 313 312 311 311 311 310 310 311 309 310 311 311 312 313 317 315 316 317 317 317 317 318 318 321 318 317 318 317 320 322 322 323 326 326 326 324 324
294 292 304 305 306 307 308 309 310 312 313 313 313 313 313 315 317 318 319 319 319 319 318 317 315 314 314 311 311 311 310 310 309 308 308 309 309 309 310 314 316 314 315 316 316 316 315 315 316 318 317 318 317 318 319 320 321 322 326 324 324 322 320
293 297 303 306 308 308 309 308 308 309 311 313 314 314 315 316 317 318 320 320 319 319 318 317 316 315 315 312 310 310 310 310 309 308 308 307 309 311 311 314 316 312 312 312 313 313 313 312 314 315 315 315 316 316 317 319 319 322 326 324 317 316 319
302 305 305 306 307 307 308 309 309 310 310 311 313 315 316 316 316 317 319 320 319 318 317 317 318 316 315 313 311 310 309 309 309 308 308 308 311 312 312 315 316 311 312 313 312 311 310 310 311 312 312 313 315 315 316 316 316 319 324 325 321 315 317
296 298 302 304 299 298 304 308 309 311 312 312 312 312 314 315 315 315 317 318 319 319 318 318 318 316 315 315 312 310 310 309 309 308 308 310 312 313 314 317 315 314 314 312 311 311 309 308 309 311 310 311 312 315 315 315 315 316 320 322 317 315 317
296 301 306 305 304 305 306 308 310 312 313 312 311 310 311 314 316 316 316 315 315 317 317 318 319 317 317 316 315 313 311 311 311 310 310 311 312 313 314 314 314 313 313 314 312 311 308 310 310 312 311 309 309 312 314 315 314 313 313 317 317 316 319
304 308 309 309 308 306 308 309 311 312 313 312 312 311 311 312 313 314 314 314 315 315 317 318 318 318 316 316 316 314 314 314 312 311 312 313 313 314 314 315 315 315 315 315 312 312 309 310 310 310 310 309 309 312 313 313 313 312 313 314 312 314 316
305 309 309 310 310 310 311 311 312 314 314 313 310 309 309 308 310 313 311 312 314 316 315 316 318 317 317 315 316 316 315 315 315 314 315 317 316 316 315 315 315 316 316 315 313 312 311 311 309 310 308 309 310 312 311 313 312 312 312 313 312 312 314

ECMWFFLT2_sfc_thetae_123.txt.gz
Theta_e
302 302 302 302 301 292 295 298 295 299 303 300 297 301 301 294 289 293 300 304 306 313 316 321 325 326 325 327 328 329 328 329 331 330 331 331 334 337 337 331 330 329 329 332 336 337 338 340 342 343 345 347 347 348 347 347 348 349 350 352 351 352 352
303 304 302 303 304 301 295 294 293 301 306 302 297 291 290 286 286 286 302 300 301 302 303 320 323 322 324 324 326 328 329 330 330 330 331 331 333 336 339 337 333 331 330 331 334 337 338 339 341 344 346 347 348 349 349 348 349 348 350 351 352 351 352
301 304 304 303 305 305 303 298 301 296 294 295 295 293 286 286 285 285 296 301 301 302 306 316 318 319 320 323 325 326 328 329 330 331 331 332 333 335 338 340 336 332 331 332 333 335 338 339 342 344 347 348 349 349 350 350 349 350 351 352 352 352 352
301 298 300 292 297 305 303 302 299 300 297 294 295 294 294 291 286 289 290 297 296 307 311 318 318 320 322 323 324 325 328 330 331 331 332 331 331 333 335 339 340 335 333 333 333 334 336 337 341 345 347 348 349 350 351 350 351 351 351 351 353 351 352
298 293 296 295 297 296 298 298 296 298 296 297 298 297 294 292 285 285 289 292 296 307 320 320 320 323 325 325 325 325 327 330 332 333 332 332 332 332 334 337 340 341 336 334 334 335 337 338 342 345 347 348 349 350 350 351 351 351 351 352 353 352 353
292 293 297 301 301 301 299 296 296 295 293 290 287 290 295 295 291 286 289 288 299 315 324 322 323 325 326 326 328 327 329 330 331 333 333 333 333 333 334 337 340 342 342 337 336 337 338 337 341 344 347 348 349 350 351 351 352 352 352 352 353 353 353
296 297 302 304 304 305 302 301 299 301 295 292 288 284 288 291 294 301 294 295 303 317 321 322 323 325 326 326 326 326 327 328 331 332 334 336 335 335 336 337 339 341 341 338 337 338 337 338 340 343 345 347 348 349 351 351 352 353 353 353 354 353 353
302 304 305 304 306 305 302 303 303 304 303 302 293 289 288 292 298 293 295 296 303 316 321 323 324 325 326 327 327 326 326 328 330 331 332 332 333 335 337 338 339 339 340 338 337 338 337 338 341 343 345 347 348 349 350 351 351 353 354 354 354 353 352
294 296 300 300 303 304 298 298 302 306 308 307 300 297 296 294 299 300 294 294 302 314 321 323 323 325 325 325 327 327 326 328 329 329 331 333 334 335 334 334 335 336 336 335 335 337 337 337 340 343 345 346 347 348 350 351 351 353 354 354 353 353 352
283 284 284 288 292 298 301 302 304 308 308 306 300 298 294 289 299 301 299 301 307 314 319 320 321 323 324 326 327 328 328 327 328 328 331 332 331 331 332 333 334 334 335 337 337 339 340 341 340 340 341 345 348 349 349 350 351 352 353 354 353 352 351
287 292 296 300 305 299 299 302 304 306 309 310 304 297 295 295 300 303 304 306 308 311 315 317 318 320 321 323 326 325 325 326 327 329 331 331 330 331 332 332 332 334 334 335 338 340 341 342 342 342 342 343 342 341 342 343 343 344 347 349 352 352 351
293 297 300 303 305 302 299 303 304 307 307 309 307 301 297 299 296 297 307 309 307 309 314 316 317 319 321 323 325 326 325 325 326 329 330 332 331 331 331 330 331 331 333 336 337 340 340 341 342 342 342 343 343 343 342 345 345 345 346 346 345 346 348
295 297 300 304 302 302 302 304 305 305 307 308 306 305 306 302 298 300 308 309 308 311 315 317 318 319 320 323 324 327 328 328 329 328 328 328 329 329 330 330 331 331 333 334 336 338 340 341 341 341 341 342 343 343 345 346 346 346 347 347 345 344 344
294 295 299 304 304 304 304 304 304 305 306 306 306 306 309 309 307 308 308 309 310 313 315 317 318 321 323 324 327 327 327 327 327 327 327 328 328 329 330 331 331 332 334 335 335 337 338 339 340 340 340 341 342 343 344 345 345 345 347 346 343 342 343
292 295 300 303 304 303 302 305 307 305 307 307 307 306 307 307 305 308 307 306 307 315 319 318 320 322 325 326 325 325 326 327 327 327 327 328 328 328 330 331 331 332 333 334 335 335 337 338 339 340 339 341 342 343 344 344 344 345 346 344 343 342 341
288 293 298 301 303 303 302 302 302 302 303 302 303 303 307 304 301 303 304 301 303 312 319 318 319 320 320 320 323 324 325 326 327 326 326 327 328 329 329 331 332 332 332 333 333 335 336 338 339 339 339 340 341 341 342 343 343 345 345 344 343 342 342
287 291 298 300 298 298 296 297 302 303 305 306 308 308 311 310 308 303 299 302 309 316 319 315 316 318 318 318 319 321 325 326 326 325 326 327 328 328 329 330 331 331 332 333 333 334 336 336 338 339 340 339 339 340 340 341 343 342 342 343 343 342 342
286 290 295 297 292 287 289 303 307 307 305 307 305 304 307 312 310 305 307 311 318 318 316 315 314 315 315 317 319 322 322 324 324 324 325 325 326 326 328 330 331 333 333 334 335 335 335 336 337 339 340 340 341 342 343 342 342 341 341 341 341 342 343
286 289 292 290 284 287 300 308 311 310 311 311 308 308 309 311 314 314 312 314 315 317 317 317 316 316 316 317 317 318 319 321 321 321 321 322 323 323 324 325 327 330 332 333 333 333 334 335 336 336 336 339 340 340 340 340 341 340 340 340 340 340 341
287 286 285 283 284 296 306 308 309 311 312 310 308 305 308 309 311 313 313 313 316 316 316 317 317 316 316 315 316 317 319 318 317 317 317 319 321 321 322 323 324 326 329 330 331 331 333 333 333 334 334 336 336 336 337 338 339 339 338 339 340 339 339
286 286 285 288 295 296 300 303 305 305 302 304 302 298 303 309 310 311 313 316 318 318 315 315 315 316 315 311 312 316 317 317 316 317 317 319 319 321 322 323 323 324 325 326 329 331 331 331 330 331 332 333 333 334 333 333 334 334 336 336 337 340 340
289 287 284 287 286 285 291 299 307 312 310 310 310 306 301 309 310 314 312 313 316 316 313 313 314 313 308 303 308 314 316 316 315 315 315 316 317 319 321 322 323 323 324 324 326 326 327 328 330 331 331 330 330 329 330 331 331 331 331 332 334 336 338
286 284 282 281 281 285 292 299 305 309 312 311 310 301 297 305 309 314 314 312 311 312 311 312 314 307 302 301 307 313 315 315 316 313 314 315 316 317 318 319 319 321 323 324 325 325 324 325 327 329 328 328 327 326 327 327 328 328 329 330 331 332 334
289 283 282 285 287 290 298 301 304 307 309 309 302 289 291 302 309 314 316 314 312 312 309 311 310 308 302 302 307 314 317 315 313 313 313 313 314 315 316 318 319 320 322 321 321 321 322 323 326 326 326 326 326 324 325 326 325 326 327 328 331 332 333
293 295 288 288 292 299 303 304 306 306 309 302 290 286 295 307 311 315 316 317 316 313 313 312 310 309 309 309 311 315 317 313 312 313 315 314 314 314 315 317 322 317 317 318 318 319 320 321 323 324 324 323 322 324 323 323 324 326 328 329 328 328 328
289 286 286 287 289 295 301 303 307 308 302 290 288 297 306 310 312 315 316 315 316 316 316 314 311 311 314 315 313 313 313 312 312 313 313 314 315 316 320 321 319 315 316 317 318 318 319 319 321 321 322 322 321 321 321 322 325 327 326 326 327 327 327
289 285 285 284 283 297 305 306 303 305 296 295 298 307 313 316 315 315 314 313 314 315 313 313 312 311 311 312 312 312 311 311 311 312 312 312 312 313 314 315 319 317 315 315 316 316 318 318 318 319 321 321 320 319 318 320 323 326 325 324 325 326 326
287 284 284 284 290 294 304 302 296 299 303 305 308 311 310 314 314 313 312 311 312 312 312 311 309 309 310 310 310 310 310 310 310 310 310 310 311 312 314 316 316 318 314 315 315 316 316 317 317 317 318 320 320 318 316 320 323 325 325 323 323 325 327
291 289 288 295 298 302 306 303 304 306 310 311 311 312 310 311 312 313 314 312 313 313 312 310 309 308 309 309 310 309 308 308 308 309 309 309 309 310 311 313 317 315 314 313 314 314 315 315 316 315 315 316 318 315 316 321 322 323 324 325 324 323 322
300 300 300 304 305 306 307 308 308 310 310 313 313 313 310 310 311 313 314 315 316 315 313 312 310 309 309 308 308 309 308 307 308 309 308 307 308 310 311 312 314 312 313 314 313 313 313 314 315 317 315 315 315 314 317 319 320 323 322 322 323 322 322
291 291 300 303 305 306 307 308 309 310 311 311 311 311 310 312 314 314 315 317 316 316 315 313 311 309 309 308 308 309 307 307 306 306 306 306 307 308 310 313 313 311 312 312 312 312 312 311 312 314 313 315 315 315 317 316 319 323 323 320 320 319 319
291 292 299 302 305 305 307 308 309 309 310 311 312 312 313 314 315 316 316 317 316 316 314 313 312 310 308 308 307 307 307 307 306 305 305 305 307 308 310 312 311 309 309 308 309 310 310 309 309 311 312 312 313 314 315 316 317 322 323 322 317 316 318
299 302 303 303 304 306 306 307 307 309 310 312 312 313 314 315 316 317 318 318 317 317 315 314 313 311 310 309 308 307 306 306 306 305 305 304 306 308 310 312 312 307 310 310 310 311 309 307 308 309 309 310 312 313 314 314 315 321 322 323 320 317 318
294 297 300 302 298 296 302 305 307 308 309 313 312 311 313 314 314 314 316 316 316 316 316 316 315 313 312 309 308 307 307 307 306 305 305 306 307 309 310 313 310 311 313 310 310 310 308 306 307 310 308 309 309 312 313 313 314 319 321 320 317 317 319
295 301 304 306 303 303 305 307 308 308 310 312 311 311 311 312 312 314 314 313 314 314 315 315 316 314 313 311 309 307 307 308 308 306 304 306 308 308 310 310 309 310 309 313 310 310 307 309 309 310 310 308 307 310 311 311 312 312 315 317 317 315 320
302 304 306 305 303 304 305 307 308 309 310 312 310 310 310 312 312 312 312 312 313 312 314 314 315 315 313 312 310 309 308 308 308 308 306 307 308 310 311 310 310 310 311 312 310 310 307 308 307 306 307 306 305 308 309 310 310 310 311 314 313 313 315
302 306 307 306 305 307 309 308 309 310 311 312 310 309 310 311 310 310 311 310 311 313 312 313 315 314 314 312 312 310 310 310 311 310 310 312 311 311 310 311 311 312 312 312 309 308 306 307 307 309 307 306 306 308 308 309 310 310 310 311 310 310 313

ECMWFFLT2_sfc_thetae_126.txt.gz
Theta_e
300 300 300 302 299 290 295 298 295 298 307 304 299 302 300 295 289 294 302 302 303 309 313 320 325 325 326 328 327 327 325 325 327 328 330 332 334 335 330 326 326 327 330 333 335 337 338 340 341 341 342 344 345 344 344 344 345 346 347 349 350 350 350
301 302 301 302 304 299 292 290 294 299 304 303 299 292 292 286 285 285 299 298 298 301 299 319 322 323 324 326 327 327 327 326 325 327 330 332 333 336 332 328 327 327 330 333 335 337 339 340 341 342 343 345 346 346 345 344 345 345 346 349 349 350 350
299 301 302 300 304 304 299 296 300 294 292 295 297 293 289 287 285 284 292 299 300 306 308 316 318 320 322 324 327 326 326 327 326 327 329 331 333 336 334 330 328 327 328 332 334 336 339 341 343 343 344 345 346 346 347 346 345 346 347 349 350 351 352
298 298 299 292 296 303 302 301 300 300 295 296 292 293 295 292 285 288 285 295 296 310 312 317 318 322 322 324 325 325 326 328 329 329 330 332 332 335 336 333 331 330 329 330 334 336 337 339 341 343 344 345 346 347 347 347 348 348 348 349 351 350 351
298 293 295 294 295 294 298 300 298 299 296 297 297 295 293 292 287 286 286 289 299 312 318 319 319 323 323 324 324 325 327 328 329 331 330 331 332 332 336 339 336 333 331 330 332 335 338 340 342 343 344 345 346 347 348 349 347 348 348 349 350 350 351
291 293 297 298 299 298 299 296 297 296 294 290 287 285 293 293 289 284 288 287 299 315 321 321 322 324 324 325 325 325 326 328 329 330 332 333 333 335 335 337 340 340 336 335 334 334 337 340 339 341 344 345 346 347 348 349 349 348 349 349 350 351 351
293 296 298 302 302 301 299 300 299 300 294 293 287 282 286 291 294 298 291 295 303 317 321 323 324 325 325 324 324 324 325 326 328 330 332 332 334 335 336 337 338 337 335 335 336 336 337 337 338 341 345 345 346 347 348 349 349 349 350 350 351 352 351
297 301 302 303 302 302 299 299 302 305 303 304 299 288 289 290 295 294 294 297 305 316 321 323 325 327 326 326 325 325 325 325 327 328 330 331 333 334 335 335 336 336 337 337 337 337 337 337 338 341 343 346 348 349 349 349 349 350 350 351 352 352 352
287 291 296 296 298 301 297 297 301 307 308 308 306 301 294 294 299 299 295 293 303 316 322 323 323 325 325 325 325 325 324 325 327 330 331 332 332 333 334 334 335 336 336 336 337 338 338 338 339 340 342 345 346 347 348 349 350 353 354 354 353 352 352
281 280 280 285 289 295 297 301 305 307 307 307 304 294 294 290 302 302 300 300 309 317 320 320 321 323 323 325 325 326 326 325 327 329 330 330 331 331 332 333 333 334 335 337 337 338 339 342 340 341 343 345 346 345 346 348 348 350 352 355 354 353 353
283 286 291 297 302 296 296 300 303 304 306 308 303 297 297 295 302 303 305 307 308 311 314 316 319 320 321 322 324 324 324 326 328 329 330 330 330 330 331 332 332 334 334 335 337 338 339 340 341 341 342 343 346 345 346 348 349 350 350 352 353 353 353
289 293 296 299 304 299 298 301 301 304 304 306 306 302 298 301 299 297 307 310 308 310 313 315 317 319 321 323 324 325 326 326 327 328 329 331 330 330 330 330 331 332 334 335 336 336 337 339 340 341 342 343 344 344 344 346 347 348 349 350 350 353 352
292 295 298 302 302 302 302 303 302 303 304 304 304 304 306 302 298 299 308 311 309 311 314 316 318 320 321 323 325 326 328 328 328 328 328 328 329 330 330 330 331 332 333 334 336 338 339 340 339 340 341 342 343 344 345 346 346 346 347 346 347 348 347
291 293 297 301 302 304 304 304 303 303 303 304 304 305 308 307 305 308 310 310 309 314 315 318 319 321 324 325 327 327 326 326 327 327 328 328 328 329 329 330 331 332 333 334 335 337 338 339 340 340 340 340 341 342 344 345 345 346 347 346 346 345 345
290 294 300 300 301 303 301 303 304 303 303 304 305 306 307 308 306 307 307 308 308 316 319 319 321 322 323 323 324 324 325 326 326 326 326 327 328 329 330 331 332 333 333 334 335 335 337 338 339 340 340 341 342 343 344 345 345 346 346 346 346 346 345
289 294 298 301 302 302 300 300 301 302 302 302 304 302 306 303 303 304 304 301 306 314 319 320 320 320 319 318 319 322 324 325 324 324 324 324 325 325 328 330 332 332 333 333 333 334 335 336 340 340 340 341 342 342 344 344 345 346 346 346 346 346 346
285 291 298 299 297 296 295 295 300 302 303 305 307 308 312 311 308 302 298 302 312 316 319 316 317 317 316 316 317 318 322 323 323 322 322 323 323 324 325 327 329 330 331 331 331 332 334 334 335 337 340 341 341 342 343 345 346 345 344 345 345 344 343
286 290 296 294 288 285 287 299 306 306 304 305 305 305 308 311 312 307 309 312 315 316 315 315 314 313 313 315 317 317 317 320 321 321 321 322 323 323 324 326 327 329 330 330 330 331 332 333 334 336 338 339 342 343 344 345 344 343 343 342 342 342 342
287 290 294 289 284 284 296 305 309 311 310 309 307 308 309 309 312 314 314 314 315 315 317 316 315 314 315 316 314 314 316 317 318 318 319 320 322 322 323 323 325 326 327 328 329 329 330 332 333 333 334 337 340 341 341 340 341 342 342 341 340 341 341
287 286 285 283 281 293 301 304 308 311 311 308 304 304 308 309 310 313 312 314 317 317 316 316 316 315 315 313 314 314 316 316 316 317 317 318 320 320 321 323 323 323 324 325 326 328 330 330 330 331 331 334 336 336 337 338 339 339 339 338 339 339 339
285 284 282 287 293 295 298 300 303 304 301 302 300 297 302 309 311 311 312 315 317 317 316 316 317 318 315 312 312 314 315 316 315 316 316 317 318 319 321 321 322 323 324 324 325 326 326 326 327 328 330 331 331 332 333 334 335 336 337 337 338 339 339
287 285 284 286 284 283 292 298 303 309 308 307 308 305 301 309 311 313 312 313 316 316 316 317 317 315 311 307 309 313 315 315 315 316 317 317 318 318 318 320 321 322 323 323 323 323 323 324 325 327 328 328 328 328 329 330 331 332 333 334 336 337 337
286 285 282 282 282 285 293 299 302 305 310 309 306 299 295 305 310 314 314 312 314 316 316 316 316 311 305 305 309 314 315 314 315 315 315 316 316 317 318 318 318 319 320 322 322 321 321 321 323 325 326 327 326 325 326 326 327 326 327 329 332 334 336
289 283 283 285 285 290 298 298 302 305 308 307 299 288 289 300 310 314 314 312 311 312 314 316 314 310 304 304 309 316 316 314 314 314 314 314 315 317 318 319 319 319 320 319 318 318 318 319 322 324 324 323 325 324 324 325 324 324 326 327 329 332 335
292 292 284 286 289 297 302 302 303 305 307 302 290 285 293 305 312 315 316 315 314 313 313 315 312 313 313 312 312 317 316 315 314 315 315 314 315 317 319 320 321 317 317 317 316 317 317 319 321 322 322 321 321 323 323 322 323 324 326 328 329 330 331
288 283 287 286 287 293 300 302 304 306 301 290 288 295 302 309 313 314 316 316 316 316 314 313 312 313 314 315 313 314 314 314 313 313 313 314 315 316 320 323 320 316 316 316 316 316 317 317 319 321 321 320 320 320 320 321 323 326 326 327 328 328 328
288 282 284 282 282 296 303 304 302 304 296 294 295 302 311 313 314 314 314 315 315 316 313 315 313 312 312 312 312 313 313 313 311 311 311 312 313 313 315 316 319 318 315 314 314 315 315 316 316 317 320 319 319 318 317 319 323 326 326 325 326 326 325
284 284 284 284 289 297 303 302 296 298 302 304 304 309 309 311 312 313 312 314 313 313 312 311 310 310 310 311 312 312 311 311 310 310 310 311 311 313 315 317 318 318 314 314 314 314 314 315 315 315 316 317 318 317 315 320 323 325 325 325 324 323 323
289 287 288 291 295 298 301 302 300 301 307 308 308 309 310 311 311 311 313 312 313 312 311 310 310 309 310 311 311 311 310 309 309 309 310 310 310 311 313 315 318 315 314 313 313 313 313 314 315 315 315 315 318 315 316 321 323 322 324 326 325 323 320
297 298 297 301 303 305 306 306 306 307 310 311 311 312 311 309 310 313 314 313 313 312 312 310 309 310 310 309 308 308 308 308 309 311 308 309 310 312 313 314 316 314 313 313 313 313 312 313 314 316 314 314 315 314 317 320 322 323 323 324 324 324 324
293 292 301 301 304 304 306 308 309 309 310 310 309 310 310 312 313 314 316 315 315 314 312 312 311 309 309 308 308 308 307 308 307 307 307 308 309 310 312 315 316 312 313 313 314 314 313 311 312 314 313 314 315 316 318 317 321 323 324 322 323 322 322
292 293 296 299 302 303 305 305 308 310 310 311 311 311 312 314 314 316 315 316 315 315 312 312 312 310 309 309 307 307 306 307 306 306 307 307 309 310 310 313 313 309 308 310 312 313 312 310 310 312 312 312 313 314 315 316 318 323 325 323 319 319 321
297 300 300 302 303 304 305 305 306 306 309 312 312 313 315 316 316 316 316 315 316 315 314 312 312 311 310 310 309 308 306 306 306 306 306 306 308 310 312 313 315 309 313 310 307 312 312 309 308 310 310 311 312 313 314 315 317 323 325 325 322 320 320
294 296 299 301 299 297 302 305 306 307 309 312 311 312 314 315 315 314 315 315 316 315 315 314 313 311 311 309 309 309 308 307 307 306 306 307 307 310 310 315 311 314 315 309 308 314 313 308 306 310 308 310 311 312 313 314 315 319 322 322 320 320 322
294 299 302 307 304 302 304 308 307 308 309 312 313 312 313 311 313 314 315 313 313 314 315 315 314 312 312 310 309 308 308 308 307 307 306 307 308 310 311 313 312 312 312 317 315 315 313 313 310 311 312 310 309 311 312 313 314 315 317 321 319 319 323
299 301 304 305 302 303 304 307 307 308 309 312 312 310 311 312 313 313 314 314 314 312 314 315 315 314 313 311 310 309 309 309 308 308 307 307 309 311 312 312 312 313 314 315 315 315 310 312 310 309 310 309 309 311 311 312 313 313 314 317 316 317 319
303 303 305 307 303 305 306 307 308 309 311 313 312 311 312 312 311 312 313 310 312 315 314 314 314 314 313 311 310 310 309 309 311 310 311 311 311 311 312 312 312 314 314 314 312 311 309 310 311 313 310 310 309 310 310 312 313 315 314 315 314 314 317

ECMWFFLT2_sfc_thetae_129.txt.gz
Theta_e
306 306 307 308 306 297 304 306 303 305 310 308 305 304 302 301 298 296 313 310 315 319 320 325 328 329 329 331 333 332 330 331 333 333 335 336 338 338 337 334 333 335 337 340 342 343 343 344 346 346 348 349 350 351 352 353 354 355 355 357 357 358 360
308 307 306 307 308 307 304 302 303 307 311 311 307 298 302 297 293 296 306 302 307 307 304 324 324 324 326 328 330 332 333 331 331 333 335 336 337 340 340 336 335 335 336 339 341 343 344 345 345 346 349 350 351 352 352 352 353 353 354 355 355 357 359
306 308 308 307 312 311 306 303 306 301 299 300 304 302 294 292 292 296 300 305 307 309 310 318 318 320 323 326 329 330 331 333 331 332 334 336 339 341 339 338 336 333 335 338 341 343 345 348 349 348 349 350 350 351 351 351 352 352 352 353 354 357 358
304 307 308 300 305 311 310 310 310 309 304 304 300 302 303 298 294 293 296 303 303 312 313 317 318 322 323 325 326 327 329 332 333 334 333 334 336 340 339 339 338 335 336 339 341 343 346 348 348 349 350 349 349 350 351 351 354 355 354 353 355 355 356
304 300 305 302 304 304 307 308 307 308 305 304 303 303 301 297 293 294 294 294 306 314 319 319 320 323 324 324 325 327 328 329 332 334 335 336 337 338 339 339 340 338 338 337 341 345 348 349 350 350 350 350 351 352 351 353 354 354 354 353 354 356 356
301 302 306 305 304 305 308 307 304 307 305 298 295 295 300 299 297 291 294 293 309 316 322 323 324 326 325 326 326 327 328 328 329 333 334 337 337 338 341 342 341 341 343 339 340 343 345 347 347 348 350 352 353 354 353 354 355 354 354 353 355 357 357
301 303 305 307 307 307 310 311 307 310 308 306 301 291 295 298 299 302 302 297 306 319 324 325 326 327 327 327 326 324 326 326 328 331 334 336 338 337 342 343 343 342 343 342 343 342 343 346 347 349 351 352 352 353 354 355 354 354 353 353 356 358 357
303 306 307 308 307 306 306 311 313 312 308 310 307 304 301 298 300 298 298 297 307 319 325 326 327 328 329 329 326 324 325 327 330 332 333 336 337 338 342 342 341 341 342 344 345 346 346 347 347 349 351 353 354 355 355 355 355 355 355 355 356 358 358
298 300 304 303 306 307 306 308 312 313 313 313 312 310 307 302 303 303 297 293 306 317 323 325 326 327 327 326 326 326 324 328 330 331 333 335 336 337 338 339 339 339 339 340 341 344 346 345 349 351 352 353 355 355 355 355 355 357 357 358 357 357 358
288 287 290 294 297 302 306 309 310 313 313 310 306 302 303 297 305 306 302 304 311 318 320 321 323 325 326 327 327 328 328 328 328 330 332 333 334 335 336 338 338 338 338 338 339 341 345 348 349 350 352 354 355 357 357 358 357 358 358 358 358 356 357
294 297 300 303 306 303 302 307 310 310 313 310 310 307 303 298 305 305 308 309 310 313 316 318 320 323 323 324 326 326 327 328 330 331 331 331 332 333 334 334 336 338 338 338 338 340 343 347 350 351 353 354 355 357 357 359 359 359 360 359 359 357 356
301 300 301 302 306 304 305 305 307 311 312 314 312 308 305 310 306 301 310 312 310 311 315 318 319 321 323 325 326 326 327 328 328 329 331 333 333 333 334 334 334 335 336 338 340 341 340 342 344 346 349 354 355 356 356 358 359 359 359 358 358 354 356
300 300 300 303 304 307 308 308 308 309 311 310 309 309 310 310 306 303 308 311 311 313 315 317 319 320 322 324 325 326 328 329 329 329 329 329 330 332 332 333 334 334 335 336 338 340 342 343 344 345 346 347 350 353 356 359 360 359 360 358 358 357 358
300 302 302 305 305 308 308 308 308 309 311 310 311 311 312 311 307 307 307 307 310 314 315 318 320 322 323 324 327 327 325 326 327 327 326 327 328 330 331 332 333 334 335 336 337 339 340 341 341 343 344 345 348 349 352 355 357 359 360 359 358 359 358
300 303 304 306 306 306 306 308 309 309 310 310 311 311 310 311 308 307 304 306 310 317 321 320 322 322 322 322 321 323 324 326 325 324 324 325 326 328 329 330 331 331 332 332 333 334 335 336 338 341 343 344 345 347 350 352 352 355 356 356 357 357 356
297 302 304 304 305 305 305 305 306 307 307 307 309 309 310 307 305 305 303 301 307 316 321 321 320 319 318 317 318 320 323 324 323 322 323 323 324 325 327 328 328 329 329 329 330 331 332 333 334 336 338 341 344 344 347 348 351 353 353 353 353 354 355
295 301 304 302 303 302 298 301 306 308 310 312 312 314 314 313 309 303 300 302 312 317 321 318 317 317 315 315 316 317 320 322 322 322 322 323 323 324 325 325 326 326 327 328 328 329 330 330 332 334 336 339 342 345 346 348 351 351 351 352 352 352 354
296 300 302 302 299 292 294 308 309 310 310 311 310 310 312 313 312 309 313 313 317 318 319 318 316 314 313 315 317 318 318 320 321 322 322 323 324 325 325 325 324 325 326 327 328 329 329 331 332 334 335 337 341 345 347 348 348 348 348 348 349 350 352
296 301 301 297 291 293 306 311 313 313 313 313 312 313 314 315 317 315 314 315 317 318 319 318 318 316 315 317 317 318 318 320 321 321 321 322 323 323 323 323 323 324 326 327 327 327 328 329 330 331 332 335 337 337 340 341 343 343 345 346 346 347 347
300 299 297 288 292 303 307 309 312 315 313 311 309 307 313 317 317 317 316 317 317 318 318 318 318 318 317 318 317 318 318 318 318 319 319 321 323 322 323 323 323 323 324 324 325 326 328 328 328 330 330 332 333 334 334 335 338 340 342 342 343 344 344
294 297 297 296 303 302 306 306 310 311 308 308 306 302 308 316 318 318 317 317 318 319 319 318 319 319 319 318 318 317 317 318 319 319 319 320 321 323 324 324 323 324 324 324 325 326 326 327 327 328 329 330 330 330 330 331 332 333 335 338 340 340 340
300 297 295 296 295 292 300 309 312 314 312 312 313 308 305 316 318 320 319 318 318 319 318 317 318 319 316 313 315 316 317 318 318 320 321 322 322 323 323 324 324 325 325 325 325 325 325 326 327 327 328 329 328 328 328 329 330 330 331 332 336 339 339
299 298 294 294 291 295 304 309 309 312 314 314 314 306 300 311 318 320 321 318 319 319 317 317 318 315 310 311 316 318 317 318 319 319 320 322 323 323 323 323 322 323 324 325 324 325 325 325 326 327 327 327 326 326 327 328 329 329 329 330 332 334 335
300 299 294 292 299 299 305 308 309 311 316 314 308 296 296 309 318 320 321 320 319 319 319 319 318 314 310 312 317 318 318 318 320 320 320 322 322 323 324 324 324 324 324 322 321 321 322 324 326 327 325 324 325 325 326 327 327 327 328 330 332 333 334
299 297 297 298 299 307 309 309 310 313 315 310 299 293 304 316 320 321 321 321 322 322 320 320 314 319 322 320 319 318 319 319 321 321 322 322 323 324 324 323 325 323 322 320 319 319 321 323 325 326 326 325 325 325 325 325 326 327 329 331 331 331 331
297 299 295 295 300 306 312 312 312 315 308 298 298 309 314 322 322 323 323 321 323 322 321 321 320 322 320 319 317 317 318 319 320 322 322 322 323 324 325 326 324 322 320 319 319 319 320 321 323 325 326 326 326 326 324 324 326 328 329 330 331 330 330
299 299 296 293 288 302 312 312 310 311 305 305 313 317 320 321 323 321 321 322 321 322 320 322 321 319 317 316 316 318 318 319 319 321 323 323 323 323 323 322 322 321 319 317 316 317 318 320 321 323 325 325 325 326 325 326 327 329 328 327 328 327 328
296 296 294 292 301 310 314 314 306 311 311 317 319 322 319 322 323 322 320 320 320 321 320 319 319 318 317 317 318 319 318 318 319 320 322 323 324 324 323 323 322 320 319 318 316 316 318 320 320 321 324 324 324 325 325 330 330 331 330 329 328 326 325
302 299 303 308 310 312 313 313 313 315 316 319 322 324 322 322 322 324 322 319 319 320 321 320 318 316 317 317 318 318 318 318 318 318 320 321 321 322 323 323 324 323 321 320 317 317 318 319 321 321 322 322 323 324 327 331 332 332 332 331 328 326 325
308 309 310 311 312 313 314 314 316 317 319 319 321 322 320 323 325 325 322 321 320 321 322 318 317 317 318 317 318 318 318 318 318 320 321 321 322 321 321 322 323 323 323 321 319 316 318 318 319 321 320 320 321 323 326 329 331 332 332 331 329 328 326
303 297 311 311 313 313 315 316 317 320 322 322 323 323 324 324 325 324 323 322 321 320 320 320 318 318 318 317 318 319 319 318 319 318 319 320 320 320 319 322 322 320 319 318 319 319 318 319 319 318 319 318 321 323 325 325 329 332 330 328 327 326 325
305 306 311 311 312 314 315 317 318 318 321 322 324 326 327 327 327 325 323 322 320 321 320 321 319 318 319 318 318 318 319 319 319 319 318 318 318 320 322 322 322 321 319 318 318 318 318 319 320 320 319 318 319 322 323 325 330 331 330 327 325 326 325
307 308 310 311 314 314 315 316 318 321 323 324 324 325 325 325 324 323 323 323 321 321 321 322 321 319 318 320 320 319 319 319 319 319 318 319 321 322 322 323 323 322 321 320 320 319 318 319 319 319 319 319 320 321 323 325 329 330 330 330 329 327 326
302 304 308 312 306 306 312 316 318 319 323 326 325 325 325 325 324 323 322 322 323 323 322 321 320 319 319 320 320 319 319 320 320 319 319 320 321 322 323 325 323 324 324 324 322 320 318 318 318 318 319 320 321 320 322 324 326 326 328 330 329 328 327
302 312 316 317 321 319 317 317 319 321 324 326 325 325 325 326 326 326 325 322 322 322 322 323 321 321 320 319 320 319 318 319 321 320 320 320 320 321 323 324 324 324 324 325 325 322 320 320 319 319 319 319 321 321 322 323 324 326 326 325 325 326 328
313 314 317 319 316 311 315 320 320 322 325 326 325 327 327 327 327 327 327 326 325 324 323 323 325 324 323 322 320 319 320 320 319 318 319 321 321 322 324 324 325 325 325 325 325 324 323 321 320 321 319 319 321 320 321 321 323 325 325 324 323 324 324
310 318 318 320 319 317 318 320 321 323 325 326 325 325 326 327 326 328 327 328 329 326 325 325 325 326 325 323 322 322 321 320 320 320 320 320 319 320 322 324 324 325 325 325 325 326 326 325 324 322 321 320 321 320 322 321 322 323 323 323 322 322 323